<?xml version="1.0" encoding="UTF-8" standalone="no" ?>
<gpx xmlns="http://www.topografix.com/GPX/1/1" xmlns:xsi="http://www.w3.org/2001/XMLSchema-instance" xsi:schemaLocation="http://www.topografix.com/GPX/1/1 http://www.topografix.com/GPX/1/1/gpx.xsd" version="1.1" creator="VisuGPX - https://www.visugpx.com">
  <metadata>
    <name>Rando vtt La Chavanel Colombiers 2016</name>
    <desc><![CDATA[belle rando malgré la boue.
passages techniques dans les bois très intéressants.]]></desc>
  </metadata>
  <trk>
    <name><![CDATA[Rando vtt La Chavanel Colombiers 2016]]></name>
    <trkseg>
      <trkpt lat="46.77182" lon="0.4227">
        <ele>132</ele>
        <time>2016-11-20T07:52:56.271Z</time>
      </trkpt>
      <trkpt lat="46.77196" lon="0.42261">
        <ele>168</ele>
        <time>2016-11-20T07:52:58.266Z</time>
      </trkpt>
      <trkpt lat="46.77183" lon="0.42239">
        <ele>162</ele>
        <time>2016-11-20T07:53:03.000Z</time>
      </trkpt>
      <trkpt lat="46.77177" lon="0.4222">
        <ele>160</ele>
        <time>2016-11-20T07:53:06.000Z</time>
      </trkpt>
      <trkpt lat="46.77169" lon="0.42206">
        <ele>159</ele>
        <time>2016-11-20T07:53:08.000Z</time>
      </trkpt>
      <trkpt lat="46.77163" lon="0.42195">
        <ele>157</ele>
        <time>2016-11-20T07:53:10.000Z</time>
      </trkpt>
      <trkpt lat="46.77155" lon="0.42178">
        <ele>153</ele>
        <time>2016-11-20T07:53:12.000Z</time>
      </trkpt>
      <trkpt lat="46.77148" lon="0.42169">
        <ele>154</ele>
        <time>2016-11-20T07:53:14.000Z</time>
      </trkpt>
      <trkpt lat="46.77142" lon="0.42157">
        <ele>153</ele>
        <time>2016-11-20T07:53:16.000Z</time>
      </trkpt>
      <trkpt lat="46.77131" lon="0.42143">
        <ele>153</ele>
        <time>2016-11-20T07:53:19.000Z</time>
      </trkpt>
      <trkpt lat="46.77123" lon="0.42132">
        <ele>152</ele>
        <time>2016-11-20T07:53:21.000Z</time>
      </trkpt>
      <trkpt lat="46.77116" lon="0.42123">
        <ele>150</ele>
        <time>2016-11-20T07:53:23.000Z</time>
      </trkpt>
      <trkpt lat="46.77107" lon="0.42119">
        <ele>148</ele>
        <time>2016-11-20T07:53:25.000Z</time>
      </trkpt>
      <trkpt lat="46.77098" lon="0.42106">
        <ele>148</ele>
        <time>2016-11-20T07:53:27.000Z</time>
      </trkpt>
      <trkpt lat="46.77091" lon="0.42098">
        <ele>146</ele>
        <time>2016-11-20T07:53:29.000Z</time>
      </trkpt>
      <trkpt lat="46.77081" lon="0.42089">
        <ele>143</ele>
        <time>2016-11-20T07:53:31.000Z</time>
      </trkpt>
      <trkpt lat="46.77071" lon="0.42079">
        <ele>144</ele>
        <time>2016-11-20T07:53:34.000Z</time>
      </trkpt>
      <trkpt lat="46.77065" lon="0.42063">
        <ele>143</ele>
        <time>2016-11-20T07:53:36.000Z</time>
      </trkpt>
      <trkpt lat="46.77057" lon="0.42052">
        <ele>142</ele>
        <time>2016-11-20T07:53:38.000Z</time>
      </trkpt>
      <trkpt lat="46.77049" lon="0.42041">
        <ele>142</ele>
        <time>2016-11-20T07:53:40.000Z</time>
      </trkpt>
      <trkpt lat="46.77042" lon="0.42029">
        <ele>142</ele>
        <time>2016-11-20T07:53:42.000Z</time>
      </trkpt>
      <trkpt lat="46.77032" lon="0.42019">
        <ele>142</ele>
        <time>2016-11-20T07:53:45.000Z</time>
      </trkpt>
      <trkpt lat="46.77024" lon="0.4201">
        <ele>142</ele>
        <time>2016-11-20T07:53:47.000Z</time>
      </trkpt>
      <trkpt lat="46.77016" lon="0.41999">
        <ele>143</ele>
        <time>2016-11-20T07:53:49.000Z</time>
      </trkpt>
      <trkpt lat="46.77008" lon="0.41988">
        <ele>142</ele>
        <time>2016-11-20T07:53:51.000Z</time>
      </trkpt>
      <trkpt lat="46.76997" lon="0.41982">
        <ele>143</ele>
        <time>2016-11-20T07:53:54.000Z</time>
      </trkpt>
      <trkpt lat="46.76989" lon="0.4197">
        <ele>145</ele>
        <time>2016-11-20T07:53:57.000Z</time>
      </trkpt>
      <trkpt lat="46.76978" lon="0.41964">
        <ele>145</ele>
        <time>2016-11-20T07:54:00.000Z</time>
      </trkpt>
      <trkpt lat="46.76971" lon="0.41956">
        <ele>147</ele>
        <time>2016-11-20T07:54:02.000Z</time>
      </trkpt>
      <trkpt lat="46.76965" lon="0.41942">
        <ele>146</ele>
        <time>2016-11-20T07:54:04.000Z</time>
      </trkpt>
      <trkpt lat="46.76953" lon="0.41926">
        <ele>147</ele>
        <time>2016-11-20T07:54:07.000Z</time>
      </trkpt>
      <trkpt lat="46.76944" lon="0.41918">
        <ele>149</ele>
        <time>2016-11-20T07:54:10.000Z</time>
      </trkpt>
      <trkpt lat="46.76937" lon="0.41907">
        <ele>149</ele>
        <time>2016-11-20T07:54:12.000Z</time>
      </trkpt>
      <trkpt lat="46.76927" lon="0.41897">
        <ele>147</ele>
        <time>2016-11-20T07:54:14.000Z</time>
      </trkpt>
      <trkpt lat="46.76918" lon="0.41892">
        <ele>145</ele>
        <time>2016-11-20T07:54:16.000Z</time>
      </trkpt>
      <trkpt lat="46.76907" lon="0.4188">
        <ele>144</ele>
        <time>2016-11-20T07:54:19.000Z</time>
      </trkpt>
      <trkpt lat="46.76895" lon="0.4187">
        <ele>145</ele>
        <time>2016-11-20T07:54:22.000Z</time>
      </trkpt>
      <trkpt lat="46.76884" lon="0.41859">
        <ele>146</ele>
        <time>2016-11-20T07:54:25.000Z</time>
      </trkpt>
      <trkpt lat="46.76875" lon="0.41845">
        <ele>145</ele>
        <time>2016-11-20T07:54:28.000Z</time>
      </trkpt>
      <trkpt lat="46.76865" lon="0.41838">
        <ele>147</ele>
        <time>2016-11-20T07:54:31.000Z</time>
      </trkpt>
      <trkpt lat="46.76855" lon="0.41829">
        <ele>147</ele>
        <time>2016-11-20T07:54:34.000Z</time>
      </trkpt>
      <trkpt lat="46.76848" lon="0.41818">
        <ele>150</ele>
        <time>2016-11-20T07:54:37.000Z</time>
      </trkpt>
      <trkpt lat="46.76837" lon="0.41823">
        <ele>152</ele>
        <time>2016-11-20T07:54:41.000Z</time>
      </trkpt>
      <trkpt lat="46.76844" lon="0.41835">
        <ele>157</ele>
        <time>2016-11-20T07:54:46.000Z</time>
      </trkpt>
      <trkpt lat="46.76851" lon="0.41851">
        <ele>158</ele>
        <time>2016-11-20T07:54:49.000Z</time>
      </trkpt>
      <trkpt lat="46.76853" lon="0.41867">
        <ele>158</ele>
        <time>2016-11-20T07:54:52.000Z</time>
      </trkpt>
      <trkpt lat="46.76855" lon="0.41884">
        <ele>158</ele>
        <time>2016-11-20T07:54:55.000Z</time>
      </trkpt>
      <trkpt lat="46.76858" lon="0.41901">
        <ele>157</ele>
        <time>2016-11-20T07:54:58.000Z</time>
      </trkpt>
      <trkpt lat="46.76858" lon="0.41919">
        <ele>156</ele>
        <time>2016-11-20T07:55:01.000Z</time>
      </trkpt>
      <trkpt lat="46.76857" lon="0.41936">
        <ele>156</ele>
        <time>2016-11-20T07:55:04.000Z</time>
      </trkpt>
      <trkpt lat="46.76856" lon="0.41949">
        <ele>157</ele>
        <time>2016-11-20T07:55:07.000Z</time>
      </trkpt>
      <trkpt lat="46.76854" lon="0.41962">
        <ele>158</ele>
        <time>2016-11-20T07:55:10.000Z</time>
      </trkpt>
      <trkpt lat="46.7685" lon="0.41979">
        <ele>155</ele>
        <time>2016-11-20T07:55:13.000Z</time>
      </trkpt>
      <trkpt lat="46.76841" lon="0.41988">
        <ele>162</ele>
        <time>2016-11-20T07:55:19.000Z</time>
      </trkpt>
      <trkpt lat="46.76834" lon="0.41979">
        <ele>165</ele>
        <time>2016-11-20T07:55:23.000Z</time>
      </trkpt>
      <trkpt lat="46.76827" lon="0.41966">
        <ele>166</ele>
        <time>2016-11-20T07:55:27.000Z</time>
      </trkpt>
      <trkpt lat="46.76819" lon="0.41958">
        <ele>166</ele>
        <time>2016-11-20T07:55:30.000Z</time>
      </trkpt>
      <trkpt lat="46.76809" lon="0.41961">
        <ele>165</ele>
        <time>2016-11-20T07:55:34.000Z</time>
      </trkpt>
      <trkpt lat="46.76801" lon="0.4197">
        <ele>167</ele>
        <time>2016-11-20T07:55:38.000Z</time>
      </trkpt>
      <trkpt lat="46.76791" lon="0.41967">
        <ele>170</ele>
        <time>2016-11-20T07:55:42.000Z</time>
      </trkpt>
      <trkpt lat="46.76785" lon="0.41955">
        <ele>171</ele>
        <time>2016-11-20T07:55:45.000Z</time>
      </trkpt>
      <trkpt lat="46.76777" lon="0.41939">
        <ele>172</ele>
        <time>2016-11-20T07:55:48.000Z</time>
      </trkpt>
      <trkpt lat="46.7677" lon="0.41926">
        <ele>172</ele>
        <time>2016-11-20T07:55:51.000Z</time>
      </trkpt>
      <trkpt lat="46.76763" lon="0.41914">
        <ele>172</ele>
        <time>2016-11-20T07:55:54.000Z</time>
      </trkpt>
      <trkpt lat="46.76757" lon="0.41904">
        <ele>171</ele>
        <time>2016-11-20T07:55:56.000Z</time>
      </trkpt>
      <trkpt lat="46.76751" lon="0.41893">
        <ele>171</ele>
        <time>2016-11-20T07:55:58.000Z</time>
      </trkpt>
      <trkpt lat="46.76743" lon="0.41882">
        <ele>170</ele>
        <time>2016-11-20T07:56:00.000Z</time>
      </trkpt>
      <trkpt lat="46.76735" lon="0.41871">
        <ele>171</ele>
        <time>2016-11-20T07:56:02.000Z</time>
      </trkpt>
      <trkpt lat="46.76727" lon="0.41855">
        <ele>170</ele>
        <time>2016-11-20T07:56:04.000Z</time>
      </trkpt>
      <trkpt lat="46.76719" lon="0.41838">
        <ele>169</ele>
        <time>2016-11-20T07:56:06.000Z</time>
      </trkpt>
      <trkpt lat="46.7671" lon="0.41821">
        <ele>168</ele>
        <time>2016-11-20T07:56:08.000Z</time>
      </trkpt>
      <trkpt lat="46.76703" lon="0.41808">
        <ele>167</ele>
        <time>2016-11-20T07:56:10.000Z</time>
      </trkpt>
      <trkpt lat="46.76693" lon="0.41801">
        <ele>166</ele>
        <time>2016-11-20T07:56:12.000Z</time>
      </trkpt>
      <trkpt lat="46.76683" lon="0.41805">
        <ele>166</ele>
        <time>2016-11-20T07:56:14.000Z</time>
      </trkpt>
      <trkpt lat="46.76674" lon="0.41807">
        <ele>165</ele>
        <time>2016-11-20T07:56:16.000Z</time>
      </trkpt>
      <trkpt lat="46.76665" lon="0.41804">
        <ele>166</ele>
        <time>2016-11-20T07:56:18.000Z</time>
      </trkpt>
      <trkpt lat="46.76653" lon="0.41798">
        <ele>166</ele>
        <time>2016-11-20T07:56:21.000Z</time>
      </trkpt>
      <trkpt lat="46.76644" lon="0.4179">
        <ele>163</ele>
        <time>2016-11-20T07:56:23.000Z</time>
      </trkpt>
      <trkpt lat="46.76633" lon="0.41789">
        <ele>163</ele>
        <time>2016-11-20T07:56:25.000Z</time>
      </trkpt>
      <trkpt lat="46.7662" lon="0.41793">
        <ele>162</ele>
        <time>2016-11-20T07:56:28.000Z</time>
      </trkpt>
      <trkpt lat="46.76609" lon="0.41797">
        <ele>163</ele>
        <time>2016-11-20T07:56:31.000Z</time>
      </trkpt>
      <trkpt lat="46.76597" lon="0.41797">
        <ele>166</ele>
        <time>2016-11-20T07:56:34.000Z</time>
      </trkpt>
      <trkpt lat="46.76584" lon="0.41799">
        <ele>167</ele>
        <time>2016-11-20T07:56:37.000Z</time>
      </trkpt>
      <trkpt lat="46.76573" lon="0.41801">
        <ele>165</ele>
        <time>2016-11-20T07:56:39.000Z</time>
      </trkpt>
      <trkpt lat="46.76564" lon="0.41805">
        <ele>164</ele>
        <time>2016-11-20T07:56:41.000Z</time>
      </trkpt>
      <trkpt lat="46.76554" lon="0.4181">
        <ele>163</ele>
        <time>2016-11-20T07:56:43.000Z</time>
      </trkpt>
      <trkpt lat="46.76543" lon="0.41809">
        <ele>165</ele>
        <time>2016-11-20T07:56:46.000Z</time>
      </trkpt>
      <trkpt lat="46.76534" lon="0.41803">
        <ele>167</ele>
        <time>2016-11-20T07:56:49.000Z</time>
      </trkpt>
      <trkpt lat="46.76524" lon="0.41798">
        <ele>169</ele>
        <time>2016-11-20T07:56:52.000Z</time>
      </trkpt>
      <trkpt lat="46.76516" lon="0.41792">
        <ele>169</ele>
        <time>2016-11-20T07:56:54.000Z</time>
      </trkpt>
      <trkpt lat="46.76506" lon="0.41793">
        <ele>169</ele>
        <time>2016-11-20T07:56:57.000Z</time>
      </trkpt>
      <trkpt lat="46.76494" lon="0.41797">
        <ele>167</ele>
        <time>2016-11-20T07:57:00.000Z</time>
      </trkpt>
      <trkpt lat="46.76482" lon="0.41797">
        <ele>167</ele>
        <time>2016-11-20T07:57:04.000Z</time>
      </trkpt>
      <trkpt lat="46.76472" lon="0.418">
        <ele>167</ele>
        <time>2016-11-20T07:57:08.000Z</time>
      </trkpt>
      <trkpt lat="46.76463" lon="0.41807">
        <ele>172</ele>
        <time>2016-11-20T07:57:15.000Z</time>
      </trkpt>
      <trkpt lat="46.76453" lon="0.41809">
        <ele>173</ele>
        <time>2016-11-20T07:57:21.000Z</time>
      </trkpt>
      <trkpt lat="46.76444" lon="0.4181">
        <ele>177</ele>
        <time>2016-11-20T07:57:32.000Z</time>
      </trkpt>
      <trkpt lat="46.76436" lon="0.41818">
        <ele>177</ele>
        <time>2016-11-20T07:57:36.000Z</time>
      </trkpt>
      <trkpt lat="46.76425" lon="0.41824">
        <ele>178</ele>
        <time>2016-11-20T07:57:40.000Z</time>
      </trkpt>
      <trkpt lat="46.76417" lon="0.41814">
        <ele>188</ele>
        <time>2016-11-20T07:57:56.000Z</time>
      </trkpt>
      <trkpt lat="46.76408" lon="0.41817">
        <ele>186</ele>
        <time>2016-11-20T07:58:03.000Z</time>
      </trkpt>
      <trkpt lat="46.76397" lon="0.41815">
        <ele>194</ele>
        <time>2016-11-20T07:58:21.000Z</time>
      </trkpt>
      <trkpt lat="46.76385" lon="0.41824">
        <ele>196</ele>
        <time>2016-11-20T07:58:23.000Z</time>
      </trkpt>
      <trkpt lat="46.76376" lon="0.4183">
        <ele>197</ele>
        <time>2016-11-20T07:58:25.000Z</time>
      </trkpt>
      <trkpt lat="46.7637" lon="0.4184">
        <ele>201</ele>
        <time>2016-11-20T07:58:32.000Z</time>
      </trkpt>
      <trkpt lat="46.76371" lon="0.41853">
        <ele>203</ele>
        <time>2016-11-20T07:58:38.000Z</time>
      </trkpt>
      <trkpt lat="46.76377" lon="0.41865">
        <ele>207</ele>
        <time>2016-11-20T07:58:43.000Z</time>
      </trkpt>
      <trkpt lat="46.76377" lon="0.41881">
        <ele>203</ele>
        <time>2016-11-20T07:58:46.000Z</time>
      </trkpt>
      <trkpt lat="46.76386" lon="0.41892">
        <ele>199</ele>
        <time>2016-11-20T07:58:49.000Z</time>
      </trkpt>
      <trkpt lat="46.76393" lon="0.41901">
        <ele>198</ele>
        <time>2016-11-20T07:58:51.000Z</time>
      </trkpt>
      <trkpt lat="46.76403" lon="0.41912">
        <ele>197</ele>
        <time>2016-11-20T07:58:54.000Z</time>
      </trkpt>
      <trkpt lat="46.76415" lon="0.41924">
        <ele>193</ele>
        <time>2016-11-20T07:58:57.000Z</time>
      </trkpt>
      <trkpt lat="46.76422" lon="0.41932">
        <ele>193</ele>
        <time>2016-11-20T07:58:59.000Z</time>
      </trkpt>
      <trkpt lat="46.76432" lon="0.41942">
        <ele>188</ele>
        <time>2016-11-20T07:59:02.000Z</time>
      </trkpt>
      <trkpt lat="46.76439" lon="0.41952">
        <ele>193</ele>
        <time>2016-11-20T07:59:06.000Z</time>
      </trkpt>
      <trkpt lat="46.76448" lon="0.41956">
        <ele>197</ele>
        <time>2016-11-20T07:59:09.000Z</time>
      </trkpt>
      <trkpt lat="46.76458" lon="0.41959">
        <ele>197</ele>
        <time>2016-11-20T07:59:12.000Z</time>
      </trkpt>
      <trkpt lat="46.7647" lon="0.4197">
        <ele>191</ele>
        <time>2016-11-20T07:59:14.000Z</time>
      </trkpt>
      <trkpt lat="46.76481" lon="0.41981">
        <ele>192</ele>
        <time>2016-11-20T07:59:17.000Z</time>
      </trkpt>
      <trkpt lat="46.7649" lon="0.41989">
        <ele>192</ele>
        <time>2016-11-20T07:59:20.000Z</time>
      </trkpt>
      <trkpt lat="46.765" lon="0.41992">
        <ele>195</ele>
        <time>2016-11-20T07:59:22.000Z</time>
      </trkpt>
      <trkpt lat="46.7651" lon="0.41997">
        <ele>195</ele>
        <time>2016-11-20T07:59:24.000Z</time>
      </trkpt>
      <trkpt lat="46.7652" lon="0.42">
        <ele>198</ele>
        <time>2016-11-20T07:59:27.000Z</time>
      </trkpt>
      <trkpt lat="46.76534" lon="0.42007">
        <ele>196</ele>
        <time>2016-11-20T07:59:30.000Z</time>
      </trkpt>
      <trkpt lat="46.76546" lon="0.42013">
        <ele>196</ele>
        <time>2016-11-20T07:59:33.000Z</time>
      </trkpt>
      <trkpt lat="46.76557" lon="0.4202">
        <ele>196</ele>
        <time>2016-11-20T07:59:35.000Z</time>
      </trkpt>
      <trkpt lat="46.76568" lon="0.42029">
        <ele>195</ele>
        <time>2016-11-20T07:59:37.000Z</time>
      </trkpt>
      <trkpt lat="46.76577" lon="0.42036">
        <ele>195</ele>
        <time>2016-11-20T07:59:39.000Z</time>
      </trkpt>
      <trkpt lat="46.76586" lon="0.42048">
        <ele>196</ele>
        <time>2016-11-20T07:59:42.000Z</time>
      </trkpt>
      <trkpt lat="46.76592" lon="0.42057">
        <ele>195</ele>
        <time>2016-11-20T07:59:44.000Z</time>
      </trkpt>
      <trkpt lat="46.76599" lon="0.42066">
        <ele>199</ele>
        <time>2016-11-20T07:59:47.000Z</time>
      </trkpt>
      <trkpt lat="46.76608" lon="0.42078">
        <ele>195</ele>
        <time>2016-11-20T07:59:49.000Z</time>
      </trkpt>
      <trkpt lat="46.76614" lon="0.4209">
        <ele>193</ele>
        <time>2016-11-20T07:59:52.000Z</time>
      </trkpt>
      <trkpt lat="46.76621" lon="0.42102">
        <ele>195</ele>
        <time>2016-11-20T07:59:55.000Z</time>
      </trkpt>
      <trkpt lat="46.76627" lon="0.42112">
        <ele>196</ele>
        <time>2016-11-20T07:59:57.000Z</time>
      </trkpt>
      <trkpt lat="46.76636" lon="0.42123">
        <ele>197</ele>
        <time>2016-11-20T08:00:00.000Z</time>
      </trkpt>
      <trkpt lat="46.76646" lon="0.42135">
        <ele>195</ele>
        <time>2016-11-20T08:00:03.000Z</time>
      </trkpt>
      <trkpt lat="46.76654" lon="0.42143">
        <ele>194</ele>
        <time>2016-11-20T08:00:06.000Z</time>
      </trkpt>
      <trkpt lat="46.76664" lon="0.4215">
        <ele>195</ele>
        <time>2016-11-20T08:00:09.000Z</time>
      </trkpt>
      <trkpt lat="46.76671" lon="0.42164">
        <ele>195</ele>
        <time>2016-11-20T08:00:12.000Z</time>
      </trkpt>
      <trkpt lat="46.7668" lon="0.42173">
        <ele>200</ele>
        <time>2016-11-20T08:00:16.000Z</time>
      </trkpt>
      <trkpt lat="46.7669" lon="0.42173">
        <ele>197</ele>
        <time>2016-11-20T08:00:19.000Z</time>
      </trkpt>
      <trkpt lat="46.767" lon="0.42169">
        <ele>200</ele>
        <time>2016-11-20T08:00:22.000Z</time>
      </trkpt>
      <trkpt lat="46.76709" lon="0.42159">
        <ele>204</ele>
        <time>2016-11-20T08:00:25.000Z</time>
      </trkpt>
      <trkpt lat="46.76722" lon="0.42163">
        <ele>204</ele>
        <time>2016-11-20T08:00:30.000Z</time>
      </trkpt>
      <trkpt lat="46.7673" lon="0.42169">
        <ele>203</ele>
        <time>2016-11-20T08:00:35.000Z</time>
      </trkpt>
      <trkpt lat="46.76741" lon="0.42169">
        <ele>208</ele>
        <time>2016-11-20T08:00:43.000Z</time>
      </trkpt>
      <trkpt lat="46.76753" lon="0.42177">
        <ele>206</ele>
        <time>2016-11-20T08:00:46.000Z</time>
      </trkpt>
      <trkpt lat="46.76758" lon="0.42189">
        <ele>209</ele>
        <time>2016-11-20T08:00:49.000Z</time>
      </trkpt>
      <trkpt lat="46.76764" lon="0.422">
        <ele>210</ele>
        <time>2016-11-20T08:00:51.000Z</time>
      </trkpt>
      <trkpt lat="46.76766" lon="0.42216">
        <ele>209</ele>
        <time>2016-11-20T08:00:54.000Z</time>
      </trkpt>
      <trkpt lat="46.76769" lon="0.42231">
        <ele>209</ele>
        <time>2016-11-20T08:00:57.000Z</time>
      </trkpt>
      <trkpt lat="46.76767" lon="0.42247">
        <ele>207</ele>
        <time>2016-11-20T08:01:00.000Z</time>
      </trkpt>
      <trkpt lat="46.76775" lon="0.42256">
        <ele>201</ele>
        <time>2016-11-20T08:01:03.000Z</time>
      </trkpt>
      <trkpt lat="46.76773" lon="0.42269">
        <ele>196</ele>
        <time>2016-11-20T08:01:13.000Z</time>
      </trkpt>
      <trkpt lat="46.76762" lon="0.42275">
        <ele>200</ele>
        <time>2016-11-20T08:01:21.000Z</time>
      </trkpt>
      <trkpt lat="46.76753" lon="0.42276">
        <ele>200</ele>
        <time>2016-11-20T08:01:24.000Z</time>
      </trkpt>
      <trkpt lat="46.76745" lon="0.42269">
        <ele>198</ele>
        <time>2016-11-20T08:01:28.000Z</time>
      </trkpt>
      <trkpt lat="46.76736" lon="0.42259">
        <ele>199</ele>
        <time>2016-11-20T08:01:34.000Z</time>
      </trkpt>
      <trkpt lat="46.76727" lon="0.42256">
        <ele>201</ele>
        <time>2016-11-20T08:01:37.000Z</time>
      </trkpt>
      <trkpt lat="46.76716" lon="0.42252">
        <ele>200</ele>
        <time>2016-11-20T08:01:40.000Z</time>
      </trkpt>
      <trkpt lat="46.76707" lon="0.42254">
        <ele>202</ele>
        <time>2016-11-20T08:01:44.000Z</time>
      </trkpt>
      <trkpt lat="46.76696" lon="0.42255">
        <ele>203</ele>
        <time>2016-11-20T08:01:48.000Z</time>
      </trkpt>
      <trkpt lat="46.76687" lon="0.42246">
        <ele>204</ele>
        <time>2016-11-20T08:01:52.000Z</time>
      </trkpt>
      <trkpt lat="46.7668" lon="0.42235">
        <ele>203</ele>
        <time>2016-11-20T08:01:56.000Z</time>
      </trkpt>
      <trkpt lat="46.76671" lon="0.42239">
        <ele>204</ele>
        <time>2016-11-20T08:02:02.000Z</time>
      </trkpt>
      <trkpt lat="46.76661" lon="0.42243">
        <ele>203</ele>
        <time>2016-11-20T08:02:06.000Z</time>
      </trkpt>
      <trkpt lat="46.76653" lon="0.4225">
        <ele>205</ele>
        <time>2016-11-20T08:02:10.000Z</time>
      </trkpt>
      <trkpt lat="46.76642" lon="0.42258">
        <ele>211</ele>
        <time>2016-11-20T08:02:14.000Z</time>
      </trkpt>
      <trkpt lat="46.7663" lon="0.42265">
        <ele>208</ele>
        <time>2016-11-20T08:02:16.000Z</time>
      </trkpt>
      <trkpt lat="46.76622" lon="0.42271">
        <ele>209</ele>
        <time>2016-11-20T08:02:21.000Z</time>
      </trkpt>
      <trkpt lat="46.76614" lon="0.42279">
        <ele>204</ele>
        <time>2016-11-20T08:02:27.000Z</time>
      </trkpt>
      <trkpt lat="46.76615" lon="0.42293">
        <ele>206</ele>
        <time>2016-11-20T08:02:31.000Z</time>
      </trkpt>
      <trkpt lat="46.76616" lon="0.42307">
        <ele>205</ele>
        <time>2016-11-20T08:02:34.000Z</time>
      </trkpt>
      <trkpt lat="46.76609" lon="0.4232">
        <ele>202</ele>
        <time>2016-11-20T08:02:37.000Z</time>
      </trkpt>
      <trkpt lat="46.76603" lon="0.42333">
        <ele>204</ele>
        <time>2016-11-20T08:02:41.000Z</time>
      </trkpt>
      <trkpt lat="46.76593" lon="0.42344">
        <ele>202</ele>
        <time>2016-11-20T08:02:44.000Z</time>
      </trkpt>
      <trkpt lat="46.76586" lon="0.42353">
        <ele>204</ele>
        <time>2016-11-20T08:02:48.000Z</time>
      </trkpt>
      <trkpt lat="46.76577" lon="0.42358">
        <ele>206</ele>
        <time>2016-11-20T08:02:54.000Z</time>
      </trkpt>
      <trkpt lat="46.76569" lon="0.42347">
        <ele>207</ele>
        <time>2016-11-20T08:02:55.000Z</time>
      </trkpt>
      <trkpt lat="46.76566" lon="0.42325">
        <ele>207</ele>
        <time>2016-11-20T08:02:57.000Z</time>
      </trkpt>
      <trkpt lat="46.76559" lon="0.42315">
        <ele>208</ele>
        <time>2016-11-20T08:03:01.000Z</time>
      </trkpt>
      <trkpt lat="46.76549" lon="0.42322">
        <ele>206</ele>
        <time>2016-11-20T08:03:04.000Z</time>
      </trkpt>
      <trkpt lat="46.76546" lon="0.42308">
        <ele>207</ele>
        <time>2016-11-20T08:03:07.000Z</time>
      </trkpt>
      <trkpt lat="46.76536" lon="0.42307">
        <ele>200</ele>
        <time>2016-11-20T08:03:09.000Z</time>
      </trkpt>
      <trkpt lat="46.76527" lon="0.42302">
        <ele>206</ele>
        <time>2016-11-20T08:03:18.000Z</time>
      </trkpt>
      <trkpt lat="46.76514" lon="0.42298">
        <ele>197</ele>
        <time>2016-11-20T08:03:21.000Z</time>
      </trkpt>
      <trkpt lat="46.7651" lon="0.42282">
        <ele>196</ele>
        <time>2016-11-20T08:03:26.000Z</time>
      </trkpt>
      <trkpt lat="46.76506" lon="0.42264">
        <ele>198</ele>
        <time>2016-11-20T08:03:30.000Z</time>
      </trkpt>
      <trkpt lat="46.76496" lon="0.42253">
        <ele>206</ele>
        <time>2016-11-20T08:03:37.000Z</time>
      </trkpt>
      <trkpt lat="46.76494" lon="0.42238">
        <ele>204</ele>
        <time>2016-11-20T08:03:39.000Z</time>
      </trkpt>
      <trkpt lat="46.76497" lon="0.42224">
        <ele>205</ele>
        <time>2016-11-20T08:03:42.000Z</time>
      </trkpt>
      <trkpt lat="46.7649" lon="0.42208">
        <ele>209</ele>
        <time>2016-11-20T08:03:46.000Z</time>
      </trkpt>
      <trkpt lat="46.76485" lon="0.42195">
        <ele>205</ele>
        <time>2016-11-20T08:03:49.000Z</time>
      </trkpt>
      <trkpt lat="46.76476" lon="0.42196">
        <ele>203</ele>
        <time>2016-11-20T08:03:53.000Z</time>
      </trkpt>
      <trkpt lat="46.76466" lon="0.42201">
        <ele>204</ele>
        <time>2016-11-20T08:03:55.000Z</time>
      </trkpt>
      <trkpt lat="46.76456" lon="0.42207">
        <ele>208</ele>
        <time>2016-11-20T08:03:58.000Z</time>
      </trkpt>
      <trkpt lat="46.76451" lon="0.42222">
        <ele>210</ele>
        <time>2016-11-20T08:04:02.000Z</time>
      </trkpt>
      <trkpt lat="46.76446" lon="0.42237">
        <ele>213</ele>
        <time>2016-11-20T08:04:05.000Z</time>
      </trkpt>
      <trkpt lat="46.76437" lon="0.42247">
        <ele>213</ele>
        <time>2016-11-20T08:04:07.000Z</time>
      </trkpt>
      <trkpt lat="46.76428" lon="0.42252">
        <ele>211</ele>
        <time>2016-11-20T08:04:08.000Z</time>
      </trkpt>
      <trkpt lat="46.76414" lon="0.42263">
        <ele>209</ele>
        <time>2016-11-20T08:04:11.000Z</time>
      </trkpt>
      <trkpt lat="46.76404" lon="0.42268">
        <ele>207</ele>
        <time>2016-11-20T08:04:13.000Z</time>
      </trkpt>
      <trkpt lat="46.76397" lon="0.42279">
        <ele>203</ele>
        <time>2016-11-20T08:04:18.000Z</time>
      </trkpt>
      <trkpt lat="46.76388" lon="0.42278">
        <ele>199</ele>
        <time>2016-11-20T08:04:21.000Z</time>
      </trkpt>
      <trkpt lat="46.76383" lon="0.42266">
        <ele>201</ele>
        <time>2016-11-20T08:04:29.000Z</time>
      </trkpt>
      <trkpt lat="46.76374" lon="0.42262">
        <ele>200</ele>
        <time>2016-11-20T08:04:37.000Z</time>
      </trkpt>
      <trkpt lat="46.76368" lon="0.42249">
        <ele>201</ele>
        <time>2016-11-20T08:04:39.000Z</time>
      </trkpt>
      <trkpt lat="46.76356" lon="0.42228">
        <ele>203</ele>
        <time>2016-11-20T08:04:42.000Z</time>
      </trkpt>
      <trkpt lat="46.76345" lon="0.4222">
        <ele>201</ele>
        <time>2016-11-20T08:04:44.000Z</time>
      </trkpt>
      <trkpt lat="46.76336" lon="0.42212">
        <ele>200</ele>
        <time>2016-11-20T08:04:49.000Z</time>
      </trkpt>
      <trkpt lat="46.76331" lon="0.42201">
        <ele>199</ele>
        <time>2016-11-20T08:04:52.000Z</time>
      </trkpt>
      <trkpt lat="46.76323" lon="0.42189">
        <ele>194</ele>
        <time>2016-11-20T08:04:55.000Z</time>
      </trkpt>
      <trkpt lat="46.76317" lon="0.42174">
        <ele>195</ele>
        <time>2016-11-20T08:04:58.000Z</time>
      </trkpt>
      <trkpt lat="46.76317" lon="0.4215">
        <ele>196</ele>
        <time>2016-11-20T08:05:00.000Z</time>
      </trkpt>
      <trkpt lat="46.76312" lon="0.42133">
        <ele>197</ele>
        <time>2016-11-20T08:05:03.000Z</time>
      </trkpt>
      <trkpt lat="46.76305" lon="0.4212">
        <ele>193</ele>
        <time>2016-11-20T08:05:06.000Z</time>
      </trkpt>
      <trkpt lat="46.763" lon="0.42104">
        <ele>193</ele>
        <time>2016-11-20T08:05:09.000Z</time>
      </trkpt>
      <trkpt lat="46.76299" lon="0.4209">
        <ele>200</ele>
        <time>2016-11-20T08:05:15.000Z</time>
      </trkpt>
      <trkpt lat="46.76293" lon="0.42077">
        <ele>203</ele>
        <time>2016-11-20T08:05:25.000Z</time>
      </trkpt>
      <trkpt lat="46.76292" lon="0.42063">
        <ele>204</ele>
        <time>2016-11-20T08:05:29.000Z</time>
      </trkpt>
      <trkpt lat="46.7629" lon="0.42047">
        <ele>201</ele>
        <time>2016-11-20T08:05:32.000Z</time>
      </trkpt>
      <trkpt lat="46.76283" lon="0.42034">
        <ele>202</ele>
        <time>2016-11-20T08:05:36.000Z</time>
      </trkpt>
      <trkpt lat="46.76277" lon="0.42019">
        <ele>199</ele>
        <time>2016-11-20T08:05:39.000Z</time>
      </trkpt>
      <trkpt lat="46.76279" lon="0.42005">
        <ele>199</ele>
        <time>2016-11-20T08:05:40.000Z</time>
      </trkpt>
      <trkpt lat="46.76273" lon="0.41991">
        <ele>205</ele>
        <time>2016-11-20T08:05:45.000Z</time>
      </trkpt>
      <trkpt lat="46.76263" lon="0.41983">
        <ele>207</ele>
        <time>2016-11-20T08:05:50.000Z</time>
      </trkpt>
      <trkpt lat="46.76261" lon="0.41967">
        <ele>204</ele>
        <time>2016-11-20T08:05:54.000Z</time>
      </trkpt>
      <trkpt lat="46.76263" lon="0.41952">
        <ele>207</ele>
        <time>2016-11-20T08:05:59.000Z</time>
      </trkpt>
      <trkpt lat="46.76254" lon="0.41951">
        <ele>208</ele>
        <time>2016-11-20T08:06:04.000Z</time>
      </trkpt>
      <trkpt lat="46.76244" lon="0.41945">
        <ele>210</ele>
        <time>2016-11-20T08:06:10.000Z</time>
      </trkpt>
      <trkpt lat="46.76238" lon="0.41957">
        <ele>210</ele>
        <time>2016-11-20T08:06:13.000Z</time>
      </trkpt>
      <trkpt lat="46.76225" lon="0.41963">
        <ele>215</ele>
        <time>2016-11-20T08:06:18.000Z</time>
      </trkpt>
      <trkpt lat="46.76215" lon="0.41965">
        <ele>217</ele>
        <time>2016-11-20T08:06:21.000Z</time>
      </trkpt>
      <trkpt lat="46.76204" lon="0.41971">
        <ele>215</ele>
        <time>2016-11-20T08:06:24.000Z</time>
      </trkpt>
      <trkpt lat="46.76196" lon="0.41994">
        <ele>211</ele>
        <time>2016-11-20T08:06:31.000Z</time>
      </trkpt>
      <trkpt lat="46.76192" lon="0.42007">
        <ele>209</ele>
        <time>2016-11-20T08:06:36.000Z</time>
      </trkpt>
      <trkpt lat="46.76193" lon="0.4202">
        <ele>212</ele>
        <time>2016-11-20T08:06:41.000Z</time>
      </trkpt>
      <trkpt lat="46.76197" lon="0.42036">
        <ele>213</ele>
        <time>2016-11-20T08:06:45.000Z</time>
      </trkpt>
      <trkpt lat="46.76197" lon="0.42056">
        <ele>212</ele>
        <time>2016-11-20T08:06:48.000Z</time>
      </trkpt>
      <trkpt lat="46.76205" lon="0.42064">
        <ele>213</ele>
        <time>2016-11-20T08:06:51.000Z</time>
      </trkpt>
      <trkpt lat="46.76207" lon="0.42082">
        <ele>210</ele>
        <time>2016-11-20T08:06:54.000Z</time>
      </trkpt>
      <trkpt lat="46.76206" lon="0.42095">
        <ele>207</ele>
        <time>2016-11-20T08:06:58.000Z</time>
      </trkpt>
      <trkpt lat="46.76203" lon="0.4211">
        <ele>205</ele>
        <time>2016-11-20T08:07:04.000Z</time>
      </trkpt>
      <trkpt lat="46.76195" lon="0.42119">
        <ele>210</ele>
        <time>2016-11-20T08:07:09.000Z</time>
      </trkpt>
      <trkpt lat="46.76186" lon="0.42133">
        <ele>208</ele>
        <time>2016-11-20T08:07:15.000Z</time>
      </trkpt>
      <trkpt lat="46.76179" lon="0.42143">
        <ele>207</ele>
        <time>2016-11-20T08:07:18.000Z</time>
      </trkpt>
      <trkpt lat="46.76169" lon="0.42156">
        <ele>207</ele>
        <time>2016-11-20T08:07:23.000Z</time>
      </trkpt>
      <trkpt lat="46.76164" lon="0.42169">
        <ele>207</ele>
        <time>2016-11-20T08:07:28.000Z</time>
      </trkpt>
      <trkpt lat="46.7616" lon="0.42181">
        <ele>206</ele>
        <time>2016-11-20T08:07:33.000Z</time>
      </trkpt>
      <trkpt lat="46.7615" lon="0.42191">
        <ele>207</ele>
        <time>2016-11-20T08:07:36.000Z</time>
      </trkpt>
      <trkpt lat="46.76139" lon="0.42204">
        <ele>206</ele>
        <time>2016-11-20T08:07:39.000Z</time>
      </trkpt>
      <trkpt lat="46.76127" lon="0.42212">
        <ele>206</ele>
        <time>2016-11-20T08:07:41.000Z</time>
      </trkpt>
      <trkpt lat="46.7612" lon="0.42225">
        <ele>210</ele>
        <time>2016-11-20T08:07:47.000Z</time>
      </trkpt>
      <trkpt lat="46.76111" lon="0.42229">
        <ele>209</ele>
        <time>2016-11-20T08:07:48.000Z</time>
      </trkpt>
      <trkpt lat="46.76093" lon="0.42237">
        <ele>206</ele>
        <time>2016-11-20T08:07:51.000Z</time>
      </trkpt>
      <trkpt lat="46.76085" lon="0.42245">
        <ele>206</ele>
        <time>2016-11-20T08:07:54.000Z</time>
      </trkpt>
      <trkpt lat="46.76085" lon="0.4226">
        <ele>205</ele>
        <time>2016-11-20T08:07:58.000Z</time>
      </trkpt>
      <trkpt lat="46.76085" lon="0.42275">
        <ele>210</ele>
        <time>2016-11-20T08:08:05.000Z</time>
      </trkpt>
      <trkpt lat="46.7609" lon="0.42287">
        <ele>209</ele>
        <time>2016-11-20T08:08:10.000Z</time>
      </trkpt>
      <trkpt lat="46.76101" lon="0.42296">
        <ele>206</ele>
        <time>2016-11-20T08:08:16.000Z</time>
      </trkpt>
      <trkpt lat="46.76109" lon="0.42308">
        <ele>202</ele>
        <time>2016-11-20T08:08:18.000Z</time>
      </trkpt>
      <trkpt lat="46.76102" lon="0.42318">
        <ele>204</ele>
        <time>2016-11-20T08:08:23.000Z</time>
      </trkpt>
      <trkpt lat="46.76089" lon="0.42311">
        <ele>205</ele>
        <time>2016-11-20T08:08:26.000Z</time>
      </trkpt>
      <trkpt lat="46.76079" lon="0.42304">
        <ele>205</ele>
        <time>2016-11-20T08:08:28.000Z</time>
      </trkpt>
      <trkpt lat="46.7607" lon="0.4229">
        <ele>203</ele>
        <time>2016-11-20T08:08:30.000Z</time>
      </trkpt>
      <trkpt lat="46.7606" lon="0.42282">
        <ele>201</ele>
        <time>2016-11-20T08:08:32.000Z</time>
      </trkpt>
      <trkpt lat="46.76051" lon="0.42268">
        <ele>201</ele>
        <time>2016-11-20T08:08:34.000Z</time>
      </trkpt>
      <trkpt lat="46.76043" lon="0.42253">
        <ele>200</ele>
        <time>2016-11-20T08:08:36.000Z</time>
      </trkpt>
      <trkpt lat="46.76033" lon="0.42238">
        <ele>200</ele>
        <time>2016-11-20T08:08:38.000Z</time>
      </trkpt>
      <trkpt lat="46.76022" lon="0.42228">
        <ele>199</ele>
        <time>2016-11-20T08:08:40.000Z</time>
      </trkpt>
      <trkpt lat="46.76013" lon="0.42218">
        <ele>198</ele>
        <time>2016-11-20T08:08:42.000Z</time>
      </trkpt>
      <trkpt lat="46.76004" lon="0.42208">
        <ele>197</ele>
        <time>2016-11-20T08:08:44.000Z</time>
      </trkpt>
      <trkpt lat="46.75995" lon="0.42197">
        <ele>196</ele>
        <time>2016-11-20T08:08:46.000Z</time>
      </trkpt>
      <trkpt lat="46.75988" lon="0.42188">
        <ele>195</ele>
        <time>2016-11-20T08:08:48.000Z</time>
      </trkpt>
      <trkpt lat="46.75979" lon="0.42177">
        <ele>195</ele>
        <time>2016-11-20T08:08:51.000Z</time>
      </trkpt>
      <trkpt lat="46.75967" lon="0.42165">
        <ele>197</ele>
        <time>2016-11-20T08:08:54.000Z</time>
      </trkpt>
      <trkpt lat="46.75959" lon="0.42155">
        <ele>198</ele>
        <time>2016-11-20T08:08:57.000Z</time>
      </trkpt>
      <trkpt lat="46.75945" lon="0.42158">
        <ele>200</ele>
        <time>2016-11-20T08:09:02.000Z</time>
      </trkpt>
      <trkpt lat="46.75932" lon="0.42167">
        <ele>200</ele>
        <time>2016-11-20T08:09:05.000Z</time>
      </trkpt>
      <trkpt lat="46.75918" lon="0.42176">
        <ele>197</ele>
        <time>2016-11-20T08:09:07.000Z</time>
      </trkpt>
      <trkpt lat="46.75908" lon="0.42184">
        <ele>196</ele>
        <time>2016-11-20T08:09:09.000Z</time>
      </trkpt>
      <trkpt lat="46.75898" lon="0.42188">
        <ele>194</ele>
        <time>2016-11-20T08:09:10.000Z</time>
      </trkpt>
      <trkpt lat="46.75886" lon="0.42194">
        <ele>197</ele>
        <time>2016-11-20T08:09:12.000Z</time>
      </trkpt>
      <trkpt lat="46.75871" lon="0.42202">
        <ele>194</ele>
        <time>2016-11-20T08:09:14.000Z</time>
      </trkpt>
      <trkpt lat="46.75861" lon="0.4221">
        <ele>195</ele>
        <time>2016-11-20T08:09:16.000Z</time>
      </trkpt>
      <trkpt lat="46.75847" lon="0.42214">
        <ele>194</ele>
        <time>2016-11-20T08:09:18.000Z</time>
      </trkpt>
      <trkpt lat="46.75835" lon="0.42219">
        <ele>191</ele>
        <time>2016-11-20T08:09:20.000Z</time>
      </trkpt>
      <trkpt lat="46.75824" lon="0.42227">
        <ele>191</ele>
        <time>2016-11-20T08:09:22.000Z</time>
      </trkpt>
      <trkpt lat="46.75812" lon="0.42235">
        <ele>190</ele>
        <time>2016-11-20T08:09:24.000Z</time>
      </trkpt>
      <trkpt lat="46.758" lon="0.42241">
        <ele>189</ele>
        <time>2016-11-20T08:09:26.000Z</time>
      </trkpt>
      <trkpt lat="46.75792" lon="0.42251">
        <ele>189</ele>
        <time>2016-11-20T08:09:28.000Z</time>
      </trkpt>
      <trkpt lat="46.75782" lon="0.42259">
        <ele>190</ele>
        <time>2016-11-20T08:09:30.000Z</time>
      </trkpt>
      <trkpt lat="46.75773" lon="0.42268">
        <ele>189</ele>
        <time>2016-11-20T08:09:32.000Z</time>
      </trkpt>
      <trkpt lat="46.75762" lon="0.42275">
        <ele>190</ele>
        <time>2016-11-20T08:09:34.000Z</time>
      </trkpt>
      <trkpt lat="46.75753" lon="0.42282">
        <ele>190</ele>
        <time>2016-11-20T08:09:36.000Z</time>
      </trkpt>
      <trkpt lat="46.75745" lon="0.4229">
        <ele>190</ele>
        <time>2016-11-20T08:09:38.000Z</time>
      </trkpt>
      <trkpt lat="46.75736" lon="0.42298">
        <ele>190</ele>
        <time>2016-11-20T08:09:40.000Z</time>
      </trkpt>
      <trkpt lat="46.75728" lon="0.42305">
        <ele>190</ele>
        <time>2016-11-20T08:09:42.000Z</time>
      </trkpt>
      <trkpt lat="46.75717" lon="0.42312">
        <ele>189</ele>
        <time>2016-11-20T08:09:44.000Z</time>
      </trkpt>
      <trkpt lat="46.75708" lon="0.4232">
        <ele>189</ele>
        <time>2016-11-20T08:09:46.000Z</time>
      </trkpt>
      <trkpt lat="46.75697" lon="0.4233">
        <ele>191</ele>
        <time>2016-11-20T08:09:49.000Z</time>
      </trkpt>
      <trkpt lat="46.75684" lon="0.42343">
        <ele>191</ele>
        <time>2016-11-20T08:09:53.000Z</time>
      </trkpt>
      <trkpt lat="46.75677" lon="0.42355">
        <ele>192</ele>
        <time>2016-11-20T08:09:55.000Z</time>
      </trkpt>
      <trkpt lat="46.75666" lon="0.42362">
        <ele>191</ele>
        <time>2016-11-20T08:09:57.000Z</time>
      </trkpt>
      <trkpt lat="46.75653" lon="0.42377">
        <ele>193</ele>
        <time>2016-11-20T08:10:00.000Z</time>
      </trkpt>
      <trkpt lat="46.75644" lon="0.42386">
        <ele>194</ele>
        <time>2016-11-20T08:10:02.000Z</time>
      </trkpt>
      <trkpt lat="46.75635" lon="0.42396">
        <ele>195</ele>
        <time>2016-11-20T08:10:04.000Z</time>
      </trkpt>
      <trkpt lat="46.75623" lon="0.42402">
        <ele>197</ele>
        <time>2016-11-20T08:10:07.000Z</time>
      </trkpt>
      <trkpt lat="46.75611" lon="0.424">
        <ele>196</ele>
        <time>2016-11-20T08:10:09.000Z</time>
      </trkpt>
      <trkpt lat="46.756" lon="0.42387">
        <ele>195</ele>
        <time>2016-11-20T08:10:11.000Z</time>
      </trkpt>
      <trkpt lat="46.75591" lon="0.42378">
        <ele>197</ele>
        <time>2016-11-20T08:10:13.000Z</time>
      </trkpt>
      <trkpt lat="46.75577" lon="0.42376">
        <ele>193</ele>
        <time>2016-11-20T08:10:15.000Z</time>
      </trkpt>
      <trkpt lat="46.75567" lon="0.42369">
        <ele>193</ele>
        <time>2016-11-20T08:10:17.000Z</time>
      </trkpt>
      <trkpt lat="46.75558" lon="0.42361">
        <ele>193</ele>
        <time>2016-11-20T08:10:19.000Z</time>
      </trkpt>
      <trkpt lat="46.75548" lon="0.42353">
        <ele>193</ele>
        <time>2016-11-20T08:10:21.000Z</time>
      </trkpt>
      <trkpt lat="46.75539" lon="0.42343">
        <ele>192</ele>
        <time>2016-11-20T08:10:23.000Z</time>
      </trkpt>
      <trkpt lat="46.7553" lon="0.42332">
        <ele>193</ele>
        <time>2016-11-20T08:10:25.000Z</time>
      </trkpt>
      <trkpt lat="46.75523" lon="0.42319">
        <ele>193</ele>
        <time>2016-11-20T08:10:27.000Z</time>
      </trkpt>
      <trkpt lat="46.75515" lon="0.42309">
        <ele>193</ele>
        <time>2016-11-20T08:10:29.000Z</time>
      </trkpt>
      <trkpt lat="46.75507" lon="0.42296">
        <ele>193</ele>
        <time>2016-11-20T08:10:31.000Z</time>
      </trkpt>
      <trkpt lat="46.75498" lon="0.42286">
        <ele>193</ele>
        <time>2016-11-20T08:10:33.000Z</time>
      </trkpt>
      <trkpt lat="46.75486" lon="0.42276">
        <ele>194</ele>
        <time>2016-11-20T08:10:36.000Z</time>
      </trkpt>
      <trkpt lat="46.75478" lon="0.42267">
        <ele>193</ele>
        <time>2016-11-20T08:10:38.000Z</time>
      </trkpt>
      <trkpt lat="46.75469" lon="0.42267">
        <ele>194</ele>
        <time>2016-11-20T08:10:40.000Z</time>
      </trkpt>
      <trkpt lat="46.7546" lon="0.42258">
        <ele>193</ele>
        <time>2016-11-20T08:10:42.000Z</time>
      </trkpt>
      <trkpt lat="46.75451" lon="0.42252">
        <ele>192</ele>
        <time>2016-11-20T08:10:44.000Z</time>
      </trkpt>
      <trkpt lat="46.75442" lon="0.42249">
        <ele>191</ele>
        <time>2016-11-20T08:10:46.000Z</time>
      </trkpt>
      <trkpt lat="46.7543" lon="0.42247">
        <ele>191</ele>
        <time>2016-11-20T08:10:49.000Z</time>
      </trkpt>
      <trkpt lat="46.75424" lon="0.42236">
        <ele>189</ele>
        <time>2016-11-20T08:10:52.000Z</time>
      </trkpt>
      <trkpt lat="46.75419" lon="0.42246">
        <ele>191</ele>
        <time>2016-11-20T08:10:58.000Z</time>
      </trkpt>
      <trkpt lat="46.75417" lon="0.42263">
        <ele>189</ele>
        <time>2016-11-20T08:11:01.000Z</time>
      </trkpt>
      <trkpt lat="46.75417" lon="0.42278">
        <ele>188</ele>
        <time>2016-11-20T08:11:03.000Z</time>
      </trkpt>
      <trkpt lat="46.75419" lon="0.42294">
        <ele>189</ele>
        <time>2016-11-20T08:11:07.000Z</time>
      </trkpt>
      <trkpt lat="46.75419" lon="0.42311">
        <ele>192</ele>
        <time>2016-11-20T08:11:10.000Z</time>
      </trkpt>
      <trkpt lat="46.75419" lon="0.42329">
        <ele>193</ele>
        <time>2016-11-20T08:11:13.000Z</time>
      </trkpt>
      <trkpt lat="46.7542" lon="0.42348">
        <ele>194</ele>
        <time>2016-11-20T08:11:16.000Z</time>
      </trkpt>
      <trkpt lat="46.75421" lon="0.42366">
        <ele>197</ele>
        <time>2016-11-20T08:11:19.000Z</time>
      </trkpt>
      <trkpt lat="46.75421" lon="0.42381">
        <ele>196</ele>
        <time>2016-11-20T08:11:21.000Z</time>
      </trkpt>
      <trkpt lat="46.75423" lon="0.42397">
        <ele>197</ele>
        <time>2016-11-20T08:11:24.000Z</time>
      </trkpt>
      <trkpt lat="46.75421" lon="0.42412">
        <ele>200</ele>
        <time>2016-11-20T08:11:27.000Z</time>
      </trkpt>
      <trkpt lat="46.75423" lon="0.42429">
        <ele>199</ele>
        <time>2016-11-20T08:11:30.000Z</time>
      </trkpt>
      <trkpt lat="46.75421" lon="0.42446">
        <ele>200</ele>
        <time>2016-11-20T08:11:33.000Z</time>
      </trkpt>
      <trkpt lat="46.75423" lon="0.4246">
        <ele>199</ele>
        <time>2016-11-20T08:11:36.000Z</time>
      </trkpt>
      <trkpt lat="46.75423" lon="0.42477">
        <ele>198</ele>
        <time>2016-11-20T08:11:38.000Z</time>
      </trkpt>
      <trkpt lat="46.75425" lon="0.42496">
        <ele>198</ele>
        <time>2016-11-20T08:11:41.000Z</time>
      </trkpt>
      <trkpt lat="46.75428" lon="0.42512">
        <ele>199</ele>
        <time>2016-11-20T08:11:44.000Z</time>
      </trkpt>
      <trkpt lat="46.75429" lon="0.42528">
        <ele>201</ele>
        <time>2016-11-20T08:11:47.000Z</time>
      </trkpt>
      <trkpt lat="46.75429" lon="0.42545">
        <ele>202</ele>
        <time>2016-11-20T08:11:50.000Z</time>
      </trkpt>
      <trkpt lat="46.75428" lon="0.42563">
        <ele>202</ele>
        <time>2016-11-20T08:11:53.000Z</time>
      </trkpt>
      <trkpt lat="46.75427" lon="0.42582">
        <ele>201</ele>
        <time>2016-11-20T08:11:55.000Z</time>
      </trkpt>
      <trkpt lat="46.7542" lon="0.42603">
        <ele>198</ele>
        <time>2016-11-20T08:11:58.000Z</time>
      </trkpt>
      <trkpt lat="46.75419" lon="0.42622">
        <ele>199</ele>
        <time>2016-11-20T08:12:01.000Z</time>
      </trkpt>
      <trkpt lat="46.75415" lon="0.42636">
        <ele>196</ele>
        <time>2016-11-20T08:12:04.000Z</time>
      </trkpt>
      <trkpt lat="46.75414" lon="0.4265">
        <ele>199</ele>
        <time>2016-11-20T08:12:09.000Z</time>
      </trkpt>
      <trkpt lat="46.75406" lon="0.42659">
        <ele>199</ele>
        <time>2016-11-20T08:12:12.000Z</time>
      </trkpt>
      <trkpt lat="46.75407" lon="0.42673">
        <ele>197</ele>
        <time>2016-11-20T08:12:16.000Z</time>
      </trkpt>
      <trkpt lat="46.75411" lon="0.42687">
        <ele>198</ele>
        <time>2016-11-20T08:12:19.000Z</time>
      </trkpt>
      <trkpt lat="46.75415" lon="0.42701">
        <ele>197</ele>
        <time>2016-11-20T08:12:23.000Z</time>
      </trkpt>
      <trkpt lat="46.75419" lon="0.42715">
        <ele>196</ele>
        <time>2016-11-20T08:12:27.000Z</time>
      </trkpt>
      <trkpt lat="46.75423" lon="0.4273">
        <ele>195</ele>
        <time>2016-11-20T08:12:31.000Z</time>
      </trkpt>
      <trkpt lat="46.75427" lon="0.42743">
        <ele>195</ele>
        <time>2016-11-20T08:12:35.000Z</time>
      </trkpt>
      <trkpt lat="46.75433" lon="0.42757">
        <ele>195</ele>
        <time>2016-11-20T08:12:39.000Z</time>
      </trkpt>
      <trkpt lat="46.75439" lon="0.42768">
        <ele>196</ele>
        <time>2016-11-20T08:12:43.000Z</time>
      </trkpt>
      <trkpt lat="46.75445" lon="0.4278">
        <ele>194</ele>
        <time>2016-11-20T08:12:47.000Z</time>
      </trkpt>
      <trkpt lat="46.75453" lon="0.4279">
        <ele>195</ele>
        <time>2016-11-20T08:12:53.000Z</time>
      </trkpt>
      <trkpt lat="46.75457" lon="0.42801">
        <ele>205</ele>
        <time>2016-11-20T08:13:01.000Z</time>
      </trkpt>
      <trkpt lat="46.75455" lon="0.42817">
        <ele>208</ele>
        <time>2016-11-20T08:13:08.000Z</time>
      </trkpt>
      <trkpt lat="46.7546" lon="0.42828">
        <ele>206</ele>
        <time>2016-11-20T08:13:12.000Z</time>
      </trkpt>
      <trkpt lat="46.75461" lon="0.42844">
        <ele>205</ele>
        <time>2016-11-20T08:13:18.000Z</time>
      </trkpt>
      <trkpt lat="46.75459" lon="0.42858">
        <ele>206</ele>
        <time>2016-11-20T08:13:22.000Z</time>
      </trkpt>
      <trkpt lat="46.75468" lon="0.42867">
        <ele>202</ele>
        <time>2016-11-20T08:13:25.000Z</time>
      </trkpt>
      <trkpt lat="46.75471" lon="0.42882">
        <ele>203</ele>
        <time>2016-11-20T08:13:30.000Z</time>
      </trkpt>
      <trkpt lat="46.7548" lon="0.42891">
        <ele>202</ele>
        <time>2016-11-20T08:13:35.000Z</time>
      </trkpt>
      <trkpt lat="46.75486" lon="0.42902">
        <ele>199</ele>
        <time>2016-11-20T08:13:38.000Z</time>
      </trkpt>
      <trkpt lat="46.75488" lon="0.42916">
        <ele>200</ele>
        <time>2016-11-20T08:13:43.000Z</time>
      </trkpt>
      <trkpt lat="46.75479" lon="0.4292">
        <ele>200</ele>
        <time>2016-11-20T08:13:48.000Z</time>
      </trkpt>
      <trkpt lat="46.75468" lon="0.42922">
        <ele>205</ele>
        <time>2016-11-20T08:13:52.000Z</time>
      </trkpt>
      <trkpt lat="46.75459" lon="0.42921">
        <ele>207</ele>
        <time>2016-11-20T08:13:54.000Z</time>
      </trkpt>
      <trkpt lat="46.75451" lon="0.42913">
        <ele>209</ele>
        <time>2016-11-20T08:13:57.000Z</time>
      </trkpt>
      <trkpt lat="46.75442" lon="0.42909">
        <ele>209</ele>
        <time>2016-11-20T08:13:59.000Z</time>
      </trkpt>
      <trkpt lat="46.75432" lon="0.42909">
        <ele>208</ele>
        <time>2016-11-20T08:14:02.000Z</time>
      </trkpt>
      <trkpt lat="46.75425" lon="0.42922">
        <ele>205</ele>
        <time>2016-11-20T08:14:06.000Z</time>
      </trkpt>
      <trkpt lat="46.75417" lon="0.42934">
        <ele>205</ele>
        <time>2016-11-20T08:14:09.000Z</time>
      </trkpt>
      <trkpt lat="46.75409" lon="0.42944">
        <ele>206</ele>
        <time>2016-11-20T08:14:11.000Z</time>
      </trkpt>
      <trkpt lat="46.75405" lon="0.42958">
        <ele>207</ele>
        <time>2016-11-20T08:14:15.000Z</time>
      </trkpt>
      <trkpt lat="46.75397" lon="0.42967">
        <ele>207</ele>
        <time>2016-11-20T08:14:17.000Z</time>
      </trkpt>
      <trkpt lat="46.75388" lon="0.42976">
        <ele>208</ele>
        <time>2016-11-20T08:14:19.000Z</time>
      </trkpt>
      <trkpt lat="46.75381" lon="0.42987">
        <ele>208</ele>
        <time>2016-11-20T08:14:21.000Z</time>
      </trkpt>
      <trkpt lat="46.75371" lon="0.42998">
        <ele>203</ele>
        <time>2016-11-20T08:14:23.000Z</time>
      </trkpt>
      <trkpt lat="46.75362" lon="0.43009">
        <ele>203</ele>
        <time>2016-11-20T08:14:27.000Z</time>
      </trkpt>
      <trkpt lat="46.75357" lon="0.43022">
        <ele>204</ele>
        <time>2016-11-20T08:14:30.000Z</time>
      </trkpt>
      <trkpt lat="46.75352" lon="0.43038">
        <ele>208</ele>
        <time>2016-11-20T08:14:34.000Z</time>
      </trkpt>
      <trkpt lat="46.75356" lon="0.43052">
        <ele>213</ele>
        <time>2016-11-20T08:14:39.000Z</time>
      </trkpt>
      <trkpt lat="46.75358" lon="0.43068">
        <ele>214</ele>
        <time>2016-11-20T08:14:43.000Z</time>
      </trkpt>
      <trkpt lat="46.75354" lon="0.43084">
        <ele>209</ele>
        <time>2016-11-20T08:14:47.000Z</time>
      </trkpt>
      <trkpt lat="46.75353" lon="0.43098">
        <ele>206</ele>
        <time>2016-11-20T08:14:51.000Z</time>
      </trkpt>
      <trkpt lat="46.75344" lon="0.43106">
        <ele>201</ele>
        <time>2016-11-20T08:14:54.000Z</time>
      </trkpt>
      <trkpt lat="46.75338" lon="0.43116">
        <ele>203</ele>
        <time>2016-11-20T08:14:57.000Z</time>
      </trkpt>
      <trkpt lat="46.75329" lon="0.43125">
        <ele>203</ele>
        <time>2016-11-20T08:15:02.000Z</time>
      </trkpt>
      <trkpt lat="46.75311" lon="0.4314">
        <ele>199</ele>
        <time>2016-11-20T08:15:10.000Z</time>
      </trkpt>
      <trkpt lat="46.75303" lon="0.43147">
        <ele>199</ele>
        <time>2016-11-20T08:15:13.000Z</time>
      </trkpt>
      <trkpt lat="46.75293" lon="0.43152">
        <ele>199</ele>
        <time>2016-11-20T08:15:16.000Z</time>
      </trkpt>
      <trkpt lat="46.75284" lon="0.43164">
        <ele>204</ele>
        <time>2016-11-20T08:15:23.000Z</time>
      </trkpt>
      <trkpt lat="46.75276" lon="0.43179">
        <ele>203</ele>
        <time>2016-11-20T08:15:28.000Z</time>
      </trkpt>
      <trkpt lat="46.75269" lon="0.43192">
        <ele>202</ele>
        <time>2016-11-20T08:15:31.000Z</time>
      </trkpt>
      <trkpt lat="46.75266" lon="0.43205">
        <ele>199</ele>
        <time>2016-11-20T08:15:35.000Z</time>
      </trkpt>
      <trkpt lat="46.75257" lon="0.43213">
        <ele>201</ele>
        <time>2016-11-20T08:15:38.000Z</time>
      </trkpt>
      <trkpt lat="46.75253" lon="0.43226">
        <ele>199</ele>
        <time>2016-11-20T08:15:43.000Z</time>
      </trkpt>
      <trkpt lat="46.75248" lon="0.43241">
        <ele>199</ele>
        <time>2016-11-20T08:15:46.000Z</time>
      </trkpt>
      <trkpt lat="46.75248" lon="0.43255">
        <ele>200</ele>
        <time>2016-11-20T08:15:50.000Z</time>
      </trkpt>
      <trkpt lat="46.75245" lon="0.4327">
        <ele>198</ele>
        <time>2016-11-20T08:15:54.000Z</time>
      </trkpt>
      <trkpt lat="46.75237" lon="0.43279">
        <ele>195</ele>
        <time>2016-11-20T08:15:57.000Z</time>
      </trkpt>
      <trkpt lat="46.75226" lon="0.43283">
        <ele>190</ele>
        <time>2016-11-20T08:16:01.000Z</time>
      </trkpt>
      <trkpt lat="46.75216" lon="0.43289">
        <ele>187</ele>
        <time>2016-11-20T08:16:06.000Z</time>
      </trkpt>
      <trkpt lat="46.75205" lon="0.43289">
        <ele>184</ele>
        <time>2016-11-20T08:16:10.000Z</time>
      </trkpt>
      <trkpt lat="46.75201" lon="0.43272">
        <ele>186</ele>
        <time>2016-11-20T08:16:14.000Z</time>
      </trkpt>
      <trkpt lat="46.75195" lon="0.43261">
        <ele>183</ele>
        <time>2016-11-20T08:16:20.000Z</time>
      </trkpt>
      <trkpt lat="46.75192" lon="0.43249">
        <ele>189</ele>
        <time>2016-11-20T08:16:25.000Z</time>
      </trkpt>
      <trkpt lat="46.75181" lon="0.43237">
        <ele>189</ele>
        <time>2016-11-20T08:16:33.000Z</time>
      </trkpt>
      <trkpt lat="46.75177" lon="0.43224">
        <ele>189</ele>
        <time>2016-11-20T08:16:37.000Z</time>
      </trkpt>
      <trkpt lat="46.75178" lon="0.43195">
        <ele>184</ele>
        <time>2016-11-20T08:16:39.000Z</time>
      </trkpt>
      <trkpt lat="46.75174" lon="0.43184">
        <ele>186</ele>
        <time>2016-11-20T08:16:45.000Z</time>
      </trkpt>
      <trkpt lat="46.7517" lon="0.43168">
        <ele>185</ele>
        <time>2016-11-20T08:16:50.000Z</time>
      </trkpt>
      <trkpt lat="46.75169" lon="0.43152">
        <ele>188</ele>
        <time>2016-11-20T08:16:54.000Z</time>
      </trkpt>
      <trkpt lat="46.75166" lon="0.43136">
        <ele>189</ele>
        <time>2016-11-20T08:16:58.000Z</time>
      </trkpt>
      <trkpt lat="46.75156" lon="0.43134">
        <ele>186</ele>
        <time>2016-11-20T08:17:04.000Z</time>
      </trkpt>
      <trkpt lat="46.75147" lon="0.43132">
        <ele>186</ele>
        <time>2016-11-20T08:17:10.000Z</time>
      </trkpt>
      <trkpt lat="46.75141" lon="0.43121">
        <ele>187</ele>
        <time>2016-11-20T08:17:15.000Z</time>
      </trkpt>
      <trkpt lat="46.75137" lon="0.43109">
        <ele>188</ele>
        <time>2016-11-20T08:17:21.000Z</time>
      </trkpt>
      <trkpt lat="46.75129" lon="0.43102">
        <ele>190</ele>
        <time>2016-11-20T08:17:29.000Z</time>
      </trkpt>
      <trkpt lat="46.75122" lon="0.43091">
        <ele>189</ele>
        <time>2016-11-20T08:17:35.000Z</time>
      </trkpt>
      <trkpt lat="46.75114" lon="0.43084">
        <ele>192</ele>
        <time>2016-11-20T08:17:42.000Z</time>
      </trkpt>
      <trkpt lat="46.75105" lon="0.43078">
        <ele>194</ele>
        <time>2016-11-20T08:17:51.000Z</time>
      </trkpt>
      <trkpt lat="46.75102" lon="0.43065">
        <ele>196</ele>
        <time>2016-11-20T08:17:55.000Z</time>
      </trkpt>
      <trkpt lat="46.751" lon="0.43051">
        <ele>189</ele>
        <time>2016-11-20T08:17:56.000Z</time>
      </trkpt>
      <trkpt lat="46.75103" lon="0.43036">
        <ele>190</ele>
        <time>2016-11-20T08:18:01.000Z</time>
      </trkpt>
      <trkpt lat="46.75107" lon="0.43023">
        <ele>191</ele>
        <time>2016-11-20T08:18:07.000Z</time>
      </trkpt>
      <trkpt lat="46.75114" lon="0.43013">
        <ele>192</ele>
        <time>2016-11-20T08:18:12.000Z</time>
      </trkpt>
      <trkpt lat="46.75118" lon="0.42997">
        <ele>197</ele>
        <time>2016-11-20T08:18:20.000Z</time>
      </trkpt>
      <trkpt lat="46.75124" lon="0.42986">
        <ele>199</ele>
        <time>2016-11-20T08:18:25.000Z</time>
      </trkpt>
      <trkpt lat="46.75131" lon="0.42975">
        <ele>199</ele>
        <time>2016-11-20T08:18:29.000Z</time>
      </trkpt>
      <trkpt lat="46.7514" lon="0.42965">
        <ele>199</ele>
        <time>2016-11-20T08:18:32.000Z</time>
      </trkpt>
      <trkpt lat="46.75149" lon="0.42954">
        <ele>199</ele>
        <time>2016-11-20T08:18:36.000Z</time>
      </trkpt>
      <trkpt lat="46.75157" lon="0.42945">
        <ele>199</ele>
        <time>2016-11-20T08:18:39.000Z</time>
      </trkpt>
      <trkpt lat="46.75161" lon="0.42932">
        <ele>201</ele>
        <time>2016-11-20T08:18:44.000Z</time>
      </trkpt>
      <trkpt lat="46.7515" lon="0.4293">
        <ele>194</ele>
        <time>2016-11-20T08:18:50.000Z</time>
      </trkpt>
      <trkpt lat="46.7514" lon="0.42936">
        <ele>191</ele>
        <time>2016-11-20T08:18:53.000Z</time>
      </trkpt>
      <trkpt lat="46.75129" lon="0.42941">
        <ele>194</ele>
        <time>2016-11-20T08:18:58.000Z</time>
      </trkpt>
      <trkpt lat="46.75118" lon="0.42948">
        <ele>194</ele>
        <time>2016-11-20T08:19:02.000Z</time>
      </trkpt>
      <trkpt lat="46.75109" lon="0.42953">
        <ele>194</ele>
        <time>2016-11-20T08:19:05.000Z</time>
      </trkpt>
      <trkpt lat="46.751" lon="0.42956">
        <ele>194</ele>
        <time>2016-11-20T08:19:07.000Z</time>
      </trkpt>
      <trkpt lat="46.75089" lon="0.42959">
        <ele>195</ele>
        <time>2016-11-20T08:19:09.000Z</time>
      </trkpt>
      <trkpt lat="46.75077" lon="0.42962">
        <ele>192</ele>
        <time>2016-11-20T08:19:11.000Z</time>
      </trkpt>
      <trkpt lat="46.75068" lon="0.42965">
        <ele>193</ele>
        <time>2016-11-20T08:19:13.000Z</time>
      </trkpt>
      <trkpt lat="46.75055" lon="0.4297">
        <ele>195</ele>
        <time>2016-11-20T08:19:16.000Z</time>
      </trkpt>
      <trkpt lat="46.75045" lon="0.42974">
        <ele>196</ele>
        <time>2016-11-20T08:19:18.000Z</time>
      </trkpt>
      <trkpt lat="46.75034" lon="0.42976">
        <ele>195</ele>
        <time>2016-11-20T08:19:20.000Z</time>
      </trkpt>
      <trkpt lat="46.75024" lon="0.4298">
        <ele>192</ele>
        <time>2016-11-20T08:19:22.000Z</time>
      </trkpt>
      <trkpt lat="46.75011" lon="0.42985">
        <ele>196</ele>
        <time>2016-11-20T08:19:25.000Z</time>
      </trkpt>
      <trkpt lat="46.74999" lon="0.4299">
        <ele>196</ele>
        <time>2016-11-20T08:19:28.000Z</time>
      </trkpt>
      <trkpt lat="46.7499" lon="0.42994">
        <ele>196</ele>
        <time>2016-11-20T08:19:30.000Z</time>
      </trkpt>
      <trkpt lat="46.74978" lon="0.42997">
        <ele>197</ele>
        <time>2016-11-20T08:19:33.000Z</time>
      </trkpt>
      <trkpt lat="46.74968" lon="0.42997">
        <ele>199</ele>
        <time>2016-11-20T08:19:35.000Z</time>
      </trkpt>
      <trkpt lat="46.74959" lon="0.42998">
        <ele>200</ele>
        <time>2016-11-20T08:19:37.000Z</time>
      </trkpt>
      <trkpt lat="46.74947" lon="0.43002">
        <ele>201</ele>
        <time>2016-11-20T08:19:40.000Z</time>
      </trkpt>
      <trkpt lat="46.7494" lon="0.42993">
        <ele>202</ele>
        <time>2016-11-20T08:19:42.000Z</time>
      </trkpt>
      <trkpt lat="46.74933" lon="0.42978">
        <ele>199</ele>
        <time>2016-11-20T08:19:45.000Z</time>
      </trkpt>
      <trkpt lat="46.74931" lon="0.42965">
        <ele>198</ele>
        <time>2016-11-20T08:19:47.000Z</time>
      </trkpt>
      <trkpt lat="46.74928" lon="0.42952">
        <ele>197</ele>
        <time>2016-11-20T08:19:49.000Z</time>
      </trkpt>
      <trkpt lat="46.74925" lon="0.42939">
        <ele>197</ele>
        <time>2016-11-20T08:19:51.000Z</time>
      </trkpt>
      <trkpt lat="46.74923" lon="0.42925">
        <ele>197</ele>
        <time>2016-11-20T08:19:53.000Z</time>
      </trkpt>
      <trkpt lat="46.7492" lon="0.42911">
        <ele>198</ele>
        <time>2016-11-20T08:19:55.000Z</time>
      </trkpt>
      <trkpt lat="46.74918" lon="0.42898">
        <ele>198</ele>
        <time>2016-11-20T08:19:57.000Z</time>
      </trkpt>
      <trkpt lat="46.74915" lon="0.42882">
        <ele>198</ele>
        <time>2016-11-20T08:20:00.000Z</time>
      </trkpt>
      <trkpt lat="46.74912" lon="0.42865">
        <ele>199</ele>
        <time>2016-11-20T08:20:03.000Z</time>
      </trkpt>
      <trkpt lat="46.74908" lon="0.42848">
        <ele>198</ele>
        <time>2016-11-20T08:20:06.000Z</time>
      </trkpt>
      <trkpt lat="46.74906" lon="0.42835">
        <ele>198</ele>
        <time>2016-11-20T08:20:08.000Z</time>
      </trkpt>
      <trkpt lat="46.74904" lon="0.42819">
        <ele>197</ele>
        <time>2016-11-20T08:20:11.000Z</time>
      </trkpt>
      <trkpt lat="46.74901" lon="0.42801">
        <ele>197</ele>
        <time>2016-11-20T08:20:14.000Z</time>
      </trkpt>
      <trkpt lat="46.749" lon="0.42788">
        <ele>197</ele>
        <time>2016-11-20T08:20:16.000Z</time>
      </trkpt>
      <trkpt lat="46.74901" lon="0.42775">
        <ele>198</ele>
        <time>2016-11-20T08:20:19.000Z</time>
      </trkpt>
      <trkpt lat="46.74906" lon="0.42763">
        <ele>200</ele>
        <time>2016-11-20T08:20:22.000Z</time>
      </trkpt>
      <trkpt lat="46.74914" lon="0.42755">
        <ele>199</ele>
        <time>2016-11-20T08:20:24.000Z</time>
      </trkpt>
      <trkpt lat="46.74924" lon="0.42743">
        <ele>199</ele>
        <time>2016-11-20T08:20:27.000Z</time>
      </trkpt>
      <trkpt lat="46.74934" lon="0.42731">
        <ele>198</ele>
        <time>2016-11-20T08:20:30.000Z</time>
      </trkpt>
      <trkpt lat="46.74942" lon="0.4272">
        <ele>198</ele>
        <time>2016-11-20T08:20:33.000Z</time>
      </trkpt>
      <trkpt lat="46.74952" lon="0.42709">
        <ele>197</ele>
        <time>2016-11-20T08:20:36.000Z</time>
      </trkpt>
      <trkpt lat="46.7496" lon="0.42699">
        <ele>197</ele>
        <time>2016-11-20T08:20:39.000Z</time>
      </trkpt>
      <trkpt lat="46.7497" lon="0.42688">
        <ele>197</ele>
        <time>2016-11-20T08:20:42.000Z</time>
      </trkpt>
      <trkpt lat="46.74979" lon="0.42676">
        <ele>197</ele>
        <time>2016-11-20T08:20:45.000Z</time>
      </trkpt>
      <trkpt lat="46.74989" lon="0.42666">
        <ele>198</ele>
        <time>2016-11-20T08:20:48.000Z</time>
      </trkpt>
      <trkpt lat="46.74998" lon="0.42655">
        <ele>198</ele>
        <time>2016-11-20T08:20:51.000Z</time>
      </trkpt>
      <trkpt lat="46.75006" lon="0.42645">
        <ele>199</ele>
        <time>2016-11-20T08:20:54.000Z</time>
      </trkpt>
      <trkpt lat="46.75014" lon="0.42633">
        <ele>198</ele>
        <time>2016-11-20T08:20:57.000Z</time>
      </trkpt>
      <trkpt lat="46.75021" lon="0.42622">
        <ele>198</ele>
        <time>2016-11-20T08:21:00.000Z</time>
      </trkpt>
      <trkpt lat="46.75029" lon="0.4261">
        <ele>198</ele>
        <time>2016-11-20T08:21:03.000Z</time>
      </trkpt>
      <trkpt lat="46.7504" lon="0.42597">
        <ele>198</ele>
        <time>2016-11-20T08:21:06.000Z</time>
      </trkpt>
      <trkpt lat="46.75051" lon="0.42584">
        <ele>198</ele>
        <time>2016-11-20T08:21:09.000Z</time>
      </trkpt>
      <trkpt lat="46.7506" lon="0.42573">
        <ele>198</ele>
        <time>2016-11-20T08:21:12.000Z</time>
      </trkpt>
      <trkpt lat="46.75068" lon="0.42565">
        <ele>197</ele>
        <time>2016-11-20T08:21:14.000Z</time>
      </trkpt>
      <trkpt lat="46.75076" lon="0.42557">
        <ele>198</ele>
        <time>2016-11-20T08:21:16.000Z</time>
      </trkpt>
      <trkpt lat="46.75083" lon="0.42547">
        <ele>200</ele>
        <time>2016-11-20T08:21:19.000Z</time>
      </trkpt>
      <trkpt lat="46.75076" lon="0.42533">
        <ele>200</ele>
        <time>2016-11-20T08:21:22.000Z</time>
      </trkpt>
      <trkpt lat="46.75066" lon="0.42521">
        <ele>200</ele>
        <time>2016-11-20T08:21:25.000Z</time>
      </trkpt>
      <trkpt lat="46.75055" lon="0.42512">
        <ele>203</ele>
        <time>2016-11-20T08:21:29.000Z</time>
      </trkpt>
      <trkpt lat="46.75045" lon="0.42498">
        <ele>204</ele>
        <time>2016-11-20T08:21:32.000Z</time>
      </trkpt>
      <trkpt lat="46.75038" lon="0.42488">
        <ele>204</ele>
        <time>2016-11-20T08:21:34.000Z</time>
      </trkpt>
      <trkpt lat="46.75031" lon="0.42478">
        <ele>205</ele>
        <time>2016-11-20T08:21:36.000Z</time>
      </trkpt>
      <trkpt lat="46.75024" lon="0.42469">
        <ele>203</ele>
        <time>2016-11-20T08:21:38.000Z</time>
      </trkpt>
      <trkpt lat="46.75015" lon="0.42456">
        <ele>204</ele>
        <time>2016-11-20T08:21:41.000Z</time>
      </trkpt>
      <trkpt lat="46.75012" lon="0.42441">
        <ele>202</ele>
        <time>2016-11-20T08:21:43.000Z</time>
      </trkpt>
      <trkpt lat="46.75013" lon="0.42425">
        <ele>201</ele>
        <time>2016-11-20T08:21:45.000Z</time>
      </trkpt>
      <trkpt lat="46.75016" lon="0.42411">
        <ele>201</ele>
        <time>2016-11-20T08:21:47.000Z</time>
      </trkpt>
      <trkpt lat="46.75018" lon="0.42394">
        <ele>199</ele>
        <time>2016-11-20T08:21:49.000Z</time>
      </trkpt>
      <trkpt lat="46.75021" lon="0.42381">
        <ele>199</ele>
        <time>2016-11-20T08:21:51.000Z</time>
      </trkpt>
      <trkpt lat="46.75024" lon="0.42367">
        <ele>200</ele>
        <time>2016-11-20T08:21:53.000Z</time>
      </trkpt>
      <trkpt lat="46.75029" lon="0.42355">
        <ele>200</ele>
        <time>2016-11-20T08:21:55.000Z</time>
      </trkpt>
      <trkpt lat="46.75037" lon="0.4234">
        <ele>199</ele>
        <time>2016-11-20T08:21:58.000Z</time>
      </trkpt>
      <trkpt lat="46.75043" lon="0.42329">
        <ele>199</ele>
        <time>2016-11-20T08:22:00.000Z</time>
      </trkpt>
      <trkpt lat="46.7505" lon="0.42318">
        <ele>200</ele>
        <time>2016-11-20T08:22:02.000Z</time>
      </trkpt>
      <trkpt lat="46.75055" lon="0.42303">
        <ele>205</ele>
        <time>2016-11-20T08:22:06.000Z</time>
      </trkpt>
      <trkpt lat="46.75063" lon="0.42293">
        <ele>205</ele>
        <time>2016-11-20T08:22:09.000Z</time>
      </trkpt>
      <trkpt lat="46.75067" lon="0.42282">
        <ele>205</ele>
        <time>2016-11-20T08:22:11.000Z</time>
      </trkpt>
      <trkpt lat="46.75075" lon="0.42272">
        <ele>206</ele>
        <time>2016-11-20T08:22:14.000Z</time>
      </trkpt>
      <trkpt lat="46.75081" lon="0.42257">
        <ele>207</ele>
        <time>2016-11-20T08:22:17.000Z</time>
      </trkpt>
      <trkpt lat="46.75089" lon="0.4224">
        <ele>205</ele>
        <time>2016-11-20T08:22:20.000Z</time>
      </trkpt>
      <trkpt lat="46.75093" lon="0.42226">
        <ele>204</ele>
        <time>2016-11-20T08:22:22.000Z</time>
      </trkpt>
      <trkpt lat="46.75098" lon="0.42214">
        <ele>204</ele>
        <time>2016-11-20T08:22:24.000Z</time>
      </trkpt>
      <trkpt lat="46.75106" lon="0.42187">
        <ele>195</ele>
        <time>2016-11-20T08:22:26.000Z</time>
      </trkpt>
      <trkpt lat="46.75108" lon="0.42172">
        <ele>195</ele>
        <time>2016-11-20T08:22:28.000Z</time>
      </trkpt>
      <trkpt lat="46.75108" lon="0.42159">
        <ele>195</ele>
        <time>2016-11-20T08:22:30.000Z</time>
      </trkpt>
      <trkpt lat="46.75108" lon="0.42144">
        <ele>196</ele>
        <time>2016-11-20T08:22:32.000Z</time>
      </trkpt>
      <trkpt lat="46.75107" lon="0.42126">
        <ele>196</ele>
        <time>2016-11-20T08:22:35.000Z</time>
      </trkpt>
      <trkpt lat="46.75102" lon="0.42112">
        <ele>196</ele>
        <time>2016-11-20T08:22:38.000Z</time>
      </trkpt>
      <trkpt lat="46.75094" lon="0.42101">
        <ele>195</ele>
        <time>2016-11-20T08:22:41.000Z</time>
      </trkpt>
      <trkpt lat="46.75085" lon="0.4209">
        <ele>197</ele>
        <time>2016-11-20T08:22:44.000Z</time>
      </trkpt>
      <trkpt lat="46.75077" lon="0.4208">
        <ele>198</ele>
        <time>2016-11-20T08:22:46.000Z</time>
      </trkpt>
      <trkpt lat="46.75069" lon="0.42072">
        <ele>198</ele>
        <time>2016-11-20T08:22:48.000Z</time>
      </trkpt>
      <trkpt lat="46.75057" lon="0.42066">
        <ele>197</ele>
        <time>2016-11-20T08:22:51.000Z</time>
      </trkpt>
      <trkpt lat="46.75045" lon="0.4206">
        <ele>199</ele>
        <time>2016-11-20T08:22:54.000Z</time>
      </trkpt>
      <trkpt lat="46.75031" lon="0.42038">
        <ele>196</ele>
        <time>2016-11-20T08:22:57.000Z</time>
      </trkpt>
      <trkpt lat="46.75021" lon="0.42031">
        <ele>197</ele>
        <time>2016-11-20T08:23:00.000Z</time>
      </trkpt>
      <trkpt lat="46.75013" lon="0.42024">
        <ele>197</ele>
        <time>2016-11-20T08:23:03.000Z</time>
      </trkpt>
      <trkpt lat="46.75004" lon="0.42008">
        <ele>200</ele>
        <time>2016-11-20T08:23:07.000Z</time>
      </trkpt>
      <trkpt lat="46.74995" lon="0.42">
        <ele>198</ele>
        <time>2016-11-20T08:23:10.000Z</time>
      </trkpt>
      <trkpt lat="46.74995" lon="0.41983">
        <ele>199</ele>
        <time>2016-11-20T08:23:12.000Z</time>
      </trkpt>
      <trkpt lat="46.74997" lon="0.41967">
        <ele>199</ele>
        <time>2016-11-20T08:23:14.000Z</time>
      </trkpt>
      <trkpt lat="46.74992" lon="0.41956">
        <ele>200</ele>
        <time>2016-11-20T08:23:18.000Z</time>
      </trkpt>
      <trkpt lat="46.74994" lon="0.41933">
        <ele>201</ele>
        <time>2016-11-20T08:23:22.000Z</time>
      </trkpt>
      <trkpt lat="46.74987" lon="0.41923">
        <ele>203</ele>
        <time>2016-11-20T08:23:27.000Z</time>
      </trkpt>
      <trkpt lat="46.74983" lon="0.41897">
        <ele>205</ele>
        <time>2016-11-20T08:23:30.000Z</time>
      </trkpt>
      <trkpt lat="46.74983" lon="0.41877">
        <ele>205</ele>
        <time>2016-11-20T08:23:31.000Z</time>
      </trkpt>
      <trkpt lat="46.74987" lon="0.41862">
        <ele>205</ele>
        <time>2016-11-20T08:23:33.000Z</time>
      </trkpt>
      <trkpt lat="46.74989" lon="0.41845">
        <ele>199</ele>
        <time>2016-11-20T08:23:35.000Z</time>
      </trkpt>
      <trkpt lat="46.7499" lon="0.41825">
        <ele>192</ele>
        <time>2016-11-20T08:23:36.000Z</time>
      </trkpt>
      <trkpt lat="46.74994" lon="0.41811">
        <ele>195</ele>
        <time>2016-11-20T08:23:39.000Z</time>
      </trkpt>
      <trkpt lat="46.75006" lon="0.41811">
        <ele>196</ele>
        <time>2016-11-20T08:23:41.000Z</time>
      </trkpt>
      <trkpt lat="46.75015" lon="0.41807">
        <ele>197</ele>
        <time>2016-11-20T08:23:43.000Z</time>
      </trkpt>
      <trkpt lat="46.75025" lon="0.41809">
        <ele>200</ele>
        <time>2016-11-20T08:23:46.000Z</time>
      </trkpt>
      <trkpt lat="46.75034" lon="0.41805">
        <ele>201</ele>
        <time>2016-11-20T08:23:48.000Z</time>
      </trkpt>
      <trkpt lat="46.75044" lon="0.41803">
        <ele>201</ele>
        <time>2016-11-20T08:23:50.000Z</time>
      </trkpt>
      <trkpt lat="46.75055" lon="0.41798">
        <ele>200</ele>
        <time>2016-11-20T08:23:52.000Z</time>
      </trkpt>
      <trkpt lat="46.75066" lon="0.41792">
        <ele>198</ele>
        <time>2016-11-20T08:23:54.000Z</time>
      </trkpt>
      <trkpt lat="46.75077" lon="0.41787">
        <ele>198</ele>
        <time>2016-11-20T08:23:56.000Z</time>
      </trkpt>
      <trkpt lat="46.75088" lon="0.41783">
        <ele>197</ele>
        <time>2016-11-20T08:23:58.000Z</time>
      </trkpt>
      <trkpt lat="46.75098" lon="0.41776">
        <ele>199</ele>
        <time>2016-11-20T08:24:00.000Z</time>
      </trkpt>
      <trkpt lat="46.7511" lon="0.41771">
        <ele>197</ele>
        <time>2016-11-20T08:24:02.000Z</time>
      </trkpt>
      <trkpt lat="46.7512" lon="0.41767">
        <ele>198</ele>
        <time>2016-11-20T08:24:04.000Z</time>
      </trkpt>
      <trkpt lat="46.75129" lon="0.4176">
        <ele>198</ele>
        <time>2016-11-20T08:24:07.000Z</time>
      </trkpt>
      <trkpt lat="46.7514" lon="0.41755">
        <ele>199</ele>
        <time>2016-11-20T08:24:09.000Z</time>
      </trkpt>
      <trkpt lat="46.75151" lon="0.41746">
        <ele>201</ele>
        <time>2016-11-20T08:24:13.000Z</time>
      </trkpt>
      <trkpt lat="46.7516" lon="0.41741">
        <ele>203</ele>
        <time>2016-11-20T08:24:16.000Z</time>
      </trkpt>
      <trkpt lat="46.75177" lon="0.41732">
        <ele>201</ele>
        <time>2016-11-20T08:24:18.000Z</time>
      </trkpt>
      <trkpt lat="46.75188" lon="0.41726">
        <ele>202</ele>
        <time>2016-11-20T08:24:20.000Z</time>
      </trkpt>
      <trkpt lat="46.75209" lon="0.41713">
        <ele>204</ele>
        <time>2016-11-20T08:24:25.000Z</time>
      </trkpt>
      <trkpt lat="46.75221" lon="0.41707">
        <ele>205</ele>
        <time>2016-11-20T08:24:27.000Z</time>
      </trkpt>
      <trkpt lat="46.75232" lon="0.41701">
        <ele>207</ele>
        <time>2016-11-20T08:24:29.000Z</time>
      </trkpt>
      <trkpt lat="46.75246" lon="0.41694">
        <ele>204</ele>
        <time>2016-11-20T08:24:31.000Z</time>
      </trkpt>
      <trkpt lat="46.75256" lon="0.41688">
        <ele>203</ele>
        <time>2016-11-20T08:24:33.000Z</time>
      </trkpt>
      <trkpt lat="46.75267" lon="0.41684">
        <ele>199</ele>
        <time>2016-11-20T08:24:35.000Z</time>
      </trkpt>
      <trkpt lat="46.75293" lon="0.41674">
        <ele>196</ele>
        <time>2016-11-20T08:24:39.000Z</time>
      </trkpt>
      <trkpt lat="46.75309" lon="0.41666">
        <ele>196</ele>
        <time>2016-11-20T08:24:42.000Z</time>
      </trkpt>
      <trkpt lat="46.7533" lon="0.41656">
        <ele>196</ele>
        <time>2016-11-20T08:24:46.000Z</time>
      </trkpt>
      <trkpt lat="46.75343" lon="0.41649">
        <ele>196</ele>
        <time>2016-11-20T08:24:48.000Z</time>
      </trkpt>
      <trkpt lat="46.75351" lon="0.41645">
        <ele>196</ele>
        <time>2016-11-20T08:24:50.000Z</time>
      </trkpt>
      <trkpt lat="46.75377" lon="0.41632">
        <ele>197</ele>
        <time>2016-11-20T08:24:56.000Z</time>
      </trkpt>
      <trkpt lat="46.75385" lon="0.41627">
        <ele>198</ele>
        <time>2016-11-20T08:24:59.000Z</time>
      </trkpt>
      <trkpt lat="46.75398" lon="0.41622">
        <ele>197</ele>
        <time>2016-11-20T08:25:03.000Z</time>
      </trkpt>
      <trkpt lat="46.75412" lon="0.41612">
        <ele>196</ele>
        <time>2016-11-20T08:25:06.000Z</time>
      </trkpt>
      <trkpt lat="46.75415" lon="0.41598">
        <ele>200</ele>
        <time>2016-11-20T08:25:09.000Z</time>
      </trkpt>
      <trkpt lat="46.7542" lon="0.41584">
        <ele>199</ele>
        <time>2016-11-20T08:25:11.000Z</time>
      </trkpt>
      <trkpt lat="46.75421" lon="0.41567">
        <ele>202</ele>
        <time>2016-11-20T08:25:14.000Z</time>
      </trkpt>
      <trkpt lat="46.75423" lon="0.41541">
        <ele>204</ele>
        <time>2016-11-20T08:25:18.000Z</time>
      </trkpt>
      <trkpt lat="46.75422" lon="0.41519">
        <ele>206</ele>
        <time>2016-11-20T08:25:21.000Z</time>
      </trkpt>
      <trkpt lat="46.75423" lon="0.41504">
        <ele>205</ele>
        <time>2016-11-20T08:25:23.000Z</time>
      </trkpt>
      <trkpt lat="46.75424" lon="0.41489">
        <ele>204</ele>
        <time>2016-11-20T08:25:25.000Z</time>
      </trkpt>
      <trkpt lat="46.75425" lon="0.41455">
        <ele>203</ele>
        <time>2016-11-20T08:25:29.000Z</time>
      </trkpt>
      <trkpt lat="46.75427" lon="0.41435">
        <ele>203</ele>
        <time>2016-11-20T08:25:33.000Z</time>
      </trkpt>
      <trkpt lat="46.75425" lon="0.41417">
        <ele>203</ele>
        <time>2016-11-20T08:25:36.000Z</time>
      </trkpt>
      <trkpt lat="46.75425" lon="0.41378">
        <ele>201</ele>
        <time>2016-11-20T08:25:41.000Z</time>
      </trkpt>
      <trkpt lat="46.75426" lon="0.4136">
        <ele>199</ele>
        <time>2016-11-20T08:25:43.000Z</time>
      </trkpt>
      <trkpt lat="46.75428" lon="0.41339">
        <ele>199</ele>
        <time>2016-11-20T08:25:47.000Z</time>
      </trkpt>
      <trkpt lat="46.75427" lon="0.41313">
        <ele>199</ele>
        <time>2016-11-20T08:25:51.000Z</time>
      </trkpt>
      <trkpt lat="46.75427" lon="0.41299">
        <ele>199</ele>
        <time>2016-11-20T08:25:53.000Z</time>
      </trkpt>
      <trkpt lat="46.75426" lon="0.41277">
        <ele>202</ele>
        <time>2016-11-20T08:25:57.000Z</time>
      </trkpt>
      <trkpt lat="46.75427" lon="0.41259">
        <ele>207</ele>
        <time>2016-11-20T08:26:02.000Z</time>
      </trkpt>
      <trkpt lat="46.75426" lon="0.4123">
        <ele>202</ele>
        <time>2016-11-20T08:26:07.000Z</time>
      </trkpt>
      <trkpt lat="46.75426" lon="0.41216">
        <ele>205</ele>
        <time>2016-11-20T08:26:10.000Z</time>
      </trkpt>
      <trkpt lat="46.75426" lon="0.41193">
        <ele>205</ele>
        <time>2016-11-20T08:26:15.000Z</time>
      </trkpt>
      <trkpt lat="46.75427" lon="0.41175">
        <ele>206</ele>
        <time>2016-11-20T08:26:18.000Z</time>
      </trkpt>
      <trkpt lat="46.75425" lon="0.41118">
        <ele>207</ele>
        <time>2016-11-20T08:26:31.000Z</time>
      </trkpt>
      <trkpt lat="46.75427" lon="0.41095">
        <ele>207</ele>
        <time>2016-11-20T08:26:35.000Z</time>
      </trkpt>
      <trkpt lat="46.75429" lon="0.41066">
        <ele>204</ele>
        <time>2016-11-20T08:26:39.000Z</time>
      </trkpt>
      <trkpt lat="46.7543" lon="0.41052">
        <ele>207</ele>
        <time>2016-11-20T08:26:42.000Z</time>
      </trkpt>
      <trkpt lat="46.75432" lon="0.41029">
        <ele>202</ele>
        <time>2016-11-20T08:26:45.000Z</time>
      </trkpt>
      <trkpt lat="46.7543" lon="0.41014">
        <ele>202</ele>
        <time>2016-11-20T08:26:49.000Z</time>
      </trkpt>
      <trkpt lat="46.75429" lon="0.40997">
        <ele>202</ele>
        <time>2016-11-20T08:26:52.000Z</time>
      </trkpt>
      <trkpt lat="46.7543" lon="0.40983">
        <ele>205</ele>
        <time>2016-11-20T08:26:55.000Z</time>
      </trkpt>
      <trkpt lat="46.75429" lon="0.40969">
        <ele>205</ele>
        <time>2016-11-20T08:26:58.000Z</time>
      </trkpt>
      <trkpt lat="46.75431" lon="0.40956">
        <ele>204</ele>
        <time>2016-11-20T08:27:01.000Z</time>
      </trkpt>
      <trkpt lat="46.75442" lon="0.40939">
        <ele>203</ele>
        <time>2016-11-20T08:27:05.000Z</time>
      </trkpt>
      <trkpt lat="46.75454" lon="0.4094">
        <ele>207</ele>
        <time>2016-11-20T08:27:08.000Z</time>
      </trkpt>
      <trkpt lat="46.75463" lon="0.40945">
        <ele>209</ele>
        <time>2016-11-20T08:27:12.000Z</time>
      </trkpt>
      <trkpt lat="46.75472" lon="0.40943">
        <ele>211</ele>
        <time>2016-11-20T08:27:13.000Z</time>
      </trkpt>
      <trkpt lat="46.75482" lon="0.40939">
        <ele>211</ele>
        <time>2016-11-20T08:27:16.000Z</time>
      </trkpt>
      <trkpt lat="46.75485" lon="0.4092">
        <ele>211</ele>
        <time>2016-11-20T08:27:23.000Z</time>
      </trkpt>
      <trkpt lat="46.75486" lon="0.40906">
        <ele>209</ele>
        <time>2016-11-20T08:27:26.000Z</time>
      </trkpt>
      <trkpt lat="46.75487" lon="0.40888">
        <ele>211</ele>
        <time>2016-11-20T08:27:29.000Z</time>
      </trkpt>
      <trkpt lat="46.75487" lon="0.4087">
        <ele>211</ele>
        <time>2016-11-20T08:27:32.000Z</time>
      </trkpt>
      <trkpt lat="46.75486" lon="0.40854">
        <ele>211</ele>
        <time>2016-11-20T08:27:35.000Z</time>
      </trkpt>
      <trkpt lat="46.75487" lon="0.40833">
        <ele>209</ele>
        <time>2016-11-20T08:27:38.000Z</time>
      </trkpt>
      <trkpt lat="46.75487" lon="0.40817">
        <ele>210</ele>
        <time>2016-11-20T08:27:41.000Z</time>
      </trkpt>
      <trkpt lat="46.75489" lon="0.40803">
        <ele>210</ele>
        <time>2016-11-20T08:27:44.000Z</time>
      </trkpt>
      <trkpt lat="46.7549" lon="0.40787">
        <ele>213</ele>
        <time>2016-11-20T08:27:49.000Z</time>
      </trkpt>
      <trkpt lat="46.75489" lon="0.40772">
        <ele>216</ele>
        <time>2016-11-20T08:27:52.000Z</time>
      </trkpt>
      <trkpt lat="46.75489" lon="0.40748">
        <ele>221</ele>
        <time>2016-11-20T08:27:56.000Z</time>
      </trkpt>
      <trkpt lat="46.75491" lon="0.40733">
        <ele>213</ele>
        <time>2016-11-20T08:27:59.000Z</time>
      </trkpt>
      <trkpt lat="46.75494" lon="0.40719">
        <ele>213</ele>
        <time>2016-11-20T08:28:04.000Z</time>
      </trkpt>
      <trkpt lat="46.75492" lon="0.40705">
        <ele>215</ele>
        <time>2016-11-20T08:28:08.000Z</time>
      </trkpt>
      <trkpt lat="46.75492" lon="0.40689">
        <ele>211</ele>
        <time>2016-11-20T08:28:11.000Z</time>
      </trkpt>
      <trkpt lat="46.75495" lon="0.40676">
        <ele>209</ele>
        <time>2016-11-20T08:28:17.000Z</time>
      </trkpt>
      <trkpt lat="46.75489" lon="0.40663">
        <ele>213</ele>
        <time>2016-11-20T08:28:25.000Z</time>
      </trkpt>
      <trkpt lat="46.75485" lon="0.40652">
        <ele>213</ele>
        <time>2016-11-20T08:28:28.000Z</time>
      </trkpt>
      <trkpt lat="46.75483" lon="0.40638">
        <ele>209</ele>
        <time>2016-11-20T08:28:29.000Z</time>
      </trkpt>
      <trkpt lat="46.7548" lon="0.40621">
        <ele>207</ele>
        <time>2016-11-20T08:28:34.000Z</time>
      </trkpt>
      <trkpt lat="46.75474" lon="0.40611">
        <ele>213</ele>
        <time>2016-11-20T08:28:39.000Z</time>
      </trkpt>
      <trkpt lat="46.7547" lon="0.40599">
        <ele>212</ele>
        <time>2016-11-20T08:28:42.000Z</time>
      </trkpt>
      <trkpt lat="46.75464" lon="0.40588">
        <ele>214</ele>
        <time>2016-11-20T08:28:47.000Z</time>
      </trkpt>
      <trkpt lat="46.75464" lon="0.40573">
        <ele>210</ele>
        <time>2016-11-20T08:28:48.000Z</time>
      </trkpt>
      <trkpt lat="46.75464" lon="0.40558">
        <ele>214</ele>
        <time>2016-11-20T08:28:52.000Z</time>
      </trkpt>
      <trkpt lat="46.7546" lon="0.40543">
        <ele>215</ele>
        <time>2016-11-20T08:28:56.000Z</time>
      </trkpt>
      <trkpt lat="46.75461" lon="0.40526">
        <ele>215</ele>
        <time>2016-11-20T08:28:59.000Z</time>
      </trkpt>
      <trkpt lat="46.75456" lon="0.40515">
        <ele>220</ele>
        <time>2016-11-20T08:29:03.000Z</time>
      </trkpt>
      <trkpt lat="46.75451" lon="0.40499">
        <ele>220</ele>
        <time>2016-11-20T08:29:07.000Z</time>
      </trkpt>
      <trkpt lat="46.75451" lon="0.40485">
        <ele>219</ele>
        <time>2016-11-20T08:29:10.000Z</time>
      </trkpt>
      <trkpt lat="46.75454" lon="0.40468">
        <ele>221</ele>
        <time>2016-11-20T08:29:14.000Z</time>
      </trkpt>
      <trkpt lat="46.75448" lon="0.40456">
        <ele>222</ele>
        <time>2016-11-20T08:29:18.000Z</time>
      </trkpt>
      <trkpt lat="46.75441" lon="0.40444">
        <ele>219</ele>
        <time>2016-11-20T08:29:23.000Z</time>
      </trkpt>
      <trkpt lat="46.7543" lon="0.40438">
        <ele>215</ele>
        <time>2016-11-20T08:29:26.000Z</time>
      </trkpt>
      <trkpt lat="46.75424" lon="0.40428">
        <ele>215</ele>
        <time>2016-11-20T08:29:30.000Z</time>
      </trkpt>
      <trkpt lat="46.75413" lon="0.40428">
        <ele>212</ele>
        <time>2016-11-20T08:29:34.000Z</time>
      </trkpt>
      <trkpt lat="46.75403" lon="0.4043">
        <ele>211</ele>
        <time>2016-11-20T08:29:36.000Z</time>
      </trkpt>
      <trkpt lat="46.75389" lon="0.40427">
        <ele>208</ele>
        <time>2016-11-20T08:29:38.000Z</time>
      </trkpt>
      <trkpt lat="46.75377" lon="0.40425">
        <ele>210</ele>
        <time>2016-11-20T08:29:41.000Z</time>
      </trkpt>
      <trkpt lat="46.7537" lon="0.40414">
        <ele>207</ele>
        <time>2016-11-20T08:29:45.000Z</time>
      </trkpt>
      <trkpt lat="46.75358" lon="0.40417">
        <ele>210</ele>
        <time>2016-11-20T08:29:48.000Z</time>
      </trkpt>
      <trkpt lat="46.75348" lon="0.40419">
        <ele>212</ele>
        <time>2016-11-20T08:29:50.000Z</time>
      </trkpt>
      <trkpt lat="46.75336" lon="0.40422">
        <ele>210</ele>
        <time>2016-11-20T08:29:53.000Z</time>
      </trkpt>
      <trkpt lat="46.7532" lon="0.4042">
        <ele>205</ele>
        <time>2016-11-20T08:29:56.000Z</time>
      </trkpt>
      <trkpt lat="46.75301" lon="0.40419">
        <ele>206</ele>
        <time>2016-11-20T08:30:00.000Z</time>
      </trkpt>
      <trkpt lat="46.7529" lon="0.40421">
        <ele>207</ele>
        <time>2016-11-20T08:30:02.000Z</time>
      </trkpt>
      <trkpt lat="46.75277" lon="0.40422">
        <ele>212</ele>
        <time>2016-11-20T08:30:06.000Z</time>
      </trkpt>
      <trkpt lat="46.75267" lon="0.40422">
        <ele>210</ele>
        <time>2016-11-20T08:30:08.000Z</time>
      </trkpt>
      <trkpt lat="46.75251" lon="0.40419">
        <ele>206</ele>
        <time>2016-11-20T08:30:10.000Z</time>
      </trkpt>
      <trkpt lat="46.75237" lon="0.40414">
        <ele>204</ele>
        <time>2016-11-20T08:30:12.000Z</time>
      </trkpt>
      <trkpt lat="46.75227" lon="0.40411">
        <ele>205</ele>
        <time>2016-11-20T08:30:14.000Z</time>
      </trkpt>
      <trkpt lat="46.75215" lon="0.40416">
        <ele>202</ele>
        <time>2016-11-20T08:30:18.000Z</time>
      </trkpt>
      <trkpt lat="46.75206" lon="0.40419">
        <ele>205</ele>
        <time>2016-11-20T08:30:22.000Z</time>
      </trkpt>
      <trkpt lat="46.75197" lon="0.4042">
        <ele>205</ele>
        <time>2016-11-20T08:30:25.000Z</time>
      </trkpt>
      <trkpt lat="46.75184" lon="0.40413">
        <ele>206</ele>
        <time>2016-11-20T08:30:28.000Z</time>
      </trkpt>
      <trkpt lat="46.75174" lon="0.40417">
        <ele>214</ele>
        <time>2016-11-20T08:30:31.000Z</time>
      </trkpt>
      <trkpt lat="46.75163" lon="0.40418">
        <ele>217</ele>
        <time>2016-11-20T08:30:34.000Z</time>
      </trkpt>
      <trkpt lat="46.7515" lon="0.40419">
        <ele>215</ele>
        <time>2016-11-20T08:30:37.000Z</time>
      </trkpt>
      <trkpt lat="46.7514" lon="0.40419">
        <ele>213</ele>
        <time>2016-11-20T08:30:39.000Z</time>
      </trkpt>
      <trkpt lat="46.75131" lon="0.4041">
        <ele>208</ele>
        <time>2016-11-20T08:30:42.000Z</time>
      </trkpt>
      <trkpt lat="46.75127" lon="0.40396">
        <ele>208</ele>
        <time>2016-11-20T08:30:44.000Z</time>
      </trkpt>
      <trkpt lat="46.75124" lon="0.40382">
        <ele>205</ele>
        <time>2016-11-20T08:30:46.000Z</time>
      </trkpt>
      <trkpt lat="46.75121" lon="0.40362">
        <ele>204</ele>
        <time>2016-11-20T08:30:50.000Z</time>
      </trkpt>
      <trkpt lat="46.75119" lon="0.40346">
        <ele>205</ele>
        <time>2016-11-20T08:30:55.000Z</time>
      </trkpt>
      <trkpt lat="46.75116" lon="0.40332">
        <ele>201</ele>
        <time>2016-11-20T08:30:58.000Z</time>
      </trkpt>
      <trkpt lat="46.7511" lon="0.40319">
        <ele>198</ele>
        <time>2016-11-20T08:31:02.000Z</time>
      </trkpt>
      <trkpt lat="46.75107" lon="0.40305">
        <ele>199</ele>
        <time>2016-11-20T08:31:07.000Z</time>
      </trkpt>
      <trkpt lat="46.75104" lon="0.40291">
        <ele>199</ele>
        <time>2016-11-20T08:31:10.000Z</time>
      </trkpt>
      <trkpt lat="46.75101" lon="0.40278">
        <ele>202</ele>
        <time>2016-11-20T08:31:16.000Z</time>
      </trkpt>
      <trkpt lat="46.75094" lon="0.40268">
        <ele>201</ele>
        <time>2016-11-20T08:31:19.000Z</time>
      </trkpt>
      <trkpt lat="46.75092" lon="0.40255">
        <ele>199</ele>
        <time>2016-11-20T08:31:23.000Z</time>
      </trkpt>
      <trkpt lat="46.75088" lon="0.40243">
        <ele>201</ele>
        <time>2016-11-20T08:31:26.000Z</time>
      </trkpt>
      <trkpt lat="46.75086" lon="0.40228">
        <ele>196</ele>
        <time>2016-11-20T08:31:29.000Z</time>
      </trkpt>
      <trkpt lat="46.75083" lon="0.40215">
        <ele>196</ele>
        <time>2016-11-20T08:31:32.000Z</time>
      </trkpt>
      <trkpt lat="46.75077" lon="0.40202">
        <ele>198</ele>
        <time>2016-11-20T08:31:35.000Z</time>
      </trkpt>
      <trkpt lat="46.75073" lon="0.40185">
        <ele>199</ele>
        <time>2016-11-20T08:31:39.000Z</time>
      </trkpt>
      <trkpt lat="46.75068" lon="0.40174">
        <ele>195</ele>
        <time>2016-11-20T08:31:44.000Z</time>
      </trkpt>
      <trkpt lat="46.7507" lon="0.40157">
        <ele>190</ele>
        <time>2016-11-20T08:31:47.000Z</time>
      </trkpt>
      <trkpt lat="46.75069" lon="0.4014">
        <ele>191</ele>
        <time>2016-11-20T08:31:52.000Z</time>
      </trkpt>
      <trkpt lat="46.75073" lon="0.40126">
        <ele>189</ele>
        <time>2016-11-20T08:31:57.000Z</time>
      </trkpt>
      <trkpt lat="46.75082" lon="0.40123">
        <ele>190</ele>
        <time>2016-11-20T08:32:03.000Z</time>
      </trkpt>
      <trkpt lat="46.7509" lon="0.40131">
        <ele>194</ele>
        <time>2016-11-20T08:32:12.000Z</time>
      </trkpt>
      <trkpt lat="46.75098" lon="0.40127">
        <ele>196</ele>
        <time>2016-11-20T08:32:21.000Z</time>
      </trkpt>
      <trkpt lat="46.75095" lon="0.40114">
        <ele>198</ele>
        <time>2016-11-20T08:32:30.000Z</time>
      </trkpt>
      <trkpt lat="46.75095" lon="0.40101">
        <ele>199</ele>
        <time>2016-11-20T08:32:35.000Z</time>
      </trkpt>
      <trkpt lat="46.75097" lon="0.4008">
        <ele>196</ele>
        <time>2016-11-20T08:32:38.000Z</time>
      </trkpt>
      <trkpt lat="46.751" lon="0.40066">
        <ele>191</ele>
        <time>2016-11-20T08:32:40.000Z</time>
      </trkpt>
      <trkpt lat="46.75097" lon="0.40053">
        <ele>193</ele>
        <time>2016-11-20T08:32:45.000Z</time>
      </trkpt>
      <trkpt lat="46.75102" lon="0.4004">
        <ele>191</ele>
        <time>2016-11-20T08:32:47.000Z</time>
      </trkpt>
      <trkpt lat="46.7511" lon="0.40027">
        <ele>192</ele>
        <time>2016-11-20T08:32:54.000Z</time>
      </trkpt>
      <trkpt lat="46.75111" lon="0.40013">
        <ele>191</ele>
        <time>2016-11-20T08:32:58.000Z</time>
      </trkpt>
      <trkpt lat="46.75117" lon="0.4">
        <ele>193</ele>
        <time>2016-11-20T08:33:02.000Z</time>
      </trkpt>
      <trkpt lat="46.75124" lon="0.39988">
        <ele>195</ele>
        <time>2016-11-20T08:33:05.000Z</time>
      </trkpt>
      <trkpt lat="46.75133" lon="0.39971">
        <ele>196</ele>
        <time>2016-11-20T08:33:09.000Z</time>
      </trkpt>
      <trkpt lat="46.75141" lon="0.39963">
        <ele>192</ele>
        <time>2016-11-20T08:33:11.000Z</time>
      </trkpt>
      <trkpt lat="46.75148" lon="0.39955">
        <ele>193</ele>
        <time>2016-11-20T08:33:15.000Z</time>
      </trkpt>
      <trkpt lat="46.75151" lon="0.39942">
        <ele>197</ele>
        <time>2016-11-20T08:33:20.000Z</time>
      </trkpt>
      <trkpt lat="46.75155" lon="0.39928">
        <ele>196</ele>
        <time>2016-11-20T08:33:24.000Z</time>
      </trkpt>
      <trkpt lat="46.75153" lon="0.39913">
        <ele>194</ele>
        <time>2016-11-20T08:33:28.000Z</time>
      </trkpt>
      <trkpt lat="46.75155" lon="0.39897">
        <ele>201</ele>
        <time>2016-11-20T08:33:34.000Z</time>
      </trkpt>
      <trkpt lat="46.75158" lon="0.39881">
        <ele>200</ele>
        <time>2016-11-20T08:33:36.000Z</time>
      </trkpt>
      <trkpt lat="46.75158" lon="0.39863">
        <ele>194</ele>
        <time>2016-11-20T08:33:39.000Z</time>
      </trkpt>
      <trkpt lat="46.7516" lon="0.3985">
        <ele>195</ele>
        <time>2016-11-20T08:33:42.000Z</time>
      </trkpt>
      <trkpt lat="46.75162" lon="0.39834">
        <ele>191</ele>
        <time>2016-11-20T08:33:46.000Z</time>
      </trkpt>
      <trkpt lat="46.75168" lon="0.39821">
        <ele>190</ele>
        <time>2016-11-20T08:33:48.000Z</time>
      </trkpt>
      <trkpt lat="46.75167" lon="0.39807">
        <ele>189</ele>
        <time>2016-11-20T08:33:51.000Z</time>
      </trkpt>
      <trkpt lat="46.75169" lon="0.3979">
        <ele>186</ele>
        <time>2016-11-20T08:33:55.000Z</time>
      </trkpt>
      <trkpt lat="46.75166" lon="0.39777">
        <ele>185</ele>
        <time>2016-11-20T08:33:59.000Z</time>
      </trkpt>
      <trkpt lat="46.7516" lon="0.39764">
        <ele>188</ele>
        <time>2016-11-20T08:34:04.000Z</time>
      </trkpt>
      <trkpt lat="46.75158" lon="0.39748">
        <ele>189</ele>
        <time>2016-11-20T08:34:07.000Z</time>
      </trkpt>
      <trkpt lat="46.75158" lon="0.39731">
        <ele>188</ele>
        <time>2016-11-20T08:34:10.000Z</time>
      </trkpt>
      <trkpt lat="46.75156" lon="0.39717">
        <ele>189</ele>
        <time>2016-11-20T08:34:12.000Z</time>
      </trkpt>
      <trkpt lat="46.75151" lon="0.397">
        <ele>183</ele>
        <time>2016-11-20T08:34:16.000Z</time>
      </trkpt>
      <trkpt lat="46.75156" lon="0.39687">
        <ele>180</ele>
        <time>2016-11-20T08:34:18.000Z</time>
      </trkpt>
      <trkpt lat="46.75161" lon="0.39673">
        <ele>188</ele>
        <time>2016-11-20T08:34:26.000Z</time>
      </trkpt>
      <trkpt lat="46.75164" lon="0.39659">
        <ele>189</ele>
        <time>2016-11-20T08:34:30.000Z</time>
      </trkpt>
      <trkpt lat="46.75158" lon="0.39645">
        <ele>193</ele>
        <time>2016-11-20T08:34:34.000Z</time>
      </trkpt>
      <trkpt lat="46.75155" lon="0.39631">
        <ele>195</ele>
        <time>2016-11-20T08:34:38.000Z</time>
      </trkpt>
      <trkpt lat="46.75159" lon="0.39609">
        <ele>190</ele>
        <time>2016-11-20T08:34:40.000Z</time>
      </trkpt>
      <trkpt lat="46.75168" lon="0.39597">
        <ele>187</ele>
        <time>2016-11-20T08:34:43.000Z</time>
      </trkpt>
      <trkpt lat="46.7518" lon="0.39599">
        <ele>184</ele>
        <time>2016-11-20T08:34:48.000Z</time>
      </trkpt>
      <trkpt lat="46.7519" lon="0.39603">
        <ele>180</ele>
        <time>2016-11-20T08:34:51.000Z</time>
      </trkpt>
      <trkpt lat="46.752" lon="0.39597">
        <ele>185</ele>
        <time>2016-11-20T08:34:59.000Z</time>
      </trkpt>
      <trkpt lat="46.75211" lon="0.396">
        <ele>184</ele>
        <time>2016-11-20T08:35:05.000Z</time>
      </trkpt>
      <trkpt lat="46.75219" lon="0.39606">
        <ele>185</ele>
        <time>2016-11-20T08:35:09.000Z</time>
      </trkpt>
      <trkpt lat="46.75231" lon="0.39602">
        <ele>191</ele>
        <time>2016-11-20T08:35:16.000Z</time>
      </trkpt>
      <trkpt lat="46.75241" lon="0.396">
        <ele>190</ele>
        <time>2016-11-20T08:35:21.000Z</time>
      </trkpt>
      <trkpt lat="46.75251" lon="0.39595">
        <ele>188</ele>
        <time>2016-11-20T08:35:25.000Z</time>
      </trkpt>
      <trkpt lat="46.7526" lon="0.39591">
        <ele>186</ele>
        <time>2016-11-20T08:35:29.000Z</time>
      </trkpt>
      <trkpt lat="46.75271" lon="0.39592">
        <ele>188</ele>
        <time>2016-11-20T08:35:32.000Z</time>
      </trkpt>
      <trkpt lat="46.75281" lon="0.39591">
        <ele>188</ele>
        <time>2016-11-20T08:35:36.000Z</time>
      </trkpt>
      <trkpt lat="46.75291" lon="0.39594">
        <ele>190</ele>
        <time>2016-11-20T08:35:41.000Z</time>
      </trkpt>
      <trkpt lat="46.753" lon="0.39592">
        <ele>189</ele>
        <time>2016-11-20T08:35:46.000Z</time>
      </trkpt>
      <trkpt lat="46.75311" lon="0.39592">
        <ele>188</ele>
        <time>2016-11-20T08:35:52.000Z</time>
      </trkpt>
      <trkpt lat="46.7532" lon="0.3959">
        <ele>190</ele>
        <time>2016-11-20T08:35:58.000Z</time>
      </trkpt>
      <trkpt lat="46.75329" lon="0.39595">
        <ele>186</ele>
        <time>2016-11-20T08:36:02.000Z</time>
      </trkpt>
      <trkpt lat="46.75335" lon="0.39606">
        <ele>188</ele>
        <time>2016-11-20T08:36:17.000Z</time>
      </trkpt>
      <trkpt lat="46.75342" lon="0.39615">
        <ele>190</ele>
        <time>2016-11-20T08:36:34.000Z</time>
      </trkpt>
      <trkpt lat="46.75346" lon="0.39629">
        <ele>190</ele>
        <time>2016-11-20T08:36:40.000Z</time>
      </trkpt>
      <trkpt lat="46.75354" lon="0.39639">
        <ele>192</ele>
        <time>2016-11-20T08:36:43.000Z</time>
      </trkpt>
      <trkpt lat="46.75354" lon="0.39653">
        <ele>194</ele>
        <time>2016-11-20T08:36:48.000Z</time>
      </trkpt>
      <trkpt lat="46.75357" lon="0.39667">
        <ele>201</ele>
        <time>2016-11-20T08:36:53.000Z</time>
      </trkpt>
      <trkpt lat="46.75364" lon="0.39676">
        <ele>200</ele>
        <time>2016-11-20T08:37:03.000Z</time>
      </trkpt>
      <trkpt lat="46.75372" lon="0.39685">
        <ele>197</ele>
        <time>2016-11-20T08:37:08.000Z</time>
      </trkpt>
      <trkpt lat="46.75382" lon="0.39685">
        <ele>194</ele>
        <time>2016-11-20T08:37:14.000Z</time>
      </trkpt>
      <trkpt lat="46.7539" lon="0.3968">
        <ele>196</ele>
        <time>2016-11-20T08:37:18.000Z</time>
      </trkpt>
      <trkpt lat="46.75398" lon="0.3967">
        <ele>197</ele>
        <time>2016-11-20T08:37:22.000Z</time>
      </trkpt>
      <trkpt lat="46.75406" lon="0.39662">
        <ele>196</ele>
        <time>2016-11-20T08:37:25.000Z</time>
      </trkpt>
      <trkpt lat="46.75417" lon="0.3966">
        <ele>193</ele>
        <time>2016-11-20T08:37:29.000Z</time>
      </trkpt>
      <trkpt lat="46.75427" lon="0.39665">
        <ele>191</ele>
        <time>2016-11-20T08:37:34.000Z</time>
      </trkpt>
      <trkpt lat="46.75439" lon="0.39662">
        <ele>196</ele>
        <time>2016-11-20T08:37:39.000Z</time>
      </trkpt>
      <trkpt lat="46.75448" lon="0.39657">
        <ele>196</ele>
        <time>2016-11-20T08:37:43.000Z</time>
      </trkpt>
      <trkpt lat="46.75457" lon="0.3966">
        <ele>192</ele>
        <time>2016-11-20T08:37:46.000Z</time>
      </trkpt>
      <trkpt lat="46.75464" lon="0.3967">
        <ele>190</ele>
        <time>2016-11-20T08:37:50.000Z</time>
      </trkpt>
      <trkpt lat="46.75471" lon="0.39683">
        <ele>195</ele>
        <time>2016-11-20T08:37:54.000Z</time>
      </trkpt>
      <trkpt lat="46.75477" lon="0.39696">
        <ele>199</ele>
        <time>2016-11-20T08:37:57.000Z</time>
      </trkpt>
      <trkpt lat="46.7548" lon="0.39709">
        <ele>199</ele>
        <time>2016-11-20T08:37:59.000Z</time>
      </trkpt>
      <trkpt lat="46.75485" lon="0.39722">
        <ele>199</ele>
        <time>2016-11-20T08:38:01.000Z</time>
      </trkpt>
      <trkpt lat="46.75491" lon="0.39734">
        <ele>200</ele>
        <time>2016-11-20T08:38:04.000Z</time>
      </trkpt>
      <trkpt lat="46.75496" lon="0.39745">
        <ele>199</ele>
        <time>2016-11-20T08:38:06.000Z</time>
      </trkpt>
      <trkpt lat="46.75501" lon="0.3976">
        <ele>200</ele>
        <time>2016-11-20T08:38:09.000Z</time>
      </trkpt>
      <trkpt lat="46.75507" lon="0.39773">
        <ele>197</ele>
        <time>2016-11-20T08:38:18.000Z</time>
      </trkpt>
      <trkpt lat="46.7552" lon="0.39769">
        <ele>202</ele>
        <time>2016-11-20T08:38:26.000Z</time>
      </trkpt>
      <trkpt lat="46.75533" lon="0.39771">
        <ele>196</ele>
        <time>2016-11-20T08:38:30.000Z</time>
      </trkpt>
      <trkpt lat="46.75542" lon="0.39776">
        <ele>197</ele>
        <time>2016-11-20T08:38:34.000Z</time>
      </trkpt>
      <trkpt lat="46.75552" lon="0.39789">
        <ele>199</ele>
        <time>2016-11-20T08:38:38.000Z</time>
      </trkpt>
      <trkpt lat="46.75562" lon="0.39787">
        <ele>199</ele>
        <time>2016-11-20T08:38:43.000Z</time>
      </trkpt>
      <trkpt lat="46.75571" lon="0.39792">
        <ele>198</ele>
        <time>2016-11-20T08:38:46.000Z</time>
      </trkpt>
      <trkpt lat="46.7558" lon="0.39786">
        <ele>197</ele>
        <time>2016-11-20T08:38:53.000Z</time>
      </trkpt>
      <trkpt lat="46.75582" lon="0.39769">
        <ele>200</ele>
        <time>2016-11-20T08:39:00.000Z</time>
      </trkpt>
      <trkpt lat="46.75573" lon="0.3976">
        <ele>199</ele>
        <time>2016-11-20T08:39:10.000Z</time>
      </trkpt>
      <trkpt lat="46.75568" lon="0.39748">
        <ele>194</ele>
        <time>2016-11-20T08:39:12.000Z</time>
      </trkpt>
      <trkpt lat="46.75563" lon="0.39736">
        <ele>196</ele>
        <time>2016-11-20T08:39:15.000Z</time>
      </trkpt>
      <trkpt lat="46.75559" lon="0.39723">
        <ele>199</ele>
        <time>2016-11-20T08:39:18.000Z</time>
      </trkpt>
      <trkpt lat="46.75553" lon="0.3971">
        <ele>200</ele>
        <time>2016-11-20T08:39:21.000Z</time>
      </trkpt>
      <trkpt lat="46.75549" lon="0.39694">
        <ele>197</ele>
        <time>2016-11-20T08:39:25.000Z</time>
      </trkpt>
      <trkpt lat="46.75553" lon="0.39679">
        <ele>194</ele>
        <time>2016-11-20T08:39:28.000Z</time>
      </trkpt>
      <trkpt lat="46.75562" lon="0.39668">
        <ele>193</ele>
        <time>2016-11-20T08:39:45.000Z</time>
      </trkpt>
      <trkpt lat="46.75568" lon="0.39657">
        <ele>185</ele>
        <time>2016-11-20T08:39:51.000Z</time>
      </trkpt>
      <trkpt lat="46.75577" lon="0.39652">
        <ele>191</ele>
        <time>2016-11-20T08:40:00.000Z</time>
      </trkpt>
      <trkpt lat="46.75586" lon="0.39654">
        <ele>189</ele>
        <time>2016-11-20T08:40:04.000Z</time>
      </trkpt>
      <trkpt lat="46.75597" lon="0.39658">
        <ele>187</ele>
        <time>2016-11-20T08:40:07.000Z</time>
      </trkpt>
      <trkpt lat="46.75604" lon="0.39644">
        <ele>183</ele>
        <time>2016-11-20T08:40:17.000Z</time>
      </trkpt>
      <trkpt lat="46.75596" lon="0.39636">
        <ele>189</ele>
        <time>2016-11-20T08:40:47.000Z</time>
      </trkpt>
      <trkpt lat="46.75597" lon="0.39622">
        <ele>181</ele>
        <time>2016-11-20T08:41:14.000Z</time>
      </trkpt>
      <trkpt lat="46.75597" lon="0.39607">
        <ele>179</ele>
        <time>2016-11-20T08:41:18.000Z</time>
      </trkpt>
      <trkpt lat="46.75591" lon="0.39595">
        <ele>180</ele>
        <time>2016-11-20T08:41:21.000Z</time>
      </trkpt>
      <trkpt lat="46.75583" lon="0.39586">
        <ele>182</ele>
        <time>2016-11-20T08:41:24.000Z</time>
      </trkpt>
      <trkpt lat="46.75575" lon="0.39575">
        <ele>182</ele>
        <time>2016-11-20T08:41:27.000Z</time>
      </trkpt>
      <trkpt lat="46.75571" lon="0.39559">
        <ele>184</ele>
        <time>2016-11-20T08:41:30.000Z</time>
      </trkpt>
      <trkpt lat="46.75574" lon="0.39541">
        <ele>180</ele>
        <time>2016-11-20T08:41:33.000Z</time>
      </trkpt>
      <trkpt lat="46.7558" lon="0.3953">
        <ele>179</ele>
        <time>2016-11-20T08:41:35.000Z</time>
      </trkpt>
      <trkpt lat="46.7559" lon="0.39517">
        <ele>178</ele>
        <time>2016-11-20T08:41:37.000Z</time>
      </trkpt>
      <trkpt lat="46.75599" lon="0.39502">
        <ele>177</ele>
        <time>2016-11-20T08:41:39.000Z</time>
      </trkpt>
      <trkpt lat="46.75607" lon="0.39485">
        <ele>175</ele>
        <time>2016-11-20T08:41:41.000Z</time>
      </trkpt>
      <trkpt lat="46.75608" lon="0.39464">
        <ele>177</ele>
        <time>2016-11-20T08:41:43.000Z</time>
      </trkpt>
      <trkpt lat="46.75603" lon="0.39448">
        <ele>177</ele>
        <time>2016-11-20T08:41:45.000Z</time>
      </trkpt>
      <trkpt lat="46.756" lon="0.39434">
        <ele>177</ele>
        <time>2016-11-20T08:41:47.000Z</time>
      </trkpt>
      <trkpt lat="46.75596" lon="0.39421">
        <ele>177</ele>
        <time>2016-11-20T08:41:49.000Z</time>
      </trkpt>
      <trkpt lat="46.75591" lon="0.39408">
        <ele>180</ele>
        <time>2016-11-20T08:41:52.000Z</time>
      </trkpt>
      <trkpt lat="46.75586" lon="0.39395">
        <ele>182</ele>
        <time>2016-11-20T08:42:07.000Z</time>
      </trkpt>
      <trkpt lat="46.75578" lon="0.39384">
        <ele>182</ele>
        <time>2016-11-20T08:42:12.000Z</time>
      </trkpt>
      <trkpt lat="46.75573" lon="0.39374">
        <ele>184</ele>
        <time>2016-11-20T08:42:18.000Z</time>
      </trkpt>
      <trkpt lat="46.75574" lon="0.39361">
        <ele>181</ele>
        <time>2016-11-20T08:42:26.000Z</time>
      </trkpt>
      <trkpt lat="46.7558" lon="0.39349">
        <ele>181</ele>
        <time>2016-11-20T08:42:35.000Z</time>
      </trkpt>
      <trkpt lat="46.75587" lon="0.39333">
        <ele>180</ele>
        <time>2016-11-20T08:42:38.000Z</time>
      </trkpt>
      <trkpt lat="46.75591" lon="0.3932">
        <ele>179</ele>
        <time>2016-11-20T08:42:40.000Z</time>
      </trkpt>
      <trkpt lat="46.75595" lon="0.39305">
        <ele>178</ele>
        <time>2016-11-20T08:42:42.000Z</time>
      </trkpt>
      <trkpt lat="46.75599" lon="0.39292">
        <ele>176</ele>
        <time>2016-11-20T08:42:44.000Z</time>
      </trkpt>
      <trkpt lat="46.75598" lon="0.39278">
        <ele>175</ele>
        <time>2016-11-20T08:42:46.000Z</time>
      </trkpt>
      <trkpt lat="46.75597" lon="0.39264">
        <ele>174</ele>
        <time>2016-11-20T08:42:49.000Z</time>
      </trkpt>
      <trkpt lat="46.75606" lon="0.39256">
        <ele>171</ele>
        <time>2016-11-20T08:42:52.000Z</time>
      </trkpt>
      <trkpt lat="46.75615" lon="0.39258">
        <ele>170</ele>
        <time>2016-11-20T08:42:54.000Z</time>
      </trkpt>
      <trkpt lat="46.75625" lon="0.39261">
        <ele>172</ele>
        <time>2016-11-20T08:42:56.000Z</time>
      </trkpt>
      <trkpt lat="46.75634" lon="0.39272">
        <ele>171</ele>
        <time>2016-11-20T08:42:59.000Z</time>
      </trkpt>
      <trkpt lat="46.75644" lon="0.39285">
        <ele>170</ele>
        <time>2016-11-20T08:43:02.000Z</time>
      </trkpt>
      <trkpt lat="46.75654" lon="0.39288">
        <ele>170</ele>
        <time>2016-11-20T08:43:04.000Z</time>
      </trkpt>
      <trkpt lat="46.75663" lon="0.39297">
        <ele>171</ele>
        <time>2016-11-20T08:43:06.000Z</time>
      </trkpt>
      <trkpt lat="46.75676" lon="0.39307">
        <ele>171</ele>
        <time>2016-11-20T08:43:08.000Z</time>
      </trkpt>
      <trkpt lat="46.75689" lon="0.39315">
        <ele>170</ele>
        <time>2016-11-20T08:43:10.000Z</time>
      </trkpt>
      <trkpt lat="46.75704" lon="0.39321">
        <ele>170</ele>
        <time>2016-11-20T08:43:12.000Z</time>
      </trkpt>
      <trkpt lat="46.75718" lon="0.39327">
        <ele>168</ele>
        <time>2016-11-20T08:43:14.000Z</time>
      </trkpt>
      <trkpt lat="46.75732" lon="0.39333">
        <ele>169</ele>
        <time>2016-11-20T08:43:16.000Z</time>
      </trkpt>
      <trkpt lat="46.75747" lon="0.3934">
        <ele>169</ele>
        <time>2016-11-20T08:43:18.000Z</time>
      </trkpt>
      <trkpt lat="46.75762" lon="0.39348">
        <ele>168</ele>
        <time>2016-11-20T08:43:20.000Z</time>
      </trkpt>
      <trkpt lat="46.75776" lon="0.39359">
        <ele>162</ele>
        <time>2016-11-20T08:43:22.000Z</time>
      </trkpt>
      <trkpt lat="46.75789" lon="0.3937">
        <ele>156</ele>
        <time>2016-11-20T08:43:24.000Z</time>
      </trkpt>
      <trkpt lat="46.75801" lon="0.39377">
        <ele>154</ele>
        <time>2016-11-20T08:43:26.000Z</time>
      </trkpt>
      <trkpt lat="46.75813" lon="0.39384">
        <ele>152</ele>
        <time>2016-11-20T08:43:28.000Z</time>
      </trkpt>
      <trkpt lat="46.75826" lon="0.3939">
        <ele>151</ele>
        <time>2016-11-20T08:43:30.000Z</time>
      </trkpt>
      <trkpt lat="46.75842" lon="0.39388">
        <ele>147</ele>
        <time>2016-11-20T08:43:32.000Z</time>
      </trkpt>
      <trkpt lat="46.75857" lon="0.39385">
        <ele>145</ele>
        <time>2016-11-20T08:43:34.000Z</time>
      </trkpt>
      <trkpt lat="46.75871" lon="0.3938">
        <ele>144</ele>
        <time>2016-11-20T08:43:36.000Z</time>
      </trkpt>
      <trkpt lat="46.75883" lon="0.39374">
        <ele>142</ele>
        <time>2016-11-20T08:43:38.000Z</time>
      </trkpt>
      <trkpt lat="46.7589" lon="0.39362">
        <ele>141</ele>
        <time>2016-11-20T08:43:40.000Z</time>
      </trkpt>
      <trkpt lat="46.75894" lon="0.39346">
        <ele>139</ele>
        <time>2016-11-20T08:43:42.000Z</time>
      </trkpt>
      <trkpt lat="46.75893" lon="0.39329">
        <ele>139</ele>
        <time>2016-11-20T08:43:44.000Z</time>
      </trkpt>
      <trkpt lat="46.7589" lon="0.39312">
        <ele>140</ele>
        <time>2016-11-20T08:43:46.000Z</time>
      </trkpt>
      <trkpt lat="46.75887" lon="0.39296">
        <ele>141</ele>
        <time>2016-11-20T08:43:48.000Z</time>
      </trkpt>
      <trkpt lat="46.75885" lon="0.39279">
        <ele>142</ele>
        <time>2016-11-20T08:43:50.000Z</time>
      </trkpt>
      <trkpt lat="46.75886" lon="0.39265">
        <ele>141</ele>
        <time>2016-11-20T08:43:52.000Z</time>
      </trkpt>
      <trkpt lat="46.75893" lon="0.39254">
        <ele>142</ele>
        <time>2016-11-20T08:43:54.000Z</time>
      </trkpt>
      <trkpt lat="46.75906" lon="0.39249">
        <ele>141</ele>
        <time>2016-11-20T08:43:56.000Z</time>
      </trkpt>
      <trkpt lat="46.75919" lon="0.39249">
        <ele>139</ele>
        <time>2016-11-20T08:43:58.000Z</time>
      </trkpt>
      <trkpt lat="46.75931" lon="0.39255">
        <ele>140</ele>
        <time>2016-11-20T08:44:00.000Z</time>
      </trkpt>
      <trkpt lat="46.7594" lon="0.39265">
        <ele>139</ele>
        <time>2016-11-20T08:44:02.000Z</time>
      </trkpt>
      <trkpt lat="46.75945" lon="0.39276">
        <ele>139</ele>
        <time>2016-11-20T08:44:04.000Z</time>
      </trkpt>
      <trkpt lat="46.75948" lon="0.3929">
        <ele>139</ele>
        <time>2016-11-20T08:44:06.000Z</time>
      </trkpt>
      <trkpt lat="46.75952" lon="0.39302">
        <ele>139</ele>
        <time>2016-11-20T08:44:08.000Z</time>
      </trkpt>
      <trkpt lat="46.75958" lon="0.39321">
        <ele>139</ele>
        <time>2016-11-20T08:44:11.000Z</time>
      </trkpt>
      <trkpt lat="46.75959" lon="0.39337">
        <ele>139</ele>
        <time>2016-11-20T08:44:14.000Z</time>
      </trkpt>
      <trkpt lat="46.75954" lon="0.39351">
        <ele>139</ele>
        <time>2016-11-20T08:44:18.000Z</time>
      </trkpt>
      <trkpt lat="46.75959" lon="0.39368">
        <ele>139</ele>
        <time>2016-11-20T08:44:21.000Z</time>
      </trkpt>
      <trkpt lat="46.75966" lon="0.39377">
        <ele>139</ele>
        <time>2016-11-20T08:44:24.000Z</time>
      </trkpt>
      <trkpt lat="46.75974" lon="0.39387">
        <ele>137</ele>
        <time>2016-11-20T08:44:27.000Z</time>
      </trkpt>
      <trkpt lat="46.7598" lon="0.39397">
        <ele>141</ele>
        <time>2016-11-20T08:44:32.000Z</time>
      </trkpt>
      <trkpt lat="46.75985" lon="0.3941">
        <ele>147</ele>
        <time>2016-11-20T08:44:37.000Z</time>
      </trkpt>
      <trkpt lat="46.75986" lon="0.39423">
        <ele>144</ele>
        <time>2016-11-20T08:44:40.000Z</time>
      </trkpt>
      <trkpt lat="46.75988" lon="0.39439">
        <ele>143</ele>
        <time>2016-11-20T08:44:43.000Z</time>
      </trkpt>
      <trkpt lat="46.75989" lon="0.39465">
        <ele>141</ele>
        <time>2016-11-20T08:44:48.000Z</time>
      </trkpt>
      <trkpt lat="46.75996" lon="0.39475">
        <ele>133</ele>
        <time>2016-11-20T08:44:58.000Z</time>
      </trkpt>
      <trkpt lat="46.75991" lon="0.39487">
        <ele>133</ele>
        <time>2016-11-20T08:45:03.000Z</time>
      </trkpt>
      <trkpt lat="46.75982" lon="0.3949">
        <ele>135</ele>
        <time>2016-11-20T08:45:07.000Z</time>
      </trkpt>
      <trkpt lat="46.75972" lon="0.39492">
        <ele>138</ele>
        <time>2016-11-20T08:45:11.000Z</time>
      </trkpt>
      <trkpt lat="46.75961" lon="0.39498">
        <ele>137</ele>
        <time>2016-11-20T08:45:16.000Z</time>
      </trkpt>
      <trkpt lat="46.7595" lon="0.39501">
        <ele>137</ele>
        <time>2016-11-20T08:45:20.000Z</time>
      </trkpt>
      <trkpt lat="46.75939" lon="0.39504">
        <ele>139</ele>
        <time>2016-11-20T08:45:24.000Z</time>
      </trkpt>
      <trkpt lat="46.75928" lon="0.39507">
        <ele>140</ele>
        <time>2016-11-20T08:45:28.000Z</time>
      </trkpt>
      <trkpt lat="46.75915" lon="0.39511">
        <ele>142</ele>
        <time>2016-11-20T08:45:32.000Z</time>
      </trkpt>
      <trkpt lat="46.75904" lon="0.39514">
        <ele>144</ele>
        <time>2016-11-20T08:45:37.000Z</time>
      </trkpt>
      <trkpt lat="46.75892" lon="0.39517">
        <ele>142</ele>
        <time>2016-11-20T08:45:41.000Z</time>
      </trkpt>
      <trkpt lat="46.7588" lon="0.39517">
        <ele>146</ele>
        <time>2016-11-20T08:45:46.000Z</time>
      </trkpt>
      <trkpt lat="46.75872" lon="0.39516">
        <ele>147</ele>
        <time>2016-11-20T08:45:50.000Z</time>
      </trkpt>
      <trkpt lat="46.75861" lon="0.39512">
        <ele>149</ele>
        <time>2016-11-20T08:45:55.000Z</time>
      </trkpt>
      <trkpt lat="46.75853" lon="0.3951">
        <ele>150</ele>
        <time>2016-11-20T08:45:59.000Z</time>
      </trkpt>
      <trkpt lat="46.75842" lon="0.39506">
        <ele>151</ele>
        <time>2016-11-20T08:46:04.000Z</time>
      </trkpt>
      <trkpt lat="46.75833" lon="0.39509">
        <ele>153</ele>
        <time>2016-11-20T08:46:08.000Z</time>
      </trkpt>
      <trkpt lat="46.75824" lon="0.39516">
        <ele>154</ele>
        <time>2016-11-20T08:46:13.000Z</time>
      </trkpt>
      <trkpt lat="46.75818" lon="0.39526">
        <ele>152</ele>
        <time>2016-11-20T08:46:17.000Z</time>
      </trkpt>
      <trkpt lat="46.75809" lon="0.39539">
        <ele>148</ele>
        <time>2016-11-20T08:46:22.000Z</time>
      </trkpt>
      <trkpt lat="46.75805" lon="0.39551">
        <ele>148</ele>
        <time>2016-11-20T08:46:26.000Z</time>
      </trkpt>
      <trkpt lat="46.75802" lon="0.39566">
        <ele>150</ele>
        <time>2016-11-20T08:46:31.000Z</time>
      </trkpt>
      <trkpt lat="46.75797" lon="0.39579">
        <ele>151</ele>
        <time>2016-11-20T08:46:35.000Z</time>
      </trkpt>
      <trkpt lat="46.75792" lon="0.39593">
        <ele>151</ele>
        <time>2016-11-20T08:46:40.000Z</time>
      </trkpt>
      <trkpt lat="46.75787" lon="0.39605">
        <ele>150</ele>
        <time>2016-11-20T08:46:44.000Z</time>
      </trkpt>
      <trkpt lat="46.75785" lon="0.39618">
        <ele>151</ele>
        <time>2016-11-20T08:46:48.000Z</time>
      </trkpt>
      <trkpt lat="46.7578" lon="0.39631">
        <ele>152</ele>
        <time>2016-11-20T08:46:52.000Z</time>
      </trkpt>
      <trkpt lat="46.75776" lon="0.39647">
        <ele>152</ele>
        <time>2016-11-20T08:46:57.000Z</time>
      </trkpt>
      <trkpt lat="46.75773" lon="0.3966">
        <ele>151</ele>
        <time>2016-11-20T08:47:01.000Z</time>
      </trkpt>
      <trkpt lat="46.75771" lon="0.39676">
        <ele>152</ele>
        <time>2016-11-20T08:47:05.000Z</time>
      </trkpt>
      <trkpt lat="46.75768" lon="0.39688">
        <ele>154</ele>
        <time>2016-11-20T08:47:10.000Z</time>
      </trkpt>
      <trkpt lat="46.75758" lon="0.39695">
        <ele>158</ele>
        <time>2016-11-20T08:47:15.000Z</time>
      </trkpt>
      <trkpt lat="46.7575" lon="0.39688">
        <ele>160</ele>
        <time>2016-11-20T08:47:19.000Z</time>
      </trkpt>
      <trkpt lat="46.7574" lon="0.39692">
        <ele>162</ele>
        <time>2016-11-20T08:47:25.000Z</time>
      </trkpt>
      <trkpt lat="46.75731" lon="0.39698">
        <ele>163</ele>
        <time>2016-11-20T08:47:30.000Z</time>
      </trkpt>
      <trkpt lat="46.75723" lon="0.39707">
        <ele>168</ele>
        <time>2016-11-20T08:47:36.000Z</time>
      </trkpt>
      <trkpt lat="46.75716" lon="0.39716">
        <ele>169</ele>
        <time>2016-11-20T08:47:42.000Z</time>
      </trkpt>
      <trkpt lat="46.75707" lon="0.39714">
        <ele>172</ele>
        <time>2016-11-20T08:47:51.000Z</time>
      </trkpt>
      <trkpt lat="46.75698" lon="0.39714">
        <ele>171</ele>
        <time>2016-11-20T08:48:00.000Z</time>
      </trkpt>
      <trkpt lat="46.75693" lon="0.39726">
        <ele>177</ele>
        <time>2016-11-20T08:48:11.000Z</time>
      </trkpt>
      <trkpt lat="46.75687" lon="0.39738">
        <ele>176</ele>
        <time>2016-11-20T08:48:17.000Z</time>
      </trkpt>
      <trkpt lat="46.75686" lon="0.39753">
        <ele>182</ele>
        <time>2016-11-20T08:48:28.000Z</time>
      </trkpt>
      <trkpt lat="46.75692" lon="0.39764">
        <ele>195</ele>
        <time>2016-11-20T08:48:42.000Z</time>
      </trkpt>
      <trkpt lat="46.75689" lon="0.39787">
        <ele>187</ele>
        <time>2016-11-20T08:48:50.000Z</time>
      </trkpt>
      <trkpt lat="46.7569" lon="0.39802">
        <ele>188</ele>
        <time>2016-11-20T08:48:57.000Z</time>
      </trkpt>
      <trkpt lat="46.7569" lon="0.39816">
        <ele>193</ele>
        <time>2016-11-20T08:49:06.000Z</time>
      </trkpt>
      <trkpt lat="46.75689" lon="0.3983">
        <ele>197</ele>
        <time>2016-11-20T08:49:14.000Z</time>
      </trkpt>
      <trkpt lat="46.75686" lon="0.39845">
        <ele>196</ele>
        <time>2016-11-20T08:49:26.000Z</time>
      </trkpt>
      <trkpt lat="46.75679" lon="0.39857">
        <ele>193</ele>
        <time>2016-11-20T08:49:30.000Z</time>
      </trkpt>
      <trkpt lat="46.75676" lon="0.39871">
        <ele>199</ele>
        <time>2016-11-20T08:49:40.000Z</time>
      </trkpt>
      <trkpt lat="46.7567" lon="0.39881">
        <ele>201</ele>
        <time>2016-11-20T08:49:49.000Z</time>
      </trkpt>
      <trkpt lat="46.75664" lon="0.39895">
        <ele>202</ele>
        <time>2016-11-20T08:49:56.000Z</time>
      </trkpt>
      <trkpt lat="46.75659" lon="0.39907">
        <ele>204</ele>
        <time>2016-11-20T08:50:04.000Z</time>
      </trkpt>
      <trkpt lat="46.75654" lon="0.39921">
        <ele>201</ele>
        <time>2016-11-20T08:50:09.000Z</time>
      </trkpt>
      <trkpt lat="46.7565" lon="0.39934">
        <ele>202</ele>
        <time>2016-11-20T08:50:17.000Z</time>
      </trkpt>
      <trkpt lat="46.7565" lon="0.39948">
        <ele>197</ele>
        <time>2016-11-20T08:50:22.000Z</time>
      </trkpt>
      <trkpt lat="46.75651" lon="0.39963">
        <ele>199</ele>
        <time>2016-11-20T08:50:27.000Z</time>
      </trkpt>
      <trkpt lat="46.75655" lon="0.39976">
        <ele>200</ele>
        <time>2016-11-20T08:50:34.000Z</time>
      </trkpt>
      <trkpt lat="46.75654" lon="0.39991">
        <ele>210</ele>
        <time>2016-11-20T08:50:43.000Z</time>
      </trkpt>
      <trkpt lat="46.75654" lon="0.40004">
        <ele>216</ele>
        <time>2016-11-20T08:50:50.000Z</time>
      </trkpt>
      <trkpt lat="46.75653" lon="0.40019">
        <ele>217</ele>
        <time>2016-11-20T08:50:56.000Z</time>
      </trkpt>
      <trkpt lat="46.7565" lon="0.40033">
        <ele>214</ele>
        <time>2016-11-20T08:50:59.000Z</time>
      </trkpt>
      <trkpt lat="46.75648" lon="0.40046">
        <ele>209</ele>
        <time>2016-11-20T08:51:01.000Z</time>
      </trkpt>
      <trkpt lat="46.75646" lon="0.4006">
        <ele>206</ele>
        <time>2016-11-20T08:51:03.000Z</time>
      </trkpt>
      <trkpt lat="46.75647" lon="0.40073">
        <ele>204</ele>
        <time>2016-11-20T08:51:07.000Z</time>
      </trkpt>
      <trkpt lat="46.75656" lon="0.40076">
        <ele>202</ele>
        <time>2016-11-20T08:51:18.000Z</time>
      </trkpt>
      <trkpt lat="46.75671" lon="0.40062">
        <ele>203</ele>
        <time>2016-11-20T08:51:23.000Z</time>
      </trkpt>
      <trkpt lat="46.7568" lon="0.40056">
        <ele>201</ele>
        <time>2016-11-20T08:51:25.000Z</time>
      </trkpt>
      <trkpt lat="46.75691" lon="0.40047">
        <ele>200</ele>
        <time>2016-11-20T08:51:27.000Z</time>
      </trkpt>
      <trkpt lat="46.757" lon="0.40041">
        <ele>201</ele>
        <time>2016-11-20T08:51:29.000Z</time>
      </trkpt>
      <trkpt lat="46.75709" lon="0.40032">
        <ele>202</ele>
        <time>2016-11-20T08:51:31.000Z</time>
      </trkpt>
      <trkpt lat="46.75718" lon="0.40023">
        <ele>202</ele>
        <time>2016-11-20T08:51:33.000Z</time>
      </trkpt>
      <trkpt lat="46.75726" lon="0.40011">
        <ele>203</ele>
        <time>2016-11-20T08:51:35.000Z</time>
      </trkpt>
      <trkpt lat="46.75736" lon="0.39998">
        <ele>201</ele>
        <time>2016-11-20T08:51:38.000Z</time>
      </trkpt>
      <trkpt lat="46.75742" lon="0.39988">
        <ele>196</ele>
        <time>2016-11-20T08:51:41.000Z</time>
      </trkpt>
      <trkpt lat="46.75751" lon="0.39979">
        <ele>192</ele>
        <time>2016-11-20T08:51:46.000Z</time>
      </trkpt>
      <trkpt lat="46.75758" lon="0.39988">
        <ele>191</ele>
        <time>2016-11-20T08:51:52.000Z</time>
      </trkpt>
      <trkpt lat="46.75768" lon="0.39994">
        <ele>195</ele>
        <time>2016-11-20T08:51:56.000Z</time>
      </trkpt>
      <trkpt lat="46.75774" lon="0.40005">
        <ele>195</ele>
        <time>2016-11-20T08:52:00.000Z</time>
      </trkpt>
      <trkpt lat="46.75782" lon="0.40015">
        <ele>197</ele>
        <time>2016-11-20T08:52:04.000Z</time>
      </trkpt>
      <trkpt lat="46.75789" lon="0.40032">
        <ele>195</ele>
        <time>2016-11-20T08:52:09.000Z</time>
      </trkpt>
      <trkpt lat="46.75793" lon="0.40049">
        <ele>191</ele>
        <time>2016-11-20T08:52:11.000Z</time>
      </trkpt>
      <trkpt lat="46.758" lon="0.40063">
        <ele>192</ele>
        <time>2016-11-20T08:52:15.000Z</time>
      </trkpt>
      <trkpt lat="46.75805" lon="0.40074">
        <ele>196</ele>
        <time>2016-11-20T08:52:19.000Z</time>
      </trkpt>
      <trkpt lat="46.75811" lon="0.40089">
        <ele>196</ele>
        <time>2016-11-20T08:52:24.000Z</time>
      </trkpt>
      <trkpt lat="46.75817" lon="0.40104">
        <ele>197</ele>
        <time>2016-11-20T08:52:28.000Z</time>
      </trkpt>
      <trkpt lat="46.75817" lon="0.40119">
        <ele>196</ele>
        <time>2016-11-20T08:52:30.000Z</time>
      </trkpt>
      <trkpt lat="46.75823" lon="0.40133">
        <ele>200</ele>
        <time>2016-11-20T08:52:33.000Z</time>
      </trkpt>
      <trkpt lat="46.75823" lon="0.40146">
        <ele>201</ele>
        <time>2016-11-20T08:52:38.000Z</time>
      </trkpt>
      <trkpt lat="46.75819" lon="0.40161">
        <ele>202</ele>
        <time>2016-11-20T08:52:43.000Z</time>
      </trkpt>
      <trkpt lat="46.75814" lon="0.40174">
        <ele>206</ele>
        <time>2016-11-20T08:52:49.000Z</time>
      </trkpt>
      <trkpt lat="46.75815" lon="0.40189">
        <ele>204</ele>
        <time>2016-11-20T08:52:57.000Z</time>
      </trkpt>
      <trkpt lat="46.75817" lon="0.40203">
        <ele>203</ele>
        <time>2016-11-20T08:53:00.000Z</time>
      </trkpt>
      <trkpt lat="46.75824" lon="0.40218">
        <ele>205</ele>
        <time>2016-11-20T08:53:06.000Z</time>
      </trkpt>
      <trkpt lat="46.75828" lon="0.40231">
        <ele>208</ele>
        <time>2016-11-20T08:53:09.000Z</time>
      </trkpt>
      <trkpt lat="46.75833" lon="0.4025">
        <ele>207</ele>
        <time>2016-11-20T08:53:12.000Z</time>
      </trkpt>
      <trkpt lat="46.75838" lon="0.40265">
        <ele>207</ele>
        <time>2016-11-20T08:53:14.000Z</time>
      </trkpt>
      <trkpt lat="46.75842" lon="0.40277">
        <ele>206</ele>
        <time>2016-11-20T08:53:17.000Z</time>
      </trkpt>
      <trkpt lat="46.75848" lon="0.40293">
        <ele>204</ele>
        <time>2016-11-20T08:53:22.000Z</time>
      </trkpt>
      <trkpt lat="46.75852" lon="0.40307">
        <ele>202</ele>
        <time>2016-11-20T08:53:24.000Z</time>
      </trkpt>
      <trkpt lat="46.75855" lon="0.40319">
        <ele>200</ele>
        <time>2016-11-20T08:53:28.000Z</time>
      </trkpt>
      <trkpt lat="46.75858" lon="0.40335">
        <ele>200</ele>
        <time>2016-11-20T08:53:31.000Z</time>
      </trkpt>
      <trkpt lat="46.75864" lon="0.40345">
        <ele>197</ele>
        <time>2016-11-20T08:53:36.000Z</time>
      </trkpt>
      <trkpt lat="46.75876" lon="0.40342">
        <ele>197</ele>
        <time>2016-11-20T08:53:40.000Z</time>
      </trkpt>
      <trkpt lat="46.75886" lon="0.40342">
        <ele>198</ele>
        <time>2016-11-20T08:53:43.000Z</time>
      </trkpt>
      <trkpt lat="46.75896" lon="0.40342">
        <ele>198</ele>
        <time>2016-11-20T08:53:45.000Z</time>
      </trkpt>
      <trkpt lat="46.75907" lon="0.40346">
        <ele>198</ele>
        <time>2016-11-20T08:53:48.000Z</time>
      </trkpt>
      <trkpt lat="46.75914" lon="0.40358">
        <ele>196</ele>
        <time>2016-11-20T08:53:53.000Z</time>
      </trkpt>
      <trkpt lat="46.75919" lon="0.40368">
        <ele>200</ele>
        <time>2016-11-20T08:53:57.000Z</time>
      </trkpt>
      <trkpt lat="46.75928" lon="0.40375">
        <ele>201</ele>
        <time>2016-11-20T08:54:01.000Z</time>
      </trkpt>
      <trkpt lat="46.75934" lon="0.40385">
        <ele>198</ele>
        <time>2016-11-20T08:54:06.000Z</time>
      </trkpt>
      <trkpt lat="46.75937" lon="0.40398">
        <ele>196</ele>
        <time>2016-11-20T08:54:10.000Z</time>
      </trkpt>
      <trkpt lat="46.75941" lon="0.40414">
        <ele>200</ele>
        <time>2016-11-20T08:54:18.000Z</time>
      </trkpt>
      <trkpt lat="46.75942" lon="0.40429">
        <ele>203</ele>
        <time>2016-11-20T08:54:23.000Z</time>
      </trkpt>
      <trkpt lat="46.75941" lon="0.40448">
        <ele>200</ele>
        <time>2016-11-20T08:54:26.000Z</time>
      </trkpt>
      <trkpt lat="46.75932" lon="0.40455">
        <ele>204</ele>
        <time>2016-11-20T08:54:32.000Z</time>
      </trkpt>
      <trkpt lat="46.75927" lon="0.40471">
        <ele>202</ele>
        <time>2016-11-20T08:54:40.000Z</time>
      </trkpt>
      <trkpt lat="46.75927" lon="0.40492">
        <ele>202</ele>
        <time>2016-11-20T08:54:45.000Z</time>
      </trkpt>
      <trkpt lat="46.7593" lon="0.40505">
        <ele>205</ele>
        <time>2016-11-20T08:54:50.000Z</time>
      </trkpt>
      <trkpt lat="46.75932" lon="0.40518">
        <ele>203</ele>
        <time>2016-11-20T08:54:57.000Z</time>
      </trkpt>
      <trkpt lat="46.75934" lon="0.40534">
        <ele>204</ele>
        <time>2016-11-20T08:55:03.000Z</time>
      </trkpt>
      <trkpt lat="46.75932" lon="0.40549">
        <ele>205</ele>
        <time>2016-11-20T08:55:07.000Z</time>
      </trkpt>
      <trkpt lat="46.7593" lon="0.40566">
        <ele>204</ele>
        <time>2016-11-20T08:55:12.000Z</time>
      </trkpt>
      <trkpt lat="46.75933" lon="0.4058">
        <ele>201</ele>
        <time>2016-11-20T08:55:16.000Z</time>
      </trkpt>
      <trkpt lat="46.75935" lon="0.40594">
        <ele>201</ele>
        <time>2016-11-20T08:55:21.000Z</time>
      </trkpt>
      <trkpt lat="46.75945" lon="0.40594">
        <ele>205</ele>
        <time>2016-11-20T08:55:30.000Z</time>
      </trkpt>
      <trkpt lat="46.75951" lon="0.40583">
        <ele>205</ele>
        <time>2016-11-20T08:55:35.000Z</time>
      </trkpt>
      <trkpt lat="46.75955" lon="0.4057">
        <ele>201</ele>
        <time>2016-11-20T08:55:38.000Z</time>
      </trkpt>
      <trkpt lat="46.75962" lon="0.40558">
        <ele>202</ele>
        <time>2016-11-20T08:55:42.000Z</time>
      </trkpt>
      <trkpt lat="46.75971" lon="0.40559">
        <ele>196</ele>
        <time>2016-11-20T08:55:45.000Z</time>
      </trkpt>
      <trkpt lat="46.75981" lon="0.40565">
        <ele>196</ele>
        <time>2016-11-20T08:55:48.000Z</time>
      </trkpt>
      <trkpt lat="46.7599" lon="0.40576">
        <ele>195</ele>
        <time>2016-11-20T08:55:51.000Z</time>
      </trkpt>
      <trkpt lat="46.75993" lon="0.40591">
        <ele>194</ele>
        <time>2016-11-20T08:55:57.000Z</time>
      </trkpt>
      <trkpt lat="46.75996" lon="0.40606">
        <ele>197</ele>
        <time>2016-11-20T08:56:01.000Z</time>
      </trkpt>
      <trkpt lat="46.76001" lon="0.40618">
        <ele>197</ele>
        <time>2016-11-20T08:56:04.000Z</time>
      </trkpt>
      <trkpt lat="46.76005" lon="0.40632">
        <ele>197</ele>
        <time>2016-11-20T08:56:08.000Z</time>
      </trkpt>
      <trkpt lat="46.76009" lon="0.40648">
        <ele>197</ele>
        <time>2016-11-20T08:56:12.000Z</time>
      </trkpt>
      <trkpt lat="46.76015" lon="0.40659">
        <ele>197</ele>
        <time>2016-11-20T08:56:15.000Z</time>
      </trkpt>
      <trkpt lat="46.76019" lon="0.40677">
        <ele>197</ele>
        <time>2016-11-20T08:56:18.000Z</time>
      </trkpt>
      <trkpt lat="46.76024" lon="0.40695">
        <ele>196</ele>
        <time>2016-11-20T08:56:21.000Z</time>
      </trkpt>
      <trkpt lat="46.76023" lon="0.40712">
        <ele>198</ele>
        <time>2016-11-20T08:56:24.000Z</time>
      </trkpt>
      <trkpt lat="46.76026" lon="0.40725">
        <ele>204</ele>
        <time>2016-11-20T08:56:28.000Z</time>
      </trkpt>
      <trkpt lat="46.7603" lon="0.40738">
        <ele>204</ele>
        <time>2016-11-20T08:56:31.000Z</time>
      </trkpt>
      <trkpt lat="46.76024" lon="0.40749">
        <ele>201</ele>
        <time>2016-11-20T08:56:33.000Z</time>
      </trkpt>
      <trkpt lat="46.76018" lon="0.4076">
        <ele>200</ele>
        <time>2016-11-20T08:56:35.000Z</time>
      </trkpt>
      <trkpt lat="46.76012" lon="0.40773">
        <ele>206</ele>
        <time>2016-11-20T08:56:39.000Z</time>
      </trkpt>
      <trkpt lat="46.76005" lon="0.40783">
        <ele>208</ele>
        <time>2016-11-20T08:56:43.000Z</time>
      </trkpt>
      <trkpt lat="46.75999" lon="0.40797">
        <ele>205</ele>
        <time>2016-11-20T08:56:48.000Z</time>
      </trkpt>
      <trkpt lat="46.7599" lon="0.40805">
        <ele>203</ele>
        <time>2016-11-20T08:56:53.000Z</time>
      </trkpt>
      <trkpt lat="46.75979" lon="0.40814">
        <ele>200</ele>
        <time>2016-11-20T08:56:56.000Z</time>
      </trkpt>
      <trkpt lat="46.75971" lon="0.40822">
        <ele>202</ele>
        <time>2016-11-20T08:57:00.000Z</time>
      </trkpt>
      <trkpt lat="46.75964" lon="0.40832">
        <ele>203</ele>
        <time>2016-11-20T08:57:07.000Z</time>
      </trkpt>
      <trkpt lat="46.75952" lon="0.40838">
        <ele>203</ele>
        <time>2016-11-20T08:57:09.000Z</time>
      </trkpt>
      <trkpt lat="46.75942" lon="0.40846">
        <ele>204</ele>
        <time>2016-11-20T08:57:13.000Z</time>
      </trkpt>
      <trkpt lat="46.7593" lon="0.40858">
        <ele>200</ele>
        <time>2016-11-20T08:57:16.000Z</time>
      </trkpt>
      <trkpt lat="46.75922" lon="0.40864">
        <ele>200</ele>
        <time>2016-11-20T08:57:20.000Z</time>
      </trkpt>
      <trkpt lat="46.7591" lon="0.40871">
        <ele>199</ele>
        <time>2016-11-20T08:57:24.000Z</time>
      </trkpt>
      <trkpt lat="46.759" lon="0.4088">
        <ele>203</ele>
        <time>2016-11-20T08:57:30.000Z</time>
      </trkpt>
      <trkpt lat="46.75892" lon="0.40893">
        <ele>209</ele>
        <time>2016-11-20T08:57:37.000Z</time>
      </trkpt>
      <trkpt lat="46.75873" lon="0.40895">
        <ele>208</ele>
        <time>2016-11-20T08:57:40.000Z</time>
      </trkpt>
      <trkpt lat="46.75864" lon="0.40901">
        <ele>214</ele>
        <time>2016-11-20T08:57:44.000Z</time>
      </trkpt>
      <trkpt lat="46.75864" lon="0.4092">
        <ele>205</ele>
        <time>2016-11-20T08:57:52.000Z</time>
      </trkpt>
      <trkpt lat="46.75868" lon="0.40934">
        <ele>203</ele>
        <time>2016-11-20T08:57:54.000Z</time>
      </trkpt>
      <trkpt lat="46.75873" lon="0.40951">
        <ele>201</ele>
        <time>2016-11-20T08:57:57.000Z</time>
      </trkpt>
      <trkpt lat="46.75875" lon="0.40974">
        <ele>201</ele>
        <time>2016-11-20T08:58:01.000Z</time>
      </trkpt>
      <trkpt lat="46.75878" lon="0.40995">
        <ele>196</ele>
        <time>2016-11-20T08:58:03.000Z</time>
      </trkpt>
      <trkpt lat="46.7588" lon="0.41008">
        <ele>192</ele>
        <time>2016-11-20T08:58:05.000Z</time>
      </trkpt>
      <trkpt lat="46.7589" lon="0.41034">
        <ele>202</ele>
        <time>2016-11-20T08:58:11.000Z</time>
      </trkpt>
      <trkpt lat="46.75896" lon="0.41049">
        <ele>203</ele>
        <time>2016-11-20T08:58:13.000Z</time>
      </trkpt>
      <trkpt lat="46.75911" lon="0.41068">
        <ele>202</ele>
        <time>2016-11-20T08:58:17.000Z</time>
      </trkpt>
      <trkpt lat="46.75925" lon="0.41075">
        <ele>201</ele>
        <time>2016-11-20T08:58:20.000Z</time>
      </trkpt>
      <trkpt lat="46.75935" lon="0.41083">
        <ele>200</ele>
        <time>2016-11-20T08:58:22.000Z</time>
      </trkpt>
      <trkpt lat="46.75945" lon="0.41088">
        <ele>201</ele>
        <time>2016-11-20T08:58:24.000Z</time>
      </trkpt>
      <trkpt lat="46.75954" lon="0.4109">
        <ele>201</ele>
        <time>2016-11-20T08:58:26.000Z</time>
      </trkpt>
      <trkpt lat="46.75964" lon="0.41093">
        <ele>201</ele>
        <time>2016-11-20T08:58:28.000Z</time>
      </trkpt>
      <trkpt lat="46.75975" lon="0.41097">
        <ele>202</ele>
        <time>2016-11-20T08:58:30.000Z</time>
      </trkpt>
      <trkpt lat="46.75986" lon="0.41102">
        <ele>202</ele>
        <time>2016-11-20T08:58:32.000Z</time>
      </trkpt>
      <trkpt lat="46.75997" lon="0.41107">
        <ele>203</ele>
        <time>2016-11-20T08:58:34.000Z</time>
      </trkpt>
      <trkpt lat="46.76018" lon="0.41123">
        <ele>203</ele>
        <time>2016-11-20T08:58:38.000Z</time>
      </trkpt>
      <trkpt lat="46.76027" lon="0.41129">
        <ele>202</ele>
        <time>2016-11-20T08:58:40.000Z</time>
      </trkpt>
      <trkpt lat="46.76037" lon="0.41135">
        <ele>200</ele>
        <time>2016-11-20T08:58:42.000Z</time>
      </trkpt>
      <trkpt lat="46.76045" lon="0.41144">
        <ele>199</ele>
        <time>2016-11-20T08:58:44.000Z</time>
      </trkpt>
      <trkpt lat="46.76056" lon="0.41152">
        <ele>194</ele>
        <time>2016-11-20T08:58:47.000Z</time>
      </trkpt>
      <trkpt lat="46.76055" lon="0.41138">
        <ele>195</ele>
        <time>2016-11-20T08:58:54.000Z</time>
      </trkpt>
      <trkpt lat="46.7605" lon="0.41123">
        <ele>196</ele>
        <time>2016-11-20T08:58:58.000Z</time>
      </trkpt>
      <trkpt lat="46.76046" lon="0.411">
        <ele>194</ele>
        <time>2016-11-20T08:59:01.000Z</time>
      </trkpt>
      <trkpt lat="46.76045" lon="0.41084">
        <ele>196</ele>
        <time>2016-11-20T08:59:04.000Z</time>
      </trkpt>
      <trkpt lat="46.76039" lon="0.41067">
        <ele>198</ele>
        <time>2016-11-20T08:59:09.000Z</time>
      </trkpt>
      <trkpt lat="46.76037" lon="0.41049">
        <ele>197</ele>
        <time>2016-11-20T08:59:11.000Z</time>
      </trkpt>
      <trkpt lat="46.76033" lon="0.41031">
        <ele>197</ele>
        <time>2016-11-20T08:59:14.000Z</time>
      </trkpt>
      <trkpt lat="46.76029" lon="0.41016">
        <ele>199</ele>
        <time>2016-11-20T08:59:17.000Z</time>
      </trkpt>
      <trkpt lat="46.76024" lon="0.41005">
        <ele>199</ele>
        <time>2016-11-20T08:59:19.000Z</time>
      </trkpt>
      <trkpt lat="46.76021" lon="0.40989">
        <ele>195</ele>
        <time>2016-11-20T08:59:21.000Z</time>
      </trkpt>
      <trkpt lat="46.76015" lon="0.40977">
        <ele>197</ele>
        <time>2016-11-20T08:59:24.000Z</time>
      </trkpt>
      <trkpt lat="46.76009" lon="0.40961">
        <ele>197</ele>
        <time>2016-11-20T08:59:27.000Z</time>
      </trkpt>
      <trkpt lat="46.76007" lon="0.40943">
        <ele>198</ele>
        <time>2016-11-20T08:59:30.000Z</time>
      </trkpt>
      <trkpt lat="46.76001" lon="0.40928">
        <ele>197</ele>
        <time>2016-11-20T08:59:33.000Z</time>
      </trkpt>
      <trkpt lat="46.75996" lon="0.40914">
        <ele>202</ele>
        <time>2016-11-20T08:59:36.000Z</time>
      </trkpt>
      <trkpt lat="46.75992" lon="0.40902">
        <ele>205</ele>
        <time>2016-11-20T08:59:40.000Z</time>
      </trkpt>
      <trkpt lat="46.75988" lon="0.40888">
        <ele>206</ele>
        <time>2016-11-20T08:59:43.000Z</time>
      </trkpt>
      <trkpt lat="46.75988" lon="0.40875">
        <ele>205</ele>
        <time>2016-11-20T08:59:45.000Z</time>
      </trkpt>
      <trkpt lat="46.75985" lon="0.40862">
        <ele>203</ele>
        <time>2016-11-20T08:59:47.000Z</time>
      </trkpt>
      <trkpt lat="46.75983" lon="0.40823">
        <ele>200</ele>
        <time>2016-11-20T08:59:49.000Z</time>
      </trkpt>
      <trkpt lat="46.75993" lon="0.40811">
        <ele>200</ele>
        <time>2016-11-20T08:59:53.000Z</time>
      </trkpt>
      <trkpt lat="46.76" lon="0.40803">
        <ele>205</ele>
        <time>2016-11-20T08:59:56.000Z</time>
      </trkpt>
      <trkpt lat="46.76008" lon="0.40792">
        <ele>207</ele>
        <time>2016-11-20T08:59:59.000Z</time>
      </trkpt>
      <trkpt lat="46.76017" lon="0.40782">
        <ele>207</ele>
        <time>2016-11-20T09:00:01.000Z</time>
      </trkpt>
      <trkpt lat="46.76025" lon="0.40774">
        <ele>207</ele>
        <time>2016-11-20T09:00:02.000Z</time>
      </trkpt>
      <trkpt lat="46.76039" lon="0.40761">
        <ele>203</ele>
        <time>2016-11-20T09:00:04.000Z</time>
      </trkpt>
      <trkpt lat="46.76052" lon="0.40749">
        <ele>202</ele>
        <time>2016-11-20T09:00:06.000Z</time>
      </trkpt>
      <trkpt lat="46.76057" lon="0.40733">
        <ele>201</ele>
        <time>2016-11-20T09:00:08.000Z</time>
      </trkpt>
      <trkpt lat="46.76061" lon="0.4071">
        <ele>201</ele>
        <time>2016-11-20T09:00:10.000Z</time>
      </trkpt>
      <trkpt lat="46.76065" lon="0.4069">
        <ele>197</ele>
        <time>2016-11-20T09:00:12.000Z</time>
      </trkpt>
      <trkpt lat="46.76067" lon="0.40675">
        <ele>194</ele>
        <time>2016-11-20T09:00:13.000Z</time>
      </trkpt>
      <trkpt lat="46.76074" lon="0.40656">
        <ele>189</ele>
        <time>2016-11-20T09:00:15.000Z</time>
      </trkpt>
      <trkpt lat="46.76082" lon="0.40638">
        <ele>190</ele>
        <time>2016-11-20T09:00:17.000Z</time>
      </trkpt>
      <trkpt lat="46.7609" lon="0.40623">
        <ele>188</ele>
        <time>2016-11-20T09:00:19.000Z</time>
      </trkpt>
      <trkpt lat="46.76098" lon="0.40603">
        <ele>185</ele>
        <time>2016-11-20T09:00:21.000Z</time>
      </trkpt>
      <trkpt lat="46.76096" lon="0.40586">
        <ele>184</ele>
        <time>2016-11-20T09:00:26.000Z</time>
      </trkpt>
      <trkpt lat="46.76091" lon="0.40571">
        <ele>182</ele>
        <time>2016-11-20T09:00:29.000Z</time>
      </trkpt>
      <trkpt lat="46.76088" lon="0.40558">
        <ele>181</ele>
        <time>2016-11-20T09:00:31.000Z</time>
      </trkpt>
      <trkpt lat="46.76085" lon="0.40546">
        <ele>181</ele>
        <time>2016-11-20T09:00:33.000Z</time>
      </trkpt>
      <trkpt lat="46.76081" lon="0.40533">
        <ele>181</ele>
        <time>2016-11-20T09:00:35.000Z</time>
      </trkpt>
      <trkpt lat="46.76079" lon="0.40517">
        <ele>180</ele>
        <time>2016-11-20T09:00:37.000Z</time>
      </trkpt>
      <trkpt lat="46.76078" lon="0.40499">
        <ele>180</ele>
        <time>2016-11-20T09:00:39.000Z</time>
      </trkpt>
      <trkpt lat="46.7608" lon="0.4048">
        <ele>178</ele>
        <time>2016-11-20T09:00:41.000Z</time>
      </trkpt>
      <trkpt lat="46.76086" lon="0.40461">
        <ele>177</ele>
        <time>2016-11-20T09:00:43.000Z</time>
      </trkpt>
      <trkpt lat="46.76096" lon="0.40435">
        <ele>177</ele>
        <time>2016-11-20T09:00:46.000Z</time>
      </trkpt>
      <trkpt lat="46.76102" lon="0.40419">
        <ele>177</ele>
        <time>2016-11-20T09:00:48.000Z</time>
      </trkpt>
      <trkpt lat="46.76108" lon="0.40404">
        <ele>175</ele>
        <time>2016-11-20T09:00:51.000Z</time>
      </trkpt>
      <trkpt lat="46.7611" lon="0.40387">
        <ele>171</ele>
        <time>2016-11-20T09:00:54.000Z</time>
      </trkpt>
      <trkpt lat="46.76108" lon="0.40372">
        <ele>167</ele>
        <time>2016-11-20T09:00:56.000Z</time>
      </trkpt>
      <trkpt lat="46.76104" lon="0.40359">
        <ele>165</ele>
        <time>2016-11-20T09:00:58.000Z</time>
      </trkpt>
      <trkpt lat="46.76098" lon="0.40343">
        <ele>163</ele>
        <time>2016-11-20T09:01:00.000Z</time>
      </trkpt>
      <trkpt lat="46.76092" lon="0.40332">
        <ele>164</ele>
        <time>2016-11-20T09:01:02.000Z</time>
      </trkpt>
      <trkpt lat="46.76089" lon="0.40313">
        <ele>165</ele>
        <time>2016-11-20T09:01:05.000Z</time>
      </trkpt>
      <trkpt lat="46.76094" lon="0.403">
        <ele>162</ele>
        <time>2016-11-20T09:01:07.000Z</time>
      </trkpt>
      <trkpt lat="46.76106" lon="0.40293">
        <ele>161</ele>
        <time>2016-11-20T09:01:09.000Z</time>
      </trkpt>
      <trkpt lat="46.76119" lon="0.40288">
        <ele>159</ele>
        <time>2016-11-20T09:01:11.000Z</time>
      </trkpt>
      <trkpt lat="46.76134" lon="0.40284">
        <ele>156</ele>
        <time>2016-11-20T09:01:13.000Z</time>
      </trkpt>
      <trkpt lat="46.7615" lon="0.40275">
        <ele>155</ele>
        <time>2016-11-20T09:01:15.000Z</time>
      </trkpt>
      <trkpt lat="46.76164" lon="0.40259">
        <ele>153</ele>
        <time>2016-11-20T09:01:17.000Z</time>
      </trkpt>
      <trkpt lat="46.7617" lon="0.40249">
        <ele>152</ele>
        <time>2016-11-20T09:01:18.000Z</time>
      </trkpt>
      <trkpt lat="46.76183" lon="0.40232">
        <ele>152</ele>
        <time>2016-11-20T09:01:20.000Z</time>
      </trkpt>
      <trkpt lat="46.76191" lon="0.40225">
        <ele>152</ele>
        <time>2016-11-20T09:01:21.000Z</time>
      </trkpt>
      <trkpt lat="46.76207" lon="0.40213">
        <ele>150</ele>
        <time>2016-11-20T09:01:23.000Z</time>
      </trkpt>
      <trkpt lat="46.76223" lon="0.40204">
        <ele>149</ele>
        <time>2016-11-20T09:01:25.000Z</time>
      </trkpt>
      <trkpt lat="46.76237" lon="0.40195">
        <ele>148</ele>
        <time>2016-11-20T09:01:27.000Z</time>
      </trkpt>
      <trkpt lat="46.76252" lon="0.40188">
        <ele>146</ele>
        <time>2016-11-20T09:01:29.000Z</time>
      </trkpt>
      <trkpt lat="46.76266" lon="0.40184">
        <ele>144</ele>
        <time>2016-11-20T09:01:31.000Z</time>
      </trkpt>
      <trkpt lat="46.76283" lon="0.4018">
        <ele>142</ele>
        <time>2016-11-20T09:01:33.000Z</time>
      </trkpt>
      <trkpt lat="46.76299" lon="0.40177">
        <ele>142</ele>
        <time>2016-11-20T09:01:35.000Z</time>
      </trkpt>
      <trkpt lat="46.76316" lon="0.40169">
        <ele>143</ele>
        <time>2016-11-20T09:01:37.000Z</time>
      </trkpt>
      <trkpt lat="46.76332" lon="0.40161">
        <ele>143</ele>
        <time>2016-11-20T09:01:39.000Z</time>
      </trkpt>
      <trkpt lat="46.76348" lon="0.40152">
        <ele>142</ele>
        <time>2016-11-20T09:01:41.000Z</time>
      </trkpt>
      <trkpt lat="46.76363" lon="0.40143">
        <ele>143</ele>
        <time>2016-11-20T09:01:43.000Z</time>
      </trkpt>
      <trkpt lat="46.76378" lon="0.40134">
        <ele>143</ele>
        <time>2016-11-20T09:01:45.000Z</time>
      </trkpt>
      <trkpt lat="46.76394" lon="0.40125">
        <ele>141</ele>
        <time>2016-11-20T09:01:47.000Z</time>
      </trkpt>
      <trkpt lat="46.76409" lon="0.40115">
        <ele>141</ele>
        <time>2016-11-20T09:01:49.000Z</time>
      </trkpt>
      <trkpt lat="46.76424" lon="0.40104">
        <ele>141</ele>
        <time>2016-11-20T09:01:51.000Z</time>
      </trkpt>
      <trkpt lat="46.76437" lon="0.40094">
        <ele>140</ele>
        <time>2016-11-20T09:01:53.000Z</time>
      </trkpt>
      <trkpt lat="46.76452" lon="0.40086">
        <ele>138</ele>
        <time>2016-11-20T09:01:55.000Z</time>
      </trkpt>
      <trkpt lat="46.76468" lon="0.4008">
        <ele>137</ele>
        <time>2016-11-20T09:01:57.000Z</time>
      </trkpt>
      <trkpt lat="46.76482" lon="0.40075">
        <ele>137</ele>
        <time>2016-11-20T09:01:59.000Z</time>
      </trkpt>
      <trkpt lat="46.76497" lon="0.4007">
        <ele>136</ele>
        <time>2016-11-20T09:02:01.000Z</time>
      </trkpt>
      <trkpt lat="46.76511" lon="0.40063">
        <ele>135</ele>
        <time>2016-11-20T09:02:03.000Z</time>
      </trkpt>
      <trkpt lat="46.76526" lon="0.40057">
        <ele>134</ele>
        <time>2016-11-20T09:02:05.000Z</time>
      </trkpt>
      <trkpt lat="46.7654" lon="0.40052">
        <ele>134</ele>
        <time>2016-11-20T09:02:07.000Z</time>
      </trkpt>
      <trkpt lat="46.76554" lon="0.40047">
        <ele>134</ele>
        <time>2016-11-20T09:02:09.000Z</time>
      </trkpt>
      <trkpt lat="46.76569" lon="0.40042">
        <ele>134</ele>
        <time>2016-11-20T09:02:11.000Z</time>
      </trkpt>
      <trkpt lat="46.76587" lon="0.40035">
        <ele>133</ele>
        <time>2016-11-20T09:02:13.000Z</time>
      </trkpt>
      <trkpt lat="46.76602" lon="0.40027">
        <ele>132</ele>
        <time>2016-11-20T09:02:15.000Z</time>
      </trkpt>
      <trkpt lat="46.76617" lon="0.40018">
        <ele>131</ele>
        <time>2016-11-20T09:02:17.000Z</time>
      </trkpt>
      <trkpt lat="46.76632" lon="0.4001">
        <ele>130</ele>
        <time>2016-11-20T09:02:19.000Z</time>
      </trkpt>
      <trkpt lat="46.76647" lon="0.4">
        <ele>130</ele>
        <time>2016-11-20T09:02:21.000Z</time>
      </trkpt>
      <trkpt lat="46.76662" lon="0.3999">
        <ele>130</ele>
        <time>2016-11-20T09:02:23.000Z</time>
      </trkpt>
      <trkpt lat="46.76676" lon="0.39984">
        <ele>129</ele>
        <time>2016-11-20T09:02:25.000Z</time>
      </trkpt>
      <trkpt lat="46.76685" lon="0.39978">
        <ele>129</ele>
        <time>2016-11-20T09:02:27.000Z</time>
      </trkpt>
      <trkpt lat="46.76694" lon="0.39975">
        <ele>129</ele>
        <time>2016-11-20T09:02:31.000Z</time>
      </trkpt>
      <trkpt lat="46.76695" lon="0.39991">
        <ele>132</ele>
        <time>2016-11-20T09:02:36.000Z</time>
      </trkpt>
      <trkpt lat="46.76698" lon="0.40005">
        <ele>132</ele>
        <time>2016-11-20T09:02:38.000Z</time>
      </trkpt>
      <trkpt lat="46.76702" lon="0.40017">
        <ele>132</ele>
        <time>2016-11-20T09:02:40.000Z</time>
      </trkpt>
      <trkpt lat="46.76705" lon="0.40034">
        <ele>131</ele>
        <time>2016-11-20T09:02:43.000Z</time>
      </trkpt>
      <trkpt lat="46.76709" lon="0.40051">
        <ele>131</ele>
        <time>2016-11-20T09:02:46.000Z</time>
      </trkpt>
      <trkpt lat="46.76712" lon="0.40067">
        <ele>131</ele>
        <time>2016-11-20T09:02:49.000Z</time>
      </trkpt>
      <trkpt lat="46.76719" lon="0.4008">
        <ele>131</ele>
        <time>2016-11-20T09:02:52.000Z</time>
      </trkpt>
      <trkpt lat="46.76728" lon="0.40084">
        <ele>130</ele>
        <time>2016-11-20T09:02:59.000Z</time>
      </trkpt>
      <trkpt lat="46.76736" lon="0.40097">
        <ele>130</ele>
        <time>2016-11-20T09:03:03.000Z</time>
      </trkpt>
      <trkpt lat="46.7674" lon="0.4011">
        <ele>132</ele>
        <time>2016-11-20T09:03:09.000Z</time>
      </trkpt>
      <trkpt lat="46.7674" lon="0.40124">
        <ele>140</ele>
        <time>2016-11-20T09:03:15.000Z</time>
      </trkpt>
      <trkpt lat="46.76738" lon="0.4014">
        <ele>142</ele>
        <time>2016-11-20T09:03:21.000Z</time>
      </trkpt>
      <trkpt lat="46.76735" lon="0.40154">
        <ele>141</ele>
        <time>2016-11-20T09:03:27.000Z</time>
      </trkpt>
      <trkpt lat="46.76727" lon="0.40166">
        <ele>140</ele>
        <time>2016-11-20T09:03:31.000Z</time>
      </trkpt>
      <trkpt lat="46.7672" lon="0.40175">
        <ele>145</ele>
        <time>2016-11-20T09:03:35.000Z</time>
      </trkpt>
      <trkpt lat="46.76712" lon="0.40186">
        <ele>143</ele>
        <time>2016-11-20T09:03:41.000Z</time>
      </trkpt>
      <trkpt lat="46.76706" lon="0.40199">
        <ele>143</ele>
        <time>2016-11-20T09:03:45.000Z</time>
      </trkpt>
      <trkpt lat="46.76704" lon="0.40216">
        <ele>143</ele>
        <time>2016-11-20T09:03:49.000Z</time>
      </trkpt>
      <trkpt lat="46.76703" lon="0.40231">
        <ele>142</ele>
        <time>2016-11-20T09:03:52.000Z</time>
      </trkpt>
      <trkpt lat="46.76698" lon="0.40242">
        <ele>143</ele>
        <time>2016-11-20T09:03:57.000Z</time>
      </trkpt>
      <trkpt lat="46.7669" lon="0.40251">
        <ele>147</ele>
        <time>2016-11-20T09:04:03.000Z</time>
      </trkpt>
      <trkpt lat="46.76685" lon="0.40262">
        <ele>150</ele>
        <time>2016-11-20T09:04:11.000Z</time>
      </trkpt>
      <trkpt lat="46.7668" lon="0.40276">
        <ele>148</ele>
        <time>2016-11-20T09:04:18.000Z</time>
      </trkpt>
      <trkpt lat="46.7668" lon="0.40291">
        <ele>151</ele>
        <time>2016-11-20T09:04:21.000Z</time>
      </trkpt>
      <trkpt lat="46.76674" lon="0.40303">
        <ele>151</ele>
        <time>2016-11-20T09:04:24.000Z</time>
      </trkpt>
      <trkpt lat="46.76667" lon="0.40313">
        <ele>151</ele>
        <time>2016-11-20T09:04:28.000Z</time>
      </trkpt>
      <trkpt lat="46.76659" lon="0.40321">
        <ele>155</ele>
        <time>2016-11-20T09:04:31.000Z</time>
      </trkpt>
      <trkpt lat="46.7665" lon="0.40332">
        <ele>158</ele>
        <time>2016-11-20T09:04:34.000Z</time>
      </trkpt>
      <trkpt lat="46.76642" lon="0.40339">
        <ele>148</ele>
        <time>2016-11-20T09:04:38.000Z</time>
      </trkpt>
      <trkpt lat="46.76634" lon="0.40346">
        <ele>153</ele>
        <time>2016-11-20T09:04:41.000Z</time>
      </trkpt>
      <trkpt lat="46.76617" lon="0.40365">
        <ele>157</ele>
        <time>2016-11-20T09:04:50.000Z</time>
      </trkpt>
      <trkpt lat="46.76599" lon="0.40374">
        <ele>154</ele>
        <time>2016-11-20T09:04:52.000Z</time>
      </trkpt>
      <trkpt lat="46.76587" lon="0.40379">
        <ele>152</ele>
        <time>2016-11-20T09:04:54.000Z</time>
      </trkpt>
      <trkpt lat="46.76578" lon="0.40385">
        <ele>151</ele>
        <time>2016-11-20T09:04:56.000Z</time>
      </trkpt>
      <trkpt lat="46.7657" lon="0.40391">
        <ele>153</ele>
        <time>2016-11-20T09:05:01.000Z</time>
      </trkpt>
      <trkpt lat="46.7656" lon="0.40397">
        <ele>149</ele>
        <time>2016-11-20T09:05:05.000Z</time>
      </trkpt>
      <trkpt lat="46.76558" lon="0.40412">
        <ele>145</ele>
        <time>2016-11-20T09:05:10.000Z</time>
      </trkpt>
      <trkpt lat="46.76561" lon="0.40428">
        <ele>144</ele>
        <time>2016-11-20T09:05:14.000Z</time>
      </trkpt>
      <trkpt lat="46.76566" lon="0.40442">
        <ele>144</ele>
        <time>2016-11-20T09:05:17.000Z</time>
      </trkpt>
      <trkpt lat="46.7657" lon="0.40456">
        <ele>145</ele>
        <time>2016-11-20T09:05:20.000Z</time>
      </trkpt>
      <trkpt lat="46.76573" lon="0.40471">
        <ele>143</ele>
        <time>2016-11-20T09:05:22.000Z</time>
      </trkpt>
      <trkpt lat="46.76579" lon="0.40487">
        <ele>142</ele>
        <time>2016-11-20T09:05:25.000Z</time>
      </trkpt>
      <trkpt lat="46.76584" lon="0.40499">
        <ele>141</ele>
        <time>2016-11-20T09:05:27.000Z</time>
      </trkpt>
      <trkpt lat="46.76588" lon="0.40511">
        <ele>142</ele>
        <time>2016-11-20T09:05:29.000Z</time>
      </trkpt>
      <trkpt lat="46.76595" lon="0.40529">
        <ele>141</ele>
        <time>2016-11-20T09:05:32.000Z</time>
      </trkpt>
      <trkpt lat="46.76599" lon="0.40541">
        <ele>142</ele>
        <time>2016-11-20T09:05:34.000Z</time>
      </trkpt>
      <trkpt lat="46.76603" lon="0.40553">
        <ele>141</ele>
        <time>2016-11-20T09:05:36.000Z</time>
      </trkpt>
      <trkpt lat="46.76608" lon="0.40566">
        <ele>141</ele>
        <time>2016-11-20T09:05:38.000Z</time>
      </trkpt>
      <trkpt lat="46.76614" lon="0.40582">
        <ele>142</ele>
        <time>2016-11-20T09:05:41.000Z</time>
      </trkpt>
      <trkpt lat="46.76619" lon="0.40597">
        <ele>143</ele>
        <time>2016-11-20T09:05:44.000Z</time>
      </trkpt>
      <trkpt lat="46.76622" lon="0.4061">
        <ele>142</ele>
        <time>2016-11-20T09:05:46.000Z</time>
      </trkpt>
      <trkpt lat="46.76628" lon="0.40625">
        <ele>142</ele>
        <time>2016-11-20T09:05:49.000Z</time>
      </trkpt>
      <trkpt lat="46.76634" lon="0.4064">
        <ele>141</ele>
        <time>2016-11-20T09:05:52.000Z</time>
      </trkpt>
      <trkpt lat="46.76636" lon="0.40657">
        <ele>141</ele>
        <time>2016-11-20T09:05:55.000Z</time>
      </trkpt>
      <trkpt lat="46.76628" lon="0.40667">
        <ele>144</ele>
        <time>2016-11-20T09:05:59.000Z</time>
      </trkpt>
      <trkpt lat="46.7662" lon="0.40673">
        <ele>142</ele>
        <time>2016-11-20T09:06:03.000Z</time>
      </trkpt>
      <trkpt lat="46.76613" lon="0.40684">
        <ele>142</ele>
        <time>2016-11-20T09:06:07.000Z</time>
      </trkpt>
      <trkpt lat="46.76605" lon="0.40691">
        <ele>141</ele>
        <time>2016-11-20T09:06:10.000Z</time>
      </trkpt>
      <trkpt lat="46.76597" lon="0.407">
        <ele>139</ele>
        <time>2016-11-20T09:06:13.000Z</time>
      </trkpt>
      <trkpt lat="46.76587" lon="0.40705">
        <ele>139</ele>
        <time>2016-11-20T09:06:16.000Z</time>
      </trkpt>
      <trkpt lat="46.76577" lon="0.40715">
        <ele>137</ele>
        <time>2016-11-20T09:06:20.000Z</time>
      </trkpt>
      <trkpt lat="46.76568" lon="0.40726">
        <ele>136</ele>
        <time>2016-11-20T09:06:24.000Z</time>
      </trkpt>
      <trkpt lat="46.76561" lon="0.40736">
        <ele>138</ele>
        <time>2016-11-20T09:06:29.000Z</time>
      </trkpt>
      <trkpt lat="46.76553" lon="0.40746">
        <ele>138</ele>
        <time>2016-11-20T09:06:33.000Z</time>
      </trkpt>
      <trkpt lat="46.76544" lon="0.40754">
        <ele>138</ele>
        <time>2016-11-20T09:06:36.000Z</time>
      </trkpt>
      <trkpt lat="46.76536" lon="0.40765">
        <ele>136</ele>
        <time>2016-11-20T09:06:40.000Z</time>
      </trkpt>
      <trkpt lat="46.76529" lon="0.40773">
        <ele>136</ele>
        <time>2016-11-20T09:06:43.000Z</time>
      </trkpt>
      <trkpt lat="46.76524" lon="0.40785">
        <ele>136</ele>
        <time>2016-11-20T09:06:47.000Z</time>
      </trkpt>
      <trkpt lat="46.76529" lon="0.40798">
        <ele>139</ele>
        <time>2016-11-20T09:06:51.000Z</time>
      </trkpt>
      <trkpt lat="46.76534" lon="0.40811">
        <ele>140</ele>
        <time>2016-11-20T09:06:54.000Z</time>
      </trkpt>
      <trkpt lat="46.76539" lon="0.40824">
        <ele>141</ele>
        <time>2016-11-20T09:06:57.000Z</time>
      </trkpt>
      <trkpt lat="46.76542" lon="0.40837">
        <ele>141</ele>
        <time>2016-11-20T09:06:59.000Z</time>
      </trkpt>
      <trkpt lat="46.76546" lon="0.40849">
        <ele>140</ele>
        <time>2016-11-20T09:07:01.000Z</time>
      </trkpt>
      <trkpt lat="46.7655" lon="0.40863">
        <ele>140</ele>
        <time>2016-11-20T09:07:03.000Z</time>
      </trkpt>
      <trkpt lat="46.76553" lon="0.40876">
        <ele>142</ele>
        <time>2016-11-20T09:07:05.000Z</time>
      </trkpt>
      <trkpt lat="46.76559" lon="0.40892">
        <ele>142</ele>
        <time>2016-11-20T09:07:08.000Z</time>
      </trkpt>
      <trkpt lat="46.76562" lon="0.40904">
        <ele>142</ele>
        <time>2016-11-20T09:07:10.000Z</time>
      </trkpt>
      <trkpt lat="46.76567" lon="0.40923">
        <ele>141</ele>
        <time>2016-11-20T09:07:13.000Z</time>
      </trkpt>
      <trkpt lat="46.76571" lon="0.4094">
        <ele>141</ele>
        <time>2016-11-20T09:07:16.000Z</time>
      </trkpt>
      <trkpt lat="46.76573" lon="0.40959">
        <ele>141</ele>
        <time>2016-11-20T09:07:19.000Z</time>
      </trkpt>
      <trkpt lat="46.76574" lon="0.40973">
        <ele>141</ele>
        <time>2016-11-20T09:07:22.000Z</time>
      </trkpt>
      <trkpt lat="46.76579" lon="0.41006">
        <ele>139</ele>
        <time>2016-11-20T09:07:25.000Z</time>
      </trkpt>
      <trkpt lat="46.76579" lon="0.41023">
        <ele>139</ele>
        <time>2016-11-20T09:07:28.000Z</time>
      </trkpt>
      <trkpt lat="46.76579" lon="0.41041">
        <ele>140</ele>
        <time>2016-11-20T09:07:31.000Z</time>
      </trkpt>
      <trkpt lat="46.76579" lon="0.41057">
        <ele>140</ele>
        <time>2016-11-20T09:07:34.000Z</time>
      </trkpt>
      <trkpt lat="46.7658" lon="0.41072">
        <ele>142</ele>
        <time>2016-11-20T09:07:37.000Z</time>
      </trkpt>
      <trkpt lat="46.76582" lon="0.41088">
        <ele>142</ele>
        <time>2016-11-20T09:07:40.000Z</time>
      </trkpt>
      <trkpt lat="46.76585" lon="0.41105">
        <ele>142</ele>
        <time>2016-11-20T09:07:43.000Z</time>
      </trkpt>
      <trkpt lat="46.76588" lon="0.41122">
        <ele>141</ele>
        <time>2016-11-20T09:07:46.000Z</time>
      </trkpt>
      <trkpt lat="46.76592" lon="0.4114">
        <ele>141</ele>
        <time>2016-11-20T09:07:49.000Z</time>
      </trkpt>
      <trkpt lat="46.76597" lon="0.41155">
        <ele>141</ele>
        <time>2016-11-20T09:07:52.000Z</time>
      </trkpt>
      <trkpt lat="46.76603" lon="0.41171">
        <ele>141</ele>
        <time>2016-11-20T09:07:55.000Z</time>
      </trkpt>
      <trkpt lat="46.76609" lon="0.41188">
        <ele>140</ele>
        <time>2016-11-20T09:07:58.000Z</time>
      </trkpt>
      <trkpt lat="46.76614" lon="0.41205">
        <ele>140</ele>
        <time>2016-11-20T09:08:01.000Z</time>
      </trkpt>
      <trkpt lat="46.76618" lon="0.41221">
        <ele>140</ele>
        <time>2016-11-20T09:08:04.000Z</time>
      </trkpt>
      <trkpt lat="46.76623" lon="0.41237">
        <ele>140</ele>
        <time>2016-11-20T09:08:07.000Z</time>
      </trkpt>
      <trkpt lat="46.76627" lon="0.41252">
        <ele>140</ele>
        <time>2016-11-20T09:08:10.000Z</time>
      </trkpt>
      <trkpt lat="46.7663" lon="0.41267">
        <ele>140</ele>
        <time>2016-11-20T09:08:13.000Z</time>
      </trkpt>
      <trkpt lat="46.76633" lon="0.41283">
        <ele>140</ele>
        <time>2016-11-20T09:08:16.000Z</time>
      </trkpt>
      <trkpt lat="46.76636" lon="0.41298">
        <ele>140</ele>
        <time>2016-11-20T09:08:19.000Z</time>
      </trkpt>
      <trkpt lat="46.76639" lon="0.41311">
        <ele>142</ele>
        <time>2016-11-20T09:08:22.000Z</time>
      </trkpt>
      <trkpt lat="46.76642" lon="0.41326">
        <ele>142</ele>
        <time>2016-11-20T09:08:25.000Z</time>
      </trkpt>
      <trkpt lat="46.76646" lon="0.41342">
        <ele>142</ele>
        <time>2016-11-20T09:08:28.000Z</time>
      </trkpt>
      <trkpt lat="46.76651" lon="0.41358">
        <ele>142</ele>
        <time>2016-11-20T09:08:31.000Z</time>
      </trkpt>
      <trkpt lat="46.76658" lon="0.41374">
        <ele>142</ele>
        <time>2016-11-20T09:08:34.000Z</time>
      </trkpt>
      <trkpt lat="46.76663" lon="0.41391">
        <ele>142</ele>
        <time>2016-11-20T09:08:37.000Z</time>
      </trkpt>
      <trkpt lat="46.76669" lon="0.41407">
        <ele>141</ele>
        <time>2016-11-20T09:08:40.000Z</time>
      </trkpt>
      <trkpt lat="46.76675" lon="0.41423">
        <ele>142</ele>
        <time>2016-11-20T09:08:43.000Z</time>
      </trkpt>
      <trkpt lat="46.76681" lon="0.41442">
        <ele>140</ele>
        <time>2016-11-20T09:08:46.000Z</time>
      </trkpt>
      <trkpt lat="46.76687" lon="0.41458">
        <ele>140</ele>
        <time>2016-11-20T09:08:49.000Z</time>
      </trkpt>
      <trkpt lat="46.76691" lon="0.41469">
        <ele>142</ele>
        <time>2016-11-20T09:08:52.000Z</time>
      </trkpt>
      <trkpt lat="46.76697" lon="0.41484">
        <ele>142</ele>
        <time>2016-11-20T09:08:55.000Z</time>
      </trkpt>
      <trkpt lat="46.76703" lon="0.41498">
        <ele>143</ele>
        <time>2016-11-20T09:08:58.000Z</time>
      </trkpt>
      <trkpt lat="46.76708" lon="0.41513">
        <ele>143</ele>
        <time>2016-11-20T09:09:01.000Z</time>
      </trkpt>
      <trkpt lat="46.76714" lon="0.41526">
        <ele>143</ele>
        <time>2016-11-20T09:09:04.000Z</time>
      </trkpt>
      <trkpt lat="46.76719" lon="0.41538">
        <ele>143</ele>
        <time>2016-11-20T09:09:07.000Z</time>
      </trkpt>
      <trkpt lat="46.76723" lon="0.4155">
        <ele>144</ele>
        <time>2016-11-20T09:09:10.000Z</time>
      </trkpt>
      <trkpt lat="46.76728" lon="0.41564">
        <ele>144</ele>
        <time>2016-11-20T09:09:13.000Z</time>
      </trkpt>
      <trkpt lat="46.7673" lon="0.41579">
        <ele>143</ele>
        <time>2016-11-20T09:09:14.000Z</time>
      </trkpt>
      <trkpt lat="46.76736" lon="0.41594">
        <ele>143</ele>
        <time>2016-11-20T09:09:18.000Z</time>
      </trkpt>
      <trkpt lat="46.76741" lon="0.41607">
        <ele>143</ele>
        <time>2016-11-20T09:09:22.000Z</time>
      </trkpt>
      <trkpt lat="46.76747" lon="0.41618">
        <ele>145</ele>
        <time>2016-11-20T09:09:26.000Z</time>
      </trkpt>
      <trkpt lat="46.76752" lon="0.4163">
        <ele>145</ele>
        <time>2016-11-20T09:09:30.000Z</time>
      </trkpt>
      <trkpt lat="46.76757" lon="0.41645">
        <ele>145</ele>
        <time>2016-11-20T09:09:34.000Z</time>
      </trkpt>
      <trkpt lat="46.76758" lon="0.41658">
        <ele>146</ele>
        <time>2016-11-20T09:09:38.000Z</time>
      </trkpt>
      <trkpt lat="46.7675" lon="0.41667">
        <ele>147</ele>
        <time>2016-11-20T09:09:43.000Z</time>
      </trkpt>
      <trkpt lat="46.76742" lon="0.41675">
        <ele>149</ele>
        <time>2016-11-20T09:09:48.000Z</time>
      </trkpt>
      <trkpt lat="46.76733" lon="0.41681">
        <ele>152</ele>
        <time>2016-11-20T09:09:52.000Z</time>
      </trkpt>
      <trkpt lat="46.7673" lon="0.41693">
        <ele>152</ele>
        <time>2016-11-20T09:09:58.000Z</time>
      </trkpt>
      <trkpt lat="46.76737" lon="0.41704">
        <ele>151</ele>
        <time>2016-11-20T09:10:02.000Z</time>
      </trkpt>
      <trkpt lat="46.76744" lon="0.41713">
        <ele>150</ele>
        <time>2016-11-20T09:10:05.000Z</time>
      </trkpt>
      <trkpt lat="46.76754" lon="0.41725">
        <ele>150</ele>
        <time>2016-11-20T09:10:09.000Z</time>
      </trkpt>
      <trkpt lat="46.76763" lon="0.41733">
        <ele>150</ele>
        <time>2016-11-20T09:10:12.000Z</time>
      </trkpt>
      <trkpt lat="46.76772" lon="0.41741">
        <ele>150</ele>
        <time>2016-11-20T09:10:15.000Z</time>
      </trkpt>
      <trkpt lat="46.7678" lon="0.41746">
        <ele>151</ele>
        <time>2016-11-20T09:10:20.000Z</time>
      </trkpt>
      <trkpt lat="46.76787" lon="0.41757">
        <ele>149</ele>
        <time>2016-11-20T09:10:39.000Z</time>
      </trkpt>
      <trkpt lat="46.76796" lon="0.41768">
        <ele>149</ele>
        <time>2016-11-20T09:10:43.000Z</time>
      </trkpt>
      <trkpt lat="46.76806" lon="0.41779">
        <ele>150</ele>
        <time>2016-11-20T09:10:46.000Z</time>
      </trkpt>
      <trkpt lat="46.76815" lon="0.4179">
        <ele>149</ele>
        <time>2016-11-20T09:10:49.000Z</time>
      </trkpt>
      <trkpt lat="46.76823" lon="0.41802">
        <ele>148</ele>
        <time>2016-11-20T09:10:52.000Z</time>
      </trkpt>
      <trkpt lat="46.7683" lon="0.41815">
        <ele>149</ele>
        <time>2016-11-20T09:10:56.000Z</time>
      </trkpt>
      <trkpt lat="46.76836" lon="0.41829">
        <ele>150</ele>
        <time>2016-11-20T09:11:00.000Z</time>
      </trkpt>
      <trkpt lat="46.76845" lon="0.41838">
        <ele>154</ele>
        <time>2016-11-20T09:11:06.000Z</time>
      </trkpt>
      <trkpt lat="46.76848" lon="0.41851">
        <ele>156</ele>
        <time>2016-11-20T09:11:09.000Z</time>
      </trkpt>
      <trkpt lat="46.76851" lon="0.41866">
        <ele>156</ele>
        <time>2016-11-20T09:11:12.000Z</time>
      </trkpt>
      <trkpt lat="46.76853" lon="0.41883">
        <ele>157</ele>
        <time>2016-11-20T09:11:15.000Z</time>
      </trkpt>
      <trkpt lat="46.76853" lon="0.41897">
        <ele>158</ele>
        <time>2016-11-20T09:11:18.000Z</time>
      </trkpt>
      <trkpt lat="46.76853" lon="0.41912">
        <ele>159</ele>
        <time>2016-11-20T09:11:21.000Z</time>
      </trkpt>
      <trkpt lat="46.76853" lon="0.41936">
        <ele>153</ele>
        <time>2016-11-20T09:11:23.000Z</time>
      </trkpt>
      <trkpt lat="46.76851" lon="0.41952">
        <ele>155</ele>
        <time>2016-11-20T09:11:27.000Z</time>
      </trkpt>
      <trkpt lat="46.7685" lon="0.41967">
        <ele>155</ele>
        <time>2016-11-20T09:11:30.000Z</time>
      </trkpt>
      <trkpt lat="46.76848" lon="0.41982">
        <ele>159</ele>
        <time>2016-11-20T09:11:39.000Z</time>
      </trkpt>
      <trkpt lat="46.76847" lon="0.41962">
        <ele>156</ele>
        <time>2016-11-20T09:11:49.000Z</time>
      </trkpt>
      <trkpt lat="46.76849" lon="0.41946">
        <ele>157</ele>
        <time>2016-11-20T09:11:51.000Z</time>
      </trkpt>
      <trkpt lat="46.76851" lon="0.41926">
        <ele>157</ele>
        <time>2016-11-20T09:11:53.000Z</time>
      </trkpt>
      <trkpt lat="46.76851" lon="0.41905">
        <ele>157</ele>
        <time>2016-11-20T09:11:55.000Z</time>
      </trkpt>
      <trkpt lat="46.76849" lon="0.41884">
        <ele>157</ele>
        <time>2016-11-20T09:11:57.000Z</time>
      </trkpt>
      <trkpt lat="46.76846" lon="0.41865">
        <ele>156</ele>
        <time>2016-11-20T09:11:59.000Z</time>
      </trkpt>
      <trkpt lat="46.76841" lon="0.41849">
        <ele>157</ele>
        <time>2016-11-20T09:12:01.000Z</time>
      </trkpt>
      <trkpt lat="46.76834" lon="0.4184">
        <ele>157</ele>
        <time>2016-11-20T09:12:04.000Z</time>
      </trkpt>
      <trkpt lat="46.76825" lon="0.41826">
        <ele>158</ele>
        <time>2016-11-20T09:12:07.000Z</time>
      </trkpt>
      <trkpt lat="46.76818" lon="0.41816">
        <ele>157</ele>
        <time>2016-11-20T09:12:09.000Z</time>
      </trkpt>
      <trkpt lat="46.76808" lon="0.41803">
        <ele>157</ele>
        <time>2016-11-20T09:12:12.000Z</time>
      </trkpt>
      <trkpt lat="46.76801" lon="0.41795">
        <ele>156</ele>
        <time>2016-11-20T09:12:14.000Z</time>
      </trkpt>
      <trkpt lat="46.76786" lon="0.4178">
        <ele>157</ele>
        <time>2016-11-20T09:12:18.000Z</time>
      </trkpt>
      <trkpt lat="46.76781" lon="0.41766">
        <ele>159</ele>
        <time>2016-11-20T09:12:22.000Z</time>
      </trkpt>
      <trkpt lat="46.76784" lon="0.41752">
        <ele>154</ele>
        <time>2016-11-20T09:12:26.000Z</time>
      </trkpt>
      <trkpt lat="46.76792" lon="0.41743">
        <ele>153</ele>
        <time>2016-11-20T09:12:29.000Z</time>
      </trkpt>
      <trkpt lat="46.76805" lon="0.41731">
        <ele>152</ele>
        <time>2016-11-20T09:12:32.000Z</time>
      </trkpt>
      <trkpt lat="46.76815" lon="0.41722">
        <ele>151</ele>
        <time>2016-11-20T09:12:34.000Z</time>
      </trkpt>
      <trkpt lat="46.76826" lon="0.41709">
        <ele>150</ele>
        <time>2016-11-20T09:12:36.000Z</time>
      </trkpt>
      <trkpt lat="46.76836" lon="0.41692">
        <ele>150</ele>
        <time>2016-11-20T09:12:38.000Z</time>
      </trkpt>
      <trkpt lat="46.76846" lon="0.41672">
        <ele>148</ele>
        <time>2016-11-20T09:12:40.000Z</time>
      </trkpt>
      <trkpt lat="46.76854" lon="0.41653">
        <ele>146</ele>
        <time>2016-11-20T09:12:42.000Z</time>
      </trkpt>
      <trkpt lat="46.76864" lon="0.41635">
        <ele>146</ele>
        <time>2016-11-20T09:12:44.000Z</time>
      </trkpt>
      <trkpt lat="46.76875" lon="0.41616">
        <ele>144</ele>
        <time>2016-11-20T09:12:46.000Z</time>
      </trkpt>
      <trkpt lat="46.76887" lon="0.416">
        <ele>142</ele>
        <time>2016-11-20T09:12:48.000Z</time>
      </trkpt>
      <trkpt lat="46.76895" lon="0.41581">
        <ele>143</ele>
        <time>2016-11-20T09:12:50.000Z</time>
      </trkpt>
      <trkpt lat="46.769" lon="0.41561">
        <ele>143</ele>
        <time>2016-11-20T09:12:52.000Z</time>
      </trkpt>
      <trkpt lat="46.76903" lon="0.41537">
        <ele>142</ele>
        <time>2016-11-20T09:12:54.000Z</time>
      </trkpt>
      <trkpt lat="46.76907" lon="0.41517">
        <ele>141</ele>
        <time>2016-11-20T09:12:56.000Z</time>
      </trkpt>
      <trkpt lat="46.76916" lon="0.41497">
        <ele>140</ele>
        <time>2016-11-20T09:12:58.000Z</time>
      </trkpt>
      <trkpt lat="46.76926" lon="0.41483">
        <ele>140</ele>
        <time>2016-11-20T09:13:00.000Z</time>
      </trkpt>
      <trkpt lat="46.76939" lon="0.41472">
        <ele>140</ele>
        <time>2016-11-20T09:13:02.000Z</time>
      </trkpt>
      <trkpt lat="46.76952" lon="0.41463">
        <ele>138</ele>
        <time>2016-11-20T09:13:04.000Z</time>
      </trkpt>
      <trkpt lat="46.76967" lon="0.41457">
        <ele>140</ele>
        <time>2016-11-20T09:13:06.000Z</time>
      </trkpt>
      <trkpt lat="46.76981" lon="0.41453">
        <ele>139</ele>
        <time>2016-11-20T09:13:08.000Z</time>
      </trkpt>
      <trkpt lat="46.76995" lon="0.41448">
        <ele>138</ele>
        <time>2016-11-20T09:13:10.000Z</time>
      </trkpt>
      <trkpt lat="46.77005" lon="0.41446">
        <ele>137</ele>
        <time>2016-11-20T09:13:12.000Z</time>
      </trkpt>
      <trkpt lat="46.77014" lon="0.41458">
        <ele>137</ele>
        <time>2016-11-20T09:13:15.000Z</time>
      </trkpt>
      <trkpt lat="46.77019" lon="0.41471">
        <ele>137</ele>
        <time>2016-11-20T09:13:17.000Z</time>
      </trkpt>
      <trkpt lat="46.77024" lon="0.41484">
        <ele>137</ele>
        <time>2016-11-20T09:13:19.000Z</time>
      </trkpt>
      <trkpt lat="46.7703" lon="0.41496">
        <ele>137</ele>
        <time>2016-11-20T09:13:21.000Z</time>
      </trkpt>
      <trkpt lat="46.77036" lon="0.4151">
        <ele>136</ele>
        <time>2016-11-20T09:13:23.000Z</time>
      </trkpt>
      <trkpt lat="46.77044" lon="0.41523">
        <ele>135</ele>
        <time>2016-11-20T09:13:25.000Z</time>
      </trkpt>
      <trkpt lat="46.7705" lon="0.41538">
        <ele>135</ele>
        <time>2016-11-20T09:13:27.000Z</time>
      </trkpt>
      <trkpt lat="46.77057" lon="0.41553">
        <ele>136</ele>
        <time>2016-11-20T09:13:29.000Z</time>
      </trkpt>
      <trkpt lat="46.77064" lon="0.41567">
        <ele>136</ele>
        <time>2016-11-20T09:13:31.000Z</time>
      </trkpt>
      <trkpt lat="46.77071" lon="0.41582">
        <ele>136</ele>
        <time>2016-11-20T09:13:33.000Z</time>
      </trkpt>
      <trkpt lat="46.77078" lon="0.41597">
        <ele>136</ele>
        <time>2016-11-20T09:13:35.000Z</time>
      </trkpt>
      <trkpt lat="46.77086" lon="0.41612">
        <ele>137</ele>
        <time>2016-11-20T09:13:37.000Z</time>
      </trkpt>
      <trkpt lat="46.77093" lon="0.41627">
        <ele>136</ele>
        <time>2016-11-20T09:13:39.000Z</time>
      </trkpt>
      <trkpt lat="46.77099" lon="0.41641">
        <ele>136</ele>
        <time>2016-11-20T09:13:41.000Z</time>
      </trkpt>
      <trkpt lat="46.77107" lon="0.41656">
        <ele>136</ele>
        <time>2016-11-20T09:13:43.000Z</time>
      </trkpt>
      <trkpt lat="46.77113" lon="0.4167">
        <ele>136</ele>
        <time>2016-11-20T09:13:45.000Z</time>
      </trkpt>
      <trkpt lat="46.7712" lon="0.41686">
        <ele>137</ele>
        <time>2016-11-20T09:13:47.000Z</time>
      </trkpt>
      <trkpt lat="46.77127" lon="0.41702">
        <ele>136</ele>
        <time>2016-11-20T09:13:49.000Z</time>
      </trkpt>
      <trkpt lat="46.77134" lon="0.41717">
        <ele>135</ele>
        <time>2016-11-20T09:13:51.000Z</time>
      </trkpt>
      <trkpt lat="46.77142" lon="0.41737">
        <ele>135</ele>
        <time>2016-11-20T09:13:53.000Z</time>
      </trkpt>
      <trkpt lat="46.77149" lon="0.41752">
        <ele>135</ele>
        <time>2016-11-20T09:13:55.000Z</time>
      </trkpt>
      <trkpt lat="46.77156" lon="0.41768">
        <ele>134</ele>
        <time>2016-11-20T09:13:57.000Z</time>
      </trkpt>
      <trkpt lat="46.77164" lon="0.41785">
        <ele>133</ele>
        <time>2016-11-20T09:13:59.000Z</time>
      </trkpt>
      <trkpt lat="46.77171" lon="0.418">
        <ele>133</ele>
        <time>2016-11-20T09:14:01.000Z</time>
      </trkpt>
      <trkpt lat="46.77179" lon="0.41816">
        <ele>133</ele>
        <time>2016-11-20T09:14:03.000Z</time>
      </trkpt>
      <trkpt lat="46.77187" lon="0.41831">
        <ele>133</ele>
        <time>2016-11-20T09:14:05.000Z</time>
      </trkpt>
      <trkpt lat="46.77195" lon="0.41847">
        <ele>133</ele>
        <time>2016-11-20T09:14:07.000Z</time>
      </trkpt>
      <trkpt lat="46.77202" lon="0.41863">
        <ele>133</ele>
        <time>2016-11-20T09:14:09.000Z</time>
      </trkpt>
      <trkpt lat="46.7721" lon="0.41878">
        <ele>133</ele>
        <time>2016-11-20T09:14:11.000Z</time>
      </trkpt>
      <trkpt lat="46.77217" lon="0.41894">
        <ele>133</ele>
        <time>2016-11-20T09:14:13.000Z</time>
      </trkpt>
      <trkpt lat="46.77224" lon="0.4191">
        <ele>133</ele>
        <time>2016-11-20T09:14:15.000Z</time>
      </trkpt>
      <trkpt lat="46.7723" lon="0.41925">
        <ele>132</ele>
        <time>2016-11-20T09:14:17.000Z</time>
      </trkpt>
      <trkpt lat="46.77237" lon="0.4194">
        <ele>132</ele>
        <time>2016-11-20T09:14:19.000Z</time>
      </trkpt>
      <trkpt lat="46.77244" lon="0.41951">
        <ele>132</ele>
        <time>2016-11-20T09:14:21.000Z</time>
      </trkpt>
      <trkpt lat="46.7725" lon="0.41964">
        <ele>133</ele>
        <time>2016-11-20T09:14:23.000Z</time>
      </trkpt>
      <trkpt lat="46.77256" lon="0.41978">
        <ele>133</ele>
        <time>2016-11-20T09:14:25.000Z</time>
      </trkpt>
      <trkpt lat="46.77262" lon="0.41991">
        <ele>134</ele>
        <time>2016-11-20T09:14:27.000Z</time>
      </trkpt>
      <trkpt lat="46.77268" lon="0.42003">
        <ele>135</ele>
        <time>2016-11-20T09:14:29.000Z</time>
      </trkpt>
      <trkpt lat="46.77273" lon="0.42016">
        <ele>135</ele>
        <time>2016-11-20T09:14:31.000Z</time>
      </trkpt>
      <trkpt lat="46.77279" lon="0.42028">
        <ele>135</ele>
        <time>2016-11-20T09:14:33.000Z</time>
      </trkpt>
      <trkpt lat="46.77287" lon="0.42038">
        <ele>136</ele>
        <time>2016-11-20T09:14:36.000Z</time>
      </trkpt>
      <trkpt lat="46.77297" lon="0.42038">
        <ele>133</ele>
        <time>2016-11-20T09:14:39.000Z</time>
      </trkpt>
      <trkpt lat="46.77304" lon="0.42029">
        <ele>131</ele>
        <time>2016-11-20T09:14:41.000Z</time>
      </trkpt>
      <trkpt lat="46.77312" lon="0.42013">
        <ele>130</ele>
        <time>2016-11-20T09:14:43.000Z</time>
      </trkpt>
      <trkpt lat="46.77322" lon="0.41999">
        <ele>129</ele>
        <time>2016-11-20T09:14:45.000Z</time>
      </trkpt>
      <trkpt lat="46.77331" lon="0.41982">
        <ele>128</ele>
        <time>2016-11-20T09:14:47.000Z</time>
      </trkpt>
      <trkpt lat="46.77342" lon="0.41965">
        <ele>126</ele>
        <time>2016-11-20T09:14:49.000Z</time>
      </trkpt>
      <trkpt lat="46.77354" lon="0.41951">
        <ele>125</ele>
        <time>2016-11-20T09:14:51.000Z</time>
      </trkpt>
      <trkpt lat="46.77366" lon="0.41938">
        <ele>125</ele>
        <time>2016-11-20T09:14:53.000Z</time>
      </trkpt>
      <trkpt lat="46.77378" lon="0.41928">
        <ele>126</ele>
        <time>2016-11-20T09:14:55.000Z</time>
      </trkpt>
      <trkpt lat="46.77387" lon="0.41919">
        <ele>127</ele>
        <time>2016-11-20T09:14:57.000Z</time>
      </trkpt>
      <trkpt lat="46.77399" lon="0.41918">
        <ele>128</ele>
        <time>2016-11-20T09:15:00.000Z</time>
      </trkpt>
      <trkpt lat="46.77404" lon="0.41929">
        <ele>128</ele>
        <time>2016-11-20T09:15:02.000Z</time>
      </trkpt>
      <trkpt lat="46.77409" lon="0.41944">
        <ele>128</ele>
        <time>2016-11-20T09:15:04.000Z</time>
      </trkpt>
      <trkpt lat="46.77414" lon="0.41962">
        <ele>128</ele>
        <time>2016-11-20T09:15:06.000Z</time>
      </trkpt>
      <trkpt lat="46.77419" lon="0.41979">
        <ele>129</ele>
        <time>2016-11-20T09:15:08.000Z</time>
      </trkpt>
      <trkpt lat="46.77424" lon="0.41996">
        <ele>129</ele>
        <time>2016-11-20T09:15:10.000Z</time>
      </trkpt>
      <trkpt lat="46.77429" lon="0.42015">
        <ele>128</ele>
        <time>2016-11-20T09:15:12.000Z</time>
      </trkpt>
      <trkpt lat="46.77435" lon="0.42033">
        <ele>128</ele>
        <time>2016-11-20T09:15:14.000Z</time>
      </trkpt>
      <trkpt lat="46.7744" lon="0.42051">
        <ele>128</ele>
        <time>2016-11-20T09:15:16.000Z</time>
      </trkpt>
      <trkpt lat="46.77445" lon="0.42072">
        <ele>126</ele>
        <time>2016-11-20T09:15:18.000Z</time>
      </trkpt>
      <trkpt lat="46.77451" lon="0.4209">
        <ele>126</ele>
        <time>2016-11-20T09:15:20.000Z</time>
      </trkpt>
      <trkpt lat="46.77456" lon="0.4211">
        <ele>125</ele>
        <time>2016-11-20T09:15:22.000Z</time>
      </trkpt>
      <trkpt lat="46.77461" lon="0.4213">
        <ele>124</ele>
        <time>2016-11-20T09:15:24.000Z</time>
      </trkpt>
      <trkpt lat="46.77467" lon="0.42149">
        <ele>124</ele>
        <time>2016-11-20T09:15:26.000Z</time>
      </trkpt>
      <trkpt lat="46.77472" lon="0.42169">
        <ele>124</ele>
        <time>2016-11-20T09:15:28.000Z</time>
      </trkpt>
      <trkpt lat="46.77477" lon="0.42188">
        <ele>124</ele>
        <time>2016-11-20T09:15:30.000Z</time>
      </trkpt>
      <trkpt lat="46.77483" lon="0.42208">
        <ele>123</ele>
        <time>2016-11-20T09:15:32.000Z</time>
      </trkpt>
      <trkpt lat="46.77489" lon="0.42226">
        <ele>122</ele>
        <time>2016-11-20T09:15:34.000Z</time>
      </trkpt>
      <trkpt lat="46.77494" lon="0.42244">
        <ele>123</ele>
        <time>2016-11-20T09:15:36.000Z</time>
      </trkpt>
      <trkpt lat="46.775" lon="0.42263">
        <ele>122</ele>
        <time>2016-11-20T09:15:38.000Z</time>
      </trkpt>
      <trkpt lat="46.77506" lon="0.42283">
        <ele>123</ele>
        <time>2016-11-20T09:15:40.000Z</time>
      </trkpt>
      <trkpt lat="46.77511" lon="0.42309">
        <ele>116</ele>
        <time>2016-11-20T09:15:41.000Z</time>
      </trkpt>
      <trkpt lat="46.77516" lon="0.42328">
        <ele>116</ele>
        <time>2016-11-20T09:15:43.000Z</time>
      </trkpt>
      <trkpt lat="46.77521" lon="0.42346">
        <ele>116</ele>
        <time>2016-11-20T09:15:45.000Z</time>
      </trkpt>
      <trkpt lat="46.77526" lon="0.42363">
        <ele>117</ele>
        <time>2016-11-20T09:15:47.000Z</time>
      </trkpt>
      <trkpt lat="46.7753" lon="0.42378">
        <ele>117</ele>
        <time>2016-11-20T09:15:49.000Z</time>
      </trkpt>
      <trkpt lat="46.7753" lon="0.42396">
        <ele>117</ele>
        <time>2016-11-20T09:15:52.000Z</time>
      </trkpt>
      <trkpt lat="46.7752" lon="0.42397">
        <ele>121</ele>
        <time>2016-11-20T09:15:55.000Z</time>
      </trkpt>
      <trkpt lat="46.77509" lon="0.42405">
        <ele>122</ele>
        <time>2016-11-20T09:15:58.000Z</time>
      </trkpt>
      <trkpt lat="46.77498" lon="0.42413">
        <ele>122</ele>
        <time>2016-11-20T09:16:01.000Z</time>
      </trkpt>
      <trkpt lat="46.77483" lon="0.42422">
        <ele>124</ele>
        <time>2016-11-20T09:16:05.000Z</time>
      </trkpt>
      <trkpt lat="46.77477" lon="0.42433">
        <ele>125</ele>
        <time>2016-11-20T09:16:09.000Z</time>
      </trkpt>
      <trkpt lat="46.77465" lon="0.4244">
        <ele>125</ele>
        <time>2016-11-20T09:16:12.000Z</time>
      </trkpt>
      <trkpt lat="46.77458" lon="0.42451">
        <ele>122</ele>
        <time>2016-11-20T09:16:14.000Z</time>
      </trkpt>
      <trkpt lat="46.77448" lon="0.42456">
        <ele>123</ele>
        <time>2016-11-20T09:16:17.000Z</time>
      </trkpt>
      <trkpt lat="46.77436" lon="0.4246">
        <ele>123</ele>
        <time>2016-11-20T09:16:20.000Z</time>
      </trkpt>
      <trkpt lat="46.77424" lon="0.42465">
        <ele>122</ele>
        <time>2016-11-20T09:16:23.000Z</time>
      </trkpt>
      <trkpt lat="46.77414" lon="0.42468">
        <ele>124</ele>
        <time>2016-11-20T09:16:26.000Z</time>
      </trkpt>
      <trkpt lat="46.77404" lon="0.4247">
        <ele>126</ele>
        <time>2016-11-20T09:16:29.000Z</time>
      </trkpt>
      <trkpt lat="46.77395" lon="0.42476">
        <ele>130</ele>
        <time>2016-11-20T09:16:38.000Z</time>
      </trkpt>
      <trkpt lat="46.77402" lon="0.42486">
        <ele>133</ele>
        <time>2016-11-20T09:16:41.000Z</time>
      </trkpt>
      <trkpt lat="46.77405" lon="0.42501">
        <ele>131</ele>
        <time>2016-11-20T09:16:45.000Z</time>
      </trkpt>
      <trkpt lat="46.77409" lon="0.42514">
        <ele>133</ele>
        <time>2016-11-20T09:16:48.000Z</time>
      </trkpt>
      <trkpt lat="46.7741" lon="0.42529">
        <ele>132</ele>
        <time>2016-11-20T09:16:51.000Z</time>
      </trkpt>
      <trkpt lat="46.77409" lon="0.42542">
        <ele>132</ele>
        <time>2016-11-20T09:16:53.000Z</time>
      </trkpt>
      <trkpt lat="46.77412" lon="0.42559">
        <ele>133</ele>
        <time>2016-11-20T09:16:56.000Z</time>
      </trkpt>
      <trkpt lat="46.77416" lon="0.42577">
        <ele>134</ele>
        <time>2016-11-20T09:16:59.000Z</time>
      </trkpt>
      <trkpt lat="46.77417" lon="0.42593">
        <ele>135</ele>
        <time>2016-11-20T09:17:02.000Z</time>
      </trkpt>
      <trkpt lat="46.77419" lon="0.42609">
        <ele>134</ele>
        <time>2016-11-20T09:17:04.000Z</time>
      </trkpt>
      <trkpt lat="46.77425" lon="0.42626">
        <ele>133</ele>
        <time>2016-11-20T09:17:07.000Z</time>
      </trkpt>
      <trkpt lat="46.7743" lon="0.42638">
        <ele>135</ele>
        <time>2016-11-20T09:17:09.000Z</time>
      </trkpt>
      <trkpt lat="46.77433" lon="0.42652">
        <ele>134</ele>
        <time>2016-11-20T09:17:11.000Z</time>
      </trkpt>
      <trkpt lat="46.77437" lon="0.42664">
        <ele>135</ele>
        <time>2016-11-20T09:17:13.000Z</time>
      </trkpt>
      <trkpt lat="46.77441" lon="0.42676">
        <ele>135</ele>
        <time>2016-11-20T09:17:15.000Z</time>
      </trkpt>
      <trkpt lat="46.77445" lon="0.42689">
        <ele>135</ele>
        <time>2016-11-20T09:17:17.000Z</time>
      </trkpt>
      <trkpt lat="46.77449" lon="0.42707">
        <ele>135</ele>
        <time>2016-11-20T09:17:20.000Z</time>
      </trkpt>
      <trkpt lat="46.77451" lon="0.42721">
        <ele>135</ele>
        <time>2016-11-20T09:17:22.000Z</time>
      </trkpt>
      <trkpt lat="46.77456" lon="0.42737">
        <ele>134</ele>
        <time>2016-11-20T09:17:25.000Z</time>
      </trkpt>
      <trkpt lat="46.7746" lon="0.42754">
        <ele>135</ele>
        <time>2016-11-20T09:17:28.000Z</time>
      </trkpt>
      <trkpt lat="46.77464" lon="0.42767">
        <ele>136</ele>
        <time>2016-11-20T09:17:30.000Z</time>
      </trkpt>
      <trkpt lat="46.77469" lon="0.42778">
        <ele>139</ele>
        <time>2016-11-20T09:17:32.000Z</time>
      </trkpt>
      <trkpt lat="46.77473" lon="0.42793">
        <ele>139</ele>
        <time>2016-11-20T09:17:34.000Z</time>
      </trkpt>
      <trkpt lat="46.7748" lon="0.42806">
        <ele>139</ele>
        <time>2016-11-20T09:17:37.000Z</time>
      </trkpt>
      <trkpt lat="46.77488" lon="0.42822">
        <ele>139</ele>
        <time>2016-11-20T09:17:40.000Z</time>
      </trkpt>
      <trkpt lat="46.77493" lon="0.42833">
        <ele>140</ele>
        <time>2016-11-20T09:17:42.000Z</time>
      </trkpt>
      <trkpt lat="46.77499" lon="0.42847">
        <ele>141</ele>
        <time>2016-11-20T09:17:45.000Z</time>
      </trkpt>
      <trkpt lat="46.77504" lon="0.4286">
        <ele>141</ele>
        <time>2016-11-20T09:17:47.000Z</time>
      </trkpt>
      <trkpt lat="46.77508" lon="0.42872">
        <ele>141</ele>
        <time>2016-11-20T09:17:49.000Z</time>
      </trkpt>
      <trkpt lat="46.77513" lon="0.42884">
        <ele>141</ele>
        <time>2016-11-20T09:17:51.000Z</time>
      </trkpt>
      <trkpt lat="46.77518" lon="0.42897">
        <ele>142</ele>
        <time>2016-11-20T09:17:53.000Z</time>
      </trkpt>
      <trkpt lat="46.77523" lon="0.42911">
        <ele>142</ele>
        <time>2016-11-20T09:17:55.000Z</time>
      </trkpt>
      <trkpt lat="46.77528" lon="0.42927">
        <ele>141</ele>
        <time>2016-11-20T09:17:57.000Z</time>
      </trkpt>
      <trkpt lat="46.77535" lon="0.42941">
        <ele>141</ele>
        <time>2016-11-20T09:17:59.000Z</time>
      </trkpt>
      <trkpt lat="46.7754" lon="0.42957">
        <ele>141</ele>
        <time>2016-11-20T09:18:01.000Z</time>
      </trkpt>
      <trkpt lat="46.77547" lon="0.42975">
        <ele>140</ele>
        <time>2016-11-20T09:18:03.000Z</time>
      </trkpt>
      <trkpt lat="46.77552" lon="0.42992">
        <ele>140</ele>
        <time>2016-11-20T09:18:05.000Z</time>
      </trkpt>
      <trkpt lat="46.77561" lon="0.43034">
        <ele>128</ele>
        <time>2016-11-20T09:18:07.000Z</time>
      </trkpt>
      <trkpt lat="46.77567" lon="0.43048">
        <ele>128</ele>
        <time>2016-11-20T09:18:09.000Z</time>
      </trkpt>
      <trkpt lat="46.77573" lon="0.43064">
        <ele>128</ele>
        <time>2016-11-20T09:18:11.000Z</time>
      </trkpt>
      <trkpt lat="46.77579" lon="0.4308">
        <ele>129</ele>
        <time>2016-11-20T09:18:13.000Z</time>
      </trkpt>
      <trkpt lat="46.77583" lon="0.43095">
        <ele>128</ele>
        <time>2016-11-20T09:18:15.000Z</time>
      </trkpt>
      <trkpt lat="46.77587" lon="0.4311">
        <ele>128</ele>
        <time>2016-11-20T09:18:17.000Z</time>
      </trkpt>
      <trkpt lat="46.77591" lon="0.43127">
        <ele>128</ele>
        <time>2016-11-20T09:18:19.000Z</time>
      </trkpt>
      <trkpt lat="46.77595" lon="0.43143">
        <ele>128</ele>
        <time>2016-11-20T09:18:21.000Z</time>
      </trkpt>
      <trkpt lat="46.77601" lon="0.43158">
        <ele>128</ele>
        <time>2016-11-20T09:18:23.000Z</time>
      </trkpt>
      <trkpt lat="46.77604" lon="0.43171">
        <ele>128</ele>
        <time>2016-11-20T09:18:24.000Z</time>
      </trkpt>
      <trkpt lat="46.77607" lon="0.43187">
        <ele>128</ele>
        <time>2016-11-20T09:18:26.000Z</time>
      </trkpt>
      <trkpt lat="46.77612" lon="0.43204">
        <ele>130</ele>
        <time>2016-11-20T09:18:28.000Z</time>
      </trkpt>
      <trkpt lat="46.77615" lon="0.43221">
        <ele>129</ele>
        <time>2016-11-20T09:18:30.000Z</time>
      </trkpt>
      <trkpt lat="46.77619" lon="0.43238">
        <ele>129</ele>
        <time>2016-11-20T09:18:32.000Z</time>
      </trkpt>
      <trkpt lat="46.77624" lon="0.43256">
        <ele>129</ele>
        <time>2016-11-20T09:18:35.000Z</time>
      </trkpt>
      <trkpt lat="46.77628" lon="0.4327">
        <ele>128</ele>
        <time>2016-11-20T09:18:37.000Z</time>
      </trkpt>
      <trkpt lat="46.77631" lon="0.43288">
        <ele>128</ele>
        <time>2016-11-20T09:18:39.000Z</time>
      </trkpt>
      <trkpt lat="46.77636" lon="0.43301">
        <ele>127</ele>
        <time>2016-11-20T09:18:41.000Z</time>
      </trkpt>
      <trkpt lat="46.7764" lon="0.43316">
        <ele>129</ele>
        <time>2016-11-20T09:18:43.000Z</time>
      </trkpt>
      <trkpt lat="46.77647" lon="0.43338">
        <ele>128</ele>
        <time>2016-11-20T09:18:45.000Z</time>
      </trkpt>
      <trkpt lat="46.77649" lon="0.43351">
        <ele>128</ele>
        <time>2016-11-20T09:18:47.000Z</time>
      </trkpt>
      <trkpt lat="46.77652" lon="0.43365">
        <ele>129</ele>
        <time>2016-11-20T09:18:49.000Z</time>
      </trkpt>
      <trkpt lat="46.77656" lon="0.43381">
        <ele>129</ele>
        <time>2016-11-20T09:18:51.000Z</time>
      </trkpt>
      <trkpt lat="46.7766" lon="0.43395">
        <ele>130</ele>
        <time>2016-11-20T09:18:53.000Z</time>
      </trkpt>
      <trkpt lat="46.77664" lon="0.43411">
        <ele>130</ele>
        <time>2016-11-20T09:18:55.000Z</time>
      </trkpt>
      <trkpt lat="46.77668" lon="0.43425">
        <ele>130</ele>
        <time>2016-11-20T09:18:57.000Z</time>
      </trkpt>
      <trkpt lat="46.77673" lon="0.4344">
        <ele>129</ele>
        <time>2016-11-20T09:18:59.000Z</time>
      </trkpt>
      <trkpt lat="46.77676" lon="0.43455">
        <ele>129</ele>
        <time>2016-11-20T09:19:01.000Z</time>
      </trkpt>
      <trkpt lat="46.77679" lon="0.43471">
        <ele>129</ele>
        <time>2016-11-20T09:19:03.000Z</time>
      </trkpt>
      <trkpt lat="46.77681" lon="0.43485">
        <ele>129</ele>
        <time>2016-11-20T09:19:05.000Z</time>
      </trkpt>
      <trkpt lat="46.77684" lon="0.43498">
        <ele>129</ele>
        <time>2016-11-20T09:19:07.000Z</time>
      </trkpt>
      <trkpt lat="46.77687" lon="0.43516">
        <ele>129</ele>
        <time>2016-11-20T09:19:10.000Z</time>
      </trkpt>
      <trkpt lat="46.77692" lon="0.43534">
        <ele>130</ele>
        <time>2016-11-20T09:19:13.000Z</time>
      </trkpt>
      <trkpt lat="46.77696" lon="0.43548">
        <ele>130</ele>
        <time>2016-11-20T09:19:15.000Z</time>
      </trkpt>
      <trkpt lat="46.777" lon="0.43563">
        <ele>130</ele>
        <time>2016-11-20T09:19:17.000Z</time>
      </trkpt>
      <trkpt lat="46.77703" lon="0.43578">
        <ele>131</ele>
        <time>2016-11-20T09:19:19.000Z</time>
      </trkpt>
      <trkpt lat="46.77705" lon="0.43592">
        <ele>131</ele>
        <time>2016-11-20T09:19:21.000Z</time>
      </trkpt>
      <trkpt lat="46.77705" lon="0.43605">
        <ele>132</ele>
        <time>2016-11-20T09:19:23.000Z</time>
      </trkpt>
      <trkpt lat="46.77704" lon="0.43624">
        <ele>133</ele>
        <time>2016-11-20T09:19:26.000Z</time>
      </trkpt>
      <trkpt lat="46.777" lon="0.43641">
        <ele>134</ele>
        <time>2016-11-20T09:19:29.000Z</time>
      </trkpt>
      <trkpt lat="46.77697" lon="0.43653">
        <ele>135</ele>
        <time>2016-11-20T09:19:32.000Z</time>
      </trkpt>
      <trkpt lat="46.77688" lon="0.4366">
        <ele>145</ele>
        <time>2016-11-20T09:19:39.000Z</time>
      </trkpt>
      <trkpt lat="46.77681" lon="0.43672">
        <ele>150</ele>
        <time>2016-11-20T09:19:45.000Z</time>
      </trkpt>
      <trkpt lat="46.77676" lon="0.43684">
        <ele>153</ele>
        <time>2016-11-20T09:19:50.000Z</time>
      </trkpt>
      <trkpt lat="46.7767" lon="0.43695">
        <ele>156</ele>
        <time>2016-11-20T09:19:56.000Z</time>
      </trkpt>
      <trkpt lat="46.77665" lon="0.43706">
        <ele>159</ele>
        <time>2016-11-20T09:20:01.000Z</time>
      </trkpt>
      <trkpt lat="46.7766" lon="0.43719">
        <ele>156</ele>
        <time>2016-11-20T09:20:05.000Z</time>
      </trkpt>
      <trkpt lat="46.77657" lon="0.43734">
        <ele>155</ele>
        <time>2016-11-20T09:20:11.000Z</time>
      </trkpt>
      <trkpt lat="46.77654" lon="0.43748">
        <ele>156</ele>
        <time>2016-11-20T09:20:18.000Z</time>
      </trkpt>
      <trkpt lat="46.77652" lon="0.43763">
        <ele>157</ele>
        <time>2016-11-20T09:20:23.000Z</time>
      </trkpt>
      <trkpt lat="46.77655" lon="0.43778">
        <ele>157</ele>
        <time>2016-11-20T09:20:27.000Z</time>
      </trkpt>
      <trkpt lat="46.77658" lon="0.43793">
        <ele>158</ele>
        <time>2016-11-20T09:20:31.000Z</time>
      </trkpt>
      <trkpt lat="46.7766" lon="0.43808">
        <ele>158</ele>
        <time>2016-11-20T09:20:35.000Z</time>
      </trkpt>
      <trkpt lat="46.77662" lon="0.43822">
        <ele>158</ele>
        <time>2016-11-20T09:20:39.000Z</time>
      </trkpt>
      <trkpt lat="46.77663" lon="0.43839">
        <ele>157</ele>
        <time>2016-11-20T09:20:43.000Z</time>
      </trkpt>
      <trkpt lat="46.77665" lon="0.43852">
        <ele>157</ele>
        <time>2016-11-20T09:20:46.000Z</time>
      </trkpt>
      <trkpt lat="46.77666" lon="0.43866">
        <ele>157</ele>
        <time>2016-11-20T09:20:49.000Z</time>
      </trkpt>
      <trkpt lat="46.77667" lon="0.43881">
        <ele>157</ele>
        <time>2016-11-20T09:20:52.000Z</time>
      </trkpt>
      <trkpt lat="46.77667" lon="0.43897">
        <ele>157</ele>
        <time>2016-11-20T09:20:55.000Z</time>
      </trkpt>
      <trkpt lat="46.77668" lon="0.43915">
        <ele>157</ele>
        <time>2016-11-20T09:20:58.000Z</time>
      </trkpt>
      <trkpt lat="46.77668" lon="0.43928">
        <ele>156</ele>
        <time>2016-11-20T09:21:00.000Z</time>
      </trkpt>
      <trkpt lat="46.77667" lon="0.43947">
        <ele>156</ele>
        <time>2016-11-20T09:21:03.000Z</time>
      </trkpt>
      <trkpt lat="46.77666" lon="0.4396">
        <ele>156</ele>
        <time>2016-11-20T09:21:05.000Z</time>
      </trkpt>
      <trkpt lat="46.77663" lon="0.43973">
        <ele>157</ele>
        <time>2016-11-20T09:21:07.000Z</time>
      </trkpt>
      <trkpt lat="46.77658" lon="0.43985">
        <ele>161</ele>
        <time>2016-11-20T09:21:10.000Z</time>
      </trkpt>
      <trkpt lat="46.77651" lon="0.43999">
        <ele>163</ele>
        <time>2016-11-20T09:21:13.000Z</time>
      </trkpt>
      <trkpt lat="46.77643" lon="0.44013">
        <ele>164</ele>
        <time>2016-11-20T09:21:16.000Z</time>
      </trkpt>
      <trkpt lat="46.77637" lon="0.44025">
        <ele>164</ele>
        <time>2016-11-20T09:21:18.000Z</time>
      </trkpt>
      <trkpt lat="46.77631" lon="0.44039">
        <ele>165</ele>
        <time>2016-11-20T09:21:20.000Z</time>
      </trkpt>
      <trkpt lat="46.77626" lon="0.44049">
        <ele>165</ele>
        <time>2016-11-20T09:21:22.000Z</time>
      </trkpt>
      <trkpt lat="46.77621" lon="0.44061">
        <ele>165</ele>
        <time>2016-11-20T09:21:24.000Z</time>
      </trkpt>
      <trkpt lat="46.77617" lon="0.44078">
        <ele>168</ele>
        <time>2016-11-20T09:21:27.000Z</time>
      </trkpt>
      <trkpt lat="46.77617" lon="0.44093">
        <ele>168</ele>
        <time>2016-11-20T09:21:29.000Z</time>
      </trkpt>
      <trkpt lat="46.77617" lon="0.44111">
        <ele>169</ele>
        <time>2016-11-20T09:21:32.000Z</time>
      </trkpt>
      <trkpt lat="46.77615" lon="0.44127">
        <ele>166</ele>
        <time>2016-11-20T09:21:34.000Z</time>
      </trkpt>
      <trkpt lat="46.77614" lon="0.44142">
        <ele>167</ele>
        <time>2016-11-20T09:21:37.000Z</time>
      </trkpt>
      <trkpt lat="46.77612" lon="0.44158">
        <ele>167</ele>
        <time>2016-11-20T09:21:40.000Z</time>
      </trkpt>
      <trkpt lat="46.77623" lon="0.44161">
        <ele>162</ele>
        <time>2016-11-20T09:21:47.000Z</time>
      </trkpt>
      <trkpt lat="46.77631" lon="0.44154">
        <ele>160</ele>
        <time>2016-11-20T09:21:49.000Z</time>
      </trkpt>
      <trkpt lat="46.77641" lon="0.44146">
        <ele>159</ele>
        <time>2016-11-20T09:21:51.000Z</time>
      </trkpt>
      <trkpt lat="46.77653" lon="0.44138">
        <ele>158</ele>
        <time>2016-11-20T09:21:53.000Z</time>
      </trkpt>
      <trkpt lat="46.77669" lon="0.44131">
        <ele>158</ele>
        <time>2016-11-20T09:21:55.000Z</time>
      </trkpt>
      <trkpt lat="46.77689" lon="0.44127">
        <ele>156</ele>
        <time>2016-11-20T09:21:57.000Z</time>
      </trkpt>
      <trkpt lat="46.77708" lon="0.44123">
        <ele>154</ele>
        <time>2016-11-20T09:21:59.000Z</time>
      </trkpt>
      <trkpt lat="46.77718" lon="0.4412">
        <ele>154</ele>
        <time>2016-11-20T09:22:00.000Z</time>
      </trkpt>
      <trkpt lat="46.77728" lon="0.44118">
        <ele>153</ele>
        <time>2016-11-20T09:22:01.000Z</time>
      </trkpt>
      <trkpt lat="46.77738" lon="0.44116">
        <ele>152</ele>
        <time>2016-11-20T09:22:02.000Z</time>
      </trkpt>
      <trkpt lat="46.77754" lon="0.44112">
        <ele>150</ele>
        <time>2016-11-20T09:22:04.000Z</time>
      </trkpt>
      <trkpt lat="46.77767" lon="0.4411">
        <ele>149</ele>
        <time>2016-11-20T09:22:06.000Z</time>
      </trkpt>
      <trkpt lat="46.77778" lon="0.44107">
        <ele>148</ele>
        <time>2016-11-20T09:22:08.000Z</time>
      </trkpt>
      <trkpt lat="46.77788" lon="0.44105">
        <ele>147</ele>
        <time>2016-11-20T09:22:10.000Z</time>
      </trkpt>
      <trkpt lat="46.778" lon="0.44102">
        <ele>146</ele>
        <time>2016-11-20T09:22:12.000Z</time>
      </trkpt>
      <trkpt lat="46.77813" lon="0.44096">
        <ele>148</ele>
        <time>2016-11-20T09:22:15.000Z</time>
      </trkpt>
      <trkpt lat="46.77826" lon="0.44093">
        <ele>146</ele>
        <time>2016-11-20T09:22:17.000Z</time>
      </trkpt>
      <trkpt lat="46.77838" lon="0.4409">
        <ele>144</ele>
        <time>2016-11-20T09:22:19.000Z</time>
      </trkpt>
      <trkpt lat="46.77854" lon="0.44092">
        <ele>138</ele>
        <time>2016-11-20T09:22:22.000Z</time>
      </trkpt>
      <trkpt lat="46.77866" lon="0.44094">
        <ele>136</ele>
        <time>2016-11-20T09:22:25.000Z</time>
      </trkpt>
      <trkpt lat="46.7787" lon="0.44106">
        <ele>136</ele>
        <time>2016-11-20T09:22:27.000Z</time>
      </trkpt>
      <trkpt lat="46.77876" lon="0.44122">
        <ele>133</ele>
        <time>2016-11-20T09:22:30.000Z</time>
      </trkpt>
      <trkpt lat="46.77878" lon="0.44137">
        <ele>135</ele>
        <time>2016-11-20T09:22:34.000Z</time>
      </trkpt>
      <trkpt lat="46.77881" lon="0.4415">
        <ele>134</ele>
        <time>2016-11-20T09:23:00.000Z</time>
      </trkpt>
      <trkpt lat="46.77877" lon="0.44135">
        <ele>133</ele>
        <time>2016-11-20T09:32:55.000Z</time>
      </trkpt>
      <trkpt lat="46.77873" lon="0.44123">
        <ele>136</ele>
        <time>2016-11-20T09:33:02.000Z</time>
      </trkpt>
      <trkpt lat="46.77867" lon="0.44113">
        <ele>135</ele>
        <time>2016-11-20T09:33:06.000Z</time>
      </trkpt>
      <trkpt lat="46.77859" lon="0.441">
        <ele>135</ele>
        <time>2016-11-20T09:33:10.000Z</time>
      </trkpt>
      <trkpt lat="46.77851" lon="0.44092">
        <ele>135</ele>
        <time>2016-11-20T09:33:13.000Z</time>
      </trkpt>
      <trkpt lat="46.7784" lon="0.44092">
        <ele>134</ele>
        <time>2016-11-20T09:33:17.000Z</time>
      </trkpt>
      <trkpt lat="46.7783" lon="0.44097">
        <ele>137</ele>
        <time>2016-11-20T09:33:21.000Z</time>
      </trkpt>
      <trkpt lat="46.7782" lon="0.44101">
        <ele>141</ele>
        <time>2016-11-20T09:33:25.000Z</time>
      </trkpt>
      <trkpt lat="46.77809" lon="0.44105">
        <ele>142</ele>
        <time>2016-11-20T09:33:29.000Z</time>
      </trkpt>
      <trkpt lat="46.77798" lon="0.44106">
        <ele>141</ele>
        <time>2016-11-20T09:33:33.000Z</time>
      </trkpt>
      <trkpt lat="46.77788" lon="0.4411">
        <ele>141</ele>
        <time>2016-11-20T09:33:37.000Z</time>
      </trkpt>
      <trkpt lat="46.77788" lon="0.44123">
        <ele>143</ele>
        <time>2016-11-20T09:33:41.000Z</time>
      </trkpt>
      <trkpt lat="46.77789" lon="0.4414">
        <ele>141</ele>
        <time>2016-11-20T09:33:44.000Z</time>
      </trkpt>
      <trkpt lat="46.77791" lon="0.44158">
        <ele>141</ele>
        <time>2016-11-20T09:33:47.000Z</time>
      </trkpt>
      <trkpt lat="46.77792" lon="0.44171">
        <ele>141</ele>
        <time>2016-11-20T09:33:49.000Z</time>
      </trkpt>
      <trkpt lat="46.77794" lon="0.4419">
        <ele>140</ele>
        <time>2016-11-20T09:33:52.000Z</time>
      </trkpt>
      <trkpt lat="46.77797" lon="0.44209">
        <ele>139</ele>
        <time>2016-11-20T09:33:55.000Z</time>
      </trkpt>
      <trkpt lat="46.778" lon="0.44228">
        <ele>139</ele>
        <time>2016-11-20T09:33:58.000Z</time>
      </trkpt>
      <trkpt lat="46.77802" lon="0.44246">
        <ele>140</ele>
        <time>2016-11-20T09:34:01.000Z</time>
      </trkpt>
      <trkpt lat="46.77805" lon="0.44265">
        <ele>138</ele>
        <time>2016-11-20T09:34:04.000Z</time>
      </trkpt>
      <trkpt lat="46.77807" lon="0.44278">
        <ele>137</ele>
        <time>2016-11-20T09:34:06.000Z</time>
      </trkpt>
      <trkpt lat="46.77808" lon="0.44297">
        <ele>136</ele>
        <time>2016-11-20T09:34:09.000Z</time>
      </trkpt>
      <trkpt lat="46.7781" lon="0.44315">
        <ele>136</ele>
        <time>2016-11-20T09:34:12.000Z</time>
      </trkpt>
      <trkpt lat="46.77811" lon="0.44333">
        <ele>137</ele>
        <time>2016-11-20T09:34:15.000Z</time>
      </trkpt>
      <trkpt lat="46.77812" lon="0.4435">
        <ele>142</ele>
        <time>2016-11-20T09:34:19.000Z</time>
      </trkpt>
      <trkpt lat="46.77813" lon="0.44366">
        <ele>140</ele>
        <time>2016-11-20T09:34:21.000Z</time>
      </trkpt>
      <trkpt lat="46.77813" lon="0.44384">
        <ele>140</ele>
        <time>2016-11-20T09:34:24.000Z</time>
      </trkpt>
      <trkpt lat="46.77812" lon="0.44401">
        <ele>139</ele>
        <time>2016-11-20T09:34:27.000Z</time>
      </trkpt>
      <trkpt lat="46.77812" lon="0.44417">
        <ele>140</ele>
        <time>2016-11-20T09:34:30.000Z</time>
      </trkpt>
      <trkpt lat="46.77813" lon="0.44435">
        <ele>141</ele>
        <time>2016-11-20T09:34:33.000Z</time>
      </trkpt>
      <trkpt lat="46.77813" lon="0.44451">
        <ele>143</ele>
        <time>2016-11-20T09:34:36.000Z</time>
      </trkpt>
      <trkpt lat="46.77813" lon="0.44468">
        <ele>144</ele>
        <time>2016-11-20T09:34:39.000Z</time>
      </trkpt>
      <trkpt lat="46.77813" lon="0.44482">
        <ele>147</ele>
        <time>2016-11-20T09:34:42.000Z</time>
      </trkpt>
      <trkpt lat="46.77813" lon="0.44497">
        <ele>152</ele>
        <time>2016-11-20T09:34:46.000Z</time>
      </trkpt>
      <trkpt lat="46.77815" lon="0.44511">
        <ele>148</ele>
        <time>2016-11-20T09:34:48.000Z</time>
      </trkpt>
      <trkpt lat="46.77825" lon="0.44517">
        <ele>148</ele>
        <time>2016-11-20T09:34:51.000Z</time>
      </trkpt>
      <trkpt lat="46.77834" lon="0.44522">
        <ele>148</ele>
        <time>2016-11-20T09:34:53.000Z</time>
      </trkpt>
      <trkpt lat="46.77844" lon="0.44528">
        <ele>147</ele>
        <time>2016-11-20T09:34:55.000Z</time>
      </trkpt>
      <trkpt lat="46.77855" lon="0.44536">
        <ele>146</ele>
        <time>2016-11-20T09:34:57.000Z</time>
      </trkpt>
      <trkpt lat="46.77867" lon="0.44539">
        <ele>146</ele>
        <time>2016-11-20T09:34:59.000Z</time>
      </trkpt>
      <trkpt lat="46.7788" lon="0.44542">
        <ele>144</ele>
        <time>2016-11-20T09:35:01.000Z</time>
      </trkpt>
      <trkpt lat="46.77893" lon="0.44545">
        <ele>141</ele>
        <time>2016-11-20T09:35:03.000Z</time>
      </trkpt>
      <trkpt lat="46.77907" lon="0.44546">
        <ele>139</ele>
        <time>2016-11-20T09:35:05.000Z</time>
      </trkpt>
      <trkpt lat="46.7792" lon="0.44548">
        <ele>137</ele>
        <time>2016-11-20T09:35:07.000Z</time>
      </trkpt>
      <trkpt lat="46.77932" lon="0.44549">
        <ele>136</ele>
        <time>2016-11-20T09:35:09.000Z</time>
      </trkpt>
      <trkpt lat="46.77945" lon="0.44549">
        <ele>135</ele>
        <time>2016-11-20T09:35:11.000Z</time>
      </trkpt>
      <trkpt lat="46.77959" lon="0.44549">
        <ele>134</ele>
        <time>2016-11-20T09:35:13.000Z</time>
      </trkpt>
      <trkpt lat="46.77969" lon="0.44549">
        <ele>132</ele>
        <time>2016-11-20T09:35:14.000Z</time>
      </trkpt>
      <trkpt lat="46.7798" lon="0.44549">
        <ele>132</ele>
        <time>2016-11-20T09:35:16.000Z</time>
      </trkpt>
      <trkpt lat="46.77991" lon="0.44549">
        <ele>133</ele>
        <time>2016-11-20T09:35:18.000Z</time>
      </trkpt>
      <trkpt lat="46.78002" lon="0.44551">
        <ele>133</ele>
        <time>2016-11-20T09:35:21.000Z</time>
      </trkpt>
      <trkpt lat="46.78008" lon="0.44566">
        <ele>130</ele>
        <time>2016-11-20T09:35:24.000Z</time>
      </trkpt>
      <trkpt lat="46.78005" lon="0.44581">
        <ele>128</ele>
        <time>2016-11-20T09:35:26.000Z</time>
      </trkpt>
      <trkpt lat="46.78002" lon="0.44596">
        <ele>128</ele>
        <time>2016-11-20T09:35:28.000Z</time>
      </trkpt>
      <trkpt lat="46.78001" lon="0.44617">
        <ele>125</ele>
        <time>2016-11-20T09:35:30.000Z</time>
      </trkpt>
      <trkpt lat="46.78" lon="0.44634">
        <ele>124</ele>
        <time>2016-11-20T09:35:32.000Z</time>
      </trkpt>
      <trkpt lat="46.77999" lon="0.44653">
        <ele>122</ele>
        <time>2016-11-20T09:35:34.000Z</time>
      </trkpt>
      <trkpt lat="46.77998" lon="0.44666">
        <ele>123</ele>
        <time>2016-11-20T09:35:36.000Z</time>
      </trkpt>
      <trkpt lat="46.77995" lon="0.4468">
        <ele>123</ele>
        <time>2016-11-20T09:35:38.000Z</time>
      </trkpt>
      <trkpt lat="46.77994" lon="0.44695">
        <ele>124</ele>
        <time>2016-11-20T09:35:40.000Z</time>
      </trkpt>
      <trkpt lat="46.77989" lon="0.4471">
        <ele>124</ele>
        <time>2016-11-20T09:35:42.000Z</time>
      </trkpt>
      <trkpt lat="46.77987" lon="0.44727">
        <ele>124</ele>
        <time>2016-11-20T09:35:44.000Z</time>
      </trkpt>
      <trkpt lat="46.77984" lon="0.44744">
        <ele>124</ele>
        <time>2016-11-20T09:35:46.000Z</time>
      </trkpt>
      <trkpt lat="46.77981" lon="0.4476">
        <ele>124</ele>
        <time>2016-11-20T09:35:48.000Z</time>
      </trkpt>
      <trkpt lat="46.77979" lon="0.44778">
        <ele>123</ele>
        <time>2016-11-20T09:35:50.000Z</time>
      </trkpt>
      <trkpt lat="46.77976" lon="0.44794">
        <ele>123</ele>
        <time>2016-11-20T09:35:52.000Z</time>
      </trkpt>
      <trkpt lat="46.77972" lon="0.44811">
        <ele>124</ele>
        <time>2016-11-20T09:35:54.000Z</time>
      </trkpt>
      <trkpt lat="46.77969" lon="0.44827">
        <ele>124</ele>
        <time>2016-11-20T09:35:56.000Z</time>
      </trkpt>
      <trkpt lat="46.77967" lon="0.44844">
        <ele>124</ele>
        <time>2016-11-20T09:35:58.000Z</time>
      </trkpt>
      <trkpt lat="46.77964" lon="0.44861">
        <ele>123</ele>
        <time>2016-11-20T09:36:00.000Z</time>
      </trkpt>
      <trkpt lat="46.77962" lon="0.44877">
        <ele>122</ele>
        <time>2016-11-20T09:36:02.000Z</time>
      </trkpt>
      <trkpt lat="46.77959" lon="0.44892">
        <ele>123</ele>
        <time>2016-11-20T09:36:04.000Z</time>
      </trkpt>
      <trkpt lat="46.77956" lon="0.44909">
        <ele>122</ele>
        <time>2016-11-20T09:36:06.000Z</time>
      </trkpt>
      <trkpt lat="46.77954" lon="0.44921">
        <ele>123</ele>
        <time>2016-11-20T09:36:08.000Z</time>
      </trkpt>
      <trkpt lat="46.77954" lon="0.44938">
        <ele>116</ele>
        <time>2016-11-20T09:36:09.000Z</time>
      </trkpt>
      <trkpt lat="46.77952" lon="0.44952">
        <ele>116</ele>
        <time>2016-11-20T09:36:11.000Z</time>
      </trkpt>
      <trkpt lat="46.77953" lon="0.44968">
        <ele>110</ele>
        <time>2016-11-20T09:36:12.000Z</time>
      </trkpt>
      <trkpt lat="46.77951" lon="0.44986">
        <ele>110</ele>
        <time>2016-11-20T09:36:15.000Z</time>
      </trkpt>
      <trkpt lat="46.77948" lon="0.44999">
        <ele>113</ele>
        <time>2016-11-20T09:36:18.000Z</time>
      </trkpt>
      <trkpt lat="46.77943" lon="0.45017">
        <ele>114</ele>
        <time>2016-11-20T09:36:21.000Z</time>
      </trkpt>
      <trkpt lat="46.77942" lon="0.45032">
        <ele>115</ele>
        <time>2016-11-20T09:36:23.000Z</time>
      </trkpt>
      <trkpt lat="46.7794" lon="0.45046">
        <ele>115</ele>
        <time>2016-11-20T09:36:25.000Z</time>
      </trkpt>
      <trkpt lat="46.77937" lon="0.45058">
        <ele>117</ele>
        <time>2016-11-20T09:36:27.000Z</time>
      </trkpt>
      <trkpt lat="46.77934" lon="0.45075">
        <ele>117</ele>
        <time>2016-11-20T09:36:29.000Z</time>
      </trkpt>
      <trkpt lat="46.77931" lon="0.4509">
        <ele>117</ele>
        <time>2016-11-20T09:36:31.000Z</time>
      </trkpt>
      <trkpt lat="46.77929" lon="0.45104">
        <ele>117</ele>
        <time>2016-11-20T09:36:33.000Z</time>
      </trkpt>
      <trkpt lat="46.77925" lon="0.45118">
        <ele>121</ele>
        <time>2016-11-20T09:36:36.000Z</time>
      </trkpt>
      <trkpt lat="46.77917" lon="0.45109">
        <ele>130</ele>
        <time>2016-11-20T09:36:39.000Z</time>
      </trkpt>
      <trkpt lat="46.77905" lon="0.45101">
        <ele>132</ele>
        <time>2016-11-20T09:36:42.000Z</time>
      </trkpt>
      <trkpt lat="46.77895" lon="0.45096">
        <ele>133</ele>
        <time>2016-11-20T09:36:45.000Z</time>
      </trkpt>
      <trkpt lat="46.77885" lon="0.45091">
        <ele>133</ele>
        <time>2016-11-20T09:36:48.000Z</time>
      </trkpt>
      <trkpt lat="46.77876" lon="0.45086">
        <ele>134</ele>
        <time>2016-11-20T09:36:51.000Z</time>
      </trkpt>
      <trkpt lat="46.77866" lon="0.4508">
        <ele>134</ele>
        <time>2016-11-20T09:36:56.000Z</time>
      </trkpt>
      <trkpt lat="46.77856" lon="0.45073">
        <ele>135</ele>
        <time>2016-11-20T09:37:01.000Z</time>
      </trkpt>
      <trkpt lat="46.77848" lon="0.45067">
        <ele>135</ele>
        <time>2016-11-20T09:37:05.000Z</time>
      </trkpt>
      <trkpt lat="46.7784" lon="0.45056">
        <ele>135</ele>
        <time>2016-11-20T09:37:10.000Z</time>
      </trkpt>
      <trkpt lat="46.77834" lon="0.45042">
        <ele>137</ele>
        <time>2016-11-20T09:37:14.000Z</time>
      </trkpt>
      <trkpt lat="46.77829" lon="0.4503">
        <ele>138</ele>
        <time>2016-11-20T09:37:17.000Z</time>
      </trkpt>
      <trkpt lat="46.77825" lon="0.45018">
        <ele>135</ele>
        <time>2016-11-20T09:37:21.000Z</time>
      </trkpt>
      <trkpt lat="46.77821" lon="0.45003">
        <ele>136</ele>
        <time>2016-11-20T09:37:25.000Z</time>
      </trkpt>
      <trkpt lat="46.77816" lon="0.44993">
        <ele>137</ele>
        <time>2016-11-20T09:37:29.000Z</time>
      </trkpt>
      <trkpt lat="46.7781" lon="0.4498">
        <ele>137</ele>
        <time>2016-11-20T09:37:33.000Z</time>
      </trkpt>
      <trkpt lat="46.77802" lon="0.44971">
        <ele>138</ele>
        <time>2016-11-20T09:37:38.000Z</time>
      </trkpt>
      <trkpt lat="46.77792" lon="0.44966">
        <ele>138</ele>
        <time>2016-11-20T09:37:43.000Z</time>
      </trkpt>
      <trkpt lat="46.77782" lon="0.44962">
        <ele>138</ele>
        <time>2016-11-20T09:37:48.000Z</time>
      </trkpt>
      <trkpt lat="46.77773" lon="0.44958">
        <ele>139</ele>
        <time>2016-11-20T09:37:52.000Z</time>
      </trkpt>
      <trkpt lat="46.77765" lon="0.44954">
        <ele>140</ele>
        <time>2016-11-20T09:37:56.000Z</time>
      </trkpt>
      <trkpt lat="46.77755" lon="0.4495">
        <ele>142</ele>
        <time>2016-11-20T09:38:00.000Z</time>
      </trkpt>
      <trkpt lat="46.77745" lon="0.44945">
        <ele>143</ele>
        <time>2016-11-20T09:38:04.000Z</time>
      </trkpt>
      <trkpt lat="46.77736" lon="0.44941">
        <ele>143</ele>
        <time>2016-11-20T09:38:08.000Z</time>
      </trkpt>
      <trkpt lat="46.77726" lon="0.44936">
        <ele>144</ele>
        <time>2016-11-20T09:38:13.000Z</time>
      </trkpt>
      <trkpt lat="46.77716" lon="0.4493">
        <ele>144</ele>
        <time>2016-11-20T09:38:18.000Z</time>
      </trkpt>
      <trkpt lat="46.77707" lon="0.44925">
        <ele>144</ele>
        <time>2016-11-20T09:38:23.000Z</time>
      </trkpt>
      <trkpt lat="46.77697" lon="0.44924">
        <ele>144</ele>
        <time>2016-11-20T09:38:28.000Z</time>
      </trkpt>
      <trkpt lat="46.77687" lon="0.44922">
        <ele>147</ele>
        <time>2016-11-20T09:38:33.000Z</time>
      </trkpt>
      <trkpt lat="46.7768" lon="0.44912">
        <ele>149</ele>
        <time>2016-11-20T09:38:37.000Z</time>
      </trkpt>
      <trkpt lat="46.7767" lon="0.4491">
        <ele>150</ele>
        <time>2016-11-20T09:38:43.000Z</time>
      </trkpt>
      <trkpt lat="46.7766" lon="0.44912">
        <ele>151</ele>
        <time>2016-11-20T09:38:48.000Z</time>
      </trkpt>
      <trkpt lat="46.77651" lon="0.44915">
        <ele>153</ele>
        <time>2016-11-20T09:38:54.000Z</time>
      </trkpt>
      <trkpt lat="46.77641" lon="0.44914">
        <ele>152</ele>
        <time>2016-11-20T09:39:00.000Z</time>
      </trkpt>
      <trkpt lat="46.7763" lon="0.4491">
        <ele>153</ele>
        <time>2016-11-20T09:39:06.000Z</time>
      </trkpt>
      <trkpt lat="46.77621" lon="0.44905">
        <ele>155</ele>
        <time>2016-11-20T09:39:12.000Z</time>
      </trkpt>
      <trkpt lat="46.7761" lon="0.44898">
        <ele>156</ele>
        <time>2016-11-20T09:39:19.000Z</time>
      </trkpt>
      <trkpt lat="46.77601" lon="0.44895">
        <ele>157</ele>
        <time>2016-11-20T09:39:25.000Z</time>
      </trkpt>
      <trkpt lat="46.77592" lon="0.44887">
        <ele>151</ele>
        <time>2016-11-20T09:39:30.000Z</time>
      </trkpt>
      <trkpt lat="46.77583" lon="0.44878">
        <ele>152</ele>
        <time>2016-11-20T09:39:37.000Z</time>
      </trkpt>
      <trkpt lat="46.77576" lon="0.4487">
        <ele>154</ele>
        <time>2016-11-20T09:39:43.000Z</time>
      </trkpt>
      <trkpt lat="46.7757" lon="0.44861">
        <ele>157</ele>
        <time>2016-11-20T09:39:49.000Z</time>
      </trkpt>
      <trkpt lat="46.77561" lon="0.44855">
        <ele>158</ele>
        <time>2016-11-20T09:39:54.000Z</time>
      </trkpt>
      <trkpt lat="46.77551" lon="0.44852">
        <ele>159</ele>
        <time>2016-11-20T09:40:00.000Z</time>
      </trkpt>
      <trkpt lat="46.77542" lon="0.44848">
        <ele>160</ele>
        <time>2016-11-20T09:40:05.000Z</time>
      </trkpt>
      <trkpt lat="46.77533" lon="0.44844">
        <ele>164</ele>
        <time>2016-11-20T09:40:11.000Z</time>
      </trkpt>
      <trkpt lat="46.77523" lon="0.44839">
        <ele>163</ele>
        <time>2016-11-20T09:40:16.000Z</time>
      </trkpt>
      <trkpt lat="46.77516" lon="0.44831">
        <ele>163</ele>
        <time>2016-11-20T09:40:20.000Z</time>
      </trkpt>
      <trkpt lat="46.77506" lon="0.44824">
        <ele>164</ele>
        <time>2016-11-20T09:40:25.000Z</time>
      </trkpt>
      <trkpt lat="46.77497" lon="0.44818">
        <ele>161</ele>
        <time>2016-11-20T09:40:28.000Z</time>
      </trkpt>
      <trkpt lat="46.77488" lon="0.44811">
        <ele>162</ele>
        <time>2016-11-20T09:40:32.000Z</time>
      </trkpt>
      <trkpt lat="46.77478" lon="0.44805">
        <ele>163</ele>
        <time>2016-11-20T09:40:36.000Z</time>
      </trkpt>
      <trkpt lat="46.77468" lon="0.448">
        <ele>164</ele>
        <time>2016-11-20T09:40:40.000Z</time>
      </trkpt>
      <trkpt lat="46.77459" lon="0.4479">
        <ele>164</ele>
        <time>2016-11-20T09:40:44.000Z</time>
      </trkpt>
      <trkpt lat="46.77452" lon="0.4478">
        <ele>163</ele>
        <time>2016-11-20T09:40:48.000Z</time>
      </trkpt>
      <trkpt lat="46.77442" lon="0.44774">
        <ele>161</ele>
        <time>2016-11-20T09:40:52.000Z</time>
      </trkpt>
      <trkpt lat="46.77432" lon="0.44772">
        <ele>164</ele>
        <time>2016-11-20T09:40:57.000Z</time>
      </trkpt>
      <trkpt lat="46.77422" lon="0.44768">
        <ele>165</ele>
        <time>2016-11-20T09:41:03.000Z</time>
      </trkpt>
      <trkpt lat="46.77411" lon="0.44764">
        <ele>168</ele>
        <time>2016-11-20T09:41:08.000Z</time>
      </trkpt>
      <trkpt lat="46.77403" lon="0.44761">
        <ele>169</ele>
        <time>2016-11-20T09:41:12.000Z</time>
      </trkpt>
      <trkpt lat="46.77393" lon="0.44756">
        <ele>168</ele>
        <time>2016-11-20T09:41:16.000Z</time>
      </trkpt>
      <trkpt lat="46.77384" lon="0.4475">
        <ele>170</ele>
        <time>2016-11-20T09:41:21.000Z</time>
      </trkpt>
      <trkpt lat="46.77374" lon="0.44744">
        <ele>169</ele>
        <time>2016-11-20T09:41:25.000Z</time>
      </trkpt>
      <trkpt lat="46.77365" lon="0.44737">
        <ele>167</ele>
        <time>2016-11-20T09:41:28.000Z</time>
      </trkpt>
      <trkpt lat="46.77355" lon="0.4473">
        <ele>167</ele>
        <time>2016-11-20T09:41:31.000Z</time>
      </trkpt>
      <trkpt lat="46.77347" lon="0.44722">
        <ele>167</ele>
        <time>2016-11-20T09:41:34.000Z</time>
      </trkpt>
      <trkpt lat="46.77339" lon="0.44716">
        <ele>167</ele>
        <time>2016-11-20T09:41:37.000Z</time>
      </trkpt>
      <trkpt lat="46.7733" lon="0.44709">
        <ele>166</ele>
        <time>2016-11-20T09:41:40.000Z</time>
      </trkpt>
      <trkpt lat="46.77319" lon="0.44706">
        <ele>166</ele>
        <time>2016-11-20T09:41:44.000Z</time>
      </trkpt>
      <trkpt lat="46.77309" lon="0.44718">
        <ele>166</ele>
        <time>2016-11-20T09:41:47.000Z</time>
      </trkpt>
      <trkpt lat="46.77303" lon="0.44732">
        <ele>166</ele>
        <time>2016-11-20T09:41:50.000Z</time>
      </trkpt>
      <trkpt lat="46.77296" lon="0.44748">
        <ele>166</ele>
        <time>2016-11-20T09:41:53.000Z</time>
      </trkpt>
      <trkpt lat="46.7729" lon="0.44764">
        <ele>167</ele>
        <time>2016-11-20T09:41:56.000Z</time>
      </trkpt>
      <trkpt lat="46.77286" lon="0.44777">
        <ele>166</ele>
        <time>2016-11-20T09:41:58.000Z</time>
      </trkpt>
      <trkpt lat="46.77278" lon="0.44789">
        <ele>167</ele>
        <time>2016-11-20T09:42:00.000Z</time>
      </trkpt>
      <trkpt lat="46.77271" lon="0.44804">
        <ele>167</ele>
        <time>2016-11-20T09:42:03.000Z</time>
      </trkpt>
      <trkpt lat="46.7727" lon="0.44818">
        <ele>166</ele>
        <time>2016-11-20T09:42:05.000Z</time>
      </trkpt>
      <trkpt lat="46.77256" lon="0.44831">
        <ele>164</ele>
        <time>2016-11-20T09:42:07.000Z</time>
      </trkpt>
      <trkpt lat="46.77248" lon="0.44841">
        <ele>162</ele>
        <time>2016-11-20T09:42:09.000Z</time>
      </trkpt>
      <trkpt lat="46.77238" lon="0.44853">
        <ele>161</ele>
        <time>2016-11-20T09:42:11.000Z</time>
      </trkpt>
      <trkpt lat="46.77231" lon="0.44866">
        <ele>162</ele>
        <time>2016-11-20T09:42:13.000Z</time>
      </trkpt>
      <trkpt lat="46.77219" lon="0.44874">
        <ele>159</ele>
        <time>2016-11-20T09:42:14.000Z</time>
      </trkpt>
      <trkpt lat="46.77213" lon="0.44887">
        <ele>160</ele>
        <time>2016-11-20T09:42:16.000Z</time>
      </trkpt>
      <trkpt lat="46.77204" lon="0.44901">
        <ele>160</ele>
        <time>2016-11-20T09:42:18.000Z</time>
      </trkpt>
      <trkpt lat="46.77197" lon="0.44912">
        <ele>159</ele>
        <time>2016-11-20T09:42:20.000Z</time>
      </trkpt>
      <trkpt lat="46.7719" lon="0.44926">
        <ele>164</ele>
        <time>2016-11-20T09:42:22.000Z</time>
      </trkpt>
      <trkpt lat="46.77184" lon="0.44942">
        <ele>162</ele>
        <time>2016-11-20T09:42:25.000Z</time>
      </trkpt>
      <trkpt lat="46.77177" lon="0.44952">
        <ele>162</ele>
        <time>2016-11-20T09:42:27.000Z</time>
      </trkpt>
      <trkpt lat="46.77171" lon="0.44964">
        <ele>161</ele>
        <time>2016-11-20T09:42:30.000Z</time>
      </trkpt>
      <trkpt lat="46.77169" lon="0.44983">
        <ele>162</ele>
        <time>2016-11-20T09:42:33.000Z</time>
      </trkpt>
      <trkpt lat="46.77166" lon="0.45">
        <ele>160</ele>
        <time>2016-11-20T09:42:36.000Z</time>
      </trkpt>
      <trkpt lat="46.77165" lon="0.45016">
        <ele>162</ele>
        <time>2016-11-20T09:42:38.000Z</time>
      </trkpt>
      <trkpt lat="46.77168" lon="0.45038">
        <ele>157</ele>
        <time>2016-11-20T09:42:41.000Z</time>
      </trkpt>
      <trkpt lat="46.77172" lon="0.45056">
        <ele>157</ele>
        <time>2016-11-20T09:42:44.000Z</time>
      </trkpt>
      <trkpt lat="46.77176" lon="0.45072">
        <ele>157</ele>
        <time>2016-11-20T09:42:47.000Z</time>
      </trkpt>
      <trkpt lat="46.77178" lon="0.45085">
        <ele>157</ele>
        <time>2016-11-20T09:42:50.000Z</time>
      </trkpt>
      <trkpt lat="46.77178" lon="0.451">
        <ele>157</ele>
        <time>2016-11-20T09:42:53.000Z</time>
      </trkpt>
      <trkpt lat="46.77175" lon="0.45116">
        <ele>158</ele>
        <time>2016-11-20T09:42:57.000Z</time>
      </trkpt>
      <trkpt lat="46.77171" lon="0.45132">
        <ele>159</ele>
        <time>2016-11-20T09:43:00.000Z</time>
      </trkpt>
      <trkpt lat="46.77169" lon="0.45146">
        <ele>160</ele>
        <time>2016-11-20T09:43:03.000Z</time>
      </trkpt>
      <trkpt lat="46.77164" lon="0.4516">
        <ele>161</ele>
        <time>2016-11-20T09:43:06.000Z</time>
      </trkpt>
      <trkpt lat="46.77161" lon="0.45174">
        <ele>160</ele>
        <time>2016-11-20T09:43:08.000Z</time>
      </trkpt>
      <trkpt lat="46.77157" lon="0.45189">
        <ele>161</ele>
        <time>2016-11-20T09:43:11.000Z</time>
      </trkpt>
      <trkpt lat="46.77152" lon="0.45205">
        <ele>163</ele>
        <time>2016-11-20T09:43:14.000Z</time>
      </trkpt>
      <trkpt lat="46.77147" lon="0.45221">
        <ele>163</ele>
        <time>2016-11-20T09:43:17.000Z</time>
      </trkpt>
      <trkpt lat="46.77144" lon="0.45241">
        <ele>162</ele>
        <time>2016-11-20T09:43:20.000Z</time>
      </trkpt>
      <trkpt lat="46.77144" lon="0.45259">
        <ele>162</ele>
        <time>2016-11-20T09:43:23.000Z</time>
      </trkpt>
      <trkpt lat="46.77142" lon="0.45279">
        <ele>160</ele>
        <time>2016-11-20T09:43:25.000Z</time>
      </trkpt>
      <trkpt lat="46.77137" lon="0.45291">
        <ele>160</ele>
        <time>2016-11-20T09:43:27.000Z</time>
      </trkpt>
      <trkpt lat="46.77132" lon="0.45305">
        <ele>158</ele>
        <time>2016-11-20T09:43:29.000Z</time>
      </trkpt>
      <trkpt lat="46.77127" lon="0.4532">
        <ele>161</ele>
        <time>2016-11-20T09:43:32.000Z</time>
      </trkpt>
      <trkpt lat="46.77123" lon="0.45335">
        <ele>164</ele>
        <time>2016-11-20T09:43:35.000Z</time>
      </trkpt>
      <trkpt lat="46.77117" lon="0.45351">
        <ele>163</ele>
        <time>2016-11-20T09:43:38.000Z</time>
      </trkpt>
      <trkpt lat="46.77108" lon="0.45362">
        <ele>161</ele>
        <time>2016-11-20T09:43:40.000Z</time>
      </trkpt>
      <trkpt lat="46.77102" lon="0.45373">
        <ele>162</ele>
        <time>2016-11-20T09:43:43.000Z</time>
      </trkpt>
      <trkpt lat="46.77095" lon="0.45384">
        <ele>162</ele>
        <time>2016-11-20T09:43:46.000Z</time>
      </trkpt>
      <trkpt lat="46.7709" lon="0.45396">
        <ele>162</ele>
        <time>2016-11-20T09:43:49.000Z</time>
      </trkpt>
      <trkpt lat="46.77084" lon="0.45411">
        <ele>163</ele>
        <time>2016-11-20T09:43:53.000Z</time>
      </trkpt>
      <trkpt lat="46.77079" lon="0.45422">
        <ele>164</ele>
        <time>2016-11-20T09:43:56.000Z</time>
      </trkpt>
      <trkpt lat="46.77076" lon="0.45438">
        <ele>165</ele>
        <time>2016-11-20T09:44:00.000Z</time>
      </trkpt>
      <trkpt lat="46.77071" lon="0.45452">
        <ele>165</ele>
        <time>2016-11-20T09:44:04.000Z</time>
      </trkpt>
      <trkpt lat="46.77065" lon="0.45463">
        <ele>165</ele>
        <time>2016-11-20T09:44:08.000Z</time>
      </trkpt>
      <trkpt lat="46.77056" lon="0.45466">
        <ele>164</ele>
        <time>2016-11-20T09:44:11.000Z</time>
      </trkpt>
      <trkpt lat="46.77048" lon="0.4546">
        <ele>165</ele>
        <time>2016-11-20T09:44:15.000Z</time>
      </trkpt>
      <trkpt lat="46.77029" lon="0.45457">
        <ele>164</ele>
        <time>2016-11-20T09:44:21.000Z</time>
      </trkpt>
      <trkpt lat="46.77019" lon="0.45453">
        <ele>165</ele>
        <time>2016-11-20T09:44:25.000Z</time>
      </trkpt>
      <trkpt lat="46.77011" lon="0.45447">
        <ele>167</ele>
        <time>2016-11-20T09:44:29.000Z</time>
      </trkpt>
      <trkpt lat="46.77002" lon="0.4544">
        <ele>171</ele>
        <time>2016-11-20T09:44:33.000Z</time>
      </trkpt>
      <trkpt lat="46.76994" lon="0.45435">
        <ele>171</ele>
        <time>2016-11-20T09:44:37.000Z</time>
      </trkpt>
      <trkpt lat="46.76983" lon="0.45434">
        <ele>171</ele>
        <time>2016-11-20T09:44:42.000Z</time>
      </trkpt>
      <trkpt lat="46.76971" lon="0.45435">
        <ele>169</ele>
        <time>2016-11-20T09:44:47.000Z</time>
      </trkpt>
      <trkpt lat="46.76967" lon="0.45424">
        <ele>172</ele>
        <time>2016-11-20T09:44:54.000Z</time>
      </trkpt>
      <trkpt lat="46.76965" lon="0.45407">
        <ele>172</ele>
        <time>2016-11-20T09:44:58.000Z</time>
      </trkpt>
      <trkpt lat="46.76965" lon="0.45392">
        <ele>172</ele>
        <time>2016-11-20T09:45:01.000Z</time>
      </trkpt>
      <trkpt lat="46.76964" lon="0.45379">
        <ele>172</ele>
        <time>2016-11-20T09:45:04.000Z</time>
      </trkpt>
      <trkpt lat="46.76963" lon="0.45366">
        <ele>175</ele>
        <time>2016-11-20T09:45:07.000Z</time>
      </trkpt>
      <trkpt lat="46.76963" lon="0.45349">
        <ele>175</ele>
        <time>2016-11-20T09:45:10.000Z</time>
      </trkpt>
      <trkpt lat="46.76963" lon="0.45334">
        <ele>174</ele>
        <time>2016-11-20T09:45:13.000Z</time>
      </trkpt>
      <trkpt lat="46.76963" lon="0.45318">
        <ele>175</ele>
        <time>2016-11-20T09:45:16.000Z</time>
      </trkpt>
      <trkpt lat="46.76955" lon="0.4531">
        <ele>175</ele>
        <time>2016-11-20T09:45:19.000Z</time>
      </trkpt>
      <trkpt lat="46.76946" lon="0.45317">
        <ele>177</ele>
        <time>2016-11-20T09:45:22.000Z</time>
      </trkpt>
      <trkpt lat="46.76936" lon="0.4532">
        <ele>177</ele>
        <time>2016-11-20T09:45:25.000Z</time>
      </trkpt>
      <trkpt lat="46.76926" lon="0.45325">
        <ele>178</ele>
        <time>2016-11-20T09:45:28.000Z</time>
      </trkpt>
      <trkpt lat="46.7692" lon="0.45336">
        <ele>183</ele>
        <time>2016-11-20T09:45:32.000Z</time>
      </trkpt>
      <trkpt lat="46.7691" lon="0.45342">
        <ele>184</ele>
        <time>2016-11-20T09:45:35.000Z</time>
      </trkpt>
      <trkpt lat="46.76901" lon="0.45338">
        <ele>185</ele>
        <time>2016-11-20T09:45:38.000Z</time>
      </trkpt>
      <trkpt lat="46.76893" lon="0.45328">
        <ele>184</ele>
        <time>2016-11-20T09:45:41.000Z</time>
      </trkpt>
      <trkpt lat="46.76885" lon="0.45319">
        <ele>185</ele>
        <time>2016-11-20T09:45:44.000Z</time>
      </trkpt>
      <trkpt lat="46.76879" lon="0.45308">
        <ele>185</ele>
        <time>2016-11-20T09:45:48.000Z</time>
      </trkpt>
      <trkpt lat="46.76872" lon="0.45296">
        <ele>185</ele>
        <time>2016-11-20T09:45:52.000Z</time>
      </trkpt>
      <trkpt lat="46.76867" lon="0.45284">
        <ele>185</ele>
        <time>2016-11-20T09:45:56.000Z</time>
      </trkpt>
      <trkpt lat="46.76863" lon="0.4527">
        <ele>187</ele>
        <time>2016-11-20T09:46:00.000Z</time>
      </trkpt>
      <trkpt lat="46.76858" lon="0.45258">
        <ele>189</ele>
        <time>2016-11-20T09:46:05.000Z</time>
      </trkpt>
      <trkpt lat="46.76851" lon="0.45246">
        <ele>188</ele>
        <time>2016-11-20T09:46:11.000Z</time>
      </trkpt>
      <trkpt lat="46.76844" lon="0.45235">
        <ele>189</ele>
        <time>2016-11-20T09:46:15.000Z</time>
      </trkpt>
      <trkpt lat="46.76838" lon="0.45225">
        <ele>188</ele>
        <time>2016-11-20T09:46:19.000Z</time>
      </trkpt>
      <trkpt lat="46.76831" lon="0.45213">
        <ele>189</ele>
        <time>2016-11-20T09:46:23.000Z</time>
      </trkpt>
      <trkpt lat="46.76827" lon="0.45197">
        <ele>188</ele>
        <time>2016-11-20T09:46:27.000Z</time>
      </trkpt>
      <trkpt lat="46.76822" lon="0.45182">
        <ele>188</ele>
        <time>2016-11-20T09:46:31.000Z</time>
      </trkpt>
      <trkpt lat="46.76812" lon="0.4518">
        <ele>190</ele>
        <time>2016-11-20T09:46:34.000Z</time>
      </trkpt>
      <trkpt lat="46.76801" lon="0.45181">
        <ele>191</ele>
        <time>2016-11-20T09:46:37.000Z</time>
      </trkpt>
      <trkpt lat="46.7679" lon="0.45186">
        <ele>192</ele>
        <time>2016-11-20T09:46:40.000Z</time>
      </trkpt>
      <trkpt lat="46.7678" lon="0.45188">
        <ele>192</ele>
        <time>2016-11-20T09:46:43.000Z</time>
      </trkpt>
      <trkpt lat="46.7677" lon="0.45194">
        <ele>192</ele>
        <time>2016-11-20T09:46:46.000Z</time>
      </trkpt>
      <trkpt lat="46.76767" lon="0.45208">
        <ele>190</ele>
        <time>2016-11-20T09:46:49.000Z</time>
      </trkpt>
      <trkpt lat="46.76769" lon="0.45226">
        <ele>191</ele>
        <time>2016-11-20T09:46:52.000Z</time>
      </trkpt>
      <trkpt lat="46.76764" lon="0.45242">
        <ele>189</ele>
        <time>2016-11-20T09:46:55.000Z</time>
      </trkpt>
      <trkpt lat="46.76753" lon="0.45249">
        <ele>187</ele>
        <time>2016-11-20T09:46:58.000Z</time>
      </trkpt>
      <trkpt lat="46.76742" lon="0.45256">
        <ele>188</ele>
        <time>2016-11-20T09:47:01.000Z</time>
      </trkpt>
      <trkpt lat="46.76729" lon="0.45259">
        <ele>186</ele>
        <time>2016-11-20T09:47:03.000Z</time>
      </trkpt>
      <trkpt lat="46.7672" lon="0.45268">
        <ele>187</ele>
        <time>2016-11-20T09:47:05.000Z</time>
      </trkpt>
      <trkpt lat="46.76716" lon="0.45282">
        <ele>187</ele>
        <time>2016-11-20T09:47:07.000Z</time>
      </trkpt>
      <trkpt lat="46.76714" lon="0.453">
        <ele>184</ele>
        <time>2016-11-20T09:47:09.000Z</time>
      </trkpt>
      <trkpt lat="46.76717" lon="0.45314">
        <ele>184</ele>
        <time>2016-11-20T09:47:11.000Z</time>
      </trkpt>
      <trkpt lat="46.76721" lon="0.45331">
        <ele>184</ele>
        <time>2016-11-20T09:47:13.000Z</time>
      </trkpt>
      <trkpt lat="46.76727" lon="0.45347">
        <ele>183</ele>
        <time>2016-11-20T09:47:15.000Z</time>
      </trkpt>
      <trkpt lat="46.76732" lon="0.45362">
        <ele>181</ele>
        <time>2016-11-20T09:47:17.000Z</time>
      </trkpt>
      <trkpt lat="46.76734" lon="0.45378">
        <ele>178</ele>
        <time>2016-11-20T09:47:20.000Z</time>
      </trkpt>
      <trkpt lat="46.76725" lon="0.4538">
        <ele>179</ele>
        <time>2016-11-20T09:47:25.000Z</time>
      </trkpt>
      <trkpt lat="46.76715" lon="0.45363">
        <ele>176</ele>
        <time>2016-11-20T09:47:27.000Z</time>
      </trkpt>
      <trkpt lat="46.76704" lon="0.45355">
        <ele>174</ele>
        <time>2016-11-20T09:47:31.000Z</time>
      </trkpt>
      <trkpt lat="46.76695" lon="0.4536">
        <ele>172</ele>
        <time>2016-11-20T09:47:33.000Z</time>
      </trkpt>
      <trkpt lat="46.76685" lon="0.45365">
        <ele>172</ele>
        <time>2016-11-20T09:47:35.000Z</time>
      </trkpt>
      <trkpt lat="46.76675" lon="0.45363">
        <ele>170</ele>
        <time>2016-11-20T09:47:37.000Z</time>
      </trkpt>
      <trkpt lat="46.76664" lon="0.45353">
        <ele>169</ele>
        <time>2016-11-20T09:47:39.000Z</time>
      </trkpt>
      <trkpt lat="46.76655" lon="0.4534">
        <ele>169</ele>
        <time>2016-11-20T09:47:41.000Z</time>
      </trkpt>
      <trkpt lat="46.76643" lon="0.45332">
        <ele>167</ele>
        <time>2016-11-20T09:47:43.000Z</time>
      </trkpt>
      <trkpt lat="46.76632" lon="0.45333">
        <ele>166</ele>
        <time>2016-11-20T09:47:45.000Z</time>
      </trkpt>
      <trkpt lat="46.7662" lon="0.4534">
        <ele>162</ele>
        <time>2016-11-20T09:47:47.000Z</time>
      </trkpt>
      <trkpt lat="46.76609" lon="0.45349">
        <ele>161</ele>
        <time>2016-11-20T09:47:49.000Z</time>
      </trkpt>
      <trkpt lat="46.76595" lon="0.4536">
        <ele>160</ele>
        <time>2016-11-20T09:47:51.000Z</time>
      </trkpt>
      <trkpt lat="46.76582" lon="0.45369">
        <ele>157</ele>
        <time>2016-11-20T09:47:53.000Z</time>
      </trkpt>
      <trkpt lat="46.7657" lon="0.45377">
        <ele>154</ele>
        <time>2016-11-20T09:47:55.000Z</time>
      </trkpt>
      <trkpt lat="46.76558" lon="0.45387">
        <ele>153</ele>
        <time>2016-11-20T09:47:57.000Z</time>
      </trkpt>
      <trkpt lat="46.76548" lon="0.45393">
        <ele>151</ele>
        <time>2016-11-20T09:47:59.000Z</time>
      </trkpt>
      <trkpt lat="46.76538" lon="0.45399">
        <ele>150</ele>
        <time>2016-11-20T09:48:01.000Z</time>
      </trkpt>
      <trkpt lat="46.76527" lon="0.45402">
        <ele>149</ele>
        <time>2016-11-20T09:48:04.000Z</time>
      </trkpt>
      <trkpt lat="46.7652" lon="0.45393">
        <ele>147</ele>
        <time>2016-11-20T09:48:06.000Z</time>
      </trkpt>
      <trkpt lat="46.76514" lon="0.45383">
        <ele>147</ele>
        <time>2016-11-20T09:48:08.000Z</time>
      </trkpt>
      <trkpt lat="46.76508" lon="0.45369">
        <ele>146</ele>
        <time>2016-11-20T09:48:10.000Z</time>
      </trkpt>
      <trkpt lat="46.76499" lon="0.45352">
        <ele>145</ele>
        <time>2016-11-20T09:48:13.000Z</time>
      </trkpt>
      <trkpt lat="46.76494" lon="0.45339">
        <ele>145</ele>
        <time>2016-11-20T09:48:15.000Z</time>
      </trkpt>
      <trkpt lat="46.76488" lon="0.45327">
        <ele>146</ele>
        <time>2016-11-20T09:48:17.000Z</time>
      </trkpt>
      <trkpt lat="46.76484" lon="0.45315">
        <ele>146</ele>
        <time>2016-11-20T09:48:19.000Z</time>
      </trkpt>
      <trkpt lat="46.76481" lon="0.453">
        <ele>146</ele>
        <time>2016-11-20T09:48:21.000Z</time>
      </trkpt>
      <trkpt lat="46.76484" lon="0.45282">
        <ele>147</ele>
        <time>2016-11-20T09:48:23.000Z</time>
      </trkpt>
      <trkpt lat="46.76484" lon="0.45264">
        <ele>146</ele>
        <time>2016-11-20T09:48:26.000Z</time>
      </trkpt>
      <trkpt lat="46.76483" lon="0.45248">
        <ele>148</ele>
        <time>2016-11-20T09:48:29.000Z</time>
      </trkpt>
      <trkpt lat="46.76482" lon="0.45232">
        <ele>150</ele>
        <time>2016-11-20T09:48:33.000Z</time>
      </trkpt>
      <trkpt lat="46.76481" lon="0.45218">
        <ele>150</ele>
        <time>2016-11-20T09:48:36.000Z</time>
      </trkpt>
      <trkpt lat="46.76481" lon="0.45203">
        <ele>150</ele>
        <time>2016-11-20T09:48:39.000Z</time>
      </trkpt>
      <trkpt lat="46.76478" lon="0.4519">
        <ele>151</ele>
        <time>2016-11-20T09:48:42.000Z</time>
      </trkpt>
      <trkpt lat="46.76478" lon="0.45176">
        <ele>150</ele>
        <time>2016-11-20T09:48:45.000Z</time>
      </trkpt>
      <trkpt lat="46.76478" lon="0.45161">
        <ele>150</ele>
        <time>2016-11-20T09:48:48.000Z</time>
      </trkpt>
      <trkpt lat="46.76478" lon="0.45144">
        <ele>151</ele>
        <time>2016-11-20T09:48:52.000Z</time>
      </trkpt>
      <trkpt lat="46.7648" lon="0.45126">
        <ele>152</ele>
        <time>2016-11-20T09:48:56.000Z</time>
      </trkpt>
      <trkpt lat="46.76485" lon="0.45109">
        <ele>152</ele>
        <time>2016-11-20T09:49:00.000Z</time>
      </trkpt>
      <trkpt lat="46.76488" lon="0.45093">
        <ele>153</ele>
        <time>2016-11-20T09:49:04.000Z</time>
      </trkpt>
      <trkpt lat="46.76492" lon="0.45079">
        <ele>153</ele>
        <time>2016-11-20T09:49:08.000Z</time>
      </trkpt>
      <trkpt lat="46.76495" lon="0.45064">
        <ele>153</ele>
        <time>2016-11-20T09:49:12.000Z</time>
      </trkpt>
      <trkpt lat="46.76496" lon="0.45049">
        <ele>155</ele>
        <time>2016-11-20T09:49:16.000Z</time>
      </trkpt>
      <trkpt lat="46.76497" lon="0.45032">
        <ele>155</ele>
        <time>2016-11-20T09:49:20.000Z</time>
      </trkpt>
      <trkpt lat="46.76497" lon="0.45017">
        <ele>155</ele>
        <time>2016-11-20T09:49:24.000Z</time>
      </trkpt>
      <trkpt lat="46.76496" lon="0.45004">
        <ele>158</ele>
        <time>2016-11-20T09:49:28.000Z</time>
      </trkpt>
      <trkpt lat="46.76494" lon="0.4499">
        <ele>159</ele>
        <time>2016-11-20T09:49:32.000Z</time>
      </trkpt>
      <trkpt lat="46.76493" lon="0.44972">
        <ele>159</ele>
        <time>2016-11-20T09:49:36.000Z</time>
      </trkpt>
      <trkpt lat="46.76492" lon="0.44957">
        <ele>160</ele>
        <time>2016-11-20T09:49:39.000Z</time>
      </trkpt>
      <trkpt lat="46.7649" lon="0.44939">
        <ele>159</ele>
        <time>2016-11-20T09:49:42.000Z</time>
      </trkpt>
      <trkpt lat="46.76486" lon="0.44924">
        <ele>158</ele>
        <time>2016-11-20T09:49:45.000Z</time>
      </trkpt>
      <trkpt lat="46.76479" lon="0.44908">
        <ele>158</ele>
        <time>2016-11-20T09:49:48.000Z</time>
      </trkpt>
      <trkpt lat="46.76475" lon="0.44896">
        <ele>158</ele>
        <time>2016-11-20T09:49:50.000Z</time>
      </trkpt>
      <trkpt lat="46.7647" lon="0.44882">
        <ele>158</ele>
        <time>2016-11-20T09:49:52.000Z</time>
      </trkpt>
      <trkpt lat="46.76465" lon="0.44868">
        <ele>157</ele>
        <time>2016-11-20T09:49:54.000Z</time>
      </trkpt>
      <trkpt lat="46.7646" lon="0.44855">
        <ele>157</ele>
        <time>2016-11-20T09:49:56.000Z</time>
      </trkpt>
      <trkpt lat="46.76454" lon="0.44841">
        <ele>156</ele>
        <time>2016-11-20T09:49:58.000Z</time>
      </trkpt>
      <trkpt lat="46.76449" lon="0.44826">
        <ele>156</ele>
        <time>2016-11-20T09:50:00.000Z</time>
      </trkpt>
      <trkpt lat="46.76445" lon="0.4481">
        <ele>155</ele>
        <time>2016-11-20T09:50:02.000Z</time>
      </trkpt>
      <trkpt lat="46.7644" lon="0.44797">
        <ele>155</ele>
        <time>2016-11-20T09:50:04.000Z</time>
      </trkpt>
      <trkpt lat="46.76435" lon="0.4478">
        <ele>155</ele>
        <time>2016-11-20T09:50:06.000Z</time>
      </trkpt>
      <trkpt lat="46.76433" lon="0.44764">
        <ele>155</ele>
        <time>2016-11-20T09:50:08.000Z</time>
      </trkpt>
      <trkpt lat="46.76433" lon="0.44749">
        <ele>156</ele>
        <time>2016-11-20T09:50:10.000Z</time>
      </trkpt>
      <trkpt lat="46.76434" lon="0.4473">
        <ele>156</ele>
        <time>2016-11-20T09:50:13.000Z</time>
      </trkpt>
      <trkpt lat="46.76437" lon="0.44717">
        <ele>157</ele>
        <time>2016-11-20T09:50:15.000Z</time>
      </trkpt>
      <trkpt lat="46.76438" lon="0.44704">
        <ele>158</ele>
        <time>2016-11-20T09:50:17.000Z</time>
      </trkpt>
      <trkpt lat="46.7644" lon="0.44691">
        <ele>160</ele>
        <time>2016-11-20T09:50:19.000Z</time>
      </trkpt>
      <trkpt lat="46.76442" lon="0.44675">
        <ele>161</ele>
        <time>2016-11-20T09:50:22.000Z</time>
      </trkpt>
      <trkpt lat="46.7644" lon="0.4466">
        <ele>160</ele>
        <time>2016-11-20T09:50:25.000Z</time>
      </trkpt>
      <trkpt lat="46.76436" lon="0.44647">
        <ele>163</ele>
        <time>2016-11-20T09:50:29.000Z</time>
      </trkpt>
      <trkpt lat="46.76437" lon="0.44633">
        <ele>163</ele>
        <time>2016-11-20T09:50:31.000Z</time>
      </trkpt>
      <trkpt lat="46.76435" lon="0.44616">
        <ele>164</ele>
        <time>2016-11-20T09:50:34.000Z</time>
      </trkpt>
      <trkpt lat="46.76435" lon="0.44597">
        <ele>162</ele>
        <time>2016-11-20T09:50:37.000Z</time>
      </trkpt>
      <trkpt lat="46.76436" lon="0.44583">
        <ele>162</ele>
        <time>2016-11-20T09:50:39.000Z</time>
      </trkpt>
      <trkpt lat="46.76437" lon="0.44569">
        <ele>162</ele>
        <time>2016-11-20T09:50:41.000Z</time>
      </trkpt>
      <trkpt lat="46.7644" lon="0.44549">
        <ele>165</ele>
        <time>2016-11-20T09:50:44.000Z</time>
      </trkpt>
      <trkpt lat="46.76445" lon="0.44527">
        <ele>164</ele>
        <time>2016-11-20T09:50:47.000Z</time>
      </trkpt>
      <trkpt lat="46.76448" lon="0.44513">
        <ele>163</ele>
        <time>2016-11-20T09:50:49.000Z</time>
      </trkpt>
      <trkpt lat="46.7645" lon="0.44493">
        <ele>162</ele>
        <time>2016-11-20T09:50:52.000Z</time>
      </trkpt>
      <trkpt lat="46.76457" lon="0.44483">
        <ele>164</ele>
        <time>2016-11-20T09:50:55.000Z</time>
      </trkpt>
      <trkpt lat="46.76464" lon="0.44475">
        <ele>166</ele>
        <time>2016-11-20T09:50:58.000Z</time>
      </trkpt>
      <trkpt lat="46.76455" lon="0.4447">
        <ele>171</ele>
        <time>2016-11-20T09:51:00.000Z</time>
      </trkpt>
      <trkpt lat="46.76466" lon="0.44454">
        <ele>171</ele>
        <time>2016-11-20T09:51:04.000Z</time>
      </trkpt>
      <trkpt lat="46.76474" lon="0.44439">
        <ele>170</ele>
        <time>2016-11-20T09:51:06.000Z</time>
      </trkpt>
      <trkpt lat="46.76484" lon="0.44422">
        <ele>169</ele>
        <time>2016-11-20T09:51:09.000Z</time>
      </trkpt>
      <trkpt lat="46.7649" lon="0.44411">
        <ele>169</ele>
        <time>2016-11-20T09:51:11.000Z</time>
      </trkpt>
      <trkpt lat="46.76503" lon="0.444">
        <ele>170</ele>
        <time>2016-11-20T09:51:14.000Z</time>
      </trkpt>
      <trkpt lat="46.7651" lon="0.44388">
        <ele>170</ele>
        <time>2016-11-20T09:51:17.000Z</time>
      </trkpt>
      <trkpt lat="46.76518" lon="0.4438">
        <ele>168</ele>
        <time>2016-11-20T09:51:19.000Z</time>
      </trkpt>
      <trkpt lat="46.76526" lon="0.4437">
        <ele>169</ele>
        <time>2016-11-20T09:51:22.000Z</time>
      </trkpt>
      <trkpt lat="46.76529" lon="0.44356">
        <ele>171</ele>
        <time>2016-11-20T09:51:26.000Z</time>
      </trkpt>
      <trkpt lat="46.7653" lon="0.4434">
        <ele>172</ele>
        <time>2016-11-20T09:51:30.000Z</time>
      </trkpt>
      <trkpt lat="46.76529" lon="0.44325">
        <ele>175</ele>
        <time>2016-11-20T09:51:36.000Z</time>
      </trkpt>
      <trkpt lat="46.76529" lon="0.44309">
        <ele>170</ele>
        <time>2016-11-20T09:51:40.000Z</time>
      </trkpt>
      <trkpt lat="46.76529" lon="0.44295">
        <ele>172</ele>
        <time>2016-11-20T09:51:46.000Z</time>
      </trkpt>
      <trkpt lat="46.76527" lon="0.44282">
        <ele>174</ele>
        <time>2016-11-20T09:51:53.000Z</time>
      </trkpt>
      <trkpt lat="46.76529" lon="0.44269">
        <ele>182</ele>
        <time>2016-11-20T09:51:59.000Z</time>
      </trkpt>
      <trkpt lat="46.7653" lon="0.44254">
        <ele>186</ele>
        <time>2016-11-20T09:52:07.000Z</time>
      </trkpt>
      <trkpt lat="46.76528" lon="0.4424">
        <ele>190</ele>
        <time>2016-11-20T09:52:16.000Z</time>
      </trkpt>
      <trkpt lat="46.76536" lon="0.44232">
        <ele>189</ele>
        <time>2016-11-20T09:52:21.000Z</time>
      </trkpt>
      <trkpt lat="46.76546" lon="0.4424">
        <ele>180</ele>
        <time>2016-11-20T09:52:26.000Z</time>
      </trkpt>
      <trkpt lat="46.76555" lon="0.4425">
        <ele>186</ele>
        <time>2016-11-20T09:52:33.000Z</time>
      </trkpt>
      <trkpt lat="46.76564" lon="0.44255">
        <ele>183</ele>
        <time>2016-11-20T09:52:42.000Z</time>
      </trkpt>
      <trkpt lat="46.76574" lon="0.44245">
        <ele>185</ele>
        <time>2016-11-20T09:52:48.000Z</time>
      </trkpt>
      <trkpt lat="46.76583" lon="0.44242">
        <ele>187</ele>
        <time>2016-11-20T09:52:52.000Z</time>
      </trkpt>
      <trkpt lat="46.76591" lon="0.44235">
        <ele>192</ele>
        <time>2016-11-20T09:52:55.000Z</time>
      </trkpt>
      <trkpt lat="46.76597" lon="0.44223">
        <ele>193</ele>
        <time>2016-11-20T09:53:00.000Z</time>
      </trkpt>
      <trkpt lat="46.76605" lon="0.44216">
        <ele>191</ele>
        <time>2016-11-20T09:53:05.000Z</time>
      </trkpt>
      <trkpt lat="46.76613" lon="0.44209">
        <ele>188</ele>
        <time>2016-11-20T09:53:09.000Z</time>
      </trkpt>
      <trkpt lat="46.76622" lon="0.44204">
        <ele>186</ele>
        <time>2016-11-20T09:53:21.000Z</time>
      </trkpt>
      <trkpt lat="46.76624" lon="0.44191">
        <ele>178</ele>
        <time>2016-11-20T09:53:40.000Z</time>
      </trkpt>
      <trkpt lat="46.7663" lon="0.44179">
        <ele>179</ele>
        <time>2016-11-20T09:53:43.000Z</time>
      </trkpt>
      <trkpt lat="46.76636" lon="0.44166">
        <ele>186</ele>
        <time>2016-11-20T09:53:50.000Z</time>
      </trkpt>
      <trkpt lat="46.76642" lon="0.44154">
        <ele>182</ele>
        <time>2016-11-20T09:53:54.000Z</time>
      </trkpt>
      <trkpt lat="46.76653" lon="0.4415">
        <ele>173</ele>
        <time>2016-11-20T09:53:58.000Z</time>
      </trkpt>
      <trkpt lat="46.76663" lon="0.44152">
        <ele>172</ele>
        <time>2016-11-20T09:54:01.000Z</time>
      </trkpt>
      <trkpt lat="46.76673" lon="0.44155">
        <ele>172</ele>
        <time>2016-11-20T09:54:04.000Z</time>
      </trkpt>
      <trkpt lat="46.76682" lon="0.4416">
        <ele>174</ele>
        <time>2016-11-20T09:54:07.000Z</time>
      </trkpt>
      <trkpt lat="46.76691" lon="0.44163">
        <ele>177</ele>
        <time>2016-11-20T09:54:10.000Z</time>
      </trkpt>
      <trkpt lat="46.76699" lon="0.44172">
        <ele>179</ele>
        <time>2016-11-20T09:54:13.000Z</time>
      </trkpt>
      <trkpt lat="46.76708" lon="0.44185">
        <ele>181</ele>
        <time>2016-11-20T09:54:17.000Z</time>
      </trkpt>
      <trkpt lat="46.76712" lon="0.44199">
        <ele>179</ele>
        <time>2016-11-20T09:54:20.000Z</time>
      </trkpt>
      <trkpt lat="46.76716" lon="0.44214">
        <ele>185</ele>
        <time>2016-11-20T09:54:25.000Z</time>
      </trkpt>
      <trkpt lat="46.76715" lon="0.44227">
        <ele>187</ele>
        <time>2016-11-20T09:54:29.000Z</time>
      </trkpt>
      <trkpt lat="46.76717" lon="0.44241">
        <ele>194</ele>
        <time>2016-11-20T09:54:35.000Z</time>
      </trkpt>
      <trkpt lat="46.76718" lon="0.44257">
        <ele>190</ele>
        <time>2016-11-20T09:54:41.000Z</time>
      </trkpt>
      <trkpt lat="46.76723" lon="0.44269">
        <ele>193</ele>
        <time>2016-11-20T09:54:46.000Z</time>
      </trkpt>
      <trkpt lat="46.76719" lon="0.44283">
        <ele>196</ele>
        <time>2016-11-20T09:54:51.000Z</time>
      </trkpt>
      <trkpt lat="46.76715" lon="0.44297">
        <ele>194</ele>
        <time>2016-11-20T09:54:56.000Z</time>
      </trkpt>
      <trkpt lat="46.76714" lon="0.4431">
        <ele>193</ele>
        <time>2016-11-20T09:55:00.000Z</time>
      </trkpt>
      <trkpt lat="46.76715" lon="0.44324">
        <ele>197</ele>
        <time>2016-11-20T09:55:08.000Z</time>
      </trkpt>
      <trkpt lat="46.76716" lon="0.44337">
        <ele>199</ele>
        <time>2016-11-20T09:55:13.000Z</time>
      </trkpt>
      <trkpt lat="46.76725" lon="0.44341">
        <ele>183</ele>
        <time>2016-11-20T09:55:27.000Z</time>
      </trkpt>
      <trkpt lat="46.76737" lon="0.44335">
        <ele>181</ele>
        <time>2016-11-20T09:55:31.000Z</time>
      </trkpt>
      <trkpt lat="46.76748" lon="0.44325">
        <ele>180</ele>
        <time>2016-11-20T09:55:35.000Z</time>
      </trkpt>
      <trkpt lat="46.76756" lon="0.4432">
        <ele>183</ele>
        <time>2016-11-20T09:55:38.000Z</time>
      </trkpt>
      <trkpt lat="46.76765" lon="0.44313">
        <ele>183</ele>
        <time>2016-11-20T09:55:41.000Z</time>
      </trkpt>
      <trkpt lat="46.7677" lon="0.443">
        <ele>184</ele>
        <time>2016-11-20T09:55:44.000Z</time>
      </trkpt>
      <trkpt lat="46.76778" lon="0.44291">
        <ele>189</ele>
        <time>2016-11-20T09:55:47.000Z</time>
      </trkpt>
      <trkpt lat="46.76786" lon="0.4428">
        <ele>192</ele>
        <time>2016-11-20T09:55:51.000Z</time>
      </trkpt>
      <trkpt lat="46.76794" lon="0.4427">
        <ele>194</ele>
        <time>2016-11-20T09:55:55.000Z</time>
      </trkpt>
      <trkpt lat="46.76804" lon="0.44257">
        <ele>191</ele>
        <time>2016-11-20T09:55:58.000Z</time>
      </trkpt>
      <trkpt lat="46.76814" lon="0.44247">
        <ele>188</ele>
        <time>2016-11-20T09:56:00.000Z</time>
      </trkpt>
      <trkpt lat="46.76823" lon="0.4424">
        <ele>187</ele>
        <time>2016-11-20T09:56:03.000Z</time>
      </trkpt>
      <trkpt lat="46.76831" lon="0.4423">
        <ele>186</ele>
        <time>2016-11-20T09:56:06.000Z</time>
      </trkpt>
      <trkpt lat="46.7684" lon="0.44218">
        <ele>186</ele>
        <time>2016-11-20T09:56:09.000Z</time>
      </trkpt>
      <trkpt lat="46.76846" lon="0.44208">
        <ele>187</ele>
        <time>2016-11-20T09:56:12.000Z</time>
      </trkpt>
      <trkpt lat="46.76853" lon="0.44196">
        <ele>190</ele>
        <time>2016-11-20T09:56:15.000Z</time>
      </trkpt>
      <trkpt lat="46.76861" lon="0.44184">
        <ele>192</ele>
        <time>2016-11-20T09:56:18.000Z</time>
      </trkpt>
      <trkpt lat="46.76868" lon="0.44171">
        <ele>192</ele>
        <time>2016-11-20T09:56:21.000Z</time>
      </trkpt>
      <trkpt lat="46.76875" lon="0.44159">
        <ele>188</ele>
        <time>2016-11-20T09:56:24.000Z</time>
      </trkpt>
      <trkpt lat="46.76881" lon="0.44145">
        <ele>190</ele>
        <time>2016-11-20T09:56:27.000Z</time>
      </trkpt>
      <trkpt lat="46.76891" lon="0.44136">
        <ele>190</ele>
        <time>2016-11-20T09:56:30.000Z</time>
      </trkpt>
      <trkpt lat="46.76903" lon="0.4413">
        <ele>192</ele>
        <time>2016-11-20T09:56:33.000Z</time>
      </trkpt>
      <trkpt lat="46.76912" lon="0.44127">
        <ele>191</ele>
        <time>2016-11-20T09:56:35.000Z</time>
      </trkpt>
      <trkpt lat="46.76925" lon="0.44123">
        <ele>190</ele>
        <time>2016-11-20T09:56:38.000Z</time>
      </trkpt>
      <trkpt lat="46.76934" lon="0.44119">
        <ele>190</ele>
        <time>2016-11-20T09:56:41.000Z</time>
      </trkpt>
      <trkpt lat="46.76947" lon="0.44115">
        <ele>189</ele>
        <time>2016-11-20T09:56:45.000Z</time>
      </trkpt>
      <trkpt lat="46.76957" lon="0.44111">
        <ele>189</ele>
        <time>2016-11-20T09:56:48.000Z</time>
      </trkpt>
      <trkpt lat="46.76965" lon="0.44102">
        <ele>181</ele>
        <time>2016-11-20T09:56:52.000Z</time>
      </trkpt>
      <trkpt lat="46.76965" lon="0.44085">
        <ele>182</ele>
        <time>2016-11-20T09:56:55.000Z</time>
      </trkpt>
      <trkpt lat="46.76965" lon="0.44069">
        <ele>183</ele>
        <time>2016-11-20T09:56:58.000Z</time>
      </trkpt>
      <trkpt lat="46.76965" lon="0.44051">
        <ele>183</ele>
        <time>2016-11-20T09:57:01.000Z</time>
      </trkpt>
      <trkpt lat="46.76966" lon="0.44032">
        <ele>183</ele>
        <time>2016-11-20T09:57:04.000Z</time>
      </trkpt>
      <trkpt lat="46.76968" lon="0.44018">
        <ele>184</ele>
        <time>2016-11-20T09:57:06.000Z</time>
      </trkpt>
      <trkpt lat="46.7697" lon="0.43999">
        <ele>182</ele>
        <time>2016-11-20T09:57:09.000Z</time>
      </trkpt>
      <trkpt lat="46.76972" lon="0.4398">
        <ele>182</ele>
        <time>2016-11-20T09:57:12.000Z</time>
      </trkpt>
      <trkpt lat="46.76974" lon="0.43962">
        <ele>183</ele>
        <time>2016-11-20T09:57:15.000Z</time>
      </trkpt>
      <trkpt lat="46.76975" lon="0.43948">
        <ele>183</ele>
        <time>2016-11-20T09:57:17.000Z</time>
      </trkpt>
      <trkpt lat="46.76976" lon="0.43934">
        <ele>182</ele>
        <time>2016-11-20T09:57:19.000Z</time>
      </trkpt>
      <trkpt lat="46.76976" lon="0.43919">
        <ele>184</ele>
        <time>2016-11-20T09:57:21.000Z</time>
      </trkpt>
      <trkpt lat="46.76976" lon="0.43905">
        <ele>185</ele>
        <time>2016-11-20T09:57:23.000Z</time>
      </trkpt>
      <trkpt lat="46.76975" lon="0.43892">
        <ele>184</ele>
        <time>2016-11-20T09:57:25.000Z</time>
      </trkpt>
      <trkpt lat="46.76973" lon="0.43873">
        <ele>183</ele>
        <time>2016-11-20T09:57:27.000Z</time>
      </trkpt>
      <trkpt lat="46.76972" lon="0.43853">
        <ele>184</ele>
        <time>2016-11-20T09:57:30.000Z</time>
      </trkpt>
      <trkpt lat="46.7697" lon="0.43837">
        <ele>185</ele>
        <time>2016-11-20T09:57:32.000Z</time>
      </trkpt>
      <trkpt lat="46.76968" lon="0.43824">
        <ele>187</ele>
        <time>2016-11-20T09:57:34.000Z</time>
      </trkpt>
      <trkpt lat="46.76966" lon="0.43811">
        <ele>185</ele>
        <time>2016-11-20T09:57:36.000Z</time>
      </trkpt>
      <trkpt lat="46.76962" lon="0.43793">
        <ele>183</ele>
        <time>2016-11-20T09:57:39.000Z</time>
      </trkpt>
      <trkpt lat="46.76962" lon="0.4378">
        <ele>184</ele>
        <time>2016-11-20T09:57:42.000Z</time>
      </trkpt>
      <trkpt lat="46.76968" lon="0.43771">
        <ele>188</ele>
        <time>2016-11-20T09:57:46.000Z</time>
      </trkpt>
      <trkpt lat="46.76975" lon="0.4376">
        <ele>191</ele>
        <time>2016-11-20T09:57:52.000Z</time>
      </trkpt>
      <trkpt lat="46.76989" lon="0.43751">
        <ele>188</ele>
        <time>2016-11-20T09:57:57.000Z</time>
      </trkpt>
      <trkpt lat="46.77" lon="0.43754">
        <ele>184</ele>
        <time>2016-11-20T09:57:59.000Z</time>
      </trkpt>
      <trkpt lat="46.7701" lon="0.43754">
        <ele>186</ele>
        <time>2016-11-20T09:58:04.000Z</time>
      </trkpt>
      <trkpt lat="46.77028" lon="0.43751">
        <ele>187</ele>
        <time>2016-11-20T09:58:09.000Z</time>
      </trkpt>
      <trkpt lat="46.77034" lon="0.43739">
        <ele>189</ele>
        <time>2016-11-20T09:58:19.000Z</time>
      </trkpt>
      <trkpt lat="46.77044" lon="0.43732">
        <ele>188</ele>
        <time>2016-11-20T09:58:23.000Z</time>
      </trkpt>
      <trkpt lat="46.77055" lon="0.4373">
        <ele>190</ele>
        <time>2016-11-20T09:58:26.000Z</time>
      </trkpt>
      <trkpt lat="46.77065" lon="0.43725">
        <ele>191</ele>
        <time>2016-11-20T09:58:30.000Z</time>
      </trkpt>
      <trkpt lat="46.77076" lon="0.43716">
        <ele>193</ele>
        <time>2016-11-20T09:58:33.000Z</time>
      </trkpt>
      <trkpt lat="46.77082" lon="0.43705">
        <ele>196</ele>
        <time>2016-11-20T09:58:38.000Z</time>
      </trkpt>
      <trkpt lat="46.77082" lon="0.43691">
        <ele>196</ele>
        <time>2016-11-20T09:58:44.000Z</time>
      </trkpt>
      <trkpt lat="46.77078" lon="0.43678">
        <ele>195</ele>
        <time>2016-11-20T09:58:48.000Z</time>
      </trkpt>
      <trkpt lat="46.7708" lon="0.43665">
        <ele>204</ele>
        <time>2016-11-20T09:58:51.000Z</time>
      </trkpt>
      <trkpt lat="46.77077" lon="0.4365">
        <ele>205</ele>
        <time>2016-11-20T09:58:57.000Z</time>
      </trkpt>
      <trkpt lat="46.77071" lon="0.43638">
        <ele>204</ele>
        <time>2016-11-20T09:59:01.000Z</time>
      </trkpt>
      <trkpt lat="46.77068" lon="0.43625">
        <ele>201</ele>
        <time>2016-11-20T09:59:06.000Z</time>
      </trkpt>
      <trkpt lat="46.77064" lon="0.43613">
        <ele>196</ele>
        <time>2016-11-20T09:59:14.000Z</time>
      </trkpt>
      <trkpt lat="46.77058" lon="0.43599">
        <ele>199</ele>
        <time>2016-11-20T09:59:22.000Z</time>
      </trkpt>
      <trkpt lat="46.77052" lon="0.43586">
        <ele>199</ele>
        <time>2016-11-20T09:59:25.000Z</time>
      </trkpt>
      <trkpt lat="46.77047" lon="0.4357">
        <ele>201</ele>
        <time>2016-11-20T09:59:28.000Z</time>
      </trkpt>
      <trkpt lat="46.77042" lon="0.43557">
        <ele>200</ele>
        <time>2016-11-20T09:59:30.000Z</time>
      </trkpt>
      <trkpt lat="46.77043" lon="0.43542">
        <ele>200</ele>
        <time>2016-11-20T09:59:34.000Z</time>
      </trkpt>
      <trkpt lat="46.77051" lon="0.43531">
        <ele>200</ele>
        <time>2016-11-20T09:59:37.000Z</time>
      </trkpt>
      <trkpt lat="46.77058" lon="0.4352">
        <ele>202</ele>
        <time>2016-11-20T09:59:39.000Z</time>
      </trkpt>
      <trkpt lat="46.77062" lon="0.43506">
        <ele>199</ele>
        <time>2016-11-20T09:59:42.000Z</time>
      </trkpt>
      <trkpt lat="46.77064" lon="0.43489">
        <ele>201</ele>
        <time>2016-11-20T09:59:46.000Z</time>
      </trkpt>
      <trkpt lat="46.77069" lon="0.43478">
        <ele>198</ele>
        <time>2016-11-20T09:59:50.000Z</time>
      </trkpt>
      <trkpt lat="46.77071" lon="0.43462">
        <ele>204</ele>
        <time>2016-11-20T09:59:54.000Z</time>
      </trkpt>
      <trkpt lat="46.77066" lon="0.43448">
        <ele>204</ele>
        <time>2016-11-20T09:59:57.000Z</time>
      </trkpt>
      <trkpt lat="46.77058" lon="0.4344">
        <ele>203</ele>
        <time>2016-11-20T10:00:00.000Z</time>
      </trkpt>
      <trkpt lat="46.77052" lon="0.4343">
        <ele>202</ele>
        <time>2016-11-20T10:00:06.000Z</time>
      </trkpt>
      <trkpt lat="46.77052" lon="0.43416">
        <ele>203</ele>
        <time>2016-11-20T10:00:10.000Z</time>
      </trkpt>
      <trkpt lat="46.77057" lon="0.43397">
        <ele>205</ele>
        <time>2016-11-20T10:00:13.000Z</time>
      </trkpt>
      <trkpt lat="46.77054" lon="0.43381">
        <ele>208</ele>
        <time>2016-11-20T10:00:17.000Z</time>
      </trkpt>
      <trkpt lat="46.77061" lon="0.43369">
        <ele>208</ele>
        <time>2016-11-20T10:00:20.000Z</time>
      </trkpt>
      <trkpt lat="46.77071" lon="0.43365">
        <ele>207</ele>
        <time>2016-11-20T10:00:22.000Z</time>
      </trkpt>
      <trkpt lat="46.77081" lon="0.43361">
        <ele>207</ele>
        <time>2016-11-20T10:00:24.000Z</time>
      </trkpt>
      <trkpt lat="46.77089" lon="0.43356">
        <ele>207</ele>
        <time>2016-11-20T10:00:26.000Z</time>
      </trkpt>
      <trkpt lat="46.77097" lon="0.43343">
        <ele>209</ele>
        <time>2016-11-20T10:00:29.000Z</time>
      </trkpt>
      <trkpt lat="46.77106" lon="0.43339">
        <ele>206</ele>
        <time>2016-11-20T10:00:34.000Z</time>
      </trkpt>
      <trkpt lat="46.7711" lon="0.43325">
        <ele>204</ele>
        <time>2016-11-20T10:00:38.000Z</time>
      </trkpt>
      <trkpt lat="46.77108" lon="0.43311">
        <ele>205</ele>
        <time>2016-11-20T10:00:42.000Z</time>
      </trkpt>
      <trkpt lat="46.77108" lon="0.43297">
        <ele>206</ele>
        <time>2016-11-20T10:00:46.000Z</time>
      </trkpt>
      <trkpt lat="46.77107" lon="0.43277">
        <ele>209</ele>
        <time>2016-11-20T10:00:54.000Z</time>
      </trkpt>
      <trkpt lat="46.77109" lon="0.43261">
        <ele>209</ele>
        <time>2016-11-20T10:00:57.000Z</time>
      </trkpt>
      <trkpt lat="46.77116" lon="0.43252">
        <ele>208</ele>
        <time>2016-11-20T10:01:00.000Z</time>
      </trkpt>
      <trkpt lat="46.77124" lon="0.43244">
        <ele>208</ele>
        <time>2016-11-20T10:01:03.000Z</time>
      </trkpt>
      <trkpt lat="46.77135" lon="0.43247">
        <ele>205</ele>
        <time>2016-11-20T10:01:06.000Z</time>
      </trkpt>
      <trkpt lat="46.77145" lon="0.43241">
        <ele>205</ele>
        <time>2016-11-20T10:01:09.000Z</time>
      </trkpt>
      <trkpt lat="46.77148" lon="0.43226">
        <ele>201</ele>
        <time>2016-11-20T10:01:14.000Z</time>
      </trkpt>
      <trkpt lat="46.77144" lon="0.43215">
        <ele>201</ele>
        <time>2016-11-20T10:01:16.000Z</time>
      </trkpt>
      <trkpt lat="46.77139" lon="0.43201">
        <ele>199</ele>
        <time>2016-11-20T10:01:18.000Z</time>
      </trkpt>
      <trkpt lat="46.77134" lon="0.43188">
        <ele>199</ele>
        <time>2016-11-20T10:01:20.000Z</time>
      </trkpt>
      <trkpt lat="46.77129" lon="0.43169">
        <ele>198</ele>
        <time>2016-11-20T10:01:23.000Z</time>
      </trkpt>
      <trkpt lat="46.77124" lon="0.43152">
        <ele>199</ele>
        <time>2016-11-20T10:01:25.000Z</time>
      </trkpt>
      <trkpt lat="46.77119" lon="0.43137">
        <ele>199</ele>
        <time>2016-11-20T10:01:27.000Z</time>
      </trkpt>
      <trkpt lat="46.77112" lon="0.43117">
        <ele>196</ele>
        <time>2016-11-20T10:01:30.000Z</time>
      </trkpt>
      <trkpt lat="46.77108" lon="0.43099">
        <ele>200</ele>
        <time>2016-11-20T10:01:33.000Z</time>
      </trkpt>
      <trkpt lat="46.77103" lon="0.43083">
        <ele>200</ele>
        <time>2016-11-20T10:01:35.000Z</time>
      </trkpt>
      <trkpt lat="46.77096" lon="0.43068">
        <ele>197</ele>
        <time>2016-11-20T10:01:37.000Z</time>
      </trkpt>
      <trkpt lat="46.7709" lon="0.43056">
        <ele>198</ele>
        <time>2016-11-20T10:01:39.000Z</time>
      </trkpt>
      <trkpt lat="46.77086" lon="0.43041">
        <ele>199</ele>
        <time>2016-11-20T10:01:41.000Z</time>
      </trkpt>
      <trkpt lat="46.77081" lon="0.43028">
        <ele>200</ele>
        <time>2016-11-20T10:01:43.000Z</time>
      </trkpt>
      <trkpt lat="46.77076" lon="0.43015">
        <ele>198</ele>
        <time>2016-11-20T10:01:45.000Z</time>
      </trkpt>
      <trkpt lat="46.77071" lon="0.43003">
        <ele>198</ele>
        <time>2016-11-20T10:01:47.000Z</time>
      </trkpt>
      <trkpt lat="46.77067" lon="0.42991">
        <ele>198</ele>
        <time>2016-11-20T10:01:49.000Z</time>
      </trkpt>
      <trkpt lat="46.77061" lon="0.42974">
        <ele>200</ele>
        <time>2016-11-20T10:01:52.000Z</time>
      </trkpt>
      <trkpt lat="46.77058" lon="0.42955">
        <ele>198</ele>
        <time>2016-11-20T10:01:55.000Z</time>
      </trkpt>
      <trkpt lat="46.77049" lon="0.42944">
        <ele>198</ele>
        <time>2016-11-20T10:01:58.000Z</time>
      </trkpt>
      <trkpt lat="46.7704" lon="0.42946">
        <ele>202</ele>
        <time>2016-11-20T10:02:04.000Z</time>
      </trkpt>
      <trkpt lat="46.77028" lon="0.42952">
        <ele>202</ele>
        <time>2016-11-20T10:02:06.000Z</time>
      </trkpt>
      <trkpt lat="46.77018" lon="0.42957">
        <ele>200</ele>
        <time>2016-11-20T10:02:09.000Z</time>
      </trkpt>
      <trkpt lat="46.77007" lon="0.42961">
        <ele>201</ele>
        <time>2016-11-20T10:02:12.000Z</time>
      </trkpt>
      <trkpt lat="46.76998" lon="0.42969">
        <ele>204</ele>
        <time>2016-11-20T10:02:16.000Z</time>
      </trkpt>
      <trkpt lat="46.76988" lon="0.42978">
        <ele>204</ele>
        <time>2016-11-20T10:02:20.000Z</time>
      </trkpt>
      <trkpt lat="46.76977" lon="0.42982">
        <ele>202</ele>
        <time>2016-11-20T10:02:22.000Z</time>
      </trkpt>
      <trkpt lat="46.76965" lon="0.42985">
        <ele>198</ele>
        <time>2016-11-20T10:02:24.000Z</time>
      </trkpt>
      <trkpt lat="46.76952" lon="0.42989">
        <ele>198</ele>
        <time>2016-11-20T10:02:27.000Z</time>
      </trkpt>
      <trkpt lat="46.7694" lon="0.42997">
        <ele>200</ele>
        <time>2016-11-20T10:02:31.000Z</time>
      </trkpt>
      <trkpt lat="46.76931" lon="0.43002">
        <ele>200</ele>
        <time>2016-11-20T10:02:33.000Z</time>
      </trkpt>
      <trkpt lat="46.76921" lon="0.4301">
        <ele>203</ele>
        <time>2016-11-20T10:02:36.000Z</time>
      </trkpt>
      <trkpt lat="46.7691" lon="0.43014">
        <ele>200</ele>
        <time>2016-11-20T10:02:38.000Z</time>
      </trkpt>
      <trkpt lat="46.76898" lon="0.43021">
        <ele>201</ele>
        <time>2016-11-20T10:02:41.000Z</time>
      </trkpt>
      <trkpt lat="46.76884" lon="0.43025">
        <ele>198</ele>
        <time>2016-11-20T10:02:43.000Z</time>
      </trkpt>
      <trkpt lat="46.76872" lon="0.43034">
        <ele>198</ele>
        <time>2016-11-20T10:02:46.000Z</time>
      </trkpt>
      <trkpt lat="46.76862" lon="0.43045">
        <ele>203</ele>
        <time>2016-11-20T10:02:49.000Z</time>
      </trkpt>
      <trkpt lat="46.76854" lon="0.43051">
        <ele>202</ele>
        <time>2016-11-20T10:02:51.000Z</time>
      </trkpt>
      <trkpt lat="46.76845" lon="0.43056">
        <ele>201</ele>
        <time>2016-11-20T10:02:53.000Z</time>
      </trkpt>
      <trkpt lat="46.76834" lon="0.43064">
        <ele>202</ele>
        <time>2016-11-20T10:02:56.000Z</time>
      </trkpt>
      <trkpt lat="46.76824" lon="0.4307">
        <ele>199</ele>
        <time>2016-11-20T10:02:58.000Z</time>
      </trkpt>
      <trkpt lat="46.76816" lon="0.43079">
        <ele>201</ele>
        <time>2016-11-20T10:03:01.000Z</time>
      </trkpt>
      <trkpt lat="46.76804" lon="0.43087">
        <ele>201</ele>
        <time>2016-11-20T10:03:04.000Z</time>
      </trkpt>
      <trkpt lat="46.76792" lon="0.43095">
        <ele>200</ele>
        <time>2016-11-20T10:03:06.000Z</time>
      </trkpt>
      <trkpt lat="46.76781" lon="0.43102">
        <ele>200</ele>
        <time>2016-11-20T10:03:08.000Z</time>
      </trkpt>
      <trkpt lat="46.76772" lon="0.43111">
        <ele>198</ele>
        <time>2016-11-20T10:03:10.000Z</time>
      </trkpt>
      <trkpt lat="46.76762" lon="0.43116">
        <ele>195</ele>
        <time>2016-11-20T10:03:12.000Z</time>
      </trkpt>
      <trkpt lat="46.76754" lon="0.43121">
        <ele>194</ele>
        <time>2016-11-20T10:03:14.000Z</time>
      </trkpt>
      <trkpt lat="46.76745" lon="0.43127">
        <ele>195</ele>
        <time>2016-11-20T10:03:16.000Z</time>
      </trkpt>
      <trkpt lat="46.76735" lon="0.43135">
        <ele>197</ele>
        <time>2016-11-20T10:03:18.000Z</time>
      </trkpt>
      <trkpt lat="46.76726" lon="0.4314">
        <ele>198</ele>
        <time>2016-11-20T10:03:20.000Z</time>
      </trkpt>
      <trkpt lat="46.76718" lon="0.43147">
        <ele>197</ele>
        <time>2016-11-20T10:03:22.000Z</time>
      </trkpt>
      <trkpt lat="46.76709" lon="0.43157">
        <ele>198</ele>
        <time>2016-11-20T10:03:26.000Z</time>
      </trkpt>
      <trkpt lat="46.767" lon="0.43165">
        <ele>197</ele>
        <time>2016-11-20T10:03:29.000Z</time>
      </trkpt>
      <trkpt lat="46.76689" lon="0.43173">
        <ele>197</ele>
        <time>2016-11-20T10:03:31.000Z</time>
      </trkpt>
      <trkpt lat="46.76675" lon="0.43169">
        <ele>189</ele>
        <time>2016-11-20T10:03:33.000Z</time>
      </trkpt>
      <trkpt lat="46.76666" lon="0.43164">
        <ele>193</ele>
        <time>2016-11-20T10:03:36.000Z</time>
      </trkpt>
      <trkpt lat="46.76664" lon="0.43148">
        <ele>193</ele>
        <time>2016-11-20T10:03:38.000Z</time>
      </trkpt>
      <trkpt lat="46.7666" lon="0.43134">
        <ele>191</ele>
        <time>2016-11-20T10:03:40.000Z</time>
      </trkpt>
      <trkpt lat="46.76657" lon="0.43119">
        <ele>193</ele>
        <time>2016-11-20T10:03:42.000Z</time>
      </trkpt>
      <trkpt lat="46.76652" lon="0.43105">
        <ele>193</ele>
        <time>2016-11-20T10:03:44.000Z</time>
      </trkpt>
      <trkpt lat="46.76648" lon="0.43092">
        <ele>192</ele>
        <time>2016-11-20T10:03:46.000Z</time>
      </trkpt>
      <trkpt lat="46.76645" lon="0.43079">
        <ele>191</ele>
        <time>2016-11-20T10:03:48.000Z</time>
      </trkpt>
      <trkpt lat="46.76642" lon="0.43066">
        <ele>192</ele>
        <time>2016-11-20T10:03:50.000Z</time>
      </trkpt>
      <trkpt lat="46.76638" lon="0.43053">
        <ele>192</ele>
        <time>2016-11-20T10:03:52.000Z</time>
      </trkpt>
      <trkpt lat="46.76635" lon="0.43041">
        <ele>194</ele>
        <time>2016-11-20T10:03:54.000Z</time>
      </trkpt>
      <trkpt lat="46.76627" lon="0.43031">
        <ele>193</ele>
        <time>2016-11-20T10:03:56.000Z</time>
      </trkpt>
      <trkpt lat="46.76622" lon="0.43016">
        <ele>195</ele>
        <time>2016-11-20T10:03:58.000Z</time>
      </trkpt>
      <trkpt lat="46.76619" lon="0.43003">
        <ele>194</ele>
        <time>2016-11-20T10:04:00.000Z</time>
      </trkpt>
      <trkpt lat="46.76612" lon="0.42987">
        <ele>195</ele>
        <time>2016-11-20T10:04:03.000Z</time>
      </trkpt>
      <trkpt lat="46.76605" lon="0.42977">
        <ele>193</ele>
        <time>2016-11-20T10:04:05.000Z</time>
      </trkpt>
      <trkpt lat="46.766" lon="0.42965">
        <ele>189</ele>
        <time>2016-11-20T10:04:07.000Z</time>
      </trkpt>
      <trkpt lat="46.76593" lon="0.42954">
        <ele>189</ele>
        <time>2016-11-20T10:04:09.000Z</time>
      </trkpt>
      <trkpt lat="46.76585" lon="0.4294">
        <ele>190</ele>
        <time>2016-11-20T10:04:12.000Z</time>
      </trkpt>
      <trkpt lat="46.76579" lon="0.4293">
        <ele>192</ele>
        <time>2016-11-20T10:04:14.000Z</time>
      </trkpt>
      <trkpt lat="46.76572" lon="0.42919">
        <ele>192</ele>
        <time>2016-11-20T10:04:16.000Z</time>
      </trkpt>
      <trkpt lat="46.76564" lon="0.42902">
        <ele>191</ele>
        <time>2016-11-20T10:04:18.000Z</time>
      </trkpt>
      <trkpt lat="46.76557" lon="0.42889">
        <ele>192</ele>
        <time>2016-11-20T10:04:20.000Z</time>
      </trkpt>
      <trkpt lat="46.7655" lon="0.42878">
        <ele>192</ele>
        <time>2016-11-20T10:04:22.000Z</time>
      </trkpt>
      <trkpt lat="46.76541" lon="0.42862">
        <ele>195</ele>
        <time>2016-11-20T10:04:25.000Z</time>
      </trkpt>
      <trkpt lat="46.76534" lon="0.42853">
        <ele>195</ele>
        <time>2016-11-20T10:04:27.000Z</time>
      </trkpt>
      <trkpt lat="46.76528" lon="0.42842">
        <ele>196</ele>
        <time>2016-11-20T10:04:29.000Z</time>
      </trkpt>
      <trkpt lat="46.76521" lon="0.42832">
        <ele>196</ele>
        <time>2016-11-20T10:04:31.000Z</time>
      </trkpt>
      <trkpt lat="46.76512" lon="0.42818">
        <ele>196</ele>
        <time>2016-11-20T10:04:34.000Z</time>
      </trkpt>
      <trkpt lat="46.76504" lon="0.4281">
        <ele>196</ele>
        <time>2016-11-20T10:04:36.000Z</time>
      </trkpt>
      <trkpt lat="46.76497" lon="0.428">
        <ele>195</ele>
        <time>2016-11-20T10:04:38.000Z</time>
      </trkpt>
      <trkpt lat="46.76491" lon="0.4279">
        <ele>194</ele>
        <time>2016-11-20T10:04:40.000Z</time>
      </trkpt>
      <trkpt lat="46.76485" lon="0.42776">
        <ele>196</ele>
        <time>2016-11-20T10:04:43.000Z</time>
      </trkpt>
      <trkpt lat="46.76468" lon="0.42785">
        <ele>196</ele>
        <time>2016-11-20T10:05:12.000Z</time>
      </trkpt>
      <trkpt lat="46.76459" lon="0.42798">
        <ele>197</ele>
        <time>2016-11-20T10:05:14.000Z</time>
      </trkpt>
      <trkpt lat="46.7645" lon="0.42804">
        <ele>198</ele>
        <time>2016-11-20T10:05:16.000Z</time>
      </trkpt>
      <trkpt lat="46.76441" lon="0.42808">
        <ele>198</ele>
        <time>2016-11-20T10:05:18.000Z</time>
      </trkpt>
      <trkpt lat="46.76433" lon="0.4282">
        <ele>201</ele>
        <time>2016-11-20T10:05:22.000Z</time>
      </trkpt>
      <trkpt lat="46.76422" lon="0.42823">
        <ele>198</ele>
        <time>2016-11-20T10:05:24.000Z</time>
      </trkpt>
      <trkpt lat="46.7641" lon="0.42827">
        <ele>199</ele>
        <time>2016-11-20T10:05:27.000Z</time>
      </trkpt>
      <trkpt lat="46.764" lon="0.4283">
        <ele>197</ele>
        <time>2016-11-20T10:05:30.000Z</time>
      </trkpt>
      <trkpt lat="46.76389" lon="0.42835">
        <ele>198</ele>
        <time>2016-11-20T10:05:33.000Z</time>
      </trkpt>
      <trkpt lat="46.76376" lon="0.42842">
        <ele>199</ele>
        <time>2016-11-20T10:05:39.000Z</time>
      </trkpt>
      <trkpt lat="46.76365" lon="0.42851">
        <ele>206</ele>
        <time>2016-11-20T10:05:44.000Z</time>
      </trkpt>
      <trkpt lat="46.7635" lon="0.42843">
        <ele>201</ele>
        <time>2016-11-20T10:05:47.000Z</time>
      </trkpt>
      <trkpt lat="46.76338" lon="0.4284">
        <ele>198</ele>
        <time>2016-11-20T10:05:50.000Z</time>
      </trkpt>
      <trkpt lat="46.76329" lon="0.42834">
        <ele>197</ele>
        <time>2016-11-20T10:05:54.000Z</time>
      </trkpt>
      <trkpt lat="46.76321" lon="0.42828">
        <ele>194</ele>
        <time>2016-11-20T10:05:56.000Z</time>
      </trkpt>
      <trkpt lat="46.76311" lon="0.42832">
        <ele>196</ele>
        <time>2016-11-20T10:06:03.000Z</time>
      </trkpt>
      <trkpt lat="46.76302" lon="0.42847">
        <ele>196</ele>
        <time>2016-11-20T10:06:06.000Z</time>
      </trkpt>
      <trkpt lat="46.76293" lon="0.42865">
        <ele>198</ele>
        <time>2016-11-20T10:06:09.000Z</time>
      </trkpt>
      <trkpt lat="46.76282" lon="0.42879">
        <ele>196</ele>
        <time>2016-11-20T10:06:11.000Z</time>
      </trkpt>
      <trkpt lat="46.76271" lon="0.42889">
        <ele>193</ele>
        <time>2016-11-20T10:06:13.000Z</time>
      </trkpt>
      <trkpt lat="46.76267" lon="0.42901">
        <ele>191</ele>
        <time>2016-11-20T10:06:14.000Z</time>
      </trkpt>
      <trkpt lat="46.7626" lon="0.42914">
        <ele>193</ele>
        <time>2016-11-20T10:06:17.000Z</time>
      </trkpt>
      <trkpt lat="46.76255" lon="0.42926">
        <ele>192</ele>
        <time>2016-11-20T10:06:19.000Z</time>
      </trkpt>
      <trkpt lat="46.76247" lon="0.42939">
        <ele>193</ele>
        <time>2016-11-20T10:06:22.000Z</time>
      </trkpt>
      <trkpt lat="46.76237" lon="0.42952">
        <ele>193</ele>
        <time>2016-11-20T10:06:24.000Z</time>
      </trkpt>
      <trkpt lat="46.76228" lon="0.4297">
        <ele>192</ele>
        <time>2016-11-20T10:06:26.000Z</time>
      </trkpt>
      <trkpt lat="46.76216" lon="0.42987">
        <ele>186</ele>
        <time>2016-11-20T10:06:28.000Z</time>
      </trkpt>
      <trkpt lat="46.76205" lon="0.42991">
        <ele>189</ele>
        <time>2016-11-20T10:06:30.000Z</time>
      </trkpt>
      <trkpt lat="46.76196" lon="0.43002">
        <ele>191</ele>
        <time>2016-11-20T10:06:33.000Z</time>
      </trkpt>
      <trkpt lat="46.76191" lon="0.43013">
        <ele>189</ele>
        <time>2016-11-20T10:06:35.000Z</time>
      </trkpt>
      <trkpt lat="46.76192" lon="0.43026">
        <ele>192</ele>
        <time>2016-11-20T10:06:39.000Z</time>
      </trkpt>
      <trkpt lat="46.76193" lon="0.43043">
        <ele>188</ele>
        <time>2016-11-20T10:06:41.000Z</time>
      </trkpt>
      <trkpt lat="46.76189" lon="0.43058">
        <ele>187</ele>
        <time>2016-11-20T10:06:43.000Z</time>
      </trkpt>
      <trkpt lat="46.76179" lon="0.43068">
        <ele>190</ele>
        <time>2016-11-20T10:06:46.000Z</time>
      </trkpt>
      <trkpt lat="46.76172" lon="0.43078">
        <ele>190</ele>
        <time>2016-11-20T10:06:49.000Z</time>
      </trkpt>
      <trkpt lat="46.76167" lon="0.43089">
        <ele>186</ele>
        <time>2016-11-20T10:06:53.000Z</time>
      </trkpt>
      <trkpt lat="46.76172" lon="0.43101">
        <ele>185</ele>
        <time>2016-11-20T10:06:57.000Z</time>
      </trkpt>
      <trkpt lat="46.76179" lon="0.43114">
        <ele>183</ele>
        <time>2016-11-20T10:07:01.000Z</time>
      </trkpt>
      <trkpt lat="46.76186" lon="0.43123">
        <ele>182</ele>
        <time>2016-11-20T10:07:05.000Z</time>
      </trkpt>
      <trkpt lat="46.76196" lon="0.43129">
        <ele>182</ele>
        <time>2016-11-20T10:07:10.000Z</time>
      </trkpt>
      <trkpt lat="46.76205" lon="0.43133">
        <ele>182</ele>
        <time>2016-11-20T10:07:13.000Z</time>
      </trkpt>
      <trkpt lat="46.76216" lon="0.43136">
        <ele>183</ele>
        <time>2016-11-20T10:07:17.000Z</time>
      </trkpt>
      <trkpt lat="46.76226" lon="0.43139">
        <ele>183</ele>
        <time>2016-11-20T10:07:20.000Z</time>
      </trkpt>
      <trkpt lat="46.76235" lon="0.43144">
        <ele>184</ele>
        <time>2016-11-20T10:07:25.000Z</time>
      </trkpt>
      <trkpt lat="46.76246" lon="0.4315">
        <ele>181</ele>
        <time>2016-11-20T10:07:29.000Z</time>
      </trkpt>
      <trkpt lat="46.76257" lon="0.43156">
        <ele>182</ele>
        <time>2016-11-20T10:07:33.000Z</time>
      </trkpt>
      <trkpt lat="46.76267" lon="0.43164">
        <ele>182</ele>
        <time>2016-11-20T10:07:38.000Z</time>
      </trkpt>
      <trkpt lat="46.76277" lon="0.43172">
        <ele>183</ele>
        <time>2016-11-20T10:07:42.000Z</time>
      </trkpt>
      <trkpt lat="46.76287" lon="0.43179">
        <ele>184</ele>
        <time>2016-11-20T10:07:47.000Z</time>
      </trkpt>
      <trkpt lat="46.76295" lon="0.43188">
        <ele>184</ele>
        <time>2016-11-20T10:07:50.000Z</time>
      </trkpt>
      <trkpt lat="46.76303" lon="0.43197">
        <ele>182</ele>
        <time>2016-11-20T10:07:53.000Z</time>
      </trkpt>
      <trkpt lat="46.76312" lon="0.43205">
        <ele>179</ele>
        <time>2016-11-20T10:07:57.000Z</time>
      </trkpt>
      <trkpt lat="46.76319" lon="0.43213">
        <ele>181</ele>
        <time>2016-11-20T10:08:01.000Z</time>
      </trkpt>
      <trkpt lat="46.76325" lon="0.43223">
        <ele>181</ele>
        <time>2016-11-20T10:08:04.000Z</time>
      </trkpt>
      <trkpt lat="46.76333" lon="0.43235">
        <ele>182</ele>
        <time>2016-11-20T10:08:08.000Z</time>
      </trkpt>
      <trkpt lat="46.76341" lon="0.43243">
        <ele>182</ele>
        <time>2016-11-20T10:08:12.000Z</time>
      </trkpt>
      <trkpt lat="46.76347" lon="0.43254">
        <ele>183</ele>
        <time>2016-11-20T10:08:16.000Z</time>
      </trkpt>
      <trkpt lat="46.76354" lon="0.43268">
        <ele>181</ele>
        <time>2016-11-20T10:08:21.000Z</time>
      </trkpt>
      <trkpt lat="46.7636" lon="0.43281">
        <ele>183</ele>
        <time>2016-11-20T10:08:24.000Z</time>
      </trkpt>
      <trkpt lat="46.76368" lon="0.43293">
        <ele>184</ele>
        <time>2016-11-20T10:08:28.000Z</time>
      </trkpt>
      <trkpt lat="46.76376" lon="0.43305">
        <ele>186</ele>
        <time>2016-11-20T10:08:33.000Z</time>
      </trkpt>
      <trkpt lat="46.76384" lon="0.43315">
        <ele>188</ele>
        <time>2016-11-20T10:08:37.000Z</time>
      </trkpt>
      <trkpt lat="46.76392" lon="0.43325">
        <ele>192</ele>
        <time>2016-11-20T10:08:41.000Z</time>
      </trkpt>
      <trkpt lat="46.76399" lon="0.43337">
        <ele>193</ele>
        <time>2016-11-20T10:08:44.000Z</time>
      </trkpt>
      <trkpt lat="46.76405" lon="0.4335">
        <ele>194</ele>
        <time>2016-11-20T10:08:47.000Z</time>
      </trkpt>
      <trkpt lat="46.76413" lon="0.43359">
        <ele>195</ele>
        <time>2016-11-20T10:08:50.000Z</time>
      </trkpt>
      <trkpt lat="46.76424" lon="0.43367">
        <ele>198</ele>
        <time>2016-11-20T10:08:54.000Z</time>
      </trkpt>
      <trkpt lat="46.76432" lon="0.43376">
        <ele>198</ele>
        <time>2016-11-20T10:08:57.000Z</time>
      </trkpt>
      <trkpt lat="46.7644" lon="0.43382">
        <ele>198</ele>
        <time>2016-11-20T10:09:00.000Z</time>
      </trkpt>
      <trkpt lat="46.7645" lon="0.43389">
        <ele>197</ele>
        <time>2016-11-20T10:09:04.000Z</time>
      </trkpt>
      <trkpt lat="46.7646" lon="0.43395">
        <ele>199</ele>
        <time>2016-11-20T10:09:08.000Z</time>
      </trkpt>
      <trkpt lat="46.76469" lon="0.43401">
        <ele>197</ele>
        <time>2016-11-20T10:09:12.000Z</time>
      </trkpt>
      <trkpt lat="46.76476" lon="0.43407">
        <ele>196</ele>
        <time>2016-11-20T10:09:14.000Z</time>
      </trkpt>
      <trkpt lat="46.76486" lon="0.43424">
        <ele>193</ele>
        <time>2016-11-20T10:09:17.000Z</time>
      </trkpt>
      <trkpt lat="46.76491" lon="0.43441">
        <ele>192</ele>
        <time>2016-11-20T10:09:20.000Z</time>
      </trkpt>
      <trkpt lat="46.76495" lon="0.43456">
        <ele>197</ele>
        <time>2016-11-20T10:09:24.000Z</time>
      </trkpt>
      <trkpt lat="46.765" lon="0.43469">
        <ele>198</ele>
        <time>2016-11-20T10:09:28.000Z</time>
      </trkpt>
      <trkpt lat="46.76508" lon="0.43479">
        <ele>201</ele>
        <time>2016-11-20T10:09:33.000Z</time>
      </trkpt>
      <trkpt lat="46.76499" lon="0.43488">
        <ele>199</ele>
        <time>2016-11-20T10:09:36.000Z</time>
      </trkpt>
      <trkpt lat="46.76501" lon="0.43503">
        <ele>194</ele>
        <time>2016-11-20T10:09:40.000Z</time>
      </trkpt>
      <trkpt lat="46.76492" lon="0.43508">
        <ele>193</ele>
        <time>2016-11-20T10:09:47.000Z</time>
      </trkpt>
      <trkpt lat="46.76482" lon="0.43506">
        <ele>202</ele>
        <time>2016-11-20T10:09:54.000Z</time>
      </trkpt>
      <trkpt lat="46.76474" lon="0.43499">
        <ele>198</ele>
        <time>2016-11-20T10:09:59.000Z</time>
      </trkpt>
      <trkpt lat="46.76467" lon="0.43489">
        <ele>196</ele>
        <time>2016-11-20T10:10:03.000Z</time>
      </trkpt>
      <trkpt lat="46.76459" lon="0.43479">
        <ele>200</ele>
        <time>2016-11-20T10:10:08.000Z</time>
      </trkpt>
      <trkpt lat="46.76454" lon="0.43468">
        <ele>202</ele>
        <time>2016-11-20T10:10:12.000Z</time>
      </trkpt>
      <trkpt lat="46.76456" lon="0.43455">
        <ele>199</ele>
        <time>2016-11-20T10:10:17.000Z</time>
      </trkpt>
      <trkpt lat="46.76447" lon="0.43449">
        <ele>197</ele>
        <time>2016-11-20T10:10:23.000Z</time>
      </trkpt>
      <trkpt lat="46.76436" lon="0.4345">
        <ele>198</ele>
        <time>2016-11-20T10:10:26.000Z</time>
      </trkpt>
      <trkpt lat="46.76425" lon="0.43447">
        <ele>198</ele>
        <time>2016-11-20T10:10:29.000Z</time>
      </trkpt>
      <trkpt lat="46.76416" lon="0.4344">
        <ele>196</ele>
        <time>2016-11-20T10:10:32.000Z</time>
      </trkpt>
      <trkpt lat="46.76408" lon="0.43433">
        <ele>191</ele>
        <time>2016-11-20T10:10:37.000Z</time>
      </trkpt>
      <trkpt lat="46.764" lon="0.43426">
        <ele>189</ele>
        <time>2016-11-20T10:10:46.000Z</time>
      </trkpt>
      <trkpt lat="46.76395" lon="0.43415">
        <ele>185</ele>
        <time>2016-11-20T10:10:53.000Z</time>
      </trkpt>
      <trkpt lat="46.76393" lon="0.43401">
        <ele>184</ele>
        <time>2016-11-20T10:10:57.000Z</time>
      </trkpt>
      <trkpt lat="46.76391" lon="0.43386">
        <ele>188</ele>
        <time>2016-11-20T10:11:01.000Z</time>
      </trkpt>
      <trkpt lat="46.76384" lon="0.43373">
        <ele>189</ele>
        <time>2016-11-20T10:11:05.000Z</time>
      </trkpt>
      <trkpt lat="46.76379" lon="0.43357">
        <ele>192</ele>
        <time>2016-11-20T10:11:11.000Z</time>
      </trkpt>
      <trkpt lat="46.76373" lon="0.43346">
        <ele>191</ele>
        <time>2016-11-20T10:11:17.000Z</time>
      </trkpt>
      <trkpt lat="46.76365" lon="0.43338">
        <ele>188</ele>
        <time>2016-11-20T10:11:21.000Z</time>
      </trkpt>
      <trkpt lat="46.76358" lon="0.43325">
        <ele>188</ele>
        <time>2016-11-20T10:11:26.000Z</time>
      </trkpt>
      <trkpt lat="46.76349" lon="0.43315">
        <ele>186</ele>
        <time>2016-11-20T10:11:29.000Z</time>
      </trkpt>
      <trkpt lat="46.76342" lon="0.43306">
        <ele>183</ele>
        <time>2016-11-20T10:11:32.000Z</time>
      </trkpt>
      <trkpt lat="46.76331" lon="0.43297">
        <ele>182</ele>
        <time>2016-11-20T10:11:37.000Z</time>
      </trkpt>
      <trkpt lat="46.76327" lon="0.43282">
        <ele>182</ele>
        <time>2016-11-20T10:11:41.000Z</time>
      </trkpt>
      <trkpt lat="46.7632" lon="0.43274">
        <ele>187</ele>
        <time>2016-11-20T10:11:46.000Z</time>
      </trkpt>
      <trkpt lat="46.76313" lon="0.43264">
        <ele>184</ele>
        <time>2016-11-20T10:11:49.000Z</time>
      </trkpt>
      <trkpt lat="46.763" lon="0.43263">
        <ele>188</ele>
        <time>2016-11-20T10:11:52.000Z</time>
      </trkpt>
      <trkpt lat="46.7629" lon="0.43256">
        <ele>193</ele>
        <time>2016-11-20T10:11:56.000Z</time>
      </trkpt>
      <trkpt lat="46.76281" lon="0.43248">
        <ele>189</ele>
        <time>2016-11-20T10:11:59.000Z</time>
      </trkpt>
      <trkpt lat="46.76272" lon="0.43243">
        <ele>189</ele>
        <time>2016-11-20T10:12:05.000Z</time>
      </trkpt>
      <trkpt lat="46.76263" lon="0.43241">
        <ele>189</ele>
        <time>2016-11-20T10:12:08.000Z</time>
      </trkpt>
      <trkpt lat="46.76253" lon="0.43241">
        <ele>189</ele>
        <time>2016-11-20T10:12:12.000Z</time>
      </trkpt>
      <trkpt lat="46.76239" lon="0.43242">
        <ele>188</ele>
        <time>2016-11-20T10:12:16.000Z</time>
      </trkpt>
      <trkpt lat="46.76229" lon="0.43242">
        <ele>191</ele>
        <time>2016-11-20T10:12:19.000Z</time>
      </trkpt>
      <trkpt lat="46.76221" lon="0.43232">
        <ele>189</ele>
        <time>2016-11-20T10:12:22.000Z</time>
      </trkpt>
      <trkpt lat="46.76214" lon="0.43219">
        <ele>187</ele>
        <time>2016-11-20T10:12:24.000Z</time>
      </trkpt>
      <trkpt lat="46.76206" lon="0.43212">
        <ele>188</ele>
        <time>2016-11-20T10:12:27.000Z</time>
      </trkpt>
      <trkpt lat="46.76197" lon="0.43198">
        <ele>186</ele>
        <time>2016-11-20T10:12:30.000Z</time>
      </trkpt>
      <trkpt lat="46.76189" lon="0.43186">
        <ele>187</ele>
        <time>2016-11-20T10:12:33.000Z</time>
      </trkpt>
      <trkpt lat="46.76183" lon="0.43175">
        <ele>188</ele>
        <time>2016-11-20T10:12:36.000Z</time>
      </trkpt>
      <trkpt lat="46.76171" lon="0.43166">
        <ele>188</ele>
        <time>2016-11-20T10:13:02.000Z</time>
      </trkpt>
      <trkpt lat="46.76161" lon="0.43167">
        <ele>184</ele>
        <time>2016-11-20T10:13:06.000Z</time>
      </trkpt>
      <trkpt lat="46.76152" lon="0.43171">
        <ele>185</ele>
        <time>2016-11-20T10:13:16.000Z</time>
      </trkpt>
      <trkpt lat="46.76142" lon="0.43169">
        <ele>190</ele>
        <time>2016-11-20T10:13:19.000Z</time>
      </trkpt>
      <trkpt lat="46.76135" lon="0.4316">
        <ele>190</ele>
        <time>2016-11-20T10:13:22.000Z</time>
      </trkpt>
      <trkpt lat="46.76125" lon="0.43155">
        <ele>186</ele>
        <time>2016-11-20T10:13:24.000Z</time>
      </trkpt>
      <trkpt lat="46.76116" lon="0.43145">
        <ele>186</ele>
        <time>2016-11-20T10:13:28.000Z</time>
      </trkpt>
      <trkpt lat="46.7611" lon="0.43136">
        <ele>189</ele>
        <time>2016-11-20T10:13:33.000Z</time>
      </trkpt>
      <trkpt lat="46.76099" lon="0.43134">
        <ele>192</ele>
        <time>2016-11-20T10:13:47.000Z</time>
      </trkpt>
      <trkpt lat="46.76091" lon="0.4314">
        <ele>194</ele>
        <time>2016-11-20T10:13:53.000Z</time>
      </trkpt>
      <trkpt lat="46.76082" lon="0.43143">
        <ele>194</ele>
        <time>2016-11-20T10:14:05.000Z</time>
      </trkpt>
      <trkpt lat="46.76072" lon="0.43151">
        <ele>193</ele>
        <time>2016-11-20T10:14:19.000Z</time>
      </trkpt>
      <trkpt lat="46.76065" lon="0.43166">
        <ele>188</ele>
        <time>2016-11-20T10:14:27.000Z</time>
      </trkpt>
      <trkpt lat="46.76056" lon="0.43177">
        <ele>187</ele>
        <time>2016-11-20T10:14:32.000Z</time>
      </trkpt>
      <trkpt lat="46.76051" lon="0.43189">
        <ele>185</ele>
        <time>2016-11-20T10:14:36.000Z</time>
      </trkpt>
      <trkpt lat="46.76048" lon="0.43203">
        <ele>186</ele>
        <time>2016-11-20T10:14:43.000Z</time>
      </trkpt>
      <trkpt lat="46.7604" lon="0.4321">
        <ele>185</ele>
        <time>2016-11-20T10:14:46.000Z</time>
      </trkpt>
      <trkpt lat="46.76035" lon="0.43222">
        <ele>189</ele>
        <time>2016-11-20T10:14:52.000Z</time>
      </trkpt>
      <trkpt lat="46.76028" lon="0.43237">
        <ele>189</ele>
        <time>2016-11-20T10:14:58.000Z</time>
      </trkpt>
      <trkpt lat="46.76022" lon="0.4325">
        <ele>191</ele>
        <time>2016-11-20T10:15:03.000Z</time>
      </trkpt>
      <trkpt lat="46.76017" lon="0.43262">
        <ele>194</ele>
        <time>2016-11-20T10:15:09.000Z</time>
      </trkpt>
      <trkpt lat="46.7601" lon="0.43276">
        <ele>195</ele>
        <time>2016-11-20T10:15:14.000Z</time>
      </trkpt>
      <trkpt lat="46.76009" lon="0.43289">
        <ele>196</ele>
        <time>2016-11-20T10:15:18.000Z</time>
      </trkpt>
      <trkpt lat="46.76005" lon="0.43302">
        <ele>197</ele>
        <time>2016-11-20T10:15:24.000Z</time>
      </trkpt>
      <trkpt lat="46.75998" lon="0.43313">
        <ele>197</ele>
        <time>2016-11-20T10:15:28.000Z</time>
      </trkpt>
      <trkpt lat="46.75992" lon="0.43324">
        <ele>193</ele>
        <time>2016-11-20T10:15:31.000Z</time>
      </trkpt>
      <trkpt lat="46.75983" lon="0.43335">
        <ele>185</ele>
        <time>2016-11-20T10:15:34.000Z</time>
      </trkpt>
      <trkpt lat="46.75975" lon="0.43343">
        <ele>182</ele>
        <time>2016-11-20T10:15:38.000Z</time>
      </trkpt>
      <trkpt lat="46.7597" lon="0.43354">
        <ele>185</ele>
        <time>2016-11-20T10:15:42.000Z</time>
      </trkpt>
      <trkpt lat="46.75961" lon="0.43361">
        <ele>186</ele>
        <time>2016-11-20T10:15:46.000Z</time>
      </trkpt>
      <trkpt lat="46.75955" lon="0.43373">
        <ele>186</ele>
        <time>2016-11-20T10:15:50.000Z</time>
      </trkpt>
      <trkpt lat="46.75946" lon="0.43384">
        <ele>186</ele>
        <time>2016-11-20T10:15:53.000Z</time>
      </trkpt>
      <trkpt lat="46.75939" lon="0.43396">
        <ele>188</ele>
        <time>2016-11-20T10:15:57.000Z</time>
      </trkpt>
      <trkpt lat="46.7593" lon="0.43403">
        <ele>189</ele>
        <time>2016-11-20T10:16:00.000Z</time>
      </trkpt>
      <trkpt lat="46.75922" lon="0.43412">
        <ele>189</ele>
        <time>2016-11-20T10:16:03.000Z</time>
      </trkpt>
      <trkpt lat="46.75914" lon="0.43421">
        <ele>192</ele>
        <time>2016-11-20T10:16:06.000Z</time>
      </trkpt>
      <trkpt lat="46.75906" lon="0.43428">
        <ele>192</ele>
        <time>2016-11-20T10:16:09.000Z</time>
      </trkpt>
      <trkpt lat="46.75897" lon="0.43438">
        <ele>193</ele>
        <time>2016-11-20T10:16:13.000Z</time>
      </trkpt>
      <trkpt lat="46.75887" lon="0.43446">
        <ele>192</ele>
        <time>2016-11-20T10:16:16.000Z</time>
      </trkpt>
      <trkpt lat="46.75881" lon="0.43456">
        <ele>195</ele>
        <time>2016-11-20T10:16:20.000Z</time>
      </trkpt>
      <trkpt lat="46.75871" lon="0.43466">
        <ele>197</ele>
        <time>2016-11-20T10:16:24.000Z</time>
      </trkpt>
      <trkpt lat="46.75862" lon="0.43476">
        <ele>199</ele>
        <time>2016-11-20T10:16:28.000Z</time>
      </trkpt>
      <trkpt lat="46.75853" lon="0.43485">
        <ele>198</ele>
        <time>2016-11-20T10:16:32.000Z</time>
      </trkpt>
      <trkpt lat="46.75847" lon="0.43496">
        <ele>201</ele>
        <time>2016-11-20T10:16:37.000Z</time>
      </trkpt>
      <trkpt lat="46.75838" lon="0.43504">
        <ele>200</ele>
        <time>2016-11-20T10:16:40.000Z</time>
      </trkpt>
      <trkpt lat="46.75829" lon="0.43509">
        <ele>197</ele>
        <time>2016-11-20T10:16:42.000Z</time>
      </trkpt>
      <trkpt lat="46.75821" lon="0.4352">
        <ele>198</ele>
        <time>2016-11-20T10:16:46.000Z</time>
      </trkpt>
      <trkpt lat="46.75811" lon="0.43531">
        <ele>199</ele>
        <time>2016-11-20T10:16:50.000Z</time>
      </trkpt>
      <trkpt lat="46.75802" lon="0.4354">
        <ele>198</ele>
        <time>2016-11-20T10:16:53.000Z</time>
      </trkpt>
      <trkpt lat="46.75794" lon="0.4355">
        <ele>196</ele>
        <time>2016-11-20T10:16:57.000Z</time>
      </trkpt>
      <trkpt lat="46.75781" lon="0.43548">
        <ele>192</ele>
        <time>2016-11-20T10:17:00.000Z</time>
      </trkpt>
      <trkpt lat="46.75774" lon="0.4354">
        <ele>190</ele>
        <time>2016-11-20T10:17:02.000Z</time>
      </trkpt>
      <trkpt lat="46.75769" lon="0.43526">
        <ele>190</ele>
        <time>2016-11-20T10:17:05.000Z</time>
      </trkpt>
      <trkpt lat="46.75762" lon="0.43514">
        <ele>192</ele>
        <time>2016-11-20T10:17:08.000Z</time>
      </trkpt>
      <trkpt lat="46.75755" lon="0.43502">
        <ele>193</ele>
        <time>2016-11-20T10:17:11.000Z</time>
      </trkpt>
      <trkpt lat="46.75746" lon="0.43491">
        <ele>190</ele>
        <time>2016-11-20T10:17:14.000Z</time>
      </trkpt>
      <trkpt lat="46.75739" lon="0.4348">
        <ele>190</ele>
        <time>2016-11-20T10:17:18.000Z</time>
      </trkpt>
      <trkpt lat="46.75731" lon="0.43469">
        <ele>191</ele>
        <time>2016-11-20T10:17:21.000Z</time>
      </trkpt>
      <trkpt lat="46.75722" lon="0.4346">
        <ele>192</ele>
        <time>2016-11-20T10:17:24.000Z</time>
      </trkpt>
      <trkpt lat="46.75713" lon="0.43454">
        <ele>195</ele>
        <time>2016-11-20T10:17:27.000Z</time>
      </trkpt>
      <trkpt lat="46.75707" lon="0.43443">
        <ele>197</ele>
        <time>2016-11-20T10:17:30.000Z</time>
      </trkpt>
      <trkpt lat="46.757" lon="0.43433">
        <ele>192</ele>
        <time>2016-11-20T10:17:33.000Z</time>
      </trkpt>
      <trkpt lat="46.75695" lon="0.43419">
        <ele>195</ele>
        <time>2016-11-20T10:17:37.000Z</time>
      </trkpt>
      <trkpt lat="46.75692" lon="0.43405">
        <ele>194</ele>
        <time>2016-11-20T10:17:40.000Z</time>
      </trkpt>
      <trkpt lat="46.75689" lon="0.43391">
        <ele>196</ele>
        <time>2016-11-20T10:17:43.000Z</time>
      </trkpt>
      <trkpt lat="46.75681" lon="0.43376">
        <ele>196</ele>
        <time>2016-11-20T10:17:46.000Z</time>
      </trkpt>
      <trkpt lat="46.75677" lon="0.43358">
        <ele>194</ele>
        <time>2016-11-20T10:17:49.000Z</time>
      </trkpt>
      <trkpt lat="46.75674" lon="0.43346">
        <ele>195</ele>
        <time>2016-11-20T10:17:51.000Z</time>
      </trkpt>
      <trkpt lat="46.7567" lon="0.43333">
        <ele>193</ele>
        <time>2016-11-20T10:17:53.000Z</time>
      </trkpt>
      <trkpt lat="46.75668" lon="0.43321">
        <ele>193</ele>
        <time>2016-11-20T10:17:55.000Z</time>
      </trkpt>
      <trkpt lat="46.75664" lon="0.43307">
        <ele>193</ele>
        <time>2016-11-20T10:17:57.000Z</time>
      </trkpt>
      <trkpt lat="46.7566" lon="0.43289">
        <ele>193</ele>
        <time>2016-11-20T10:18:00.000Z</time>
      </trkpt>
      <trkpt lat="46.75658" lon="0.4327">
        <ele>194</ele>
        <time>2016-11-20T10:18:03.000Z</time>
      </trkpt>
      <trkpt lat="46.75655" lon="0.43258">
        <ele>193</ele>
        <time>2016-11-20T10:18:05.000Z</time>
      </trkpt>
      <trkpt lat="46.75654" lon="0.43243">
        <ele>193</ele>
        <time>2016-11-20T10:18:07.000Z</time>
      </trkpt>
      <trkpt lat="46.7565" lon="0.43229">
        <ele>194</ele>
        <time>2016-11-20T10:18:09.000Z</time>
      </trkpt>
      <trkpt lat="46.75648" lon="0.4321">
        <ele>193</ele>
        <time>2016-11-20T10:18:11.000Z</time>
      </trkpt>
      <trkpt lat="46.75645" lon="0.43197">
        <ele>194</ele>
        <time>2016-11-20T10:18:13.000Z</time>
      </trkpt>
      <trkpt lat="46.75641" lon="0.43184">
        <ele>194</ele>
        <time>2016-11-20T10:18:15.000Z</time>
      </trkpt>
      <trkpt lat="46.75636" lon="0.4317">
        <ele>194</ele>
        <time>2016-11-20T10:18:17.000Z</time>
      </trkpt>
      <trkpt lat="46.7563" lon="0.43153">
        <ele>195</ele>
        <time>2016-11-20T10:18:20.000Z</time>
      </trkpt>
      <trkpt lat="46.75624" lon="0.43136">
        <ele>194</ele>
        <time>2016-11-20T10:18:23.000Z</time>
      </trkpt>
      <trkpt lat="46.75618" lon="0.43116">
        <ele>193</ele>
        <time>2016-11-20T10:18:26.000Z</time>
      </trkpt>
      <trkpt lat="46.75612" lon="0.431">
        <ele>193</ele>
        <time>2016-11-20T10:18:29.000Z</time>
      </trkpt>
      <trkpt lat="46.75614" lon="0.43087">
        <ele>193</ele>
        <time>2016-11-20T10:18:33.000Z</time>
      </trkpt>
      <trkpt lat="46.75625" lon="0.43089">
        <ele>194</ele>
        <time>2016-11-20T10:18:37.000Z</time>
      </trkpt>
      <trkpt lat="46.75636" lon="0.43094">
        <ele>195</ele>
        <time>2016-11-20T10:18:40.000Z</time>
      </trkpt>
      <trkpt lat="46.75645" lon="0.43095">
        <ele>193</ele>
        <time>2016-11-20T10:18:42.000Z</time>
      </trkpt>
      <trkpt lat="46.75655" lon="0.43098">
        <ele>191</ele>
        <time>2016-11-20T10:18:44.000Z</time>
      </trkpt>
      <trkpt lat="46.75666" lon="0.43102">
        <ele>188</ele>
        <time>2016-11-20T10:18:46.000Z</time>
      </trkpt>
      <trkpt lat="46.75678" lon="0.43103">
        <ele>186</ele>
        <time>2016-11-20T10:18:49.000Z</time>
      </trkpt>
      <trkpt lat="46.75691" lon="0.43105">
        <ele>185</ele>
        <time>2016-11-20T10:18:52.000Z</time>
      </trkpt>
      <trkpt lat="46.75701" lon="0.43105">
        <ele>184</ele>
        <time>2016-11-20T10:18:54.000Z</time>
      </trkpt>
      <trkpt lat="46.7571" lon="0.43108">
        <ele>183</ele>
        <time>2016-11-20T10:18:56.000Z</time>
      </trkpt>
      <trkpt lat="46.75723" lon="0.43108">
        <ele>182</ele>
        <time>2016-11-20T10:18:58.000Z</time>
      </trkpt>
      <trkpt lat="46.75735" lon="0.43106">
        <ele>182</ele>
        <time>2016-11-20T10:19:00.000Z</time>
      </trkpt>
      <trkpt lat="46.75748" lon="0.43104">
        <ele>183</ele>
        <time>2016-11-20T10:19:03.000Z</time>
      </trkpt>
      <trkpt lat="46.75759" lon="0.43102">
        <ele>183</ele>
        <time>2016-11-20T10:19:05.000Z</time>
      </trkpt>
      <trkpt lat="46.75768" lon="0.43098">
        <ele>183</ele>
        <time>2016-11-20T10:19:07.000Z</time>
      </trkpt>
      <trkpt lat="46.75779" lon="0.43097">
        <ele>182</ele>
        <time>2016-11-20T10:19:09.000Z</time>
      </trkpt>
      <trkpt lat="46.75792" lon="0.431">
        <ele>182</ele>
        <time>2016-11-20T10:19:11.000Z</time>
      </trkpt>
      <trkpt lat="46.75807" lon="0.43094">
        <ele>187</ele>
        <time>2016-11-20T10:19:14.000Z</time>
      </trkpt>
      <trkpt lat="46.75817" lon="0.43092">
        <ele>185</ele>
        <time>2016-11-20T10:19:16.000Z</time>
      </trkpt>
      <trkpt lat="46.75828" lon="0.43089">
        <ele>185</ele>
        <time>2016-11-20T10:19:19.000Z</time>
      </trkpt>
      <trkpt lat="46.75837" lon="0.43091">
        <ele>186</ele>
        <time>2016-11-20T10:19:23.000Z</time>
      </trkpt>
      <trkpt lat="46.75834" lon="0.43077">
        <ele>188</ele>
        <time>2016-11-20T10:19:32.000Z</time>
      </trkpt>
      <trkpt lat="46.7583" lon="0.43061">
        <ele>189</ele>
        <time>2016-11-20T10:19:35.000Z</time>
      </trkpt>
      <trkpt lat="46.75833" lon="0.43047">
        <ele>193</ele>
        <time>2016-11-20T10:19:39.000Z</time>
      </trkpt>
      <trkpt lat="46.75834" lon="0.43034">
        <ele>196</ele>
        <time>2016-11-20T10:19:44.000Z</time>
      </trkpt>
      <trkpt lat="46.75839" lon="0.43022">
        <ele>195</ele>
        <time>2016-11-20T10:19:48.000Z</time>
      </trkpt>
      <trkpt lat="46.75845" lon="0.43012">
        <ele>191</ele>
        <time>2016-11-20T10:19:56.000Z</time>
      </trkpt>
      <trkpt lat="46.7584" lon="0.42997">
        <ele>202</ele>
        <time>2016-11-20T10:20:02.000Z</time>
      </trkpt>
      <trkpt lat="46.75836" lon="0.42982">
        <ele>201</ele>
        <time>2016-11-20T10:20:07.000Z</time>
      </trkpt>
      <trkpt lat="46.7583" lon="0.42962">
        <ele>204</ele>
        <time>2016-11-20T10:20:13.000Z</time>
      </trkpt>
      <trkpt lat="46.75835" lon="0.42946">
        <ele>199</ele>
        <time>2016-11-20T10:20:14.000Z</time>
      </trkpt>
      <trkpt lat="46.75837" lon="0.42932">
        <ele>201</ele>
        <time>2016-11-20T10:20:18.000Z</time>
      </trkpt>
      <trkpt lat="46.75839" lon="0.42914">
        <ele>197</ele>
        <time>2016-11-20T10:20:23.000Z</time>
      </trkpt>
      <trkpt lat="46.75847" lon="0.42907">
        <ele>190</ele>
        <time>2016-11-20T10:20:26.000Z</time>
      </trkpt>
      <trkpt lat="46.75852" lon="0.42894">
        <ele>197</ele>
        <time>2016-11-20T10:20:33.000Z</time>
      </trkpt>
      <trkpt lat="46.75849" lon="0.4288">
        <ele>198</ele>
        <time>2016-11-20T10:20:37.000Z</time>
      </trkpt>
      <trkpt lat="46.75842" lon="0.42867">
        <ele>198</ele>
        <time>2016-11-20T10:20:45.000Z</time>
      </trkpt>
      <trkpt lat="46.75845" lon="0.42853">
        <ele>202</ele>
        <time>2016-11-20T10:20:50.000Z</time>
      </trkpt>
      <trkpt lat="46.75851" lon="0.42832">
        <ele>204</ele>
        <time>2016-11-20T10:20:56.000Z</time>
      </trkpt>
      <trkpt lat="46.75855" lon="0.4282">
        <ele>202</ele>
        <time>2016-11-20T10:20:59.000Z</time>
      </trkpt>
      <trkpt lat="46.75862" lon="0.42803">
        <ele>194</ele>
        <time>2016-11-20T10:21:04.000Z</time>
      </trkpt>
      <trkpt lat="46.75864" lon="0.42789">
        <ele>190</ele>
        <time>2016-11-20T10:21:10.000Z</time>
      </trkpt>
      <trkpt lat="46.75866" lon="0.42774">
        <ele>191</ele>
        <time>2016-11-20T10:21:14.000Z</time>
      </trkpt>
      <trkpt lat="46.75872" lon="0.42757">
        <ele>190</ele>
        <time>2016-11-20T10:21:18.000Z</time>
      </trkpt>
      <trkpt lat="46.75882" lon="0.42749">
        <ele>194</ele>
        <time>2016-11-20T10:21:21.000Z</time>
      </trkpt>
      <trkpt lat="46.7589" lon="0.42741">
        <ele>195</ele>
        <time>2016-11-20T10:21:24.000Z</time>
      </trkpt>
      <trkpt lat="46.75899" lon="0.42736">
        <ele>197</ele>
        <time>2016-11-20T10:21:26.000Z</time>
      </trkpt>
      <trkpt lat="46.75908" lon="0.42726">
        <ele>200</ele>
        <time>2016-11-20T10:21:30.000Z</time>
      </trkpt>
      <trkpt lat="46.75916" lon="0.42709">
        <ele>201</ele>
        <time>2016-11-20T10:21:33.000Z</time>
      </trkpt>
      <trkpt lat="46.75927" lon="0.42697">
        <ele>196</ele>
        <time>2016-11-20T10:21:36.000Z</time>
      </trkpt>
      <trkpt lat="46.75934" lon="0.42689">
        <ele>193</ele>
        <time>2016-11-20T10:21:39.000Z</time>
      </trkpt>
      <trkpt lat="46.75943" lon="0.42692">
        <ele>195</ele>
        <time>2016-11-20T10:21:47.000Z</time>
      </trkpt>
      <trkpt lat="46.7595" lon="0.42702">
        <ele>195</ele>
        <time>2016-11-20T10:21:50.000Z</time>
      </trkpt>
      <trkpt lat="46.75956" lon="0.42715">
        <ele>193</ele>
        <time>2016-11-20T10:21:52.000Z</time>
      </trkpt>
      <trkpt lat="46.75966" lon="0.4272">
        <ele>190</ele>
        <time>2016-11-20T10:21:54.000Z</time>
      </trkpt>
      <trkpt lat="46.75977" lon="0.42727">
        <ele>192</ele>
        <time>2016-11-20T10:21:57.000Z</time>
      </trkpt>
      <trkpt lat="46.75984" lon="0.42735">
        <ele>194</ele>
        <time>2016-11-20T10:21:59.000Z</time>
      </trkpt>
      <trkpt lat="46.75991" lon="0.42749">
        <ele>188</ele>
        <time>2016-11-20T10:22:01.000Z</time>
      </trkpt>
      <trkpt lat="46.76004" lon="0.42754">
        <ele>191</ele>
        <time>2016-11-20T10:22:03.000Z</time>
      </trkpt>
      <trkpt lat="46.76011" lon="0.42769">
        <ele>189</ele>
        <time>2016-11-20T10:22:05.000Z</time>
      </trkpt>
      <trkpt lat="46.76019" lon="0.42778">
        <ele>190</ele>
        <time>2016-11-20T10:22:07.000Z</time>
      </trkpt>
      <trkpt lat="46.76027" lon="0.42794">
        <ele>188</ele>
        <time>2016-11-20T10:22:09.000Z</time>
      </trkpt>
      <trkpt lat="46.7603" lon="0.42808">
        <ele>190</ele>
        <time>2016-11-20T10:22:11.000Z</time>
      </trkpt>
      <trkpt lat="46.76038" lon="0.42821">
        <ele>190</ele>
        <time>2016-11-20T10:22:13.000Z</time>
      </trkpt>
      <trkpt lat="46.76046" lon="0.42827">
        <ele>191</ele>
        <time>2016-11-20T10:22:15.000Z</time>
      </trkpt>
      <trkpt lat="46.76062" lon="0.42826">
        <ele>192</ele>
        <time>2016-11-20T10:22:17.000Z</time>
      </trkpt>
      <trkpt lat="46.76065" lon="0.42844">
        <ele>189</ele>
        <time>2016-11-20T10:22:19.000Z</time>
      </trkpt>
      <trkpt lat="46.76074" lon="0.4285">
        <ele>187</ele>
        <time>2016-11-20T10:22:27.000Z</time>
      </trkpt>
      <trkpt lat="46.76084" lon="0.42853">
        <ele>183</ele>
        <time>2016-11-20T10:22:33.000Z</time>
      </trkpt>
      <trkpt lat="46.76093" lon="0.42856">
        <ele>182</ele>
        <time>2016-11-20T10:22:40.000Z</time>
      </trkpt>
      <trkpt lat="46.76103" lon="0.42851">
        <ele>182</ele>
        <time>2016-11-20T10:22:45.000Z</time>
      </trkpt>
      <trkpt lat="46.76111" lon="0.42845">
        <ele>188</ele>
        <time>2016-11-20T10:22:54.000Z</time>
      </trkpt>
      <trkpt lat="46.76121" lon="0.42841">
        <ele>184</ele>
        <time>2016-11-20T10:22:58.000Z</time>
      </trkpt>
      <trkpt lat="46.76129" lon="0.42835">
        <ele>185</ele>
        <time>2016-11-20T10:23:04.000Z</time>
      </trkpt>
      <trkpt lat="46.7614" lon="0.42837">
        <ele>183</ele>
        <time>2016-11-20T10:23:09.000Z</time>
      </trkpt>
      <trkpt lat="46.76139" lon="0.42822">
        <ele>192</ele>
        <time>2016-11-20T10:23:16.000Z</time>
      </trkpt>
      <trkpt lat="46.76146" lon="0.42812">
        <ele>194</ele>
        <time>2016-11-20T10:23:22.000Z</time>
      </trkpt>
      <trkpt lat="46.76151" lon="0.42801">
        <ele>194</ele>
        <time>2016-11-20T10:23:26.000Z</time>
      </trkpt>
      <trkpt lat="46.76159" lon="0.42789">
        <ele>194</ele>
        <time>2016-11-20T10:23:33.000Z</time>
      </trkpt>
      <trkpt lat="46.76165" lon="0.42778">
        <ele>194</ele>
        <time>2016-11-20T10:23:37.000Z</time>
      </trkpt>
      <trkpt lat="46.76172" lon="0.42768">
        <ele>193</ele>
        <time>2016-11-20T10:23:42.000Z</time>
      </trkpt>
      <trkpt lat="46.76175" lon="0.42753">
        <ele>192</ele>
        <time>2016-11-20T10:23:46.000Z</time>
      </trkpt>
      <trkpt lat="46.76179" lon="0.42738">
        <ele>192</ele>
        <time>2016-11-20T10:23:50.000Z</time>
      </trkpt>
      <trkpt lat="46.76185" lon="0.42727">
        <ele>197</ele>
        <time>2016-11-20T10:23:55.000Z</time>
      </trkpt>
      <trkpt lat="46.76196" lon="0.42722">
        <ele>197</ele>
        <time>2016-11-20T10:24:00.000Z</time>
      </trkpt>
      <trkpt lat="46.76208" lon="0.42723">
        <ele>193</ele>
        <time>2016-11-20T10:24:05.000Z</time>
      </trkpt>
      <trkpt lat="46.76223" lon="0.42722">
        <ele>196</ele>
        <time>2016-11-20T10:24:13.000Z</time>
      </trkpt>
      <trkpt lat="46.76241" lon="0.42732">
        <ele>195</ele>
        <time>2016-11-20T10:24:17.000Z</time>
      </trkpt>
      <trkpt lat="46.76252" lon="0.42742">
        <ele>193</ele>
        <time>2016-11-20T10:24:20.000Z</time>
      </trkpt>
      <trkpt lat="46.76264" lon="0.42742">
        <ele>195</ele>
        <time>2016-11-20T10:24:25.000Z</time>
      </trkpt>
      <trkpt lat="46.76265" lon="0.42726">
        <ele>198</ele>
        <time>2016-11-20T10:24:30.000Z</time>
      </trkpt>
      <trkpt lat="46.76275" lon="0.42715">
        <ele>199</ele>
        <time>2016-11-20T10:24:35.000Z</time>
      </trkpt>
      <trkpt lat="46.76284" lon="0.42704">
        <ele>200</ele>
        <time>2016-11-20T10:24:39.000Z</time>
      </trkpt>
      <trkpt lat="46.76299" lon="0.42695">
        <ele>199</ele>
        <time>2016-11-20T10:24:42.000Z</time>
      </trkpt>
      <trkpt lat="46.76305" lon="0.42686">
        <ele>200</ele>
        <time>2016-11-20T10:24:45.000Z</time>
      </trkpt>
      <trkpt lat="46.7631" lon="0.42673">
        <ele>199</ele>
        <time>2016-11-20T10:24:48.000Z</time>
      </trkpt>
      <trkpt lat="46.76316" lon="0.42661">
        <ele>199</ele>
        <time>2016-11-20T10:24:53.000Z</time>
      </trkpt>
      <trkpt lat="46.76324" lon="0.42648">
        <ele>201</ele>
        <time>2016-11-20T10:24:59.000Z</time>
      </trkpt>
      <trkpt lat="46.76333" lon="0.42653">
        <ele>199</ele>
        <time>2016-11-20T10:25:02.000Z</time>
      </trkpt>
      <trkpt lat="46.76342" lon="0.4266">
        <ele>196</ele>
        <time>2016-11-20T10:25:05.000Z</time>
      </trkpt>
      <trkpt lat="46.76351" lon="0.42667">
        <ele>194</ele>
        <time>2016-11-20T10:25:08.000Z</time>
      </trkpt>
      <trkpt lat="46.76365" lon="0.42675">
        <ele>185</ele>
        <time>2016-11-20T10:25:12.000Z</time>
      </trkpt>
      <trkpt lat="46.76378" lon="0.42681">
        <ele>189</ele>
        <time>2016-11-20T10:25:16.000Z</time>
      </trkpt>
      <trkpt lat="46.76392" lon="0.42685">
        <ele>186</ele>
        <time>2016-11-20T10:25:19.000Z</time>
      </trkpt>
      <trkpt lat="46.76411" lon="0.42693">
        <ele>182</ele>
        <time>2016-11-20T10:25:23.000Z</time>
      </trkpt>
      <trkpt lat="46.76421" lon="0.42694">
        <ele>189</ele>
        <time>2016-11-20T10:25:28.000Z</time>
      </trkpt>
      <trkpt lat="46.76431" lon="0.4269">
        <ele>190</ele>
        <time>2016-11-20T10:25:31.000Z</time>
      </trkpt>
      <trkpt lat="46.76444" lon="0.42682">
        <ele>189</ele>
        <time>2016-11-20T10:25:34.000Z</time>
      </trkpt>
      <trkpt lat="46.76453" lon="0.42673">
        <ele>190</ele>
        <time>2016-11-20T10:25:37.000Z</time>
      </trkpt>
      <trkpt lat="46.76467" lon="0.42662">
        <ele>193</ele>
        <time>2016-11-20T10:25:42.000Z</time>
      </trkpt>
      <trkpt lat="46.76478" lon="0.42656">
        <ele>194</ele>
        <time>2016-11-20T10:25:44.000Z</time>
      </trkpt>
      <trkpt lat="46.76493" lon="0.42649">
        <ele>188</ele>
        <time>2016-11-20T10:25:46.000Z</time>
      </trkpt>
      <trkpt lat="46.76502" lon="0.42642">
        <ele>189</ele>
        <time>2016-11-20T10:25:48.000Z</time>
      </trkpt>
      <trkpt lat="46.76512" lon="0.42632">
        <ele>189</ele>
        <time>2016-11-20T10:25:50.000Z</time>
      </trkpt>
      <trkpt lat="46.76522" lon="0.42616">
        <ele>196</ele>
        <time>2016-11-20T10:25:54.000Z</time>
      </trkpt>
      <trkpt lat="46.7653" lon="0.42602">
        <ele>199</ele>
        <time>2016-11-20T10:25:58.000Z</time>
      </trkpt>
      <trkpt lat="46.76544" lon="0.42604">
        <ele>201</ele>
        <time>2016-11-20T10:26:02.000Z</time>
      </trkpt>
      <trkpt lat="46.76556" lon="0.42603">
        <ele>200</ele>
        <time>2016-11-20T10:26:03.000Z</time>
      </trkpt>
      <trkpt lat="46.76567" lon="0.42584">
        <ele>202</ele>
        <time>2016-11-20T10:26:07.000Z</time>
      </trkpt>
      <trkpt lat="46.76577" lon="0.42573">
        <ele>202</ele>
        <time>2016-11-20T10:26:09.000Z</time>
      </trkpt>
      <trkpt lat="46.76597" lon="0.42551">
        <ele>206</ele>
        <time>2016-11-20T10:26:14.000Z</time>
      </trkpt>
      <trkpt lat="46.76608" lon="0.42528">
        <ele>209</ele>
        <time>2016-11-20T10:26:19.000Z</time>
      </trkpt>
      <trkpt lat="46.7662" lon="0.42508">
        <ele>209</ele>
        <time>2016-11-20T10:26:23.000Z</time>
      </trkpt>
      <trkpt lat="46.76633" lon="0.42499">
        <ele>206</ele>
        <time>2016-11-20T10:26:25.000Z</time>
      </trkpt>
      <trkpt lat="46.76653" lon="0.42481">
        <ele>205</ele>
        <time>2016-11-20T10:26:30.000Z</time>
      </trkpt>
      <trkpt lat="46.76681" lon="0.42451">
        <ele>201</ele>
        <time>2016-11-20T10:26:37.000Z</time>
      </trkpt>
      <trkpt lat="46.76697" lon="0.42446">
        <ele>203</ele>
        <time>2016-11-20T10:26:41.000Z</time>
      </trkpt>
      <trkpt lat="46.76707" lon="0.4244">
        <ele>202</ele>
        <time>2016-11-20T10:26:43.000Z</time>
      </trkpt>
      <trkpt lat="46.76715" lon="0.42426">
        <ele>201</ele>
        <time>2016-11-20T10:26:45.000Z</time>
      </trkpt>
      <trkpt lat="46.76725" lon="0.42407">
        <ele>202</ele>
        <time>2016-11-20T10:26:49.000Z</time>
      </trkpt>
      <trkpt lat="46.7674" lon="0.42393">
        <ele>200</ele>
        <time>2016-11-20T10:26:53.000Z</time>
      </trkpt>
      <trkpt lat="46.76754" lon="0.42378">
        <ele>197</ele>
        <time>2016-11-20T10:26:57.000Z</time>
      </trkpt>
      <trkpt lat="46.76763" lon="0.42372">
        <ele>197</ele>
        <time>2016-11-20T10:26:59.000Z</time>
      </trkpt>
      <trkpt lat="46.76772" lon="0.42367">
        <ele>196</ele>
        <time>2016-11-20T10:27:01.000Z</time>
      </trkpt>
      <trkpt lat="46.76781" lon="0.42364">
        <ele>197</ele>
        <time>2016-11-20T10:27:03.000Z</time>
      </trkpt>
      <trkpt lat="46.76796" lon="0.42352">
        <ele>199</ele>
        <time>2016-11-20T10:27:07.000Z</time>
      </trkpt>
      <trkpt lat="46.76804" lon="0.42341">
        <ele>200</ele>
        <time>2016-11-20T10:27:10.000Z</time>
      </trkpt>
      <trkpt lat="46.76816" lon="0.42338">
        <ele>192</ele>
        <time>2016-11-20T10:27:14.000Z</time>
      </trkpt>
      <trkpt lat="46.76826" lon="0.42337">
        <ele>196</ele>
        <time>2016-11-20T10:27:17.000Z</time>
      </trkpt>
      <trkpt lat="46.76835" lon="0.42345">
        <ele>199</ele>
        <time>2016-11-20T10:27:21.000Z</time>
      </trkpt>
      <trkpt lat="46.76842" lon="0.42364">
        <ele>200</ele>
        <time>2016-11-20T10:27:24.000Z</time>
      </trkpt>
      <trkpt lat="46.76853" lon="0.42382">
        <ele>203</ele>
        <time>2016-11-20T10:27:27.000Z</time>
      </trkpt>
      <trkpt lat="46.76859" lon="0.42393">
        <ele>204</ele>
        <time>2016-11-20T10:27:32.000Z</time>
      </trkpt>
      <trkpt lat="46.7687" lon="0.42411">
        <ele>204</ele>
        <time>2016-11-20T10:27:36.000Z</time>
      </trkpt>
      <trkpt lat="46.76881" lon="0.42416">
        <ele>205</ele>
        <time>2016-11-20T10:27:40.000Z</time>
      </trkpt>
      <trkpt lat="46.76894" lon="0.42421">
        <ele>202</ele>
        <time>2016-11-20T10:27:42.000Z</time>
      </trkpt>
      <trkpt lat="46.76907" lon="0.42431">
        <ele>203</ele>
        <time>2016-11-20T10:27:45.000Z</time>
      </trkpt>
      <trkpt lat="46.76918" lon="0.42437">
        <ele>200</ele>
        <time>2016-11-20T10:27:48.000Z</time>
      </trkpt>
      <trkpt lat="46.76922" lon="0.42449">
        <ele>207</ele>
        <time>2016-11-20T10:27:57.000Z</time>
      </trkpt>
      <trkpt lat="46.76915" lon="0.42457">
        <ele>202</ele>
        <time>2016-11-20T10:28:00.000Z</time>
      </trkpt>
      <trkpt lat="46.7691" lon="0.42485">
        <ele>201</ele>
        <time>2016-11-20T10:28:07.000Z</time>
      </trkpt>
      <trkpt lat="46.76901" lon="0.425">
        <ele>201</ele>
        <time>2016-11-20T10:28:12.000Z</time>
      </trkpt>
      <trkpt lat="46.76904" lon="0.42513">
        <ele>202</ele>
        <time>2016-11-20T10:28:21.000Z</time>
      </trkpt>
      <trkpt lat="46.76909" lon="0.42529">
        <ele>207</ele>
        <time>2016-11-20T10:28:26.000Z</time>
      </trkpt>
      <trkpt lat="46.76916" lon="0.42539">
        <ele>212</ele>
        <time>2016-11-20T10:28:29.000Z</time>
      </trkpt>
      <trkpt lat="46.76921" lon="0.42552">
        <ele>204</ele>
        <time>2016-11-20T10:28:33.000Z</time>
      </trkpt>
      <trkpt lat="46.76931" lon="0.42564">
        <ele>199</ele>
        <time>2016-11-20T10:28:38.000Z</time>
      </trkpt>
      <trkpt lat="46.76936" lon="0.42577">
        <ele>198</ele>
        <time>2016-11-20T10:28:42.000Z</time>
      </trkpt>
      <trkpt lat="46.76944" lon="0.42585">
        <ele>198</ele>
        <time>2016-11-20T10:28:44.000Z</time>
      </trkpt>
      <trkpt lat="46.76951" lon="0.42596">
        <ele>202</ele>
        <time>2016-11-20T10:28:48.000Z</time>
      </trkpt>
      <trkpt lat="46.76959" lon="0.42607">
        <ele>202</ele>
        <time>2016-11-20T10:28:51.000Z</time>
      </trkpt>
      <trkpt lat="46.76967" lon="0.42616">
        <ele>203</ele>
        <time>2016-11-20T10:28:56.000Z</time>
      </trkpt>
      <trkpt lat="46.76976" lon="0.42632">
        <ele>203</ele>
        <time>2016-11-20T10:29:00.000Z</time>
      </trkpt>
      <trkpt lat="46.76974" lon="0.42645">
        <ele>201</ele>
        <time>2016-11-20T10:29:05.000Z</time>
      </trkpt>
      <trkpt lat="46.76976" lon="0.42662">
        <ele>200</ele>
        <time>2016-11-20T10:29:11.000Z</time>
      </trkpt>
      <trkpt lat="46.7698" lon="0.42678">
        <ele>196</ele>
        <time>2016-11-20T10:29:16.000Z</time>
      </trkpt>
      <trkpt lat="46.76987" lon="0.42686">
        <ele>197</ele>
        <time>2016-11-20T10:29:19.000Z</time>
      </trkpt>
      <trkpt lat="46.76996" lon="0.42702">
        <ele>196</ele>
        <time>2016-11-20T10:29:24.000Z</time>
      </trkpt>
      <trkpt lat="46.76997" lon="0.42715">
        <ele>195</ele>
        <time>2016-11-20T10:29:27.000Z</time>
      </trkpt>
      <trkpt lat="46.77003" lon="0.42727">
        <ele>195</ele>
        <time>2016-11-20T10:29:31.000Z</time>
      </trkpt>
      <trkpt lat="46.77013" lon="0.42717">
        <ele>195</ele>
        <time>2016-11-20T10:29:37.000Z</time>
      </trkpt>
      <trkpt lat="46.77023" lon="0.42714">
        <ele>195</ele>
        <time>2016-11-20T10:29:41.000Z</time>
      </trkpt>
      <trkpt lat="46.77031" lon="0.42722">
        <ele>201</ele>
        <time>2016-11-20T10:29:47.000Z</time>
      </trkpt>
      <trkpt lat="46.77037" lon="0.42733">
        <ele>204</ele>
        <time>2016-11-20T10:29:53.000Z</time>
      </trkpt>
      <trkpt lat="46.77042" lon="0.42747">
        <ele>203</ele>
        <time>2016-11-20T10:29:56.000Z</time>
      </trkpt>
      <trkpt lat="46.77047" lon="0.42766">
        <ele>203</ele>
        <time>2016-11-20T10:30:00.000Z</time>
      </trkpt>
      <trkpt lat="46.77041" lon="0.42777">
        <ele>200</ele>
        <time>2016-11-20T10:30:07.000Z</time>
      </trkpt>
      <trkpt lat="46.77042" lon="0.42792">
        <ele>204</ele>
        <time>2016-11-20T10:30:21.000Z</time>
      </trkpt>
      <trkpt lat="46.77042" lon="0.42806">
        <ele>200</ele>
        <time>2016-11-20T10:30:25.000Z</time>
      </trkpt>
      <trkpt lat="46.77047" lon="0.42819">
        <ele>202</ele>
        <time>2016-11-20T10:30:29.000Z</time>
      </trkpt>
      <trkpt lat="46.77056" lon="0.42832">
        <ele>203</ele>
        <time>2016-11-20T10:30:38.000Z</time>
      </trkpt>
      <trkpt lat="46.77061" lon="0.42846">
        <ele>204</ele>
        <time>2016-11-20T10:30:41.000Z</time>
      </trkpt>
      <trkpt lat="46.77063" lon="0.42861">
        <ele>204</ele>
        <time>2016-11-20T10:30:46.000Z</time>
      </trkpt>
      <trkpt lat="46.77066" lon="0.42875">
        <ele>201</ele>
        <time>2016-11-20T10:30:50.000Z</time>
      </trkpt>
      <trkpt lat="46.77073" lon="0.42885">
        <ele>199</ele>
        <time>2016-11-20T10:30:57.000Z</time>
      </trkpt>
      <trkpt lat="46.77082" lon="0.42889">
        <ele>199</ele>
        <time>2016-11-20T10:31:00.000Z</time>
      </trkpt>
      <trkpt lat="46.77089" lon="0.42903">
        <ele>196</ele>
        <time>2016-11-20T10:31:04.000Z</time>
      </trkpt>
      <trkpt lat="46.771" lon="0.42915">
        <ele>194</ele>
        <time>2016-11-20T10:31:08.000Z</time>
      </trkpt>
      <trkpt lat="46.77111" lon="0.42923">
        <ele>195</ele>
        <time>2016-11-20T10:31:14.000Z</time>
      </trkpt>
      <trkpt lat="46.77119" lon="0.42942">
        <ele>191</ele>
        <time>2016-11-20T10:31:17.000Z</time>
      </trkpt>
      <trkpt lat="46.77128" lon="0.4295">
        <ele>194</ele>
        <time>2016-11-20T10:31:21.000Z</time>
      </trkpt>
      <trkpt lat="46.77141" lon="0.4295">
        <ele>192</ele>
        <time>2016-11-20T10:31:26.000Z</time>
      </trkpt>
      <trkpt lat="46.77152" lon="0.42951">
        <ele>188</ele>
        <time>2016-11-20T10:31:30.000Z</time>
      </trkpt>
      <trkpt lat="46.77165" lon="0.4295">
        <ele>183</ele>
        <time>2016-11-20T10:31:34.000Z</time>
      </trkpt>
      <trkpt lat="46.77174" lon="0.42945">
        <ele>180</ele>
        <time>2016-11-20T10:31:40.000Z</time>
      </trkpt>
      <trkpt lat="46.77184" lon="0.42942">
        <ele>178</ele>
        <time>2016-11-20T10:31:44.000Z</time>
      </trkpt>
      <trkpt lat="46.77186" lon="0.42926">
        <ele>175</ele>
        <time>2016-11-20T10:31:49.000Z</time>
      </trkpt>
      <trkpt lat="46.77183" lon="0.42911">
        <ele>175</ele>
        <time>2016-11-20T10:31:52.000Z</time>
      </trkpt>
      <trkpt lat="46.77181" lon="0.42897">
        <ele>173</ele>
        <time>2016-11-20T10:31:57.000Z</time>
      </trkpt>
      <trkpt lat="46.7719" lon="0.4289">
        <ele>170</ele>
        <time>2016-11-20T10:32:04.000Z</time>
      </trkpt>
      <trkpt lat="46.77203" lon="0.42884">
        <ele>166</ele>
        <time>2016-11-20T10:32:07.000Z</time>
      </trkpt>
      <trkpt lat="46.77213" lon="0.42881">
        <ele>164</ele>
        <time>2016-11-20T10:32:09.000Z</time>
      </trkpt>
      <trkpt lat="46.77222" lon="0.42875">
        <ele>162</ele>
        <time>2016-11-20T10:32:11.000Z</time>
      </trkpt>
      <trkpt lat="46.77235" lon="0.42869">
        <ele>159</ele>
        <time>2016-11-20T10:32:13.000Z</time>
      </trkpt>
      <trkpt lat="46.77248" lon="0.42859">
        <ele>159</ele>
        <time>2016-11-20T10:32:15.000Z</time>
      </trkpt>
      <trkpt lat="46.77256" lon="0.42855">
        <ele>159</ele>
        <time>2016-11-20T10:32:17.000Z</time>
      </trkpt>
      <trkpt lat="46.77264" lon="0.42843">
        <ele>159</ele>
        <time>2016-11-20T10:32:20.000Z</time>
      </trkpt>
      <trkpt lat="46.77268" lon="0.4283">
        <ele>156</ele>
        <time>2016-11-20T10:32:23.000Z</time>
      </trkpt>
      <trkpt lat="46.77261" lon="0.42818">
        <ele>155</ele>
        <time>2016-11-20T10:32:27.000Z</time>
      </trkpt>
      <trkpt lat="46.77265" lon="0.42804">
        <ele>156</ele>
        <time>2016-11-20T10:32:33.000Z</time>
      </trkpt>
      <trkpt lat="46.7727" lon="0.42793">
        <ele>153</ele>
        <time>2016-11-20T10:32:38.000Z</time>
      </trkpt>
      <trkpt lat="46.77271" lon="0.4278">
        <ele>144</ele>
        <time>2016-11-20T10:33:00.000Z</time>
      </trkpt>
      <trkpt lat="46.77279" lon="0.42771">
        <ele>144</ele>
        <time>2016-11-20T10:47:24.000Z</time>
      </trkpt>
      <trkpt lat="46.77284" lon="0.42783">
        <ele>148</ele>
        <time>2016-11-20T10:49:04.000Z</time>
      </trkpt>
      <trkpt lat="46.77293" lon="0.42791">
        <ele>150</ele>
        <time>2016-11-20T10:49:12.000Z</time>
      </trkpt>
      <trkpt lat="46.77283" lon="0.42788">
        <ele>150</ele>
        <time>2016-11-20T10:49:25.000Z</time>
      </trkpt>
      <trkpt lat="46.77274" lon="0.42792">
        <ele>150</ele>
        <time>2016-11-20T10:49:34.000Z</time>
      </trkpt>
      <trkpt lat="46.77262" lon="0.42793">
        <ele>151</ele>
        <time>2016-11-20T10:49:43.000Z</time>
      </trkpt>
      <trkpt lat="46.77255" lon="0.42781">
        <ele>148</ele>
        <time>2016-11-20T10:49:48.000Z</time>
      </trkpt>
      <trkpt lat="46.77252" lon="0.42768">
        <ele>152</ele>
        <time>2016-11-20T10:49:52.000Z</time>
      </trkpt>
      <trkpt lat="46.77247" lon="0.42752">
        <ele>152</ele>
        <time>2016-11-20T10:49:56.000Z</time>
      </trkpt>
      <trkpt lat="46.77245" lon="0.42737">
        <ele>154</ele>
        <time>2016-11-20T10:49:59.000Z</time>
      </trkpt>
      <trkpt lat="46.7724" lon="0.42721">
        <ele>153</ele>
        <time>2016-11-20T10:50:02.000Z</time>
      </trkpt>
      <trkpt lat="46.77237" lon="0.42705">
        <ele>154</ele>
        <time>2016-11-20T10:50:05.000Z</time>
      </trkpt>
      <trkpt lat="46.77232" lon="0.42692">
        <ele>152</ele>
        <time>2016-11-20T10:50:08.000Z</time>
      </trkpt>
      <trkpt lat="46.77227" lon="0.42675">
        <ele>151</ele>
        <time>2016-11-20T10:50:12.000Z</time>
      </trkpt>
      <trkpt lat="46.77225" lon="0.42656">
        <ele>153</ele>
        <time>2016-11-20T10:50:17.000Z</time>
      </trkpt>
      <trkpt lat="46.77219" lon="0.42644">
        <ele>152</ele>
        <time>2016-11-20T10:50:21.000Z</time>
      </trkpt>
      <trkpt lat="46.77212" lon="0.42633">
        <ele>152</ele>
        <time>2016-11-20T10:50:25.000Z</time>
      </trkpt>
      <trkpt lat="46.77208" lon="0.42617">
        <ele>150</ele>
        <time>2016-11-20T10:50:29.000Z</time>
      </trkpt>
      <trkpt lat="46.77201" lon="0.42604">
        <ele>150</ele>
        <time>2016-11-20T10:50:34.000Z</time>
      </trkpt>
      <trkpt lat="46.77192" lon="0.42597">
        <ele>152</ele>
        <time>2016-11-20T10:50:40.000Z</time>
      </trkpt>
      <trkpt lat="46.772" lon="0.42605">
        <ele>151</ele>
        <time>2016-11-20T10:50:56.000Z</time>
      </trkpt>
      <trkpt lat="46.77203" lon="0.42592">
        <ele>151</ele>
        <time>2016-11-20T10:51:14.000Z</time>
      </trkpt>
      <trkpt lat="46.77208" lon="0.4258">
        <ele>148</ele>
        <time>2016-11-20T10:51:20.000Z</time>
      </trkpt>
      <trkpt lat="46.77203" lon="0.42566">
        <ele>147</ele>
        <time>2016-11-20T10:51:24.000Z</time>
      </trkpt>
      <trkpt lat="46.772" lon="0.42552">
        <ele>148</ele>
        <time>2016-11-20T10:51:27.000Z</time>
      </trkpt>
      <trkpt lat="46.77198" lon="0.42538">
        <ele>149</ele>
        <time>2016-11-20T10:51:30.000Z</time>
      </trkpt>
      <trkpt lat="46.77195" lon="0.42522">
        <ele>147</ele>
        <time>2016-11-20T10:51:34.000Z</time>
      </trkpt>
      <trkpt lat="46.772" lon="0.42505">
        <ele>145</ele>
        <time>2016-11-20T10:51:37.000Z</time>
      </trkpt>
      <trkpt lat="46.77202" lon="0.42491">
        <ele>144</ele>
        <time>2016-11-20T10:51:41.000Z</time>
      </trkpt>
    </trkseg>
  </trk>
</gpx>